# Wetter Temperatur Luftdruck Luftfeuchtigkeit Sichtweite Windgeschwindigkeit Windrichtung Zeit
1 Snow -2 996 80 10000 4.12 30 15:23 01.02.2023
2 Snow -2 995 100 10000 8.23 50 13:20 01.02.2023
3 Snow -2 994 93 1500 7.72 60 12:59 01.02.2023
4 Snow -1 993 86 10000 8.23 70 11:56 01.02.2023
5 Snow -1 991 86 10000 7.72 70 08:56 01.02.2023
6 Snow -1 987 93 10000 6.17 60 03:18 01.02.2023
7 Snow -1 982 86 10000 1.54 0 21:44 31.01.2023
8 Snow -3 982 93 10000 0.51 0 19:57 31.01.2023
9 Snow -1 982 93 10000 1.54 20 18:50 31.01.2023
10 Snow 0 981 93 10000 5.66 50 16:20 31.01.2023
11 Snow 1 981 80 10000 8.23 50 15:36 31.01.2023
12 Snow 1 980 80 10000 8.75 50 15:18 31.01.2023
13 Snow 0 980 93 10000 6.69 10 12:24 31.01.2023
14 Snow 0 981 86 5000 4.63 20 11:21 31.01.2023
15 Snow -1 981 86 10000 3.09 10 09:54 31.01.2023
16 Snow 0 980 86 10000 5.66 30 08:59 31.01.2023
17 Snow -1 980 93 10000 5.14 30 08:35 31.01.2023
18 Snow -1 980 86 10000 2.57 40 05:46 31.01.2023
19 Snow 0 982 100 10000 2.57 340 23:58 30.01.2023
20 Snow 0 982 93 2500 5.14 20 22:54 30.01.2023
21 Snow 0 982 93 10000 3.09 30 22:32 30.01.2023
22 Snow 0 981 93 1000 1.03 0 21:23 30.01.2023
23 Snow 0 981 100 10000 4.12 220 20:35 30.01.2023
24 Snow -2 981 100 1800 1.03 0 17:54 30.01.2023
25 Snow -2 981 93 4000 0 0 16:48 30.01.2023
26 Clouds -5 979 80 10000 0 0 14:28 30.01.2023
27 Clouds -4 979 86 10000 1.54 0 12:45 30.01.2023
28 Clear -2 978 80 10000 0.51 0 11:28 30.01.2023
29 Clouds -3 977 80 10000 1.54 40 09:54 30.01.2023
30 Clouds -3 976 80 10000 2.06 20 08:57 30.01.2023
31 Clouds -4 975 86 10000 1.54 0 07:36 30.01.2023
32 Snow -1 974 86 10000 1.03 0 01:42 30.01.2023
33 Snow 0 974 86 10000 3.09 250 23:35 29.01.2023
34 Snow 0 974 86 10000 4.12 250 22:37 29.01.2023
35 Snow 0 974 93 10000 3.6 240 21:41 29.01.2023
36 Snow 0 974 80 10000 3.09 290 20:50 29.01.2023
37 Snow 0 974 86 10000 2.06 290 19:50 29.01.2023
38 Snow 0 974 86 10000 2.57 340 19:27 29.01.2023
39 Snow 0 974 100 6000 9.77 240 17:50 29.01.2023
40 Snow 1 974 75 8000 13.89 240 16:21 29.01.2023
41 Snow 1 975 69 6000 12.35 240 15:29 29.01.2023
42 Snow -1 976 100 6000 12.35 240 13:34 29.01.2023
43 Snow 0 976 86 1400 12.86 240 12:52 29.01.2023
44 Snow 1 976 75 5000 14.4 240 12:24 29.01.2023
45 Snow 1 976 80 7000 11.32 240 11:58 29.01.2023
46 Snow 1 976 75 5000 12.35 240 11:28 29.01.2023
47 Snow 1 976 75 10000 10.29 260 10:19 29.01.2023
48 Snow 0 977 93 7000 10.29 250 07:20 29.01.2023
49 Snow 1 978 86 10000 8.75 270 03:42 29.01.2023
50 Snow 0 978 74 10000 5.66 200 23:46 28.01.2023
51 Clouds 0 981 86 10000 5.14 240 20:45 28.01.2023
52 Clouds 1 981 75 10000 5.14 230 19:53 28.01.2023
53 Clouds 1 982 80 10000 7.2 240 18:39 28.01.2023
54 Clouds 2 982 69 10000 8.75 240 17:24 28.01.2023
55 Clouds 2 982 69 10000 7.2 250 16:28 28.01.2023
56 Clouds 2 982 69 10000 4.12 210 15:59 28.01.2023
57 Clouds 2 982 69 10000 4.12 220 15:22 28.01.2023
58 Clouds 2 983 69 10000 7.2 240 13:47 28.01.2023
59 Snow 1 984 80 10000 2.57 230 11:55 28.01.2023
60 Snow 0 985 93 10000 10.8 250 10:35 28.01.2023
61 Rain 2 984 75 10000 4.12 220 09:21 28.01.2023
62 Rain 4 988 75 10000 10.8 240 01:51 28.01.2023
63 Rain 3 988 93 10000 3.09 220 00:27 28.01.2023
64 Rain 4 988 75 10000 6.17 220 22:46 27.01.2023
65 Clouds 2 990 87 10000 5.66 210 19:47 27.01.2023
66 Snow 2 992 80 10000 7.72 210 17:58 27.01.2023
67 Snow 2 992 80 10000 8.75 210 17:20 27.01.2023
68 Rain 2 993 80 10000 7.72 210 16:41 27.01.2023
69 Snow 1 995 86 10000 8.23 210 15:25 27.01.2023
70 Snow 1 997 86 4000 6.17 200 14:26 27.01.2023
71 Rain 2 998 80 10000 5.14 210 13:33 27.01.2023
72 Rain 2 1002 93 10000 7.2 240 09:37 27.01.2023
73 Snow 1 1003 93 7000 6.69 270 06:51 27.01.2023
74 Snow 1 1006 75 10000 5.14 270 00:28 27.01.2023
75 Snow -1 1008 86 1500 7.72 240 22:20 26.01.2023
76 Snow 0 1008 80 3000 8.23 260 20:56 26.01.2023
77 Snow -1 1008 80 10000 6.69 270 19:59 26.01.2023
78 Snow -2 1008 86 10000 8.23 270 18:19 26.01.2023
79 Snow -2 1008 86 10000 9.26 280 16:54 26.01.2023
80 Snow -1 1008 80 10000 7.2 270 16:21 26.01.2023
81 Snow -1 1007 80 10000 4.12 0 15:43 26.01.2023
82 Snow -1 1007 74 10000 7.2 270 15:24 26.01.2023
83 Snow -1 1007 86 10000 8.23 270 13:54 26.01.2023
84 Snow -2 1008 80 1813 13.95 308 12:31 26.01.2023
85 Snow -1 1005 80 10000 5.66 270 10:56 26.01.2023
86 Snow -1 1004 86 10000 7.72 270 10:26 26.01.2023
87 Snow -2 1004 93 10000 3.09 0 09:42 26.01.2023
88 Snow 0 1003 74 10000 6.69 270 08:25 26.01.2023
89 Snow 1 998 69 8000 2.57 0 23:55 25.01.2023
90 Snow 0 997 86 10000 0.51 0 23:36 25.01.2023
91 Snow 1 996 69 10000 6.69 350 21:53 25.01.2023
92 Snow 0 995 86 10000 4.12 360 21:20 25.01.2023
93 Snow 0 991 86 10000 8.23 270 18:31 25.01.2023
94 Snow 0 991 86 800 4.63 0 17:22 25.01.2023
95 Snow 0 990 80 10000 7.2 280 15:37 25.01.2023
96 Snow 0 989 64 10000 4.63 260 12:48 25.01.2023
97 Snow -1 988 100 3000 5.66 340 09:56 25.01.2023
98 Snow 0 988 100 400 3.09 320 09:30 25.01.2023
99 Snow 1 988 93 4000 4.12 280 06:54 25.01.2023
100 Snow 1 993 86 6000 9.26 240 01:24 25.01.2023
101 Rain 2 996 80 10000 12.86 240 22:49 24.01.2023
102 Rain 2 997 80 10000 12.35 240 21:30 24.01.2023
103 Rain 3 998 65 10000 10.29 240 19:53 24.01.2023
104 Clouds 2 1000 64 10000 12.86 240 18:32 24.01.2023
105 Snow 2 1001 64 10000 12.86 240 17:20 24.01.2023
106 Snow 0 1002 93 1500 16.98 240 16:52 24.01.2023
107 Snow 0 1002 93 1500 16.98 240 16:52 24.01.2023
108 Snow 1 1001 80 10000 16.46 240 15:21 24.01.2023
109 Snow 1 1001 75 10000 15.95 240 12:56 24.01.2023
110 Snow 1 1001 75 10000 12.35 250 11:20 24.01.2023
111 Snow 1 1001 75 10000 12.35 250 11:20 24.01.2023
112 Clouds 1 1001 75 3500 12.35 240 08:22 24.01.2023
113 Snow 1 1001 80 10000 12.35 240 07:51 24.01.2023
114 Snow 0 1000 93 5000 12.86 250 05:31 24.01.2023
115 Snow -1 1000 100 500 14.4 240 01:37 24.01.2023
116 Snow -1 1000 100 7000 14.4 240 23:58 23.01.2023
117 Snow 0 1000 100 500 11.32 250 22:27 23.01.2023
118 Snow 0 1001 93 500 12.86 240 19:53 23.01.2023
119 Snow 2 1001 69 1500 13.89 250 18:26 23.01.2023
120 Rain 3 1000 56 10000 15.43 240 16:19 23.01.2023
121 Clouds 2 1001 75 5000 20.06 240 14:45 23.01.2023
122 Snow 1 1001 93 400 10.29 250 13:44 23.01.2023
123 Snow 1 1001 93 400 10.29 250 13:44 23.01.2023
124 Rain 4 999 60 10000 9.26 220 12:54 23.01.2023
125 Rain 3 1000 65 10000 7.2 210 11:45 23.01.2023
126 Clouds 3 1004 60 4551 4.12 200 08:59 23.01.2023
127 Clear 3 1004 60 10000 4.63 200 08:22 23.01.2023
128 Clear 6 1009 65 10000 2.57 240 23:37 22.01.2023
129 Clear 7 1011 65 10000 2.06 0 21:49 22.01.2023
130 Clear 7 1012 61 10000 3.09 240 20:58 22.01.2023
131 Clear 7 1013 61 10000 2.06 0 19:53 22.01.2023
132 Clear 7 1013 61 10000 4.12 210 19:20 22.01.2023
133 Clouds 6 1014 65 10000 5.66 220 18:23 22.01.2023
134 Clouds 6 1014 65 10000 4.63 210 17:55 22.01.2023
135 Clouds 6 1014 65 10000 3.6 230 17:23 22.01.2023
136 Clouds 5 1016 70 10000 5.14 230 14:59 22.01.2023
137 Clouds 6 1016 70 10000 7.2 220 13:51 22.01.2023
138 Clouds 7 1016 65 10000 7.2 210 13:26 22.01.2023
139 Clouds 6 1015 75 10000 9.26 230 12:28 22.01.2023
140 Clouds 6 1015 70 10000 10.29 240 10:40 22.01.2023
141 Clouds 7 1015 70 10000 6.69 210 09:34 22.01.2023
142 Rain 1 1013 86 8000 6.17 210 02:58 22.01.2023
143 Rain 3 1015 52 10000 4.63 210 23:43 21.01.2023
144 Clouds 2 1016 55 10000 4.63 240 22:48 21.01.2023
145 Clouds 0 1017 64 10000 4.63 220 21:28 21.01.2023
146 Clouds 1 1020 69 10000 3.09 210 18:52 21.01.2023
147 Clouds 0 1020 93 10000 3.6 240 15:37 21.01.2023
148 Snow 1 1020 80 10000 6.17 240 13:50 21.01.2023
149 Snow 1 1020 86 10000 4.63 250 12:56 21.01.2023
150 Snow 1 1019 80 10000 5.14 240 11:39 21.01.2023
151 Clouds 1 1019 86 10000 6.69 230 10:48 21.01.2023
152 Snow 1 1016 100 10000 4.12 230 08:31 21.01.2023
153 Snow 1 1013 86 10000 7.2 260 04:29 21.01.2023
154 Snow 1 1008 86 2000 8.75 250 22:28 20.01.2023
155 Rain 2 1007 69 10000 10.29 240 21:37 20.01.2023
156 Clouds 2 1006 69 10000 11.83 240 20:42 20.01.2023
157 Clouds 3 1005 60 10000 11.32 240 18:36 20.01.2023
158 Rain 3 1004 82 10000 11.33 270 16:21 20.01.2023
159 Snow 1 1000 93 10000 9.77 240 14:45 20.01.2023
160 Clouds 2 998 80 10000 8.75 230 12:50 20.01.2023
161 Clouds 0 996 69 10000 2.06 250 09:48 20.01.2023
162 Clouds 0 994 69 10000 3.6 240 08:22 20.01.2023
163 Clouds 0 994 64 10000 3.6 250 03:33 20.01.2023
164 Clouds -1 993 69 10000 3.09 280 02:28 20.01.2023
165 Clear -4 993 74 10000 1.03 0 22:32 19.01.2023
166 Clear -3 993 74 10000 1.03 0 20:22 19.01.2023
167 Clear -3 992 74 10000 0 0 19:20 19.01.2023
168 Clouds 0 992 69 10000 5.66 200 15:39 19.01.2023
169 Clouds 0 992 74 10000 6.69 210 10:53 19.01.2023
170 Clouds -1 991 74 10000 7.72 210 08:59 19.01.2023
171 Snow -4 994 74 10000 6.17 100 23:52 18.01.2023
172 Clouds -4 996 74 10000 6.69 140 20:56 18.01.2023
173 Clouds -4 997 74 10000 4.63 140 20:19 18.01.2023
174 Clouds -4 997 74 10000 4.63 140 20:19 18.01.2023
175 Clouds -3 997 68 10000 5.14 220 19:37 18.01.2023
176 Clouds -3 998 74 10000 2.06 0 17:35 18.01.2023
177 Clear -4 999 63 10000 3.09 180 15:24 18.01.2023
178 Clear -1 1000 55 10000 2.06 130 13:29 18.01.2023
179 Clear -1 1000 64 10000 1.54 290 11:20 18.01.2023
180 Clear 1 999 55 10000 5.66 200 08:44 18.01.2023
181 Clouds -2 999 80 10000 1.03 0 01:28 18.01.2023
182 Clouds 1 998 75 10000 0 0 23:46 17.01.2023
183 Clouds 2 995 87 10000 3.09 240 20:37 17.01.2023
184 Clouds 1 994 93 10000 2.06 220 19:34 17.01.2023
185 Clouds 1 994 93 10000 2.06 220 19:34 17.01.2023
186 Clouds 2 993 87 10000 5.66 230 18:28 17.01.2023
187 Rain 2 991 80 10000 4.12 220 16:33 17.01.2023
188 Clouds 2 990 87 10000 3.6 260 14:57 17.01.2023
189 Clouds 2 989 80 10000 4.63 250 14:20 17.01.2023
190 Snow 1 986 86 10000 4.63 260 12:48 17.01.2023
191 Snow 1 986 86 10000 5.14 260 11:42 17.01.2023
192 Snow 1 984 80 10000 6.17 240 09:34 17.01.2023
193 Clouds 0 982 100 10000 5.14 240 08:20 17.01.2023
194 Snow 0 979 100 2600 6.69 240 05:51 17.01.2023
195 Snow 0 976 93 6000 1.54 0 00:57 17.01.2023
196 Snow 0 976 86 10000 1.54 90 23:40 16.01.2023
197 Snow 1 975 80 10000 1.54 0 21:55 16.01.2023
198 Snow 0 975 86 10000 1.54 0 20:46 16.01.2023
199 Clouds 0 975 86 10000 2.06 220 19:40 16.01.2023
200 Clouds 0 975 86 10000 2.57 230 18:54 16.01.2023
201 Clouds 1 974 75 10000 2.57 210 18:21 16.01.2023
202 Clouds 0 974 80 10000 1.54 0 17:35 16.01.2023
203 Clouds 0 974 74 10000 2.06 180 15:33 16.01.2023
204 Clouds -1 974 74 10000 1.54 0 13:39 16.01.2023
205 Clouds -2 975 80 10000 2.06 130 11:57 16.01.2023
206 Clouds -3 975 80 10000 1.03 0 10:20 16.01.2023
207 Clear -3 983 68 10000 1.54 0 23:38 15.01.2023
208 Clear -4 985 63 10000 2.06 80 22:27 15.01.2023
209 Clear -4 986 54 10000 5.66 170 20:41 15.01.2023
210 Clear -4 986 54 10000 3.6 0 19:59 15.01.2023
211 Clear -4 988 50 10000 5.66 130 17:55 15.01.2023
212 Clear -3 989 50 10000 3.09 180 16:22 15.01.2023
213 Clear -5 991 68 10000 2.57 40 12:39 15.01.2023
214 Clear -5 991 74 10000 0.51 0 11:36 15.01.2023
215 Clouds -5 991 74 10000 0 0 10:30 15.01.2023
216 Clouds -5 991 74 10000 0.51 0 09:36 15.01.2023
217 Clouds -1 990 64 10000 6.17 210 01:51 15.01.2023
218 Clouds -1 989 64 10000 6.69 210 23:20 14.01.2023
219 Snow -2 989 64 10000 6.17 210 22:26 14.01.2023
220 Snow -2 989 64 10000 6.69 210 21:36 14.01.2023
221 Clouds -2 989 64 10000 6.69 210 21:18 14.01.2023
222 Snow -2 990 69 10000 5.66 210 20:39 14.01.2023
223 Clouds -2 990 74 10000 4.12 210 18:47 14.01.2023
224 Clouds -1 990 69 10000 3.6 210 17:35 14.01.2023
225 Snow 0 990 74 10000 4.12 210 15:29 14.01.2023
226 Snow -1 990 86 10000 1.54 250 14:26 14.01.2023
227 Snow -1 990 93 10000 1.54 240 13:43 14.01.2023
228 Clouds -1 990 80 10000 2.57 240 11:51 14.01.2023
229 Clouds -1 990 74 10000 2.06 260 10:47 14.01.2023
230 Clouds 0 989 69 10000 2.06 230 08:19 14.01.2023
231 Snow 1 989 100 10000 8.23 240 23:39 13.01.2023
232 Clouds 2 988 93 10000 10.29 230 22:53 13.01.2023
233 Clouds 2 988 93 10000 10.29 230 22:34 13.01.2023
234 Clouds 2 987 93 10000 6.69 240 21:46 13.01.2023
235 Rain 2 986 93 10000 9.77 230 19:49 13.01.2023
236 Snow 1 985 100 10000 8.23 230 18:23 13.01.2023
237 Clouds 2 984 93 10000 7.2 230 16:57 13.01.2023
238 Snow 1 983 100 10000 7.2 230 14:22 13.01.2023
239 Snow 1 982 100 10000 6.17 230 12:21 13.01.2023
240 Snow 1 980 100 10000 3.09 230 10:28 13.01.2023
241 Snow 1 980 100 10000 4.12 250 09:47 13.01.2023
242 Clouds 2 979 87 10000 5.66 250 08:56 13.01.2023
243 Snow 1 979 100 10000 2.57 250 08:28 13.01.2023
244 Snow 1 979 93 10000 4.63 240 06:54 13.01.2023
245 Snow 1 979 93 10000 4.12 260 05:44 13.01.2023
246 Clouds 1 977 75 10000 2.06 260 00:45 13.01.2023
247 Clouds 0 977 80 10000 2.06 230 22:45 12.01.2023
248 Clouds 1 977 80 10000 2.57 260 20:56 12.01.2023
249 Clouds 0 977 86 10000 3.6 230 19:57 12.01.2023
250 Snow 0 977 86 10000 2.06 230 17:56 12.01.2023
251 Snow 0 977 86 10000 2.57 230 16:48 12.01.2023
252 Snow 0 977 93 10000 2.06 220 14:49 12.01.2023
253 Snow -1 977 93 10000 1.54 0 14:24 12.01.2023
254 Snow -1 977 93 10000 1.54 200 13:29 12.01.2023
255 Snow -1 978 74 10000 2.06 190 10:54 12.01.2023
256 Clouds -1 978 74 10000 3.6 210 09:40 12.01.2023
257 Clouds -2 980 74 10000 2.06 120 05:59 12.01.2023
258 Clear -2 984 74 10000 4.12 220 00:30 12.01.2023
259 Clear -2 984 74 10000 5.66 210 23:48 11.01.2023
260 Clear -1 985 69 10000 7.72 210 23:30 11.01.2023
261 Clear -1 985 69 10000 7.72 190 22:47 11.01.2023
262 Clear -2 986 74 10000 8.75 200 20:59 11.01.2023
263 Clear -2 988 69 10000 3.09 0 18:50 11.01.2023
264 Clear -2 989 64 10000 3.6 210 17:30 11.01.2023
265 Clear -4 990 74 10000 3.09 210 15:31 11.01.2023
266 Clear -4 991 68 10000 4.63 230 13:53 11.01.2023
267 Clear -5 992 74 10000 2.06 230 12:25 11.01.2023
268 Clear -6 992 79 10000 0 0 10:53 11.01.2023
269 Clear -4 992 74 10000 0 0 08:31 11.01.2023
270 Clear -3 993 74 10000 2.57 240 07:27 11.01.2023
271 Clouds -2 993 74 10000 2.06 250 05:55 11.01.2023
272 Clear -2 996 74 10000 4.63 210 22:54 10.01.2023
273 Clear -2 996 74 10000 4.12 200 22:18 10.01.2023
274 Clear -3 997 74 10000 2.06 230 20:56 10.01.2023
275 Clear -3 997 74 10000 1.54 0 19:53 10.01.2023
276 Clear -2 998 69 10000 2.57 270 18:50 10.01.2023
277 Clear -3 998 74 10000 3.6 240 18:27 10.01.2023
278 Clear -4 999 74 10000 1.54 0 16:59 10.01.2023
279 Clear -4 1000 74 10000 1.03 0 15:33 10.01.2023
280 Clear -4 1000 74 10000 2.06 260 14:35 10.01.2023
281 Clear -2 1000 69 10000 3.6 240 12:47 10.01.2023
282 Clouds -4 1001 74 10000 2.06 260 09:43 10.01.2023
283 Clouds -4 1001 74 10000 2.06 260 09:43 10.01.2023
284 Clear -3 1001 68 10000 4.12 230 08:37 10.01.2023
285 Clear -4 1000 74 10000 2.57 250 07:55 10.01.2023
286 Clouds -4 1000 74 10000 1.54 240 05:33 10.01.2023
287 Clear -5 1000 74 10000 0 0 00:29 10.01.2023
288 Clear -4 999 74 10000 4.12 210 21:58 09.01.2023
289 Clear -5 999 74 10000 5.14 210 20:50 09.01.2023
290 Clear -5 999 74 10000 5.14 200 19:54 09.01.2023
291 Clear -3 999 63 10000 6.17 210 18:30 09.01.2023
292 Clear -3 999 68 10000 5.66 200 17:49 09.01.2023
293 Clear -4 999 74 10000 6.69 200 16:34 09.01.2023
294 Clear -5 999 74 10000 5.14 200 15:36 09.01.2023
295 Clear -4 999 68 10000 6.17 200 14:59 09.01.2023
296 Clear -4 999 68 10000 6.17 200 14:41 09.01.2023
297 Clear -4 1000 68 10000 6.17 190 12:54 09.01.2023
298 Clear -4 1000 68 10000 5.66 190 11:52 09.01.2023
299 Clear -5 1000 74 10000 6.69 210 11:19 09.01.2023
300 Clouds -6 999 73 10000 9.26 200 06:58 09.01.2023
301 Clouds -6 1000 73 10000 8.23 190 02:55 09.01.2023
302 Clouds -7 999 79 5000 13.38 200 00:59 09.01.2023
303 Clouds -8 1000 93 2000 11.32 200 22:19 08.01.2023
304 Snow -7 1001 73 10000 13.38 200 21:22 08.01.2023
305 Clouds -8 1001 73 10000 11.83 200 20:36 08.01.2023
306 Clouds -9 1003 79 10000 11.32 210 18:51 08.01.2023
307 Clouds -9 1005 79 10000 8.23 200 17:22 08.01.2023
308 Clouds -9 1006 73 10000 9.26 190 16:43 08.01.2023
309 Clouds -9 1008 73 10000 6.17 200 15:36 08.01.2023
310 Clouds -8 1008 73 6000 8.75 180 13:58 08.01.2023
311 Clouds -8 1009 73 10000 7.72 170 13:30 08.01.2023
312 Clouds -8 1009 73 10000 9.26 190 12:49 08.01.2023
313 Clouds -8 1011 73 10000 6.69 180 10:37 08.01.2023
314 Clouds -8 1012 67 10000 7.72 150 09:36 08.01.2023
315 Clouds -10 1014 73 10000 7.2 150 07:48 08.01.2023
316 Clouds -11 1020 73 10000 6.17 180 00:24 08.01.2023
317 Clouds -11 1019 67 10000 7.72 190 22:48 07.01.2023
318 Clouds -11 1020 67 10000 6.17 140 22:24 07.01.2023
319 Clouds -12 1020 72 10000 5.14 0 21:48 07.01.2023
320 Clouds -11 1020 67 10000 4.12 0 20:46 07.01.2023
321 Clouds -11 1020 67 10000 6.17 170 20:22 07.01.2023
322 Clear -11 1020 73 10000 4.63 170 18:45 07.01.2023
323 Clear -10 1020 67 10000 6.17 140 17:51 07.01.2023
324 Clear -10 1020 67 10000 6.17 130 17:28 07.01.2023
325 Clear -10 1020 67 10000 6.17 170 16:37 07.01.2023
326 Clear -10 1020 67 10000 5.66 150 15:49 07.01.2023
327 Clear -11 1020 67 10000 6.17 120 15:27 07.01.2023
328 Clear -9 1020 53 10000 4.12 0 14:28 07.01.2023
329 Clear -8 1020 49 10000 5.66 200 13:54 07.01.2023
330 Clear -10 1020 57 10000 4.12 150 13:24 07.01.2023
331 Clear -8 1020 53 10000 4.12 140 12:23 07.01.2023
332 Clear -8 1020 62 10000 3.09 0 11:50 07.01.2023
333 Clear -7 1020 73 10000 3.6 130 10:25 07.01.2023
334 Clear -6 1019 79 10000 3.6 120 08:27 07.01.2023
335 Clear -5 1019 74 10000 4.12 150 07:44 07.01.2023
336 Clouds -4 1019 68 10000 1.54 0 07:19 07.01.2023
337 Clouds -3 1019 80 10000 3.6 110 02:49 07.01.2023
338 Clouds -3 1019 93 10000 0 0 22:24 06.01.2023
339 Clouds -3 1019 93 10000 0 0 22:00 06.01.2023
340 Clouds -4 1019 100 10000 0.51 0 21:26 06.01.2023
341 Clouds -4 1019 93 10000 0 0 19:58 06.01.2023
342 Clouds -4 1019 93 10000 0 0 19:40 06.01.2023
343 Clouds -5 1019 100 10000 1.03 0 19:22 06.01.2023
344 Clouds -4 1019 100 10000 0 0 18:42 06.01.2023
345 Clouds -2 1019 93 10000 1.54 0 17:21 06.01.2023
346 Clouds -2 1020 100 10000 1.03 0 16:32 06.01.2023
347 Clouds -2 1020 100 10000 1.54 0 15:56 06.01.2023
348 Clouds -2 1020 100 10000 1.54 0 15:38 06.01.2023
349 Clouds -2 1020 100 1800 2.57 230 14:52 06.01.2023
350 Snow -2 1021 86 5000 5.66 240 12:37 06.01.2023
351 Snow -2 1021 93 5000 3.09 250 10:58 06.01.2023
352 Snow -1 1022 74 10000 5.66 250 08:56 06.01.2023
353 Clouds -1 1022 69 10000 5.66 240 07:44 06.01.2023
354 Clouds -1 1025 64 10000 4.63 250 01:43 06.01.2023
355 Clouds -1 1026 64 10000 2.57 270 22:55 05.01.2023
356 Clouds -1 1026 64 10000 4.63 250 21:54 05.01.2023
357 Clouds -2 1027 74 10000 2.06 230 19:32 05.01.2023
358 Clouds -2 1027 74 10000 1.54 0 17:28 05.01.2023
359 Clouds -3 1027 80 10000 2.06 230 16:21 05.01.2023
360 Clouds -3 1027 80 10000 2.06 240 15:46 05.01.2023
361 Clouds -3 1028 80 10000 1.54 260 14:47 05.01.2023
362 Clouds -5 1028 93 10000 0 0 12:43 05.01.2023
363 Clouds -7 1028 93 10000 0 0 11:51 05.01.2023
364 Clouds -6 1027 93 10000 1.03 70 09:55 05.01.2023
365 Clear -8 1027 93 10000 0 0 08:31 05.01.2023
366 Clear -6 1027 93 10000 1.54 40 07:20 05.01.2023
367 Clouds -7 1027 86 10000 1.54 60 05:20 05.01.2023
368 Clouds -6 1027 86 10000 1.54 40 23:19 04.01.2023
369 Clear -7 1026 79 10000 1.54 40 21:33 04.01.2023
370 Clear -6 1026 86 10000 1.54 40 20:55 04.01.2023
371 Clear -5 1026 86 10000 1.54 30 19:57 04.01.2023
372 Clear -8 1026 86 10000 0 0 19:33 04.01.2023
373 Clear -6 1026 86 10000 2.06 30 18:37 04.01.2023
374 Clouds -6 1026 86 10000 1.03 0 16:32 04.01.2023
375 Clouds -6 1026 93 10000 1.54 50 15:55 04.01.2023
376 Clouds -7 1026 86 10000 1.54 70 14:39 04.01.2023
377 Clouds -6 1026 86 10000 1.03 0 11:43 04.01.2023
378 Clouds -6 1026 79 10000 1.03 0 11:21 04.01.2023
379 Clouds -7 1025 73 10000 0 0 10:43 04.01.2023
380 Clouds -7 1025 73 10000 0.51 0 10:23 04.01.2023
381 Clouds -7 1025 73 10000 1.03 0 08:52 04.01.2023
382 Clear -9 1025 73 10000 1.03 0 05:36 04.01.2023
383 Clear -6 1023 68 10000 2.57 30 00:32 04.01.2023
384 Clear -7 1023 58 10000 1.54 40 23:35 03.01.2023
385 Clear -7 1023 73 10000 1.54 0 22:54 03.01.2023
386 Clear -7 1021 68 10000 2.57 90 20:53 03.01.2023
387 Clear -5 1021 58 10000 3.09 20 19:50 03.01.2023
388 Clear -6 1019 63 10000 1.54 70 17:38 03.01.2023
389 Clear -6 1019 68 10000 3.09 90 16:39 03.01.2023
390 Clouds -3 1016 68 10000 3.09 110 13:58 03.01.2023
391 Clouds -3 1016 68 10000 2.57 160 13:31 03.01.2023
392 Snow -3 1015 74 10000 2.06 0 12:58 03.01.2023
393 Snow -2 1015 69 10000 3.6 130 12:30 03.01.2023
394 Snow -3 1014 80 10000 2.57 120 11:32 03.01.2023
395 Snow -2 1011 80 10000 2.06 0 07:50 03.01.2023
396 Snow -1 1009 80 10000 5.14 140 04:23 03.01.2023
397 Snow -1 1009 80 8000 5.14 130 03:44 03.01.2023
398 Snow -1 1008 74 10000 6.69 130 02:50 03.01.2023
399 Snow -1 1007 80 10000 1.54 60 22:43 02.01.2023
400 Snow -1 1006 80 10000 1.03 40 22:23 02.01.2023
401 Snow 0 1005 80 10000 1.54 240 20:40 02.01.2023
402 Snow 0 1005 80 10000 3.6 220 19:54 02.01.2023
403 Snow -2 1005 80 10000 1.54 60 18:26 02.01.2023
404 Clear 0 1004 80 10000 1.54 240 15:28 02.01.2023
405 Snow -2 1003 93 10000 1.03 0 13:31 02.01.2023
406 Snow 0 1003 93 10000 1.54 30 12:18 02.01.2023
407 Snow 1 1002 93 10000 2.06 230 10:52 02.01.2023
408 Snow 0 999 74 10000 1.54 250 07:35 02.01.2023
409 Clouds 2 994 69 10000 5.14 270 01:39 02.01.2023
410 Rain 2 992 80 10000 7.2 280 22:41 01.01.2023
411 Snow 1 991 86 6000 4.63 0 21:38 01.01.2023
412 Snow 1 990 93 1400 5.14 270 20:48 01.01.2023
413 Snow 1 989 93 1700 4.63 0 19:49 01.01.2023
414 Snow 0 987 100 800 2.06 260 18:24 01.01.2023
415 Snow 0 986 100 1100 1.54 0 17:22 01.01.2023
416 Snow 0 985 100 500 4.12 360 16:33 01.01.2023
417 Snow 1 981 100 10000 14.92 240 15:27 01.01.2023
418 Snow -2 982 100 800 1.54 240 13:41 01.01.2023
419 Snow -2 982 100 1500 1.03 0 12:41 01.01.2023
420 Snow -2 981 93 4000 3.09 220 11:39 01.01.2023
421 Snow -2 981 80 10000 0 0 10:44 01.01.2023
422 Snow -2 980 80 10000 3.09 220 08:59 01.01.2023
423 Snow -2 979 74 10000 2.57 230 08:23 01.01.2023
424 Snow -2 979 69 10000 0 0 07:27 01.01.2023
425 Clouds -2 979 74 10000 3.09 120 03:47 01.01.2023
426 Clouds -2 979 74 10000 7.2 140 23:44 31.12.2022
427 Clouds -2 979 74 10000 9.26 130 22:59 31.12.2022
428 Clouds -3 979 80 10000 8.75 130 21:42 31.12.2022
429 Clouds -3 979 80 10000 9.77 120 21:20 31.12.2022
430 Clouds -2 980 74 10000 4.12 0 19:43 31.12.2022
431 Clouds -2 981 74 10000 5.66 160 18:45 31.12.2022
432 Clouds -2 981 74 10000 6.69 160 18:19 31.12.2022
433 Clouds -1 981 69 10000 4.12 180 17:49 31.12.2022
434 Clouds -1 981 74 10000 5.66 180 16:59 31.12.2022
435 Clouds -1 981 74 10000 3.6 0 16:30 31.12.2022
436 Clouds 0 981 69 10000 8.23 190 15:19 31.12.2022
437 Clouds -1 983 80 10000 6.17 200 13:53 31.12.2022
438 Clouds -1 983 74 10000 4.12 0 12:47 31.12.2022
439 Clouds -1 984 74 10000 7.2 180 12:21 31.12.2022
440 Clouds -1 984 74 10000 8.75 190 11:51 31.12.2022
441 Clouds 0 983 74 10000 9.77 200 10:49 31.12.2022
442 Clouds -1 985 80 10000 7.2 200 09:56 31.12.2022
443 Clouds -1 985 80 10000 7.2 200 09:36 31.12.2022
444 Clouds -2 986 80 10000 8.23 210 07:51 31.12.2022
445 Clear -2 989 69 10000 5.66 210 00:59 31.12.2022
446 Clear -2 989 69 10000 7.2 200 00:24 31.12.2022
447 Clear -3 989 74 10000 6.69 200 22:52 30.12.2022
448 Clouds -3 989 74 10000 6.69 190 21:54 30.12.2022
449 Clouds -3 990 74 10000 5.14 180 21:31 30.12.2022
450 Clouds -3 989 74 10000 7.72 190 20:20 30.12.2022
451 Clouds -3 989 74 10000 10.29 210 18:28 30.12.2022
452 Clouds -3 989 68 10000 9.77 200 17:33 30.12.2022
453 Clouds -4 990 74 10000 8.75 200 15:58 30.12.2022
454 Clouds -4 989 74 10000 13.89 230 14:54 30.12.2022
455 Clouds -3 989 68 10000 10.29 200 12:52 30.12.2022
456 Clouds -4 991 68 10000 12.86 200 08:23 30.12.2022
457 Clouds -4 992 74 10000 10.29 200 03:47 30.12.2022
458 Clouds -3 991 63 10000 13.38 180 02:26 30.12.2022
459 Clouds -4 993 74 10000 9.77 180 23:41 29.12.2022
460 Clouds -4 993 74 10000 12.86 200 21:46 29.12.2022
461 Clouds -4 994 68 10000 12.35 200 20:54 29.12.2022
462 Clouds -4 995 68 10000 10.8 200 20:30 29.12.2022
463 Clouds -2 995 50 10000 7.72 200 18:37 29.12.2022
464 Clouds -2 995 50 10000 7.72 200 17:53 29.12.2022
465 Clear -1 995 40 10000 7.2 220 17:20 29.12.2022
466 Clear 0 995 32 10000 6.69 200 16:54 29.12.2022
467 Clear -2 995 37 10000 4.63 220 15:47 29.12.2022
468 Clear -4 996 54 10000 2.06 230 13:34 29.12.2022
469 Clear -3 996 59 10000 2.57 250 11:48 29.12.2022
470 Clear -1 995 51 10000 4.63 240 09:29 29.12.2022
471 Clear -1 994 64 10000 6.17 200 02:31 29.12.2022
472 Clouds -1 996 74 10000 3.6 180 23:28 28.12.2022
473 Clouds -1 996 74 10000 1.03 0 21:49 28.12.2022
474 Clouds -2 996 80 10000 1.54 50 21:19 28.12.2022
475 Clouds 1 995 64 10000 4.63 240 19:52 28.12.2022
476 Clouds 1 995 60 10000 4.63 270 17:54 28.12.2022
477 Clouds 0 994 69 10000 5.14 280 16:20 28.12.2022
478 Snow -3 992 93 2000 6.17 210 12:59 28.12.2022
479 Snow -4 992 100 2000 6.17 220 12:32 28.12.2022
480 Snow -4 991 80 6000 5.66 210 11:32 28.12.2022
481 Snow -4 990 74 10000 3.6 210 09:28 28.12.2022
482 Clear -4 989 68 10000 4.63 200 07:30 28.12.2022
483 Clear -5 989 74 10000 6.69 210 06:44 28.12.2022
484 Clear -5 991 68 10000 2.57 0 00:29 28.12.2022
485 Clouds -4 990 68 10000 7.72 210 20:59 27.12.2022
486 Clouds -3 990 68 10000 7.2 190 19:50 27.12.2022
487 Clouds -2 990 64 10000 8.75 210 18:21 27.12.2022
488 Clear -1 990 69 10000 4.63 0 16:44 27.12.2022
489 Clear 2 990 60 10000 7.2 220 15:53 27.12.2022
490 Clear 3 991 65 10000 7.2 210 13:57 27.12.2022
491 Clear 2 990 64 10000 8.23 200 11:42 27.12.2022
492 Clear 2 990 69 10000 7.72 200 09:47 27.12.2022
493 Clear 2 990 69 10000 4.12 200 09:23 27.12.2022
494 Clear 2 991 69 10000 7.2 210 08:41 27.12.2022
495 Clouds 1 992 75 10000 5.66 200 04:33 27.12.2022
496 Clear -6 995 73 10000 1.54 80 23:25 26.12.2022
497 Clear -6 996 68 10000 3.6 50 21:39 26.12.2022
498 Clear -7 996 73 10000 1.03 0 20:42 26.12.2022
499 Clear -7 997 79 10000 1.03 0 18:50 26.12.2022
500 Clear -8 997 79 10000 0 0 17:52 26.12.2022
501 Clear -8 997 79 10000 0 0 16:37 26.12.2022
502 Clear -5 998 74 10000 2.57 240 14:48 26.12.2022
503 Clouds -6 998 79 10000 1.54 0 12:53 26.12.2022
504 Clouds -4 999 74 10000 5.66 190 09:27 26.12.2022
505 Clouds -1 1005 80 10000 4.63 210 00:25 26.12.2022
506 Clouds -1 1005 86 10000 7.2 230 23:38 25.12.2022
507 Clouds 0 1006 64 10000 6.69 250 22:39 25.12.2022
508 Clouds -1 1005 74 10000 8.23 250 21:49 25.12.2022
509 Snow -1 1004 86 10000 2.06 0 19:23 25.12.2022
510 Snow -2 1004 100 10000 1.54 0 17:52 25.12.2022
511 Snow -1 1004 100 400 7.2 240 17:34 25.12.2022
512 Snow -2 1002 69 10000 1.03 0 15:50 25.12.2022
513 Snow -2 1001 74 10000 1.54 50 12:59 25.12.2022
514 Clouds -2 1001 86 10000 0 0 10:59 25.12.2022
515 Snow 1 998 64 10000 4.12 360 02:57 25.12.2022
516 Clouds 0 995 80 10000 5.14 350 22:29 24.12.2022
517 Clouds 0 993 64 10000 5.66 10 19:52 24.12.2022
518 Clouds 0 992 59 10000 6.17 30 16:51 24.12.2022
519 Snow -3 990 100 10000 0 0 14:55 24.12.2022
520 Snow -2 990 100 10000 0 0 13:35 24.12.2022
521 Snow -2 988 93 10000 1.54 0 11:44 24.12.2022
522 Snow -1 987 100 10000 1.54 40 10:23 24.12.2022
523 Snow -1 987 100 10000 1.03 0 09:37 24.12.2022
524 Snow -2 985 100 10000 5.66 240 07:37 24.12.2022
525 Snow -7 985 86 10000 0 0 02:51 24.12.2022
526 Clouds -5 985 86 10000 2.06 40 00:18 24.12.2022
527 Clouds -6 984 86 10000 2.06 50 22:30 23.12.2022
528 Clouds -7 984 86 10000 1.54 50 21:30 23.12.2022
529 Clouds -7 984 79 10000 0 0 19:40 23.12.2022
530 Clouds -7 984 79 10000 1.03 0 19:22 23.12.2022
531 Clouds -7 984 86 10000 1.03 40 18:53 23.12.2022
532 Snow -6 984 79 10000 1.54 50 18:21 23.12.2022
533 Snow -7 984 79 10000 0 0 16:48 23.12.2022
534 Snow -8 984 79 10000 1.54 0 15:45 23.12.2022
535 Clear -7 984 79 10000 0 0 12:28 23.12.2022
536 Clear -6 984 73 10000 0 0 09:53 23.12.2022
537 Clear -6 984 73 10000 0 0 09:34 23.12.2022
538 Clear -6 984 73 10000 1.03 0 07:23 23.12.2022
539 Clear -6 984 73 10000 1.03 0 06:49 23.12.2022
540 Clouds -5 985 74 10000 3.6 140 23:24 22.12.2022
541 Clouds -5 985 74 10000 4.12 140 22:59 22.12.2022
542 Clouds -5 985 74 10000 3.6 140 21:49 22.12.2022
543 Clouds -5 986 74 10000 3.09 140 19:47 22.12.2022
544 Clouds -5 986 74 10000 2.57 120 19:18 22.12.2022
545 Clouds -6 986 79 10000 3.6 110 17:42 22.12.2022
546 Clouds -6 986 79 10000 3.6 130 16:42 22.12.2022
547 Clouds -6 986 79 10000 3.09 120 15:38 22.12.2022
548 Clouds -6 986 73 10000 2.57 120 15:18 22.12.2022
549 Clouds -6 986 73 10000 3.6 80 14:18 22.12.2022
550 Clouds -6 987 73 10000 2.57 130 13:19 22.12.2022
551 Clouds -6 987 73 10000 3.6 120 11:40 22.12.2022
552 Clouds -6 987 79 10000 2.06 80 10:31 22.12.2022
553 Clouds -6 987 73 10000 0.51 0 09:22 22.12.2022
554 Snow -6 987 79 10000 1.54 0 08:36 22.12.2022
555 Clouds -7 987 79 10000 1.54 30 07:28 22.12.2022
556 Clouds -9 989 79 10000 1.03 70 04:19 22.12.2022
557 Clouds -8 990 86 10000 1.54 60 00:25 22.12.2022
558 Clouds -7 991 79 10000 1.54 10 22:29 21.12.2022
559 Clouds -7 992 79 10000 3.09 140 21:35 21.12.2022
560 Clouds -7 992 79 10000 2.57 0 20:57 21.12.2022
561 Clouds -6 992 73 10000 2.06 130 20:31 21.12.2022
562 Clouds -6 992 79 10000 2.06 0 19:47 21.12.2022
563 Clouds -6 993 79 10000 1.54 0 19:28 21.12.2022
564 Clouds -7 993 86 10000 1.54 50 18:51 21.12.2022
565 Clouds -7 993 86 10000 1.54 50 18:33 21.12.2022
566 Clouds -6 994 73 10000 2.06 110 16:19 21.12.2022
567 Clouds -7 995 86 10000 1.54 0 14:18 21.12.2022
568 Snow -6 997 79 10000 2.57 90 11:50 21.12.2022
569 Snow -6 997 79 10000 3.09 90 11:20 21.12.2022
570 Snow -6 997 79 10000 4.63 90 10:29 21.12.2022
571 Clouds -6 998 79 10000 4.63 60 08:48 21.12.2022
572 Clouds -6 999 86 10000 8.23 70 06:30 21.12.2022
573 Clouds -5 1004 74 10000 5.14 90 00:26 21.12.2022
574 Clouds -4 1005 68 10000 4.63 130 21:47 20.12.2022
575 Clouds -4 1006 68 10000 4.12 120 20:51 20.12.2022
576 Clouds -4 1006 68 10000 3.6 80 19:55 20.12.2022
577 Clouds -4 1006 63 10000 3.6 100 18:48 20.12.2022
578 Clouds -4 1006 63 10000 2.57 80 18:23 20.12.2022
579 Clear -3 1006 59 10000 6.17 200 17:50 20.12.2022
580 Clouds -3 1007 59 10000 3.6 160 17:24 20.12.2022
581 Clouds -3 1007 59 10000 6.17 160 15:58 20.12.2022
582 Clouds -3 1008 63 10000 2.57 0 14:56 20.12.2022
583 Clouds -3 1008 63 10000 2.06 60 14:36 20.12.2022
584 Clouds -3 1008 63 10000 4.12 130 13:26 20.12.2022
585 Clouds -3 1008 63 10000 5.14 130 12:34 20.12.2022
586 Clear -3 1009 63 10000 3.6 140 11:54 20.12.2022
587 Clear -4 1009 68 10000 3.09 90 10:21 20.12.2022
588 Clear -5 1009 74 10000 0 0 07:25 20.12.2022
589 Clouds -4 1010 63 10000 2.57 70 00:20 20.12.2022
590 Clouds -2 1010 74 10000 3.6 30 22:22 19.12.2022
591 Clouds -1 1009 64 10000 3.6 10 21:22 19.12.2022
592 Clouds -1 1008 69 10000 2.57 30 19:41 19.12.2022
593 Clouds -1 1008 69 10000 4.12 30 18:44 19.12.2022
594 Clouds -1 1008 69 10000 2.57 20 17:38 19.12.2022
595 Clouds -1 1007 69 10000 4.12 360 15:59 19.12.2022
596 Clouds 0 1005 64 10000 1.54 0 12:47 19.12.2022
597 Clouds 0 1005 64 10000 0 0 11:36 19.12.2022
598 Clouds -3 1003 80 10000 3.6 210 07:50 19.12.2022
599 Clouds -3 1002 74 10000 3.6 220 06:42 19.12.2022
600 Clear -4 1001 68 10000 4.63 200 00:50 19.12.2022
601 Clear -5 1001 68 10000 5.14 200 21:49 18.12.2022
602 Clear -6 1001 73 10000 2.06 0 21:27 18.12.2022
603 Clear -6 1001 73 10000 4.12 50 20:54 18.12.2022
604 Clear -6 1001 68 10000 3.6 210 19:44 18.12.2022
605 Clear -5 1002 63 10000 3.6 220 18:59 18.12.2022
606 Clear -4 1001 68 10000 5.14 200 17:52 18.12.2022
607 Clear -3 1003 59 10000 6.17 200 15:43 18.12.2022
608 Clear -3 1003 54 10000 6.17 210 15:24 18.12.2022
609 Clear -3 1004 54 10000 5.14 220 14:59 18.12.2022
610 Clear -3 1005 46 10000 5.14 220 13:29 18.12.2022
611 Clear -2 1005 40 10000 4.12 200 12:50 18.12.2022
612 Clear -3 1006 50 10000 4.12 220 11:51 18.12.2022
613 Clouds -3 1006 50 10000 2.06 40 09:47 18.12.2022
614 Clouds -4 1006 63 10000 1.03 0 08:46 18.12.2022
615 Clouds -5 1006 74 10000 1.54 0 06:52 18.12.2022
616 Clouds -4 1006 74 10000 2.57 260 06:18 18.12.2022
617 Clouds -5 1006 86 10000 2.06 240 01:53 18.12.2022
618 Snow -5 1006 80 10000 1.54 260 23:32 17.12.2022
619 Clouds -5 1005 74 10000 1.03 0 21:18 17.12.2022
620 Clouds -7 1003 86 10000 1.03 0 17:55 17.12.2022
621 Clouds -7 1003 79 10000 0 0 15:48 17.12.2022
622 Clear -6 1003 86 10000 3.09 230 13:20 17.12.2022
623 Clear -6 1003 79 10000 2.06 240 11:23 17.12.2022
624 Clear -6 1003 79 10000 2.06 260 10:44 17.12.2022
625 Clear -8 1002 86 10000 0 0 09:40 17.12.2022
626 Clouds -8 1001 79 10000 1.03 0 07:24 17.12.2022
627 Clouds -8 1001 79 10000 1.03 0 07:24 17.12.2022
628 Clouds -6 1001 79 10000 1.54 0 06:44 17.12.2022
629 Clouds -5 1000 86 10000 3.09 50 23:20 16.12.2022
630 Clouds -4 1000 74 10000 3.6 40 20:34 16.12.2022
631 Clouds -5 999 74 10000 3.6 40 18:42 16.12.2022
632 Clouds -4 999 74 10000 2.06 70 15:37 16.12.2022
633 Clouds -3 999 68 10000 3.09 30 14:47 16.12.2022
634 Clouds -3 999 68 10000 2.57 30 13:22 16.12.2022
635 Clouds -3 998 68 10000 3.09 30 11:57 16.12.2022
636 Clouds -3 997 74 10000 3.09 30 09:53 16.12.2022
637 Clouds -2 996 74 10000 5.14 20 08:54 16.12.2022
638 Clouds -2 996 74 10000 5.66 20 07:55 16.12.2022
639 Clouds -2 995 69 10000 4.12 20 06:58 16.12.2022
640 Clouds -1 991 80 10000 7.72 20 23:19 15.12.2022
641 Snow -1 990 74 10000 10.8 30 21:58 15.12.2022
642 Clouds 0 989 74 10000 10.29 20 20:24 15.12.2022
643 Clouds 0 988 80 10000 9.77 30 19:35 15.12.2022
644 Snow -1 985 100 500 12.35 30 17:28 15.12.2022
645 Snow 0 985 93 700 8.75 40 16:39 15.12.2022
646 Clouds -1 984 93 6000 5.66 240 14:57 15.12.2022
647 Snow -2 985 80 10000 6.69 250 13:18 15.12.2022
648 Snow -3 986 86 10000 3.09 220 12:25 15.12.2022
649 Clouds -6 987 93 10000 1.54 0 09:28 15.12.2022
650 Clouds -7 987 93 10000 0 0 08:49 15.12.2022
651 Snow -7 987 93 1400 0 0 05:48 15.12.2022
652 Clear -9 989 86 10000 0 0 02:38 15.12.2022
653 Clouds -5 988 86 10000 4.63 40 21:25 14.12.2022
654 Clouds -4 988 86 10000 5.14 50 20:59 14.12.2022
655 Clouds -4 988 86 10000 3.6 30 20:23 14.12.2022
656 Snow -3 988 93 10000 4.63 50 17:56 14.12.2022
657 Clouds -1 988 93 10000 7.2 50 16:57 14.12.2022
658 Clouds 0 989 93 10000 9.77 60 15:39 14.12.2022
659 Snow 0 990 86 10000 9.77 60 13:41 14.12.2022
660 Snow 0 991 86 10000 8.23 50 11:20 14.12.2022
661 Clouds 0 992 80 10000 10.29 50 10:31 14.12.2022
662 Snow 0 993 80 10000 8.75 60 08:51 14.12.2022
663 Clear -6 1002 53 10000 3.09 70 22:49 13.12.2022
664 Clear -7 1002 63 10000 6.69 60 21:48 13.12.2022
665 Clouds -7 1002 63 10000 6.69 80 20:48 13.12.2022
666 Clear -7 1003 58 10000 8.23 70 20:19 13.12.2022
667 Clouds -9 1004 67 10000 1.03 0 17:40 13.12.2022
668 Clouds -9 1004 67 10000 1.03 0 17:40 13.12.2022
669 Clear -9 1005 62 10000 0.51 0 15:45 13.12.2022
670 Clear -9 1006 62 10000 1.03 0 14:44 13.12.2022
671 Clear -7 1008 49 10000 2.57 190 11:18 13.12.2022
672 Clear -7 1009 49 10000 4.63 240 10:36 13.12.2022
673 Clear -6 1009 45 10000 2.57 200 09:23 13.12.2022
674 Clouds -9 1012 79 10000 0 0 04:35 13.12.2022
675 Clouds -4 1016 74 10000 3.6 230 22:22 12.12.2022
676 Clear -4 1017 74 10000 3.09 230 21:22 12.12.2022
677 Clear -4 1018 74 10000 4.12 220 18:33 12.12.2022
678 Clear -5 1019 80 10000 3.6 220 17:19 12.12.2022
679 Clear -5 1021 86 10000 3.6 230 15:22 12.12.2022
680 Clouds -5 1023 80 10000 3.6 220 11:51 12.12.2022
681 Clouds -6 1023 79 10000 2.57 230 09:19 12.12.2022
682 Clouds -6 1025 73 10000 2.57 250 04:55 12.12.2022
683 Clear -6 1026 73 10000 3.6 240 03:21 12.12.2022
684 Clear -6 1027 73 10000 3.09 250 22:54 11.12.2022
685 Clear -6 1027 73 10000 3.6 230 20:48 11.12.2022
686 Clear -6 1027 73 10000 3.09 250 19:43 11.12.2022
687 Clear -6 1027 73 10000 2.06 250 19:22 11.12.2022
688 Clear -6 1028 68 10000 3.6 270 18:18 11.12.2022
689 Clear -6 1028 68 10000 3.6 270 18:18 11.12.2022
690 Clear -6 1028 68 10000 3.6 220 17:31 11.12.2022
691 Clear -5 1028 68 10000 3.09 200 16:52 11.12.2022
692 Clear -6 1028 68 10000 1.54 0 15:46 11.12.2022
693 Clear -6 1028 68 10000 1.54 0 14:50 11.12.2022
694 Clear -7 1028 73 10000 0 0 12:44 11.12.2022
695 Clear -6 1028 73 10000 1.54 250 11:53 11.12.2022
696 Clear -9 1028 79 10000 1.03 0 08:25 11.12.2022
697 Clouds -7 1027 73 10000 5.66 100 00:34 11.12.2022
698 Clouds -7 1026 73 10000 2.06 160 23:20 10.12.2022
699 Clouds -8 1026 79 10000 1.54 0 22:33 10.12.2022
700 Clear -7 1025 73 10000 5.14 120 21:19 10.12.2022
701 Clouds -7 1025 73 10000 6.17 130 20:35 10.12.2022
702 Clear -7 1024 68 10000 1.03 0 18:49 10.12.2022
703 Clouds -8 1023 67 10000 2.57 130 16:57 10.12.2022
704 Clouds -8 1023 67 10000 2.57 130 16:33 10.12.2022
705 Clear -8 1023 62 10000 5.66 120 15:38 10.12.2022
706 Clear -9 1023 67 10000 5.14 90 14:48 10.12.2022
707 Clear -10 1023 73 10000 3.09 80 12:53 10.12.2022
708 Clear -9 1023 67 10000 2.57 130 11:37 10.12.2022
709 Clear -8 1023 62 10000 4.63 110 10:41 10.12.2022
710 Clouds -9 1024 67 10000 0 0 09:18 10.12.2022
711 Clouds -7 1024 63 10000 6.69 80 07:20 10.12.2022
712 Clouds -6 1026 73 10000 1.54 0 00:52 10.12.2022
713 Clouds -7 1026 79 10000 1.54 0 23:19 09.12.2022
714 Clouds -6 1026 73 10000 2.06 40 22:38 09.12.2022
715 Clouds -5 1026 74 10000 1.54 0 21:24 09.12.2022
716 Clouds -5 1026 74 10000 1.03 0 20:42 09.12.2022
717 Clouds -4 1026 74 10000 1.54 50 18:59 09.12.2022
718 Clouds -4 1026 74 10000 2.06 30 17:55 09.12.2022
719 Clouds -4 1025 74 10000 2.57 60 16:32 09.12.2022
720 Clouds -3 1025 74 10000 3.09 60 15:45 09.12.2022
721 Clouds -3 1025 74 10000 2.57 80 15:18 09.12.2022
722 Clouds -1 1025 74 10000 7.72 80 11:34 09.12.2022
723 Clouds 0 1025 74 10000 8.23 80 10:35 09.12.2022
724 Clouds -1 1024 80 10000 11.32 70 08:55 09.12.2022
725 Clouds -2 1024 69 10000 7.72 80 03:19 09.12.2022
726 Clouds -2 1023 74 10000 8.75 80 00:32 09.12.2022
727 Clouds -1 1023 64 10000 9.77 80 22:20 08.12.2022
728 Clouds -1 1022 80 10000 11.32 70 20:30 08.12.2022
729 Snow 0 1020 74 10000 10.8 80 17:51 08.12.2022
730 Clouds 0 1019 86 10000 11.83 80 15:39 08.12.2022
731 Clouds 0 1019 80 10000 12.86 80 14:25 08.12.2022
732 Clouds -1 1017 80 10000 4.12 60 11:32 08.12.2022
733 Clouds 0 1017 80 10000 7.2 70 09:54 08.12.2022
734 Clouds 0 1017 74 10000 7.72 70 09:26 08.12.2022
735 Snow 1 1012 93 10000 6.17 70 02:36 08.12.2022
736 Clouds 0 1011 93 10000 2.57 50 22:19 07.12.2022
737 Clouds 0 1010 86 10000 3.6 60 21:50 07.12.2022
738 Clouds 0 1010 86 10000 3.6 50 21:31 07.12.2022
739 Clouds -1 1009 86 10000 5.66 70 19:38 07.12.2022
740 Clouds -1 1007 93 10000 5.14 70 17:27 07.12.2022
741 Clouds 0 1005 100 10000 3.6 60 14:41 07.12.2022
742 Snow 1 1003 100 10000 5.14 360 12:37 07.12.2022
743 Clouds 0 1004 100 2000 5.14 50 10:43 07.12.2022
744 Snow 0 1003 100 9000 3.09 40 09:51 07.12.2022
745 Snow 0 1003 100 2100 3.6 60 08:47 07.12.2022
746 Snow -1 1003 100 9000 0.51 0 06:48 07.12.2022
747 Snow -1 1002 100 10000 3.09 40 05:23 07.12.2022
748 Snow -1 1001 100 3500 0 0 22:41 06.12.2022
749 Snow -1 1000 100 10000 1.03 0 20:53 06.12.2022
750 Clouds -2 999 80 10000 0.51 0 18:22 06.12.2022
751 Clouds -1 999 80 10000 1.54 10 16:43 06.12.2022
752 Clouds -1 998 80 10000 1.54 0 16:20 06.12.2022
753 Clouds -2 998 86 10000 1.54 30 15:34 06.12.2022
754 Clouds 1 997 75 10000 3.09 260 14:32 06.12.2022
755 Clouds 0 997 86 10000 6.17 230 13:00 06.12.2022
756 Clouds 1 997 80 10000 6.17 220 12:40 06.12.2022
757 Clouds 1 997 69 10000 7.2 250 10:23 06.12.2022
758 Clouds 1 997 80 10000 5.14 280 06:48 06.12.2022
759 Clouds 2 998 93 10000 4.12 250 01:32 06.12.2022
760 Rain 2 999 93 10000 4.63 260 22:37 05.12.2022
761 Rain 2 1000 93 10000 4.63 240 21:39 05.12.2022
762 Rain 2 1000 100 10000 4.63 240 20:48 05.12.2022
763 Snow 2 1001 93 10000 2.57 250 19:51 05.12.2022
764 Snow 2 1001 100 10000 4.63 250 19:32 05.12.2022
765 Clouds 3 1002 93 10000 4.63 270 16:49 05.12.2022
766 Snow 2 1003 100 10000 6.69 240 15:26 05.12.2022
767 Snow 0 1004 100 4500 4.12 220 13:44 05.12.2022
768 Snow 0 1005 100 3900 4.12 220 12:57 05.12.2022
769 Snow 0 1005 100 3900 4.12 220 12:37 05.12.2022
770 Snow -1 1006 93 3300 4.63 220 11:00 05.12.2022
771 Snow -2 1010 86 4500 4.12 240 06:38 05.12.2022
772 Clear -3 1019 74 10000 4.12 190 23:56 04.12.2022
773 Clear -4 1021 80 10000 4.12 180 22:41 04.12.2022
774 Clear -4 1021 80 10000 1.54 0 22:18 04.12.2022
775 Clear -4 1022 80 10000 1.54 0 21:30 04.12.2022
776 Clouds -3 1024 74 10000 3.6 210 19:53 04.12.2022
777 Clouds -3 1024 74 10000 2.57 210 19:23 04.12.2022
778 Clouds -3 1025 74 10000 2.57 200 18:20 04.12.2022
779 Clouds -3 1026 74 10000 2.06 0 17:22 04.12.2022
780 Clouds -3 1026 74 10000 2.57 180 16:36 04.12.2022
781 Clouds -3 1027 74 10000 3.09 190 16:18 04.12.2022
782 Clouds -3 1027 74 10000 4.12 200 15:26 04.12.2022
783 Clouds -3 1028 74 10000 5.14 200 14:18 04.12.2022
784 Clear -3 1029 74 10000 2.57 190 12:47 04.12.2022
785 Clear -3 1029 74 10000 1.54 0 12:25 04.12.2022
786 Clear -3 1030 74 10000 3.6 200 11:29 04.12.2022
787 Clear -3 1031 74 10000 4.63 200 07:35 04.12.2022
788 Clear -3 1032 80 10000 3.09 210 02:51 04.12.2022
789 Clear -3 1033 80 10000 3.09 200 23:44 03.12.2022
790 Clear -3 1034 80 10000 1.03 0 22:34 03.12.2022
791 Clear -3 1034 80 10000 1.54 0 21:48 03.12.2022
792 Clear -3 1034 80 10000 3.09 200 20:45 03.12.2022
793 Clear -3 1034 80 10000 2.57 220 18:41 03.12.2022
794 Clear -3 1034 80 10000 3.09 180 17:49 03.12.2022
795 Clear -2 1035 74 10000 4.12 210 15:50 03.12.2022
796 Clear -2 1035 74 10000 5.66 230 13:43 03.12.2022
797 Clear -1 1035 64 10000 4.12 220 12:43 03.12.2022
798 Clear -2 1036 69 10000 3.09 0 11:57 03.12.2022
799 Clear 1 1036 60 10000 4.63 240 08:38 03.12.2022
800 Clear 0 1039 74 10000 3.6 210 02:48 03.12.2022
801 Clear 1 1040 69 10000 1.54 0 23:38 02.12.2022
802 Clear 1 1040 69 10000 1.54 60 21:59 02.12.2022
803 Clear 1 1040 86 10000 3.6 250 19:50 02.12.2022
804 Clear 1 1040 86 10000 3.6 250 19:50 02.12.2022
805 Clear 0 1040 93 10000 1.03 0 17:30 02.12.2022
806 Clear 1 1040 93 10000 1.54 0 15:57 02.12.2022
807 Clear -1 1040 93 10000 0 0 14:36 02.12.2022
808 Clear -1 1040 100 10000 0 0 14:18 02.12.2022
809 Clouds 0 1040 93 10000 1.03 0 11:57 02.12.2022
810 Clouds 1 1040 100 10000 1.03 0 10:35 02.12.2022
811 Clouds 1 1039 100 10000 1.03 0 07:52 02.12.2022
812 Fog 0 1039 100 10000 1.03 0 07:22 02.12.2022
813 Fog 3 1037 100 450 0 0 22:51 01.12.2022
814 Fog 2 1037 100 500 0 0 21:42 01.12.2022
815 Fog 2 1037 100 400 1.03 0 20:48 01.12.2022
816 Drizzle 2 1036 100 3100 0 0 18:59 01.12.2022
817 Mist 2 1035 100 3500 0 0 17:23 01.12.2022
818 Drizzle 2 1035 100 7000 0.51 0 14:39 01.12.2022
819 Clouds 2 1034 87 10000 0.51 0 11:21 01.12.2022
820 Clouds 2 1033 87 10000 1.54 260 09:55 01.12.2022
821 Clouds 2 1033 87 10000 1.54 260 09:36 01.12.2022
822 Clouds 1 1032 86 10000 1.03 60 06:44 01.12.2022
823 Clouds 2 1032 80 10000 2.57 270 23:46 30.11.2022
824 Clouds 2 1031 75 10000 1.54 260 21:54 30.11.2022
825 Clouds 2 1031 80 10000 2.06 270 21:19 30.11.2022
826 Clouds 2 1031 80 10000 1.54 260 20:23 30.11.2022
827 Clouds 2 1031 80 10000 1.54 260 20:23 30.11.2022
828 Clouds 1 1031 80 10000 1.03 0 19:28 30.11.2022
829 Clouds 2 1031 75 10000 2.06 250 18:32 30.11.2022
830 Clouds 2 1030 75 10000 2.57 240 16:53 30.11.2022
831 Clouds 2 1030 75 10000 3.09 220 14:46 30.11.2022
832 Clouds 2 1030 75 10000 2.57 240 14:26 30.11.2022
833 Clouds 2 1030 75 10000 3.6 240 12:21 30.11.2022
834 Clouds 2 1029 87 10000 2.06 260 09:44 30.11.2022
835 Clouds 2 1029 87 10000 1.03 0 08:30 30.11.2022
836 Clouds 2 1029 80 10000 2.06 220 06:43 30.11.2022
837 Clouds 2 1027 80 10000 2.57 240 23:30 29.11.2022
838 Clouds 3 1027 75 10000 4.63 230 22:19 29.11.2022
839 Clouds 2 1026 80 10000 4.63 220 20:52 29.11.2022
840 Clouds 2 1026 80 10000 3.6 210 20:32 29.11.2022
841 Clouds 2 1026 80 10000 3.6 210 18:56 29.11.2022
842 Clouds 2 1025 80 10000 4.12 250 16:57 29.11.2022
843 Clouds 2 1025 80 10000 5.14 250 16:20 29.11.2022
844 Clouds 2 1025 80 10000 4.63 250 14:49 29.11.2022
845 Clear 1 1025 75 10000 3.6 210 12:43 29.11.2022
846 Clear 0 1025 74 10000 1.03 0 11:32 29.11.2022
847 Clear 0 1025 74 10000 1.54 10 10:41 29.11.2022
848 Clear -1 1026 74 10000 1.03 0 09:28 29.11.2022
849 Clear -3 1026 86 10000 1.03 0 07:48 29.11.2022
850 Clear 1 1026 75 10000 2.57 260 00:35 29.11.2022
851 Clear 1 1026 75 10000 2.57 260 00:35 29.11.2022
852 Clear 1 1025 75 10000 2.57 260 23:29 28.11.2022
853 Clear 1 1025 75 10000 2.06 250 22:28 28.11.2022
854 Clear -1 1025 80 10000 0 0 21:43 28.11.2022
855 Clear 0 1024 86 10000 1.54 0 20:33 28.11.2022
856 Clear -1 1024 80 10000 0 0 19:38 28.11.2022
857 Clear 1 1023 75 10000 2.06 250 18:29 28.11.2022
858 Clear 0 1023 80 10000 2.57 240 17:44 28.11.2022
859 Clear -1 1022 80 10000 0.51 0 15:22 28.11.2022
860 Clear 1 1021 80 10000 2.57 240 13:59 28.11.2022
861 Clear 1 1021 80 10000 2.57 240 13:37 28.11.2022
862 Clear 0 1021 80 10000 3.6 240 11:53 28.11.2022
863 Clear 1 1020 69 10000 1.54 0 09:27 28.11.2022
864 Clear 1 1020 69 10000 1.54 0 09:27 28.11.2022
865 Clouds 1 1019 75 10000 2.57 250 05:49 28.11.2022
866 Clouds -1 1018 80 10000 0 0 04:41 28.11.2022
867 Clouds -1 1018 80 10000 0 0 03:23 28.11.2022
868 Clear -3 1018 80 10000 1.54 0 00:43 28.11.2022
869 Clear 0 1018 74 10000 2.57 250 22:28 27.11.2022
870 Clear -1 1018 80 10000 1.03 0 21:19 27.11.2022
871 Clear 1 1018 69 10000 2.57 260 18:57 27.11.2022
872 Clear 0 1018 74 10000 0 0 16:45 27.11.2022
873 Clear 0 1019 69 10000 2.06 240 14:29 27.11.2022
874 Clear 0 1018 74 10000 2.06 0 12:31 27.11.2022
875 Clouds 0 1018 74 10000 2.57 250 10:39 27.11.2022
876 Clouds 0 1018 74 10000 2.06 270 07:55 27.11.2022
877 Clouds 0 1019 74 10000 1.03 0 23:41 26.11.2022
878 Clouds 0 1019 74 10000 2.57 200 21:44 26.11.2022
879 Clouds 0 1019 74 10000 4.63 190 20:35 26.11.2022
880 Clouds 0 1019 74 10000 6.17 200 19:21 26.11.2022
881 Clouds 0 1019 69 10000 5.14 220 16:49 26.11.2022
882 Clear -1 1019 69 10000 2.06 0 15:38 26.11.2022
883 Clear -1 1020 69 10000 2.57 230 12:55 26.11.2022
884 Clear -3 1021 74 10000 1.03 0 11:23 26.11.2022
885 Clear -3 1021 68 10000 1.03 0 09:44 26.11.2022
886 Clear -4 1020 80 10000 0 0 08:45 26.11.2022
887 Clear -5 1020 86 10000 1.03 70 23:22 25.11.2022
888 Clouds -5 1020 80 10000 0 0 21:41 25.11.2022
889 Clear -4 1020 80 10000 0 0 21:19 25.11.2022
890 Clear -3 1019 74 10000 2.06 250 19:36 25.11.2022
891 Clear -4 1018 74 10000 1.54 0 15:51 25.11.2022
892 Clear -6 1018 79 10000 0 0 12:28 25.11.2022
893 Clear -6 1017 73 10000 1.03 0 09:19 25.11.2022
894 Clear -4 1017 74 10000 2.57 240 08:38 25.11.2022
895 Clear -4 1016 74 10000 2.57 230 06:52 25.11.2022
896 Clear -3 1015 63 10000 4.63 210 01:54 25.11.2022
897 Clear -4 1015 63 10000 5.14 210 23:43 24.11.2022
898 Clear -4 1015 63 10000 5.66 210 22:37 24.11.2022
899 Clear -3 1015 54 10000 5.14 200 21:45 24.11.2022
900 Clear -3 1015 59 10000 4.63 220 19:49 24.11.2022
901 Clear -2 1015 50 10000 6.69 210 17:48 24.11.2022
902 Clear -2 1014 50 10000 7.2 220 17:24 24.11.2022
903 Clouds -2 1015 50 10000 5.66 230 16:40 24.11.2022
904 Clear -2 1015 54 10000 4.63 240 14:26 24.11.2022
905 Clear -3 1016 59 10000 5.66 230 13:19 24.11.2022
906 Clear -3 1016 59 10000 5.14 230 11:38 24.11.2022
907 Clear -4 1016 63 10000 5.66 230 09:23 24.11.2022
908 Clear -3 1017 63 10000 3.09 260 06:23 24.11.2022
909 Clear -5 1019 63 10000 0 0 00:41 24.11.2022
910 Clear -6 1019 68 10000 0.51 0 23:32 23.11.2022
911 Clear -5 1019 68 10000 0.51 0 21:48 23.11.2022
912 Clear -3 1019 68 10000 4.12 230 20:52 23.11.2022
913 Clear -6 1019 73 10000 1.03 0 19:55 23.11.2022
914 Clear -5 1019 74 10000 0 0 18:57 23.11.2022
915 Clear -5 1019 74 10000 2.57 60 18:19 23.11.2022
916 Clear -2 1019 64 10000 7.2 230 14:28 23.11.2022
917 Clear -2 1019 69 10000 3.6 240 13:24 23.11.2022
918 Clear -2 1019 69 10000 3.09 240 12:41 23.11.2022
919 Clear -1 1019 64 10000 4.12 240 11:51 23.11.2022
920 Clear -2 1019 74 10000 5.14 230 10:48 23.11.2022
921 Clear -2 1018 74 10000 7.2 230 10:18 23.11.2022
922 Clear -1 1018 69 10000 7.2 230 09:41 23.11.2022
923 Clear -1 1018 69 10000 5.14 250 09:22 23.11.2022
924 Clear -1 1018 59 10000 2.06 280 08:36 23.11.2022
925 Clear -1 1018 74 10000 5.14 240 05:21 23.11.2022
926 Clear 0 1019 69 10000 4.12 240 01:57 23.11.2022
927 Clear 0 1019 69 10000 4.12 240 22:37 22.11.2022
928 Clear 0 1019 69 10000 4.63 220 21:51 22.11.2022
929 Clear 0 1019 74 10000 4.12 240 21:31 22.11.2022
930 Clear 0 1019 69 10000 6.17 230 20:44 22.11.2022
931 Clear 0 1019 69 10000 1.54 0 19:52 22.11.2022
932 Clear -3 1019 74 10000 1.54 0 17:54 22.11.2022
933 Clear -4 1020 80 10000 0.51 0 16:48 22.11.2022
934 Clear -5 1020 80 10000 0 0 14:55 22.11.2022
935 Clear -4 1020 74 10000 1.03 0 12:56 22.11.2022
936 Clear -4 1020 80 10000 1.54 60 09:42 22.11.2022
937 Clear -2 1020 74 10000 2.06 20 08:58 22.11.2022
938 Clear -3 1019 80 10000 3.09 60 06:45 22.11.2022
939 Clouds -3 1020 86 10000 4.12 50 01:35 22.11.2022
940 Clear -3 1020 86 10000 4.12 50 23:28 21.11.2022
941 Clear -1 1020 80 10000 5.14 40 22:26 21.11.2022
942 Clear -2 1020 86 10000 4.12 50 21:33 21.11.2022
943 Clear -3 1020 86 10000 4.63 60 20:35 21.11.2022
944 Clear -2 1019 86 10000 4.63 40 19:40 21.11.2022
945 Clear -2 1019 93 10000 3.6 50 18:52 21.11.2022
946 Clear -2 1019 93 10000 3.09 60 17:45 21.11.2022
947 Clear -2 1019 86 10000 4.12 60 16:51 21.11.2022
948 Clear -1 1019 80 10000 4.12 40 16:33 21.11.2022
949 Clear -3 1019 86 10000 4.12 50 15:24 21.11.2022
950 Clear -3 1020 86 10000 3.6 50 13:55 21.11.2022
951 Clear -3 1020 86 10000 3.6 50 13:34 21.11.2022
952 Clear -3 1020 86 10000 2.57 80 10:20 21.11.2022
953 Clouds -2 1019 86 10000 2.06 80 08:20 21.11.2022
954 Clouds 1 1020 93 10000 3.09 50 05:41 21.11.2022
955 Clouds -3 1021 93 10000 0.51 0 22:19 20.11.2022
956 Clear -3 1021 100 10000 0.51 0 20:55 20.11.2022
957 Clear -3 1021 93 10000 1.03 0 20:22 20.11.2022
958 Clear -3 1021 74 10000 1.03 0 18:20 20.11.2022
959 Clear -3 1021 68 10000 0.51 0 15:57 20.11.2022
960 Clear -4 1021 80 10000 0 0 15:25 20.11.2022
961 Clear -3 1021 74 10000 0.51 0 14:25 20.11.2022
962 Clear -2 1021 74 10000 0 0 13:32 20.11.2022
963 Clear -2 1021 69 10000 0 0 12:31 20.11.2022
964 Clear -3 1021 80 10000 1.54 0 10:59 20.11.2022
965 Clear -3 1021 80 10000 0 0 09:55 20.11.2022
966 Clear -4 1021 74 10000 0.51 0 08:59 20.11.2022
967 Clear -4 1021 74 10000 0.51 0 08:34 20.11.2022
968 Clear -4 1021 74 10000 0 0 07:28 20.11.2022
969 Clear -3 1023 68 10000 1.03 70 01:50 20.11.2022
970 Clear -3 1023 63 10000 0.51 0 01:18 20.11.2022
971 Clear -1 1023 64 10000 1.54 0 00:40 20.11.2022
972 Clear -2 1023 69 10000 1.03 0 00:21 20.11.2022
973 Clear -2 1023 69 10000 0 0 23:47 19.11.2022
974 Clear -3 1023 68 10000 1.03 0 23:21 19.11.2022
975 Clear -2 1023 69 10000 0 0 22:28 19.11.2022
976 Clear -1 1023 59 10000 1.03 70 21:31 19.11.2022
977 Clear 0 1023 59 10000 1.54 50 20:44 19.11.2022
978 Clear -2 1023 69 10000 0 0 20:25 19.11.2022
979 Clear -1 1023 69 10000 1.03 0 18:55 19.11.2022
980 Clear -1 1023 64 10000 0 0 17:39 19.11.2022
981 Clear 1 1024 60 10000 2.06 260 17:19 19.11.2022
982 Clear 0 1024 64 10000 1.03 0 15:36 19.11.2022
983 Clear 0 1024 64 10000 1.54 0 14:27 19.11.2022
984 Clouds 1 1024 75 10000 3.09 280 11:58 19.11.2022
985 Clouds 2 1024 55 10000 2.57 270 10:20 19.11.2022
986 Clouds -1 1023 64 10000 1.03 0 08:39 19.11.2022
987 Clouds 1 1023 64 10000 2.57 270 04:50 19.11.2022
988 Clouds 1 1023 64 10000 3.09 260 01:55 19.11.2022
989 Clear 1 1024 69 10000 3.09 260 23:44 18.11.2022
990 Clear -1 1023 69 10000 0 0 22:35 18.11.2022
991 Clear 1 1024 69 10000 3.09 270 21:37 18.11.2022
992 Clouds -2 1024 74 10000 1.03 0 20:59 18.11.2022
993 Clear -1 1024 74 10000 1.03 0 20:26 18.11.2022
994 Clouds 0 1024 74 10000 1.03 0 19:46 18.11.2022
995 Clear -1 1024 74 10000 1.54 0 18:28 18.11.2022
996 Clear -1 1023 69 10000 1.54 0 16:44 18.11.2022
997 Clear 2 1023 60 10000 3.09 270 13:40 18.11.2022
998 Clear 1 1023 64 10000 3.09 260 11:28 18.11.2022
999 Clear 1 1023 69 10000 4.12 260 08:29 18.11.2022
1000 Clear 1 1022 69 10000 3.09 270 07:40 18.11.2022
1001 Clear 1 1022 80 10000 3.09 260 05:18 18.11.2022
1002 Clear -1 1022 100 10000 1.54 60 00:46 18.11.2022
1003 Clear -1 1022 100 10000 2.06 50 21:30 17.11.2022
1004 Clouds 0 1022 100 10000 2.57 60 20:45 17.11.2022
1005 Clouds -1 1021 100 10000 1.03 0 19:51 17.11.2022
1006 Clouds -1 1021 100 10000 0 0 18:35 17.11.2022
1007 Clear 1 1021 100 10000 1.03 0 17:32 17.11.2022
1008 Clear -1 1020 100 10000 0.51 0 16:48 17.11.2022
1009 Clouds 1 1020 86 10000 0.51 0 13:33 17.11.2022
1010 Clouds 1 1019 80 10000 0 0 11:21 17.11.2022
1011 Clear 3 1017 65 10000 2.57 40 08:23 17.11.2022
1012 Clouds 2 1016 55 10000 1.54 290 03:51 17.11.2022
1013 Clear 3 1016 52 10000 2.06 270 00:21 17.11.2022
1014 Clear 2 1016 55 10000 2.06 260 22:29 16.11.2022
1015 Clear 2 1016 55 10000 2.06 300 20:36 16.11.2022
1016 Clear 3 1016 52 10000 2.06 270 19:33 16.11.2022
1017 Clear 3 1016 65 10000 3.09 270 18:40 16.11.2022
1018 Clear 3 1016 70 10000 3.6 270 17:19 16.11.2022
1019 Clear 2 1016 80 10000 3.09 270 13:39 16.11.2022
1020 Clear 1 1017 86 10000 0.51 0 09:38 16.11.2022
1021 Clouds 4 1019 75 10000 6.17 240 02:32 16.11.2022
1022 Clouds 4 1019 75 10000 4.12 260 01:25 16.11.2022
1023 Clouds 5 1020 70 10000 5.66 270 22:22 15.11.2022
1024 Clouds 5 1020 75 10000 5.14 280 20:32 15.11.2022
1025 Clouds 5 1020 75 10000 4.12 270 19:33 15.11.2022
1026 Clouds 4 1021 81 10000 5.14 270 17:39 15.11.2022
1027 Clouds 5 1021 75 10000 6.17 280 16:53 15.11.2022
1028 Clouds 5 1020 75 10000 6.17 270 16:19 15.11.2022
1029 Clouds 5 1021 70 10000 5.66 290 14:44 15.11.2022
1030 Clouds 5 1021 70 10000 6.69 280 12:59 15.11.2022
1031 Rain 5 1021 70 10000 6.69 280 11:43 15.11.2022
1032 Clouds 5 1021 75 10000 7.2 280 10:41 15.11.2022
1033 Clouds 4 1021 75 10000 5.66 270 06:57 15.11.2022
1034 Rain 3 1022 75 10000 4.12 280 00:34 15.11.2022
1035 Clouds 3 1022 70 10000 5.14 320 22:59 14.11.2022
1036 Clouds 3 1022 75 10000 5.66 340 21:19 14.11.2022
1037 Clouds 3 1022 75 10000 5.66 340 20:38 14.11.2022
1038 Clouds 3 1020 87 10000 5.14 340 18:29 14.11.2022
1039 Rain 5 1018 87 10000 5.14 340 15:45 14.11.2022
1040 Rain 3 1017 100 10000 1.54 220 12:54 14.11.2022
1041 Rain 3 1017 100 10000 4.12 210 11:41 14.11.2022
1042 Rain 2 1017 100 10000 4.12 210 09:25 14.11.2022
1043 Rain 2 1017 100 10000 3.09 210 07:53 14.11.2022
1044 Snow 2 1018 100 10000 1.03 0 06:19 14.11.2022
1045 Snow 1 1020 100 10000 1.03 0 00:18 14.11.2022
1046 Snow 1 1020 100 10000 1.03 0 00:18 14.11.2022
1047 Clouds 1 1021 100 10000 0 0 21:53 13.11.2022
1048 Clouds 1 1021 100 10000 0 0 21:21 13.11.2022
1049 Clouds 2 1022 93 10000 0 0 19:27 13.11.2022
1050 Clouds 1 1022 93 10000 0.51 0 17:56 13.11.2022
1051 Clouds 1 1022 93 10000 0.51 0 17:21 13.11.2022
1052 Rain 2 1022 87 10000 1.03 0 14:58 13.11.2022
1053 Snow 0 1022 100 10000 1.54 0 13:35 13.11.2022
1054 Clouds 1 1022 100 10000 0.51 0 12:35 13.11.2022
1055 Drizzle 2 1022 100 10000 0 0 10:52 13.11.2022
1056 Clouds 1 1021 93 10000 0 0 07:39 13.11.2022
1057 Clouds 1 1018 93 10000 1.03 0 01:34 13.11.2022
1058 Clouds 2 1015 100 10000 1.54 80 22:29 12.11.2022
1059 Clouds 4 1013 81 10000 3.09 40 21:24 12.11.2022
1060 Clouds 4 1011 93 10000 4.12 40 19:55 12.11.2022
1061 Clouds 4 1008 93 10000 4.12 40 17:56 12.11.2022
1062 Rain 4 1005 93 10000 6.17 40 16:23 12.11.2022
1063 Rain 4 1002 100 10000 7.2 40 15:19 12.11.2022
1064 Rain 1 996 100 10000 0 0 12:27 12.11.2022
1065 Snow 0 991 93 10000 1.03 60 09:20 12.11.2022
1066 Snow 0 986 86 10000 2.57 20 05:31 12.11.2022
1067 Clear -2 986 80 10000 2.06 60 22:30 11.11.2022
1068 Clouds -2 986 93 10000 2.06 50 20:46 11.11.2022
1069 Clouds -2 986 86 10000 0.51 0 19:42 11.11.2022
1070 Clouds -1 985 86 10000 1.03 0 19:20 11.11.2022
1071 Clouds 0 985 80 10000 0 0 17:56 11.11.2022
1072 Clouds 0 985 80 10000 0 0 17:56 11.11.2022
1073 Clouds 0 985 80 10000 0 0 16:20 11.11.2022
1074 Clouds 1 984 75 10000 1.54 0 14:20 11.11.2022
1075 Clouds 1 984 75 10000 2.57 180 13:29 11.11.2022
1076 Clouds 1 985 75 10000 2.57 0 09:48 11.11.2022
1077 Clouds 0 985 80 10000 7.2 200 08:27 11.11.2022
1078 Clouds 0 989 69 10000 4.63 150 05:28 11.11.2022
1079 Clear -1 998 74 10000 3.6 190 23:22 10.11.2022
1080 Clear -2 998 80 10000 2.06 170 22:35 10.11.2022
1081 Clear -1 999 74 10000 3.09 140 21:33 10.11.2022
1082 Clouds 0 999 74 10000 2.57 0 20:50 10.11.2022
1083 Clouds 0 999 74 10000 4.12 120 20:22 10.11.2022
1084 Clouds 0 999 80 10000 3.09 120 19:42 10.11.2022
1085 Clouds 0 1000 80 10000 1.54 140 18:32 10.11.2022
1086 Snow 0 1001 80 9000 3.6 0 16:26 10.11.2022
1087 Clouds 1 1001 75 10000 3.6 170 13:57 10.11.2022
1088 Clouds 1 1001 75 10000 3.09 190 12:50 10.11.2022
1089 Clouds -1 1002 74 10000 4.63 130 08:50 10.11.2022
1090 Clouds 1 1004 80 10000 5.66 90 01:35 10.11.2022
1091 Clouds 1 1005 86 10000 4.63 110 23:45 09.11.2022
1092 Clouds 1 1005 86 10000 4.63 100 22:45 09.11.2022
1093 Clouds 1 1006 80 10000 5.66 110 20:49 09.11.2022
1094 Clouds 1 1006 86 10000 5.66 110 20:29 09.11.2022
1095 Clouds 1 1006 86 10000 5.14 90 19:43 09.11.2022
1096 Clouds 1 1006 80 10000 5.14 80 19:18 09.11.2022
1097 Clouds 0 1007 80 10000 1.54 0 16:50 09.11.2022
1098 Clouds 1 1008 75 10000 3.6 120 14:48 09.11.2022
1099 Clouds 1 1008 80 10000 4.12 100 14:26 09.11.2022
1100 Clouds 2 1008 75 10000 2.57 120 13:31 09.11.2022
1101 Clouds 2 1008 75 10000 3.09 120 12:34 09.11.2022
1102 Clouds 2 1009 69 10000 4.63 130 08:53 09.11.2022
1103 Clouds 1 1009 80 10000 4.63 130 07:47 09.11.2022
1104 Clouds 0 1009 86 10000 2.57 70 01:45 09.11.2022
1105 Clear -1 1008 93 10000 1.03 0 21:56 08.11.2022
1106 Clear -1 1008 93 10000 1.03 0 21:35 08.11.2022
1107 Clouds 1 1008 100 10000 1.03 0 20:41 08.11.2022
1108 Clouds 1 1008 100 10000 1.54 40 19:47 08.11.2022
1109 Clouds 1 1008 100 10000 1.54 50 19:20 08.11.2022
1110 Clouds 1 1008 100 10000 1.03 0 17:34 08.11.2022
1111 Clouds 2 1007 100 10000 1.54 40 14:57 08.11.2022
1112 Clouds 1 1007 100 10000 1.03 0 14:31 08.11.2022
1113 Clouds 1 1007 100 10000 0.51 0 13:28 08.11.2022
1114 Snow 2 1005 100 10000 0 0 10:28 08.11.2022
1115 Clouds 2 1005 100 10000 1.54 70 07:38 08.11.2022
1116 Clouds 1 1003 93 10000 1.54 60 04:27 08.11.2022
1117 Clouds 2 1001 93 10000 3.09 40 22:56 07.11.2022
1118 Clouds 2 1000 93 10000 4.12 50 21:40 07.11.2022
1119 Rain 2 999 93 10000 3.09 50 20:46 07.11.2022
1120 Clouds 2 999 93 10000 4.12 60 19:40 07.11.2022
1121 Clouds 3 995 87 10000 9.26 50 17:41 07.11.2022
1122 Clouds 4 994 87 10000 5.66 20 15:38 07.11.2022
1123 Clouds 3 994 93 10000 3.6 280 14:55 07.11.2022
1124 Rain 3 994 81 10000 1.03 0 13:33 07.11.2022
1125 Clouds 3 994 81 10000 3.6 350 12:24 07.11.2022
1126 Rain 2 994 100 8000 4.12 10 10:45 07.11.2022
1127 Rain 3 994 93 10000 1.54 0 08:30 07.11.2022
1128 Rain 4 994 87 10000 2.57 0 06:31 07.11.2022
1129 Snow 2 995 93 5000 8.75 240 01:45 07.11.2022
1130 Clouds 3 996 65 10000 5.66 250 23:33 06.11.2022
1131 Rain 1 997 100 10000 5.66 230 21:22 06.11.2022
1132 Snow 2 997 80 10000 7.72 260 20:48 06.11.2022
1133 Rain 3 998 70 10000 7.72 240 19:56 06.11.2022
1134 Rain 3 998 70 10000 6.69 240 19:27 06.11.2022
1135 Clouds 3 998 65 10000 3.6 250 18:20 06.11.2022
1136 Clouds 3 999 65 10000 2.57 260 17:39 06.11.2022
1137 Clouds 3 999 65 10000 2.57 240 17:18 06.11.2022
1138 Clouds 2 999 64 10000 2.06 280 16:19 06.11.2022
1139 Clouds 2 1000 64 10000 3.09 360 14:53 06.11.2022
1140 Clouds 3 1000 70 10000 4.12 360 12:46 06.11.2022
1141 Drizzle 3 1000 93 10000 4.12 360 10:56 06.11.2022
1142 Drizzle 3 1000 100 6000 5.66 350 09:52 06.11.2022
1143 Rain 5 999 100 10000 3.09 280 07:44 06.11.2022
1144 Rain 4 1002 100 10000 1.54 220 23:23 05.11.2022
1145 Rain 5 1002 81 10000 2.57 240 20:45 05.11.2022
1146 Clear 4 1003 81 10000 2.57 240 18:22 05.11.2022
1147 Clear 4 1003 81 10000 2.57 240 18:22 05.11.2022
1148 Clear 5 1004 75 10000 3.6 240 16:27 05.11.2022
1149 Clear 4 1004 81 10000 3.6 250 14:43 05.11.2022
1150 Clear 4 1005 81 10000 2.06 250 13:39 05.11.2022
1151 Clouds 2 1006 93 10000 1.03 0 10:59 05.11.2022
1152 Clouds 3 1006 87 10000 1.54 40 08:55 05.11.2022
1153 Clouds 1 1007 100 10000 1.03 0 07:23 05.11.2022
1154 Clouds 1 1007 93 10000 1.03 0 06:54 05.11.2022
1155 Clouds 3 1008 87 10000 0 0 00:22 05.11.2022
1156 Clouds 3 1008 87 10000 0 0 23:26 04.11.2022
1157 Clouds 3 1008 87 10000 0 0 23:26 04.11.2022
1158 Clouds 5 1007 81 10000 2.57 260 20:39 04.11.2022
1159 Clouds 5 1007 87 10000 3.6 250 19:28 04.11.2022
1160 Clouds 5 1007 81 10000 0.51 0 17:24 04.11.2022
1161 Clouds 5 1007 81 10000 1.54 280 14:20 04.11.2022
1162 Clouds 6 1007 75 10000 1.54 240 12:28 04.11.2022
1163 Clouds 6 1007 75 10000 2.57 240 11:43 04.11.2022
1164 Clouds 6 1006 75 10000 3.6 250 09:24 04.11.2022
1165 Clouds 5 1006 87 10000 2.06 260 07:46 04.11.2022
1166 Clouds 5 1005 81 10000 2.06 250 05:51 04.11.2022
1167 Clear 6 1004 75 10000 2.57 230 00:25 04.11.2022
1168 Clear 6 1003 75 10000 1.03 0 21:18 03.11.2022
1169 Clear 7 1004 76 10000 2.57 240 20:32 03.11.2022
1170 Clouds 7 1004 76 10000 3.09 250 19:40 03.11.2022
1171 Clear 5 1005 81 10000 2.06 260 17:52 03.11.2022
1172 Clear 4 1005 81 10000 1.03 0 16:53 03.11.2022
1173 Clear 4 1006 81 10000 3.6 240 14:56 03.11.2022
1174 Clear 4 1006 81 10000 3.09 230 13:23 03.11.2022
1175 Clear 4 1006 75 10000 3.09 230 12:30 03.11.2022
1176 Clear 4 1007 75 10000 2.06 0 10:21 03.11.2022
1177 Clear 2 1007 80 10000 0 0 07:45 03.11.2022
1178 Clear 6 1006 75 10000 2.57 250 21:44 02.11.2022
1179 Clear 6 1006 75 10000 3.6 240 20:51 02.11.2022
1180 Clear 6 1006 75 10000 4.63 230 20:19 02.11.2022
1181 Clear 7 1004 70 10000 5.14 240 17:58 02.11.2022
1182 Clear 7 1004 65 10000 4.63 260 16:25 02.11.2022
1183 Clear 6 1003 70 10000 4.63 230 15:25 02.11.2022
1184 Clear 6 1003 70 10000 4.63 230 15:25 02.11.2022
1185 Clear 6 1002 75 10000 4.12 220 12:48 02.11.2022
1186 Clear 6 1002 70 10000 3.6 250 11:58 02.11.2022
1187 Clear 6 1001 75 10000 6.17 210 09:27 02.11.2022
1188 Clear 8 1002 66 10000 7.2 180 06:48 02.11.2022
1189 Clear 7 1006 76 10000 3.6 270 00:55 02.11.2022
1190 Clear 7 1007 81 10000 3.6 270 22:20 01.11.2022
1191 Clouds 7 1007 81 10000 3.09 260 21:42 01.11.2022
1192 Clouds 6 1007 87 10000 1.03 0 20:27 01.11.2022
1193 Clouds 6 1007 87 10000 1.03 0 19:58 01.11.2022
1194 Clouds 6 1007 87 10000 1.03 0 19:40 01.11.2022
1195 Clouds 6 1007 100 10000 1.54 0 17:58 01.11.2022
1196 Clouds 7 1008 100 10000 3.09 260 16:23 01.11.2022
1197 Clouds 7 1007 93 10000 3.09 250 14:34 01.11.2022
1198 Clouds 7 1007 93 10000 3.6 230 12:33 01.11.2022
1199 Clouds 6 1007 100 10000 2.57 230 11:38 01.11.2022
1200 Clouds 6 1007 100 10000 2.57 230 11:20 01.11.2022
1201 Clouds 6 1006 87 10000 4.12 230 08:51 01.11.2022
1202 Clouds 5 1006 87 10000 3.6 240 07:48 01.11.2022
1203 Clouds 5 1006 81 10000 3.6 230 07:26 01.11.2022
1204 Clouds 4 1006 87 10000 2.57 230 06:45 01.11.2022
1205 Drizzle 3 1006 87 10000 0 0 04:18 01.11.2022
1206 Clear 3 1005 87 10000 1.54 60 22:24 31.10.2022
1207 Clear 4 1005 87 10000 2.06 250 21:26 31.10.2022
1208 Clear 4 1005 87 10000 1.54 0 19:56 31.10.2022
1209 Clear 3 1006 87 10000 0 0 18:35 31.10.2022
1210 Clouds 3 1005 87 10000 0.51 0 16:44 31.10.2022
1211 Clouds 5 1006 93 10000 3.09 240 14:30 31.10.2022
1212 Clouds 5 1006 100 10000 2.06 220 12:18 31.10.2022
1213 Clouds 5 1006 100 7000 3.6 250 09:34 31.10.2022
1214 Rain 5 1005 100 10000 5.66 240 05:40 31.10.2022
1215 Clouds 6 1005 81 10000 5.14 250 02:38 31.10.2022
1216 Clouds 5 1005 93 10000 9.77 240 01:46 31.10.2022
1217 Clouds 3 1005 100 10000 2.57 220 22:18 30.10.2022
1218 Rain 3 1004 87 10000 5.66 250 20:37 30.10.2022
1219 Rain 3 1004 87 10000 5.66 250 20:37 30.10.2022
1220 Clouds 4 1004 70 10000 2.57 270 19:33 30.10.2022
1221 Clouds 3 1004 65 10000 3.6 270 16:28 30.10.2022
1222 Clouds 3 1002 65 10000 5.66 270 14:33 30.10.2022
1223 Clouds 3 1002 70 10000 2.57 0 13:33 30.10.2022
1224 Clouds 1 1001 80 10000 3.6 0 11:58 30.10.2022
1225 Clouds 2 1000 60 10000 3.6 0 09:56 30.10.2022
1226 Snow 1 999 80 10000 2.57 0 08:54 30.10.2022
1227 Snow 1 998 64 10000 3.09 0 07:45 30.10.2022
1228 Clouds 1 992 80 10000 5.14 30 00:29 30.10.2022
1229 Clouds 1 992 80 10000 5.14 30 00:29 30.10.2022
1230 Clouds 0 992 80 10000 2.06 0 23:46 29.10.2022
1231 Snow 0 990 80 10000 5.66 20 21:56 29.10.2022
1232 Clouds 0 988 93 5000 5.14 20 18:38 29.10.2022
1233 Clouds 1 987 93 10000 7.72 360 17:22 29.10.2022
1234 Clouds 2 985 80 10000 1.54 0 15:38 29.10.2022
1235 Rain 2 985 87 10000 3.6 20 14:52 29.10.2022
1236 Clouds 3 984 93 10000 5.14 10 13:29 29.10.2022
1237 Clouds 4 984 87 10000 0.51 0 12:32 29.10.2022
1238 Clouds 4 983 100 10000 4.12 240 08:56 29.10.2022
1239 Rain 4 985 100 10000 2.06 210 06:48 29.10.2022
1240 Rain 4 986 100 10000 1.54 0 05:53 29.10.2022
1241 Clouds 5 991 100 10000 5.66 230 23:44 28.10.2022
1242 Clouds 4 992 81 10000 4.12 230 21:32 28.10.2022
1243 Clouds 4 993 81 10000 1.54 0 19:57 28.10.2022
1244 Clouds 3 994 81 10000 3.09 240 18:33 28.10.2022
1245 Clouds 3 994 81 10000 2.57 230 17:39 28.10.2022
1246 Clouds 3 995 75 10000 1.54 240 15:18 28.10.2022
1247 Clouds 2 996 80 10000 3.09 230 13:43 28.10.2022
1248 Clear 2 996 75 10000 3.6 220 11:55 28.10.2022
1249 Clear 1 997 80 10000 1.54 230 11:32 28.10.2022
1250 Clear 1 997 80 10000 3.6 220 10:45 28.10.2022
1251 Clear 1 997 80 10000 3.6 220 09:36 28.10.2022
1252 Clear 0 998 80 10000 0.51 0 07:19 28.10.2022
1253 Clear 1 1001 80 10000 4.12 0 02:30 28.10.2022
1254 Clouds 1 1004 80 10000 4.63 200 23:47 27.10.2022
1255 Clouds 1 1005 75 10000 5.14 200 22:37 27.10.2022
1256 Clouds 0 1007 74 10000 4.63 150 20:58 27.10.2022
1257 Clouds 0 1010 74 10000 2.06 140 18:33 27.10.2022
1258 Clouds 0 1010 80 10000 4.63 130 17:22 27.10.2022
1259 Clouds 0 1011 93 10000 4.12 70 12:54 27.10.2022
1260 Snow 0 1010 93 10000 1.03 0 08:31 27.10.2022
1261 Snow 0 1008 100 10000 2.06 60 02:56 27.10.2022
1262 Snow 1 1007 100 10000 5.14 50 23:54 26.10.2022
1263 Snow 1 1006 100 8000 7.2 50 22:44 26.10.2022
1264 Snow 1 1006 100 9000 7.2 60 21:49 26.10.2022
1265 Rain 1 1005 100 10000 0 0 18:38 26.10.2022
1266 Rain 3 1004 93 10000 6.17 260 16:31 26.10.2022
1267 Rain 4 1003 93 10000 6.17 240 13:34 26.10.2022
1268 Clouds 3 1003 93 10000 6.17 240 12:36 26.10.2022
1269 Clouds 2 1003 93 10000 1.54 0 09:31 26.10.2022
1270 Snow 1 1003 93 10000 2.06 210 08:53 26.10.2022
1271 Snow 1 1003 93 10000 1.54 0 08:22 26.10.2022
1272 Clear -1 1004 80 10000 0 0 00:45 26.10.2022
1273 Clear -1 1004 74 10000 0 0 00:20 26.10.2022
1274 Clear 0 1004 74 10000 1.54 260 21:47 25.10.2022
1275 Clear 0 1005 69 10000 1.54 0 20:50 25.10.2022
1276 Clear 1 1005 64 10000 2.06 240 19:19 25.10.2022
1277 Clear 1 1006 64 10000 1.54 0 17:51 25.10.2022
1278 Clear 1 1007 60 10000 3.6 250 13:57 25.10.2022
1279 Clear 2 1007 69 10000 3.09 220 11:38 25.10.2022
1280 Clear 2 1007 69 10000 2.57 250 10:37 25.10.2022
1281 Clear 2 1008 69 10000 2.57 250 09:33 25.10.2022
1282 Clouds 2 1008 69 10000 2.57 250 08:18 25.10.2022
1283 Clouds 2 1008 69 10000 2.57 230 07:54 25.10.2022
1284 Clouds 2 1008 75 10000 3.09 220 06:56 25.10.2022
1285 Clouds 2 1010 80 10000 2.57 220 03:43 25.10.2022
1286 Clouds 3 1010 75 10000 4.12 250 00:35 25.10.2022
1287 Clouds 3 1010 81 10000 5.14 240 23:28 24.10.2022
1288 Clouds 2 1010 87 10000 5.14 250 22:24 24.10.2022
1289 Clouds 2 1011 93 10000 4.12 260 21:33 24.10.2022
1290 Clouds 1 1011 100 10000 3.6 240 20:42 24.10.2022
1291 Clouds 1 1011 100 10000 5.14 260 18:52 24.10.2022
1292 Rain 2 1010 93 10000 6.69 240 17:45 24.10.2022
1293 Clouds 2 1010 100 10000 3.09 260 16:34 24.10.2022
1294 Snow 1 1010 100 10000 1.54 360 14:22 24.10.2022
1295 Snow 2 1010 87 10000 1.54 180 13:34 24.10.2022
1296 Rain 2 1010 75 10000 0.51 0 11:41 24.10.2022
1297 Clouds 2 1009 80 10000 2.57 40 08:45 24.10.2022
1298 Clouds 1 1005 100 10000 1.54 60 00:50 24.10.2022
1299 Clouds 3 1002 87 10000 2.57 350 21:23 23.10.2022
1300 Rain 3 1001 93 9000 4.63 260 19:50 23.10.2022
1301 Rain 3 999 87 10000 1.03 0 17:55 23.10.2022
1302 Clouds 3 999 87 10000 0 0 17:27 23.10.2022
1303 Clouds 4 995 81 10000 1.54 0 15:19 23.10.2022
1304 Rain 4 995 81 10000 1.54 0 15:19 23.10.2022
1305 Rain 4 992 81 10000 2.57 0 12:59 23.10.2022
1306 Rain 4 990 87 10000 1.54 0 10:59 23.10.2022
1307 Rain 2 986 100 10000 0 0 08:18 23.10.2022
1308 Drizzle 1 981 100 10000 6.17 210 23:40 22.10.2022
1309 Rain 3 981 81 10000 7.72 230 22:31 22.10.2022
1310 Drizzle 3 982 81 10000 10.29 230 21:42 22.10.2022
1311 Clouds 3 984 81 10000 13.38 240 20:49 22.10.2022
1312 Snow 2 985 87 10000 5.66 240 19:32 22.10.2022
1313 Rain 1 986 93 10000 6.69 250 18:55 22.10.2022
1314 Clouds 2 987 87 10000 8.23 240 17:36 22.10.2022
1315 Rain 3 989 93 10000 5.66 240 15:28 22.10.2022
1316 Rain 3 990 100 10000 4.12 220 14:39 22.10.2022
1317 Rain 3 991 100 10000 4.63 230 13:39 22.10.2022
1318 Rain 3 994 100 10000 3.09 220 09:51 22.10.2022
1319 Rain 3 995 100 10000 3.09 220 09:24 22.10.2022
1320 Rain 4 996 93 9000 4.12 230 07:33 22.10.2022
1321 Rain 4 999 81 10000 4.12 210 02:44 22.10.2022
1322 Clouds 4 1002 75 10000 3.6 230 23:46 21.10.2022
1323 Clear 3 1004 81 10000 1.54 0 21:35 21.10.2022
1324 Clouds 2 1004 87 10000 2.57 250 20:56 21.10.2022
1325 Clouds 1 1006 93 10000 2.06 230 19:19 21.10.2022
1326 Rain 2 1009 69 10000 3.09 210 16:51 21.10.2022
1327 Clear 1 1011 69 10000 3.09 0 13:57 21.10.2022
1328 Clear 1 1012 69 10000 3.09 180 12:56 21.10.2022
1329 Clear 1 1014 60 10000 2.57 120 10:40 21.10.2022
1330 Clear -1 1015 74 10000 1.54 0 09:49 21.10.2022
1331 Clear -1 1015 74 10000 0.51 0 08:38 21.10.2022
1332 Clouds -1 1016 69 10000 1.54 0 06:46 21.10.2022
1333 Clouds 1 1017 75 10000 0 0 00:28 21.10.2022
1334 Clouds 1 1016 64 10000 2.06 20 22:23 20.10.2022
1335 Clouds 2 1016 55 10000 3.09 10 20:35 20.10.2022
1336 Clouds 2 1015 55 10000 3.6 20 19:33 20.10.2022
1337 Clouds 2 1015 64 10000 5.66 360 17:52 20.10.2022
1338 Clouds 2 1014 60 10000 4.63 10 16:56 20.10.2022
1339 Snow 2 1012 80 10000 4.63 20 12:36 20.10.2022
1340 Rain 2 1012 80 10000 3.6 0 12:18 20.10.2022
1341 Clouds 2 1011 75 10000 4.12 0 10:59 20.10.2022
1342 Rain 2 1011 75 10000 0.51 0 10:29 20.10.2022
1343 Snow 3 1010 70 10000 6.17 270 07:45 20.10.2022
1344 Clouds 2 1010 75 10000 6.69 270 05:18 20.10.2022
1345 Snow 1 1009 86 10000 2.57 0 00:58 20.10.2022
1346 Clouds 2 1008 69 10000 4.63 0 22:45 19.10.2022
1347 Clouds 2 1008 60 10000 3.6 0 21:56 19.10.2022
1348 Clouds 2 1008 64 10000 3.6 0 20:52 19.10.2022
1349 Clouds 2 1006 80 10000 5.14 0 18:49 19.10.2022
1350 Rain 3 1005 70 10000 1.03 0 17:38 19.10.2022
1351 Clouds 4 1003 81 10000 4.12 0 15:41 19.10.2022
1352 Clouds 6 1000 100 10000 8.23 260 12:58 19.10.2022
1353 Rain 6 1001 87 10000 12.86 240 09:34 19.10.2022
1354 Rain 5 1002 87 10000 11.83 240 08:29 19.10.2022
1355 Rain 5 1005 87 10000 8.23 240 05:19 19.10.2022
1356 Rain 4 1008 81 10000 7.2 240 01:25 19.10.2022
1357 Clouds 2 1009 93 10000 2.06 280 23:18 18.10.2022
1358 Clouds 3 1010 75 10000 5.14 280 21:45 18.10.2022
1359 Rain 3 1010 81 10000 2.57 270 20:59 18.10.2022
1360 Clouds 3 1010 75 10000 2.57 310 19:58 18.10.2022
1361 Clouds 4 1009 65 10000 3.09 0 17:44 18.10.2022
1362 Clouds 4 1009 60 10000 3.6 20 16:49 18.10.2022
1363 Clouds 4 1008 60 10000 3.6 10 14:31 18.10.2022
1364 Clouds 4 1007 60 10000 3.6 10 12:33 18.10.2022
1365 Clouds 4 1006 65 10000 4.12 0 11:22 18.10.2022
1366 Clouds 4 1004 70 10000 5.14 10 09:45 18.10.2022
1367 Clouds 4 1004 75 10000 1.54 0 07:57 18.10.2022
1368 Drizzle 3 1003 87 10000 1.54 0 03:19 18.10.2022
1369 Clouds 4 1002 75 10000 5.14 270 22:37 17.10.2022
1370 Clouds 5 1001 70 10000 0 0 20:55 17.10.2022
1371 Rain 5 1001 70 10000 0 0 20:32 17.10.2022
1372 Rain 3 1001 93 10000 5.66 270 19:52 17.10.2022
1373 Rain 4 1001 87 10000 5.66 250 19:18 17.10.2022
1374 Rain 6 1000 70 10000 6.69 280 16:55 17.10.2022
1375 Clouds 6 999 100 10000 1.03 0 15:29 17.10.2022
1376 Clouds 6 999 100 10000 1.03 0 15:29 17.10.2022
1377 Clouds 6 998 100 10000 6.69 330 14:35 17.10.2022
1378 Clouds 6 996 100 10000 1.03 0 11:52 17.10.2022
1379 Rain 6 995 93 10000 2.06 240 06:41 17.10.2022
1380 Clouds 6 996 93 10000 0 0 23:33 16.10.2022
1381 Clouds 6 996 93 10000 0.51 0 21:58 16.10.2022
1382 Clouds 7 996 87 10000 1.54 270 20:56 16.10.2022
1383 Clouds 7 997 87 10000 1.03 0 19:47 16.10.2022
1384 Clouds 7 997 100 10000 3.6 240 17:58 16.10.2022
1385 Clouds 7 997 100 10000 3.6 240 17:39 16.10.2022
1386 Clouds 8 997 87 10000 4.12 240 15:58 16.10.2022
1387 Clouds 8 997 87 10000 4.12 250 14:34 16.10.2022
1388 Clouds 7 996 100 10000 2.06 220 12:23 16.10.2022
1389 Drizzle 7 996 93 10000 2.57 250 10:28 16.10.2022
1390 Rain 7 996 87 10000 1.03 0 09:26 16.10.2022
1391 Clouds 9 999 76 10000 3.6 150 02:37 16.10.2022
1392 Clouds 8 1000 81 10000 5.14 210 23:41 15.10.2022
1393 Clouds 7 1001 81 10000 4.63 180 21:29 15.10.2022
1394 Clouds 7 1001 76 10000 3.6 190 20:57 15.10.2022
1395 Clouds 5 1003 81 10000 4.63 100 18:54 15.10.2022
1396 Clear 6 1003 75 10000 5.14 200 15:50 15.10.2022
1397 Clear 6 1003 75 10000 4.12 190 15:31 15.10.2022
1398 Clouds 5 1004 75 10000 5.14 200 11:59 15.10.2022
1399 Clouds 5 1004 70 10000 6.17 200 11:27 15.10.2022
1400 Clouds 3 1004 81 10000 2.06 170 08:56 15.10.2022
1401 Clouds 4 1005 81 10000 2.57 160 03:53 15.10.2022
1402 Clouds 4 1006 87 10000 1.54 0 00:39 15.10.2022
1403 Clouds 5 1006 81 10000 3.09 100 22:25 14.10.2022
1404 Clouds 5 1006 75 10000 1.54 40 21:37 14.10.2022
1405 Clouds 5 1007 87 10000 1.03 0 20:27 14.10.2022
1406 Clouds 5 1007 93 10000 0 0 17:21 14.10.2022
1407 Clouds 7 1007 93 10000 2.57 220 15:30 14.10.2022
1408 Clouds 6 1007 100 10000 1.54 0 12:45 14.10.2022
1409 Drizzle 4 1006 100 10000 1.03 40 10:53 14.10.2022
1410 Drizzle 4 1006 100 9000 2.06 30 08:25 14.10.2022
1411 Rain 4 1005 100 10000 0 0 06:19 14.10.2022
1412 Rain 4 1005 100 10000 1.54 0 05:59 14.10.2022
1413 Rain 4 1005 100 10000 1.54 0 05:41 14.10.2022
1414 Rain 4 1004 100 10000 1.03 0 01:46 14.10.2022
1415 Rain 5 1002 100 10000 2.57 220 23:20 13.10.2022
1416 Drizzle 4 1001 100 10000 0 0 21:31 13.10.2022
1417 Drizzle 3 1001 100 10000 1.54 60 20:22 13.10.2022
1418 Drizzle 3 1001 100 10000 2.57 50 19:42 13.10.2022
1419 Rain 4 1001 100 10000 2.06 50 18:45 13.10.2022
1420 Rain 3 1000 100 10000 1.03 50 18:20 13.10.2022
1421 Rain 4 1000 87 10000 2.06 220 15:49 13.10.2022
1422 Rain 4 1000 87 10000 3.09 210 14:59 13.10.2022
1423 Rain 4 1000 81 10000 3.6 210 13:49 13.10.2022
1424 Rain 5 999 65 10000 2.06 240 11:46 13.10.2022
1425 Clear 4 1000 70 10000 1.03 0 10:18 13.10.2022
1426 Clouds 2 1000 93 10000 0 0 08:33 13.10.2022
1427 Clouds 2 1000 93 10000 0 0 08:33 13.10.2022
1428 Clouds 4 1000 87 10000 1.03 0 07:36 13.10.2022
1429 Clouds 5 1001 81 10000 9.26 240 03:37 13.10.2022
1430 Clouds 4 1002 87 10000 8.23 240 01:39 13.10.2022
1431 Clouds 5 1002 87 10000 8.23 230 00:21 13.10.2022
1432 Clouds 5 1001 81 10000 10.29 240 22:44 12.10.2022
1433 Rain 5 1001 81 10000 11.32 240 21:25 12.10.2022
1434 Rain 6 1001 81 10000 8.75 240 20:55 12.10.2022
1435 Clouds 6 1001 87 10000 9.26 240 20:27 12.10.2022
1436 Clouds 6 1001 87 10000 9.26 240 20:27 12.10.2022
1437 Clouds 6 1001 87 10000 9.26 240 20:27 12.10.2022
1438 Clouds 6 1000 87 10000 11.32 240 19:18 12.10.2022
1439 Rain 6 1000 87 10000 9.26 240 17:54 12.10.2022
1440 Rain 6 998 93 10000 6.69 260 16:30 12.10.2022
1441 Rain 7 997 87 10000 4.63 250 13:58 12.10.2022
1442 Rain 7 997 87 10000 4.63 250 13:36 12.10.2022
1443 Rain 6 994 87 10000 8.75 240 10:57 12.10.2022
1444 Rain 7 993 76 10000 9.26 240 09:23 12.10.2022
1445 Rain 7 992 70 10000 9.26 230 07:41 12.10.2022
1446 Rain 7 992 65 10000 9.26 230 06:43 12.10.2022
1447 Rain 7 992 76 10000 3.6 250 02:55 12.10.2022
1448 Clear 7 991 70 10000 2.57 220 23:33 11.10.2022
1449 Clear 8 990 66 10000 1.03 0 20:58 11.10.2022
1450 Clear 7 990 70 10000 2.06 20 20:19 11.10.2022
1451 Clouds 8 989 71 10000 1.54 0 17:46 11.10.2022
1452 Clouds 10 989 66 10000 4.63 210 15:35 11.10.2022
1453 Clouds 10 989 71 10000 6.17 210 13:29 11.10.2022
1454 Clouds 8 990 76 10000 2.06 0 10:44 11.10.2022
1455 Clouds 8 991 76 10000 2.06 200 10:24 11.10.2022
1456 Clouds 8 991 76 10000 3.6 200 08:30 11.10.2022
1457 Clouds 8 993 76 10000 3.09 180 02:52 11.10.2022
1458 Clear 7 994 81 10000 1.03 0 00:36 11.10.2022
1459 Clear 8 995 76 10000 3.09 190 22:51 10.10.2022
1460 Clouds 7 996 76 10000 1.54 0 20:43 10.10.2022
1461 Clouds 6 997 87 10000 3.09 50 19:22 10.10.2022
1462 Clouds 6 998 87 10000 1.03 0 17:27 10.10.2022
1463 Rain 6 998 93 10000 1.54 0 16:36 10.10.2022
1464 Clouds 7 998 70 10000 2.06 220 13:53 10.10.2022
1465 Clouds 7 998 70 10000 1.54 250 12:23 10.10.2022
1466 Clouds 6 998 81 10000 2.06 220 09:38 10.10.2022
1467 Clouds 6 997 93 10000 4.63 250 06:50 10.10.2022
1468 Rain 6 997 87 10000 5.14 250 05:34 10.10.2022
1469 Rain 6 996 87 10000 12.35 240 01:58 10.10.2022
1470 Rain 6 995 87 10000 10.29 240 00:23 10.10.2022
1471 Clouds 6 994 87 10000 9.77 240 22:26 09.10.2022
1472 Clouds 6 994 93 10000 10.8 240 21:40 09.10.2022
1473 Rain 6 993 87 10000 6.17 250 20:45 09.10.2022
1474 Rain 6 993 87 10000 11.83 240 19:51 09.10.2022
1475 Rain 6 992 87 10000 7.2 250 18:51 09.10.2022
1476 Rain 6 992 81 10000 7.72 250 18:25 09.10.2022
1477 Rain 6 991 87 10000 9.77 240 16:56 09.10.2022
1478 Rain 6 991 87 10000 11.32 240 16:21 09.10.2022
1479 Rain 6 990 81 10000 11.32 240 15:25 09.10.2022
1480 Rain 6 990 81 10000 12.35 240 14:26 09.10.2022
1481 Rain 6 989 87 10000 10.29 240 12:53 09.10.2022
1482 Rain 6 988 93 10000 10.8 230 11:28 09.10.2022
1483 Rain 6 987 87 10000 8.23 240 09:40 09.10.2022
1484 Rain 5 986 93 10000 6.17 240 07:35 09.10.2022
1485 Rain 7 984 81 10000 9.77 230 03:30 09.10.2022
1486 Rain 6 984 81 10000 4.63 220 02:23 09.10.2022
1487 Drizzle 6 984 93 10000 2.57 220 23:56 08.10.2022
1488 Rain 6 984 93 10000 3.6 230 22:52 08.10.2022
1489 Clouds 5 983 100 10000 2.57 240 20:52 08.10.2022
1490 Clouds 6 983 93 10000 4.63 230 19:56 08.10.2022
1491 Clouds 6 983 100 10000 3.6 220 18:22 08.10.2022
1492 Clouds 7 982 93 10000 4.12 240 15:50 08.10.2022
1493 Clouds 7 982 93 10000 4.63 220 14:24 08.10.2022
1494 Clouds 6 981 81 10000 3.09 230 12:31 08.10.2022
1495 Clouds 6 981 81 10000 3.6 220 10:36 08.10.2022
1496 Clouds 7 981 76 10000 1.54 240 09:50 08.10.2022
1497 Clouds 6 981 75 10000 2.57 240 07:50 08.10.2022
1498 Clouds 7 981 65 10000 2.06 280 03:50 08.10.2022
1499 Clouds 7 982 76 10000 2.57 240 00:34 08.10.2022
1500 Clouds 7 982 76 10000 3.09 240 23:20 07.10.2022
1501 Clouds 8 982 71 10000 3.6 210 22:32 07.10.2022
1502 Clouds 8 982 71 10000 6.69 230 20:50 07.10.2022
1503 Rain 8 983 81 10000 9.26 240 19:28 07.10.2022
1504 Rain 8 983 76 10000 9.77 240 17:37 07.10.2022
1505 Rain 8 983 71 10000 14.4 240 16:40 07.10.2022
1506 Clouds 7 981 81 10000 13.89 240 14:54 07.10.2022
1507 Rain 8 980 76 10000 15.43 240 12:35 07.10.2022
1508 Clouds 8 976 71 10000 19.55 240 09:28 07.10.2022
1509 Clouds 8 976 66 10000 20.58 240 08:56 07.10.2022
1510 Rain 8 974 71 10000 19.55 240 06:58 07.10.2022
1511 Rain 7 973 81 10000 13.38 240 01:34 07.10.2022
1512 Rain 7 972 87 10000 5.14 240 22:51 06.10.2022
1513 Rain 7 972 87 10000 11.32 230 21:46 06.10.2022
1514 Drizzle 7 972 87 10000 5.66 220 21:25 06.10.2022
1515 Clouds 7 972 87 10000 3.6 220 19:59 06.10.2022
1516 Rain 7 973 87 10000 4.12 230 18:38 06.10.2022
1517 Clouds 7 973 87 10000 4.12 240 18:19 06.10.2022
1518 Rain 7 973 100 10000 2.06 240 15:33 06.10.2022
1519 Rain 7 977 87 10000 5.66 110 11:45 06.10.2022
1520 Clouds 6 984 81 10000 2.57 0 07:35 06.10.2022
1521 Clouds 6 991 75 10000 3.6 0 03:37 06.10.2022
1522 Clouds 6 994 75 10000 3.6 0 00:39 06.10.2022
1523 Clouds 6 995 81 10000 1.54 210 21:41 05.10.2022
1524 Clouds 7 996 81 10000 3.09 230 19:30 05.10.2022
1525 Clouds 8 997 76 10000 3.6 210 17:36 05.10.2022
1526 Clouds 8 997 71 10000 5.66 200 16:20 05.10.2022
1527 Clouds 8 997 71 10000 6.17 210 14:47 05.10.2022
1528 Clouds 9 998 66 10000 6.69 200 14:19 05.10.2022
1529 Clouds 8 997 71 10000 4.63 200 12:25 05.10.2022
1530 Clouds 7 997 76 10000 6.17 200 09:39 05.10.2022
1531 Clouds 7 998 76 10000 5.66 200 07:44 05.10.2022
1532 Clouds 7 999 70 10000 7.2 200 06:19 05.10.2022
1533 Clouds 7 1000 70 10000 6.17 200 04:21 05.10.2022
1534 Clear 7 1003 76 10000 5.66 200 00:53 05.10.2022
1535 Clear 7 1004 76 10000 5.14 190 00:27 05.10.2022
1536 Clear 7 1004 76 10000 5.66 200 22:39 04.10.2022
1537 Clear 7 1006 76 10000 3.6 190 20:39 04.10.2022
1538 Clear 7 1007 76 10000 3.6 120 19:42 04.10.2022
1539 Clear 7 1007 76 10000 1.54 0 18:39 04.10.2022
1540 Clear 8 1008 71 10000 5.14 200 17:50 04.10.2022
1541 Clear 9 1008 71 10000 3.09 190 16:36 04.10.2022
1542 Clear 10 1010 62 10000 5.14 200 13:19 04.10.2022
1543 Clear 5 1010 87 10000 1.54 60 09:47 04.10.2022
1544 Clouds 4 1011 87 10000 0 0 07:24 04.10.2022
1545 Clouds 6 1012 70 10000 2.06 110 02:32 04.10.2022
1546 Clouds 5 1012 65 10000 3.6 140 23:41 03.10.2022
1547 Rain 5 1012 65 10000 3.6 90 21:55 03.10.2022
1548 Rain 4 1012 70 10000 3.09 50 21:23 03.10.2022
1549 Clouds 4 1012 81 10000 3.09 40 20:28 03.10.2022
1550 Clouds 4 1012 70 10000 1.54 40 18:35 03.10.2022
1551 Clouds 6 1011 61 10000 0.51 0 17:28 03.10.2022
1552 Clouds 7 1011 65 10000 0 0 15:49 03.10.2022
1553 Clouds 6 1011 75 10000 1.54 220 14:21 03.10.2022
1554 Clouds 6 1010 75 10000 1.54 220 12:34 03.10.2022
1555 Clouds 5 1009 81 10000 0.51 0 10:40 03.10.2022
1556 Clouds 3 1008 93 10000 0 0 09:44 03.10.2022
1557 Clouds 4 1008 87 10000 0 0 07:32 03.10.2022
1558 Clouds 4 1006 81 10000 0.51 0 03:38 03.10.2022
1559 Clouds 4 1005 81 10000 0 0 22:50 02.10.2022
1560 Clouds 4 1004 81 10000 0 0 21:33 02.10.2022
1561 Clouds 4 1004 81 10000 0 0 19:39 02.10.2022
1562 Clouds 5 1003 75 10000 1.03 0 17:55 02.10.2022
1563 Clouds 6 1003 75 10000 1.03 240 16:50 02.10.2022
1564 Clouds 6 1003 75 10000 0 0 16:27 02.10.2022
1565 Clouds 6 1003 75 10000 1.54 0 14:53 02.10.2022
1566 Clouds 6 1003 75 10000 2.06 30 13:46 02.10.2022
1567 Clouds 5 1003 81 10000 2.57 70 12:38 02.10.2022
1568 Clouds 5 1003 81 10000 2.06 110 11:41 02.10.2022
1569 Clouds 5 1003 81 10000 3.09 120 11:23 02.10.2022
1570 Clouds 5 1003 75 10000 3.6 110 09:49 02.10.2022
1571 Clouds 4 1002 81 10000 3.6 100 08:27 02.10.2022
1572 Clouds 4 1003 81 10000 4.63 90 05:18 02.10.2022
1573 Clouds 2 1003 80 10000 4.63 60 00:56 02.10.2022
1574 Clouds 2 1003 80 10000 4.63 60 00:36 02.10.2022
1575 Clouds 2 1004 80 10000 3.09 60 23:24 01.10.2022
1576 Clouds 2 1004 80 10000 2.57 60 21:38 01.10.2022
1577 Clouds 3 1005 70 10000 2.06 80 18:54 01.10.2022
1578 Clouds 5 1005 65 10000 3.6 120 17:25 01.10.2022
1579 Clouds 5 1005 65 10000 4.12 130 14:44 01.10.2022
1580 Clouds 5 1005 65 10000 3.6 140 13:43 01.10.2022
1581 Clouds 5 1006 65 10000 4.12 130 12:34 01.10.2022
1582 Clouds 4 1006 70 10000 4.12 140 11:22 01.10.2022
1583 Clouds 4 1006 70 10000 3.6 140 10:44 01.10.2022
1584 Clouds 4 1006 70 10000 3.6 140 10:25 01.10.2022
1585 Clear 3 1006 75 10000 2.06 130 09:18 01.10.2022
1586 Clear 2 1006 80 10000 3.09 130 08:19 01.10.2022
1587 Clear 2 1007 75 10000 2.06 30 03:37 01.10.2022
1588 Clear 4 1007 65 10000 2.06 30 01:31 01.10.2022
1589 Clear 2 1007 75 10000 1.54 0 23:20 30.09.2022
1590 Clear 4 1007 65 10000 1.54 0 21:56 30.09.2022
1591 Clear 3 1008 70 10000 0.51 0 20:45 30.09.2022
1592 Clear 4 1008 70 10000 1.54 20 20:20 30.09.2022
1593 Clear 4 1008 70 10000 1.54 20 20:20 30.09.2022
1594 Clouds 6 1008 61 10000 1.54 0 17:59 30.09.2022
1595 Clear 8 1008 49 10000 2.57 120 16:31 30.09.2022
1596 Clear 8 1008 53 10000 2.57 190 14:22 30.09.2022
1597 Clear 8 1009 49 10000 2.57 130 12:29 30.09.2022
1598 Clear 8 1009 49 10000 3.6 190 11:54 30.09.2022
1599 Clear 6 1010 61 10000 2.06 230 08:51 30.09.2022
1600 Clear 6 1010 65 10000 2.06 0 06:34 30.09.2022
1601 Clear 6 1011 70 10000 3.09 200 02:51 30.09.2022
1602 Clear 7 1012 61 10000 2.06 190 00:53 30.09.2022
1603 Clear 8 1012 66 10000 3.6 200 21:39 29.09.2022
1604 Clear 8 1012 66 10000 3.6 210 21:19 29.09.2022
1605 Clouds 9 1012 66 10000 3.09 210 18:54 29.09.2022
1606 Clouds 9 1012 71 10000 4.63 200 17:48 29.09.2022
1607 Clouds 10 1012 66 10000 3.6 200 16:29 29.09.2022
1608 Clouds 10 1012 66 10000 3.6 200 15:36 29.09.2022
1609 Clouds 10 1012 66 10000 5.14 200 14:59 29.09.2022
1610 Clouds 10 1013 71 10000 6.17 210 11:54 29.09.2022
1611 Clouds 7 1013 76 10000 0 0 07:39 29.09.2022
1612 Clouds 8 1013 76 10000 3.6 210 04:22 29.09.2022
1613 Clear 8 1013 81 10000 3.09 210 01:47 29.09.2022
1614 Clear 8 1013 81 10000 3.6 210 23:20 28.09.2022
1615 Clouds 9 1013 71 10000 4.63 210 21:31 28.09.2022
1616 Clouds 9 1013 71 10000 3.6 210 20:49 28.09.2022
1617 Clouds 9 1013 71 10000 1.03 0 19:48 28.09.2022
1618 Clear 10 1013 71 10000 2.57 220 16:27 28.09.2022
1619 Clear 9 1014 71 10000 3.09 210 13:28 28.09.2022
1620 Clear 9 1013 71 10000 4.12 210 11:43 28.09.2022
1621 Clear 8 1013 71 10000 4.12 210 09:36 28.09.2022
1622 Clear 7 1014 70 10000 0 0 07:42 28.09.2022
1623 Clouds 9 1014 61 10000 3.09 210 05:32 28.09.2022
1624 Clear 9 1014 66 10000 2.57 200 01:41 28.09.2022
1625 Clear 9 1014 66 10000 2.06 220 00:28 28.09.2022
1626 Clear 9 1013 66 10000 2.57 210 22:40 27.09.2022
1627 Clear 9 1013 71 10000 3.09 200 21:20 27.09.2022
1628 Clear 10 1013 62 10000 3.09 200 20:31 27.09.2022
1629 Clear 10 1013 62 10000 3.6 200 19:40 27.09.2022
1630 Clear 10 1013 62 10000 3.6 210 17:47 27.09.2022
1631 Clear 10 1013 66 10000 2.57 200 16:50 27.09.2022
1632 Clear 11 1013 62 10000 5.14 210 15:18 27.09.2022
1633 Clouds 11 1013 62 10000 6.17 200 13:52 27.09.2022
1634 Clouds 10 1013 62 10000 5.66 200 12:37 27.09.2022
1635 Clouds 9 1012 71 10000 6.17 170 10:33 27.09.2022
1636 Clouds 8 1012 76 10000 4.12 210 07:51 27.09.2022
1637 Clouds 8 1011 76 10000 4.63 220 04:52 27.09.2022
1638 Clouds 8 1011 76 10000 5.66 190 01:40 27.09.2022
1639 Clouds 8 1010 71 10000 6.69 200 23:52 26.09.2022
1640 Clouds 8 1010 71 10000 7.2 190 23:24 26.09.2022
1641 Clouds 8 1010 71 10000 6.17 180 21:35 26.09.2022
1642 Clouds 8 1010 71 10000 3.6 180 19:49 26.09.2022
1643 Clouds 8 1009 71 10000 6.17 150 18:55 26.09.2022
1644 Clouds 9 1009 71 10000 4.12 210 17:25 26.09.2022
1645 Clear 10 1009 53 10000 4.12 170 15:23 26.09.2022
1646 Clear 9 1009 57 10000 0.51 0 12:31 26.09.2022
1647 Clear 8 1008 61 10000 3.09 170 10:44 26.09.2022
1648 Clear 8 1008 61 10000 3.6 170 10:23 26.09.2022
1649 Clear 8 1008 61 10000 5.14 180 09:59 26.09.2022
1650 Clear 8 1008 61 10000 5.14 180 09:40 26.09.2022
1651 Clear 8 1008 61 10000 4.63 190 09:20 26.09.2022
1652 Clear 8 1007 71 10000 7.72 190 05:30 26.09.2022
1653 Clear 9 1006 66 10000 6.69 200 02:35 26.09.2022
1654 Clouds 10 1006 71 10000 6.69 200 23:24 25.09.2022
1655 Clear 10 1006 76 10000 7.2 210 21:47 25.09.2022
1656 Clear 10 1006 71 10000 9.77 200 21:25 25.09.2022
1657 Clear 10 1005 71 10000 8.75 200 20:36 25.09.2022
1658 Clouds 10 1006 71 10000 7.72 200 18:57 25.09.2022
1659 Clouds 10 1005 71 10000 8.75 190 18:26 25.09.2022
1660 Clouds 10 1006 71 10000 7.72 200 17:24 25.09.2022
1661 Clouds 11 1007 71 10000 6.17 200 16:21 25.09.2022
1662 Clouds 11 1007 76 10000 3.6 200 14:49 25.09.2022
1663 Clouds 10 1008 76 10000 7.2 210 14:19 25.09.2022
1664 Clouds 10 1008 76 10000 5.66 200 11:34 25.09.2022
1665 Clouds 10 1009 76 10000 3.6 200 09:44 25.09.2022
1666 Clouds 9 1010 81 10000 1.03 0 07:43 25.09.2022
1667 Clouds 9 1011 87 10000 1.03 0 05:25 25.09.2022
1668 Clouds 8 1012 100 10000 2.06 270 23:37 24.09.2022
1669 Clouds 8 1012 100 10000 2.06 270 23:37 24.09.2022
1670 Rain 8 1013 100 10000 1.54 290 21:25 24.09.2022
1671 Rain 9 1013 100 9000 1.54 250 20:32 24.09.2022
1672 Rain 9 1013 100 10000 1.54 260 19:20 24.09.2022
1673 Clouds 10 1013 81 10000 1.54 220 16:57 24.09.2022
1674 Clouds 10 1013 81 10000 2.57 200 15:29 24.09.2022
1675 Rain 11 1013 76 10000 3.09 200 14:47 24.09.2022
1676 Rain 11 1013 76 10000 3.09 200 13:22 24.09.2022
1677 Clouds 11 1013 76 10000 5.66 200 12:25 24.09.2022
1678 Clouds 10 1012 81 10000 2.57 210 09:59 24.09.2022
1679 Clouds 10 1012 81 10000 2.57 200 09:21 24.09.2022
1680 Clouds 10 1012 81 10000 2.57 210 07:41 24.09.2022
1681 Clouds 10 1011 81 10000 4.63 200 04:55 24.09.2022
1682 Rain 10 1011 76 10000 5.14 200 04:25 24.09.2022
1683 Clouds 10 1011 76 10000 3.6 200 23:18 23.09.2022
1684 Rain 10 1011 76 10000 4.63 200 21:40 23.09.2022
1685 Rain 10 1011 81 10000 3.6 210 21:22 23.09.2022
1686 Rain 11 1011 76 10000 5.14 200 20:45 23.09.2022
1687 Clear 11 1011 71 10000 3.6 200 19:20 23.09.2022
1688 Clear 11 1011 71 10000 3.6 200 19:20 23.09.2022
1689 Clear 11 1011 71 10000 3.6 210 17:42 23.09.2022
1690 Clouds 11 1010 71 10000 4.63 210 13:40 23.09.2022
1691 Clouds 10 1010 76 10000 6.69 200 10:18 23.09.2022
1692 Clear 12 1008 71 10000 7.72 200 07:30 23.09.2022
1693 Clouds 13 1010 67 10000 5.66 190 02:25 23.09.2022
1694 Clear 14 1011 67 10000 6.17 190 23:29 22.09.2022
1695 Clear 14 1011 67 10000 3.6 190 22:28 22.09.2022
1696 Clear 14 1012 67 10000 3.09 180 21:30 22.09.2022
1697 Clear 13 1012 76 10000 1.54 0 20:21 22.09.2022
1698 Clouds 12 1013 82 10000 2.06 50 18:57 22.09.2022
1699 Rain 12 1014 100 10000 1.54 0 15:23 22.09.2022
1700 Fog 10 1013 100 10000 1.03 260 10:48 22.09.2022
1701 Fog 10 1013 100 10000 3.09 240 10:19 22.09.2022
1702 Drizzle 10 1012 100 10000 5.14 240 07:55 22.09.2022
1703 Clouds 10 1012 100 10000 6.17 250 04:56 22.09.2022
1704 Rain 9 1011 100 10000 4.12 240 00:37 22.09.2022
1705 Clouds 9 1010 87 10000 3.09 240 22:29 21.09.2022
1706 Clouds 9 1010 87 10000 4.12 230 21:18 21.09.2022
1707 Clouds 10 1010 76 10000 6.17 240 18:50 21.09.2022
1708 Rain 9 1010 81 10000 7.72 240 17:44 21.09.2022
1709 Clouds 8 1010 81 10000 6.17 220 15:35 21.09.2022
1710 Rain 6 1010 87 10000 6.17 220 13:54 21.09.2022
1711 Rain 6 1012 81 10000 6.69 200 11:43 21.09.2022
1712 Rain 6 1012 81 10000 4.63 210 10:59 21.09.2022
1713 Rain 6 1013 81 10000 4.12 210 09:39 21.09.2022
1714 Rain 6 1013 81 10000 4.12 210 09:39 21.09.2022
1715 Rain 6 1013 81 10000 4.12 210 08:43 21.09.2022
1716 Rain 6 1014 81 10000 5.66 230 03:56 21.09.2022
1717 Rain 6 1015 75 10000 7.72 230 02:38 21.09.2022
1718 Rain 6 1015 75 10000 6.69 240 01:56 21.09.2022
1719 Clouds 6 1015 75 10000 6.17 240 00:19 21.09.2022
1720 Clouds 5 1016 75 10000 5.14 240 21:53 20.09.2022
1721 Clouds 5 1016 75 10000 4.63 250 20:33 20.09.2022
1722 Clouds 5 1016 81 10000 5.66 240 18:51 20.09.2022
1723 Rain 6 1017 65 10000 3.6 270 15:51 20.09.2022
1724 Clouds 6 1016 70 10000 2.06 0 14:18 20.09.2022
1725 Clouds 5 1016 70 10000 1.54 210 12:32 20.09.2022
1726 Clouds 5 1016 75 10000 2.57 10 08:50 20.09.2022
1727 Clouds 5 1016 70 10000 3.09 20 08:24 20.09.2022
1728 Clouds 4 1016 81 10000 3.6 20 04:40 20.09.2022
1729 Clouds 5 1016 75 10000 3.6 340 02:24 20.09.2022
1730 Clouds 4 1016 87 10000 2.57 30 22:46 19.09.2022
1731 Clouds 5 1016 81 10000 5.14 20 21:36 19.09.2022
1732 Clouds 5 1016 87 10000 4.63 10 20:40 19.09.2022
1733 Rain 5 1016 87 10000 5.14 20 19:20 19.09.2022
1734 Clouds 5 1016 81 10000 3.09 350 17:37 19.09.2022
1735 Rain 6 1015 87 10000 5.14 50 13:53 19.09.2022
1736 Clouds 6 1015 87 10000 5.66 20 12:33 19.09.2022
1737 Clouds 6 1014 81 10000 6.17 20 10:31 19.09.2022
1738 Clouds 6 1013 93 10000 6.17 40 08:41 19.09.2022
1739 Clouds 6 1012 100 10000 6.69 40 04:38 19.09.2022
1740 Clouds 6 1011 100 10000 5.66 50 01:18 19.09.2022
1741 Rain 6 1011 100 10000 4.12 50 22:49 18.09.2022
1742 Clouds 6 1011 100 8000 7.2 40 21:32 18.09.2022
1743 Clouds 6 1010 100 10000 8.23 40 19:58 18.09.2022
1744 Clouds 7 1010 87 10000 7.2 50 17:53 18.09.2022
1745 Clouds 6 1010 100 10000 6.17 50 16:59 18.09.2022
1746 Clouds 7 1009 87 10000 6.69 50 15:34 18.09.2022
1747 Clouds 7 1009 93 10000 7.2 50 13:47 18.09.2022
1748 Clouds 6 1008 100 10000 7.2 50 12:33 18.09.2022
1749 Clouds 7 1008 93 10000 5.66 50 10:44 18.09.2022
1750 Clouds 7 1006 93 10000 7.72 60 03:40 18.09.2022
1751 Rain 7 1005 100 10000 8.75 60 01:24 18.09.2022
1752 Rain 7 1005 100 10000 8.75 60 00:21 18.09.2022
1753 Rain 7 1004 100 10000 10.29 60 21:36 17.09.2022
1754 Rain 7 1003 100 10000 9.77 70 19:40 17.09.2022
1755 Clouds 8 1003 100 10000 8.75 60 18:46 17.09.2022
1756 Rain 8 1003 100 10000 7.72 60 15:58 17.09.2022
1757 Rain 7 1003 100 10000 7.72 50 13:56 17.09.2022
1758 Rain 7 1003 100 10000 7.72 50 10:56 17.09.2022
1759 Rain 7 1004 100 10000 7.2 40 08:34 17.09.2022
1760 Rain 7 1005 100 10000 7.2 50 06:24 17.09.2022
1761 Clouds 7 1005 93 10000 8.75 60 23:59 16.09.2022
1762 Clouds 7 1005 100 10000 8.75 60 22:52 16.09.2022
1763 Clouds 7 1005 100 10000 9.26 60 20:59 16.09.2022
1764 Clouds 8 1005 93 10000 8.75 60 19:50 16.09.2022
1765 Clouds 8 1005 100 10000 9.26 60 16:38 16.09.2022
1766 Rain 8 1005 100 10000 8.75 60 14:58 16.09.2022
1767 Clouds 8 1005 93 10000 8.23 70 13:43 16.09.2022
1768 Rain 8 1005 93 10000 8.75 60 11:31 16.09.2022
1769 Clouds 8 1005 93 10000 9.26 70 08:19 16.09.2022
1770 Clouds 8 1005 93 10000 9.26 70 07:18 16.09.2022
1771 Clouds 8 1005 93 10000 9.26 70 06:35 16.09.2022
1772 Rain 7 1005 100 10000 10.8 60 02:38 16.09.2022
1773 Clouds 7 1005 93 10000 9.26 70 22:52 15.09.2022
1774 Clouds 7 1005 100 10000 7.72 70 20:57 15.09.2022
1775 Clouds 7 1005 93 10000 7.72 60 19:48 15.09.2022
1776 Clouds 7 1006 87 10000 8.75 60 18:29 15.09.2022
1777 Clouds 7 1005 87 10000 8.23 70 17:32 15.09.2022
1778 Clouds 7 1005 87 10000 8.23 60 16:42 15.09.2022
1779 Clouds 6 1006 87 10000 9.26 70 14:30 15.09.2022
1780 Clouds 6 1006 87 10000 9.26 70 12:20 15.09.2022
1781 Clouds 6 1006 81 10000 8.23 70 09:53 15.09.2022
1782 Clouds 5 1006 81 10000 8.23 70 07:50 15.09.2022
1783 Clouds 6 1007 75 10000 8.23 80 03:52 15.09.2022
1784 Clouds 5 1008 87 10000 7.2 60 23:44 14.09.2022
1785 Clouds 6 1007 75 10000 7.2 70 21:30 14.09.2022
1786 Clouds 6 1007 75 10000 6.69 70 19:34 14.09.2022
1787 Clouds 6 1007 75 10000 6.17 70 19:34 14.09.2022
1788 Clouds 6 1007 70 10000 6.17 70 18:32 14.09.2022
1789 Clouds 7 1007 70 10000 6.17 80 16:46 14.09.2022
1790 Clouds 7 1007 70 10000 5.14 70 15:38 14.09.2022
1791 Clouds 6 1007 70 10000 4.63 60 13:54 14.09.2022
1792 Clouds 6 1006 65 10000 2.57 80 11:30 14.09.2022
1793 Clouds 5 1006 75 10000 1.03 0 09:48 14.09.2022
1794 Clouds 2 1005 87 10000 1.03 0 07:29 14.09.2022
1795 Clouds 2 1005 87 10000 1.54 50 06:34 14.09.2022
1796 Clouds 2 1005 80 10000 1.54 0 04:24 14.09.2022
1797 Clouds 4 1004 81 10000 2.06 10 01:47 14.09.2022
1798 Clouds 5 1004 75 10000 2.06 10 01:27 14.09.2022
1799 Clouds 5 1004 75 10000 2.57 10 00:42 14.09.2022
1800 Clouds 5 1004 81 10000 2.57 10 23:54 13.09.2022
1801 Clouds 5 1004 81 10000 2.57 10 23:36 13.09.2022
1802 Clouds 5 1004 81 10000 2.57 20 23:18 13.09.2022
1803 Drizzle 5 1004 93 10000 3.6 20 21:45 13.09.2022
1804 Clouds 6 1004 70 10000 2.06 310 19:38 13.09.2022
1805 Clouds 7 1003 70 10000 3.6 360 17:44 13.09.2022
1806 Clouds 7 1003 76 10000 2.57 30 15:55 13.09.2022
1807 Clouds 8 1002 71 10000 1.03 0 14:36 13.09.2022
1808 Clouds 8 1002 71 10000 2.06 250 12:32 13.09.2022
1809 Clear 6 1003 81 10000 0.51 0 08:50 13.09.2022
1810 Clouds 5 1005 73 10000 3.04 178 05:45 13.09.2022
1811 Clear 3 1009 81 10000 2.06 50 00:19 13.09.2022
1812 Clear 2 1010 93 10000 3.09 50 22:50 12.09.2022
1813 Clear 3 1011 75 10000 2.57 40 21:37 12.09.2022
1814 Clouds 3 1011 75 10000 1.54 50 20:25 12.09.2022
1815 Clouds 4 1012 75 10000 2.06 30 18:44 12.09.2022
1816 Clouds 6 1012 65 10000 2.57 30 16:38 12.09.2022
1817 Clouds 6 1012 65 10000 2.06 30 14:36 12.09.2022
1818 Clouds 6 1011 75 10000 4.63 20 11:29 12.09.2022
1819 Rain 5 1010 87 10000 4.63 20 09:46 12.09.2022
1820 Clouds 5 1007 100 10000 6.17 40 04:51 12.09.2022
1821 Clouds 6 1007 100 10000 5.14 40 04:24 12.09.2022
1822 Rain 7 1008 100 10000 1.54 50 23:34 11.09.2022
1823 Rain 7 1008 100 10000 2.57 50 22:18 11.09.2022
1824 Rain 7 1009 100 10000 1.03 30 20:48 11.09.2022
1825 Clouds 7 1010 100 10000 0 0 19:57 11.09.2022
1826 Drizzle 7 1010 100 10000 2.06 230 19:25 11.09.2022
1827 Drizzle 7 1011 100 10000 2.06 220 18:21 11.09.2022
1828 Rain 7 1011 100 10000 1.03 0 16:47 11.09.2022
1829 Rain 7 1011 100 10000 0 0 14:53 11.09.2022
1830 Rain 7 1012 100 8000 3.09 60 12:50 11.09.2022
1831 Rain 7 1012 100 10000 2.06 80 09:25 11.09.2022
1832 Rain 7 1012 100 10000 2.06 80 09:25 11.09.2022
1833 Rain 7 1012 100 10000 0 0 07:21 11.09.2022
1834 Rain 8 1013 100 10000 3.09 250 01:18 11.09.2022
1835 Drizzle 8 1013 100 4000 5.66 240 23:20 10.09.2022
1836 Drizzle 8 1013 100 10000 6.17 240 21:33 10.09.2022
1837 Clouds 8 1014 100 10000 3.6 280 19:49 10.09.2022
1838 Clouds 8 1014 100 10000 4.12 280 19:29 10.09.2022
1839 Clouds 8 1014 100 10000 4.63 280 18:58 10.09.2022
1840 Clouds 8 1014 100 10000 7.2 240 16:58 10.09.2022
1841 Clouds 8 1014 100 10000 8.75 240 15:28 10.09.2022
1842 Clouds 8 1014 100 10000 9.26 240 12:55 10.09.2022
1843 Clouds 8 1014 93 10000 8.75 240 11:36 10.09.2022
1844 Clouds 8 1014 93 10000 9.26 240 10:24 10.09.2022
1845 Clouds 8 1014 87 10000 7.2 240 08:37 10.09.2022
1846 Clouds 8 1013 87 10000 5.14 260 07:57 10.09.2022
1847 Clouds 8 1013 100 10000 8.75 230 02:54 10.09.2022
1848 Clouds 9 1014 100 10000 5.66 240 23:35 09.09.2022
1849 Clouds 9 1014 93 10000 6.69 240 22:21 09.09.2022
1850 Clouds 8 1015 100 10000 7.72 230 20:48 09.09.2022
1851 Rain 8 1015 100 10000 7.72 240 19:25 09.09.2022
1852 Rain 9 1015 100 10000 8.23 240 18:55 09.09.2022
1853 Rain 9 1015 100 10000 8.23 240 18:55 09.09.2022
1854 Clouds 8 1015 100 10000 7.2 230 16:34 09.09.2022
1855 Clouds 9 1016 93 10000 6.69 230 14:28 09.09.2022
1856 Rain 8 1016 100 10000 6.69 240 12:59 09.09.2022
1857 Rain 9 1016 81 10000 4.63 240 10:23 09.09.2022
1858 Rain 8 1017 93 10000 5.14 230 07:18 09.09.2022
1859 Clouds 9 1018 93 10000 4.63 240 03:30 09.09.2022
1860 Clouds 7 1019 100 10000 0 0 22:19 08.09.2022
1861 Clouds 6 1019 100 10000 0 0 21:47 08.09.2022
1862 Clouds 8 1019 93 10000 0 0 20:46 08.09.2022
1863 Clouds 8 1019 93 10000 0.51 0 20:24 08.09.2022
1864 Clouds 9 1020 87 10000 2.06 250 18:34 08.09.2022
1865 Clouds 9 1021 93 10000 2.57 240 16:47 08.09.2022
1866 Clouds 9 1021 93 10000 3.6 240 14:42 08.09.2022
1867 Clouds 9 1021 100 10000 4.63 240 13:27 08.09.2022
1868 Clouds 9 1021 100 10000 4.63 240 12:35 08.09.2022
1869 Clouds 9 1021 100 10000 4.63 240 10:58 08.09.2022
1870 Clouds 9 1021 87 10000 5.14 240 09:26 08.09.2022
1871 Clouds 8 1021 100 10000 4.12 260 06:43 08.09.2022
1872 Clouds 8 1021 100 10000 8.23 240 03:18 08.09.2022
1873 Clouds 8 1021 100 10000 6.17 240 02:36 08.09.2022
1874 Clouds 8 1021 100 10000 5.66 240 02:18 08.09.2022
1875 Clouds 8 1022 87 10000 6.17 240 22:56 07.09.2022
1876 Clouds 8 1022 93 10000 5.14 240 21:44 07.09.2022
1877 Clouds 7 1022 100 10000 6.17 240 21:21 07.09.2022
1878 Clouds 7 1023 87 10000 5.14 240 20:22 07.09.2022
1879 Clouds 8 1023 76 10000 4.63 240 18:41 07.09.2022
1880 Clouds 8 1024 71 10000 3.09 240 15:41 07.09.2022
1881 Clouds 7 1024 76 10000 2.57 250 10:51 07.09.2022
1882 Clouds 6 1024 81 10000 2.57 190 10:32 07.09.2022
1883 Clouds 5 1024 100 10000 0.51 0 07:46 07.09.2022
1884 Clouds 5 1025 93 10000 1.54 10 04:59 07.09.2022
1885 Clouds 5 1024 93 10000 1.03 0 00:26 07.09.2022
1886 Clouds 5 1024 100 10000 0.51 0 21:48 06.09.2022
1887 Clouds 5 1024 100 10000 0 0 21:30 06.09.2022
1888 Fog 5 1024 100 10000 0.51 0 19:27 06.09.2022
1889 Clouds 6 1024 87 10000 2.57 50 18:29 06.09.2022
1890 Clouds 6 1024 87 10000 3.6 360 17:23 06.09.2022
1891 Drizzle 7 1024 76 9000 2.06 340 16:41 06.09.2022
1892 Clouds 7 1024 76 10000 3.6 360 15:26 06.09.2022
1893 Clouds 7 1023 65 10000 2.06 10 13:47 06.09.2022
1894 Clouds 7 1023 70 10000 3.09 20 13:27 06.09.2022
1895 Clouds 7 1023 70 10000 3.09 20 12:40 06.09.2022
1896 Clouds 7 1023 76 10000 4.12 30 10:52 06.09.2022
1897 Clouds 7 1022 87 10000 4.12 40 08:58 06.09.2022
1898 Clouds 6 1021 100 10000 3.6 50 07:52 06.09.2022
1899 Clouds 7 1020 93 10000 5.14 20 05:59 06.09.2022
1900 Clouds 7 1019 100 8000 5.14 350 00:20 06.09.2022
1901 Clouds 8 1019 93 9000 4.63 270 22:43 05.09.2022
1902 Rain 8 1019 100 6000 5.14 280 21:38 05.09.2022
1903 Rain 8 1019 93 10000 6.17 270 19:56 05.09.2022
1904 Rain 8 1020 93 10000 5.66 260 18:51 05.09.2022
1905 Rain 8 1020 93 10000 6.69 280 18:24 05.09.2022
1906 Rain 8 1020 87 10000 6.69 280 17:35 05.09.2022
1907 Rain 8 1021 93 10000 7.72 250 15:53 05.09.2022
1908 Drizzle 9 1021 81 10000 5.66 260 14:20 05.09.2022
1909 Clouds 9 1023 81 10000 5.66 250 12:29 05.09.2022
1910 Clouds 9 1023 81 10000 6.69 270 10:35 05.09.2022
1911 Rain 7 1024 100 10000 4.63 250 08:36 05.09.2022
1912 Clouds 7 1026 100 10000 5.66 240 03:47 05.09.2022
1913 Clouds 7 1029 93 10000 5.14 240 00:18 05.09.2022
1914 Rain 7 1029 100 10000 2.06 260 22:28 04.09.2022
1915 Drizzle 7 1029 100 8000 3.09 260 21:49 04.09.2022
1916 Drizzle 8 1029 93 2500 2.57 270 19:50 04.09.2022
1917 Clouds 8 1030 93 10000 4.63 330 18:34 04.09.2022
1918 Clouds 8 1030 100 10000 1.54 0 17:26 04.09.2022
1919 Clouds 9 1030 87 10000 2.57 0 15:42 04.09.2022
1920 Drizzle 9 1030 100 9000 4.63 330 14:24 04.09.2022
1921 Drizzle 8 1030 100 8000 3.09 260 12:34 04.09.2022
1922 Clouds 9 1029 100 10000 3.09 30 10:59 04.09.2022
1923 Clouds 9 1029 100 10000 2.57 10 09:25 04.09.2022
1924 Clouds 8 1028 100 10000 3.09 260 06:34 04.09.2022
1925 Clouds 8 1028 100 10000 1.03 0 02:51 04.09.2022
1926 Clouds 7 1028 100 10000 2.57 240 22:34 03.09.2022
1927 Clouds 7 1028 100 10000 3.6 240 21:26 03.09.2022
1928 Clouds 7 1028 100 10000 2.57 270 20:55 03.09.2022
1929 Clouds 7 1028 87 10000 2.06 350 18:31 03.09.2022
1930 Clouds 8 1028 76 10000 2.57 360 17:19 03.09.2022
1931 Clouds 8 1029 66 10000 2.57 360 15:49 03.09.2022
1932 Clouds 9 1029 61 10000 2.06 10 14:42 03.09.2022
1933 Clouds 7 1029 76 10000 2.06 40 13:50 03.09.2022
1934 Clouds 6 1029 87 10000 2.06 10 11:32 03.09.2022
1935 Clouds 6 1029 81 10000 3.09 10 09:32 03.09.2022
1936 Clouds 6 1028 87 10000 3.09 30 07:53 03.09.2022
1937 Clouds 6 1029 81 10000 3.09 20 04:51 03.09.2022
1938 Clouds 6 1029 93 10000 3.6 60 02:40 03.09.2022
1939 Clouds 6 1029 93 10000 3.6 30 23:46 02.09.2022
1940 Clouds 7 1029 76 10000 4.12 30 22:23 02.09.2022
1941 Clouds 6 1030 100 10000 3.09 40 20:42 02.09.2022
1942 Clouds 6 1030 100 10000 6.69 50 20:18 02.09.2022
1943 Clouds 6 1030 100 10000 6.17 40 18:51 02.09.2022
1944 Clouds 6 1030 100 10000 6.17 40 18:26 02.09.2022
1945 Clouds 7 1031 100 10000 7.2 50 17:28 02.09.2022
1946 Clouds 7 1031 87 10000 5.66 40 16:32 02.09.2022
1947 Clouds 8 1031 87 10000 6.69 50 13:50 02.09.2022
1948 Clouds 7 1031 93 10000 5.14 40 11:36 02.09.2022
1949 Clouds 7 1031 87 10000 3.6 80 09:46 02.09.2022
1950 Clouds 7 1032 93 10000 4.12 50 08:47 02.09.2022
1951 Clouds 6 1032 93 10000 4.12 60 06:49 02.09.2022
1952 Clouds 6 1032 93 10000 4.12 50 06:24 02.09.2022
1953 Clouds 6 1032 93 10000 2.06 30 01:41 02.09.2022
1954 Clouds 5 1032 87 10000 0 0 22:24 01.09.2022
1955 Clouds 6 1032 81 10000 2.57 70 21:39 01.09.2022
1956 Clouds 6 1032 81 10000 4.12 50 21:20 01.09.2022
1957 Clouds 7 1032 76 10000 4.12 50 20:31 01.09.2022
1958 Clouds 8 1031 76 10000 5.66 60 18:37 01.09.2022
1959 Clouds 8 1031 76 10000 3.09 60 16:55 01.09.2022
1960 Clouds 9 1031 71 10000 3.09 20 15:29 01.09.2022
1961 Clouds 8 1031 71 10000 1.54 0 13:44 01.09.2022
1962 Clouds 8 1031 71 10000 3.09 50 12:56 01.09.2022
1963 Rain 7 1031 81 10000 2.57 350 11:51 01.09.2022
1964 Clouds 7 1031 76 10000 1.54 320 11:22 01.09.2022
1965 Clouds 8 1030 71 10000 2.57 20 09:49 01.09.2022
1966 Clouds 6 1030 81 10000 3.09 30 07:50 01.09.2022
1967 Clouds 5 1030 87 10000 4.12 350 05:56 01.09.2022
1968 Rain 6 1029 75 10000 2.57 20 01:31 01.09.2022
1969 Clouds 6 1029 75 10000 3.09 30 22:56 31.08.2022
1970 Clouds 6 1029 75 10000 3.09 10 20:45 31.08.2022
1971 Clouds 6 1028 87 10000 4.12 20 19:23 31.08.2022
1972 Clouds 6 1028 93 5000 2.57 40 16:49 31.08.2022
1973 Clouds 7 1028 76 10000 4.12 340 15:28 31.08.2022
1974 Clouds 8 1027 71 10000 3.6 20 13:38 31.08.2022
1975 Clouds 7 1026 81 10000 3.6 30 12:18 31.08.2022
1976 Clouds 8 1025 93 10000 3.6 30 09:36 31.08.2022
1977 Drizzle 7 1024 100 10000 1.03 0 08:31 31.08.2022
1978 Clouds 8 1023 93 10000 2.06 260 02:59 31.08.2022
1979 Rain 8 1023 87 10000 5.14 230 22:29 30.08.2022
1980 Clouds 8 1024 81 10000 4.63 240 21:30 30.08.2022
1981 Clouds 8 1024 87 10000 5.14 230 20:35 30.08.2022
1982 Rain 8 1026 81 10000 5.14 240 17:24 30.08.2022
1983 Rain 8 1027 81 10000 5.14 240 14:19 30.08.2022
1984 Rain 8 1027 71 10000 4.12 230 12:25 30.08.2022
1985 Rain 8 1027 71 10000 3.09 260 11:20 30.08.2022
1986 Clouds 7 1027 70 10000 1.54 280 09:58 30.08.2022
1987 Clouds 6 1027 75 10000 2.57 340 06:49 30.08.2022
1988 Rain 5 1027 87 10000 2.06 280 01:26 30.08.2022
1989 Clouds 5 1026 81 10000 3.6 340 22:39 29.08.2022
1990 Clouds 5 1026 87 10000 2.06 0 21:55 29.08.2022
1991 Clouds 5 1026 87 10000 1.54 0 21:23 29.08.2022
1992 Clouds 5 1026 87 10000 1.54 0 21:23 29.08.2022
1993 Clouds 5 1025 93 10000 1.03 0 19:41 29.08.2022
1994 Clouds 7 1024 81 10000 3.09 360 17:39 29.08.2022
1995 Clouds 7 1024 76 10000 2.57 0 17:18 29.08.2022
1996 Clouds 7 1024 81 10000 3.6 360 15:38 29.08.2022
1997 Clouds 8 1023 76 10000 3.09 360 13:58 29.08.2022
1998 Clouds 8 1022 76 10000 3.6 360 12:32 29.08.2022
1999 Clouds 7 1021 81 10000 3.6 10 10:49 29.08.2022
2000 Clouds 8 1020 81 10000 2.57 30 09:20 29.08.2022
2001 Clouds 7 1018 87 10000 6.69 30 07:35 29.08.2022
2002 Clouds 8 1014 100 10000 4.63 20 02:34 29.08.2022
2003 Clouds 9 1012 100 10000 5.14 330 23:37 28.08.2022
2004 Clouds 10 1010 93 10000 1.03 0 21:49 28.08.2022
2005 Clouds 10 1010 87 10000 2.57 270 21:29 28.08.2022
2006 Rain 10 1010 87 10000 2.06 290 20:23 28.08.2022
2007 Rain 9 1008 100 10000 5.66 240 18:37 28.08.2022
2008 Rain 9 1008 100 10000 5.66 240 18:18 28.08.2022
2009 Clouds 10 1008 81 10000 4.63 250 16:52 28.08.2022
2010 Rain 10 1008 81 10000 5.14 260 15:41 28.08.2022
2011 Rain 9 1008 100 10000 4.12 270 13:34 28.08.2022
2012 Clouds 10 1006 93 10000 2.57 310 12:20 28.08.2022
2013 Rain 12 1006 76 10000 1.03 0 10:27 28.08.2022
2014 Rain 12 1006 76 10000 0.51 0 09:38 28.08.2022
2015 Rain 11 1006 87 10000 0 0 08:31 28.08.2022
2016 Clouds 10 1006 87 10000 1.03 0 07:34 28.08.2022
2017 Rain 9 1008 100 10000 2.57 220 01:28 28.08.2022
2018 Clouds 9 1008 100 10000 1.03 0 00:20 28.08.2022
2019 Clouds 10 1008 93 10000 0.51 0 22:27 27.08.2022
2020 Clouds 10 1008 93 10000 2.57 270 20:49 27.08.2022
2021 Clouds 10 1008 100 10000 0 0 19:38 27.08.2022
2022 Rain 11 1006 100 10000 5.66 250 16:37 27.08.2022
2023 Rain 14 1005 94 10000 1.54 230 15:31 27.08.2022
2024 Rain 14 1006 88 10000 3.6 30 14:18 27.08.2022
2025 Clouds 12 1008 100 10000 5.14 60 12:22 27.08.2022
2026 Rain 11 1009 100 10000 4.12 50 10:30 27.08.2022
2027 Clouds 11 1010 100 10000 3.6 40 09:40 27.08.2022
2028 Drizzle 11 1012 100 10000 1.54 30 06:55 27.08.2022
2029 Rain 13 1013 82 10000 4.12 270 02:27 27.08.2022
2030 Clouds 13 1012 88 10000 0 0 23:51 26.08.2022
2031 Clear 15 1011 82 10000 0.51 0 21:59 26.08.2022
2032 Clear 14 1011 82 10000 0.51 0 20:25 26.08.2022
2033 Clear 16 1011 77 10000 2.57 70 18:59 26.08.2022
2034 Clear 16 1011 77 10000 5.14 70 16:42 26.08.2022
2035 Clouds 16 1012 77 10000 6.69 60 15:27 26.08.2022
2036 Clouds 16 1012 77 10000 5.66 60 13:44 26.08.2022
2037 Clear 17 1014 77 10000 5.14 70 12:35 26.08.2022
2038 Clear 17 1014 77 10000 2.57 60 11:22 26.08.2022
2039 Clear 17 1015 72 10000 0 0 09:59 26.08.2022
2040 Clear 13 1016 82 10000 1.03 0 05:26 26.08.2022
2041 Clouds 15 1017 67 10000 2.06 50 01:22 26.08.2022
2042 Clear 14 1018 72 10000 0 0 23:29 25.08.2022
2043 Clear 13 1019 82 10000 0 0 21:00 25.08.2022
2044 Clear 14 1019 72 10000 0.51 0 20:21 25.08.2022
2045 Clear 16 1019 67 10000 1.03 0 18:48 25.08.2022
2046 Clear 16 1019 63 10000 0 0 17:32 25.08.2022
2047 Clear 15 1019 67 10000 1.03 0 16:50 25.08.2022
2048 Clear 13 1020 76 10000 3.09 50 15:39 25.08.2022
2049 Clear 14 1020 72 10000 1.03 0 14:31 25.08.2022
2050 Clouds 12 1020 87 10000 3.09 70 11:49 25.08.2022
2051 Drizzle 11 1020 87 10000 1.03 0 10:46 25.08.2022
2052 Clouds 11 1018 93 10000 2.06 50 08:52 25.08.2022
2053 Clouds 9 1019 100 10000 1.54 40 05:19 25.08.2022
2054 Clear 9 1020 81 10000 1.03 70 00:30 25.08.2022
2055 Clear 9 1021 81 10000 2.06 40 23:25 24.08.2022
2056 Clear 9 1022 87 10000 3.09 40 22:22 24.08.2022
2057 Clear 8 1022 100 10000 2.57 50 21:34 24.08.2022
2058 Clear 9 1022 93 10000 3.09 60 20:32 24.08.2022
2059 Clear 11 1022 82 10000 4.63 70 18:46 24.08.2022
2060 Clear 11 1023 87 10000 5.14 60 16:36 24.08.2022
2061 Clear 14 1024 58 10000 1.03 0 15:52 24.08.2022
2062 Clouds 11 1025 87 10000 1.54 0 13:33 24.08.2022
2063 Clouds 10 1025 100 10000 3.6 230 11:24 24.08.2022
2064 Clouds 9 1024 100 10000 3.6 250 09:33 24.08.2022
2065 Clouds 9 1023 93 9000 3.09 250 07:47 24.08.2022
2066 Rain 8 1020 100 10000 6.17 280 02:29 24.08.2022
2067 Rain 10 1016 81 10000 8.75 240 23:26 23.08.2022
2068 Rain 10 1016 76 10000 12.86 240 22:30 23.08.2022
2069 Clouds 10 1015 81 10000 11.83 240 21:29 23.08.2022
2070 Clouds 9 1013 87 10000 11.32 240 20:20 23.08.2022
2071 Rain 9 1012 93 8000 12.35 240 18:44 23.08.2022
2072 Rain 8 1011 87 9000 17.49 240 17:48 23.08.2022
2073 Rain 10 1009 81 9000 19.03 240 16:53 23.08.2022
2074 Rain 11 1009 71 10000 13.38 240 15:37 23.08.2022
2075 Clouds 13 1006 58 10000 19.55 240 13:26 23.08.2022
2076 Clouds 13 1006 58 10000 19.55 240 13:26 23.08.2022
2077 Clouds 13 1005 58 10000 18.01 240 11:31 23.08.2022
2078 Clouds 13 1004 54 10000 19.55 240 10:36 23.08.2022
2079 Rain 13 1004 58 10000 15.43 240 09:54 23.08.2022
2080 Rain 13 1004 58 10000 16.98 240 08:51 23.08.2022
2081 Rain 12 1003 66 10000 15.43 250 08:20 23.08.2022
2082 Rain 12 1003 66 10000 15.43 250 08:20 23.08.2022
2083 Rain 12 1003 66 10000 15.95 240 07:34 23.08.2022
2084 Rain 12 1002 76 10000 11.32 230 06:27 23.08.2022
2085 Rain 13 1002 62 10000 7.72 240 04:38 23.08.2022
2086 Clear 13 1001 71 10000 3.09 230 00:28 23.08.2022
2087 Clear 13 1001 71 10000 3.09 230 23:33 22.08.2022
2088 Clouds 13 1001 76 10000 3.6 220 22:44 22.08.2022
2089 Clear 10 1002 93 10000 1.54 90 21:29 22.08.2022
2090 Clouds 12 1002 82 10000 3.09 240 19:48 22.08.2022
2091 Clouds 12 1002 87 10000 3.09 240 18:50 22.08.2022
2092 Clouds 12 1003 81 10000 9.65 261 17:22 22.08.2022
2093 Rain 20 997 60 10000 8.75 210 15:39 22.08.2022
2094 Clouds 20 997 56 10000 10.8 210 13:57 22.08.2022
2095 Clouds 19 998 59 10000 6.69 200 10:43 22.08.2022
2096 Clouds 19 999 72 10000 5.66 200 07:59 22.08.2022
2097 Clouds 18 1000 82 10000 1.03 0 04:25 22.08.2022
2098 Clouds 19 1002 82 10000 2.57 0 00:43 22.08.2022
2099 Rain 18 1003 88 10000 2.57 220 00:23 22.08.2022
2100 Rain 19 1004 82 10000 2.57 230 22:22 21.08.2022
2101 Clouds 20 1004 77 10000 4.12 190 21:25 21.08.2022
2102 Clouds 20 1005 77 10000 4.63 210 20:47 21.08.2022
2103 Clouds 20 1005 77 10000 1.54 0 19:26 21.08.2022
2104 Clouds 20 1005 77 10000 1.54 0 17:35 21.08.2022
2105 Clouds 20 1006 77 10000 2.57 240 15:53 21.08.2022
2106 Clouds 20 1006 77 10000 2.06 250 15:21 21.08.2022
2107 Clouds 19 1006 82 10000 1.54 0 13:52 21.08.2022
2108 Clouds 19 1006 82 10000 2.57 220 13:28 21.08.2022
2109 Clouds 19 1006 82 10000 3.6 210 11:39 21.08.2022
2110 Clouds 19 1006 77 10000 2.57 210 09:31 21.08.2022
2111 Clouds 19 1006 77 10000 2.06 210 08:56 21.08.2022
2112 Clouds 19 1006 77 10000 2.06 210 08:38 21.08.2022
2113 Clouds 19 1006 77 10000 2.06 240 07:27 21.08.2022
2114 Clouds 18 1007 77 10000 2.06 250 03:41 21.08.2022
2115 Rain 18 1007 94 10000 4.63 220 00:24 21.08.2022
2116 Clouds 19 1007 88 10000 6.17 210 22:41 20.08.2022
2117 Clouds 19 1007 100 10000 3.6 210 21:38 20.08.2022
2118 Rain 19 1008 88 10000 2.57 0 20:41 20.08.2022
2119 Rain 20 1009 83 10000 2.57 0 19:41 20.08.2022
2120 Rain 20 1011 77 10000 2.57 170 18:31 20.08.2022
2121 Rain 21 1011 73 10000 3.09 0 17:51 20.08.2022
2122 Clouds 22 1011 64 10000 2.57 190 16:52 20.08.2022
2123 Clouds 23 1012 60 10000 2.57 40 15:37 20.08.2022
2124 Clear 23 1013 60 10000 1.03 0 13:27 20.08.2022
2125 Clouds 22 1013 60 10000 1.03 0 11:52 20.08.2022
2126 Clouds 18 1014 77 10000 3.09 230 09:43 20.08.2022
2127 Clouds 18 1013 77 10000 0 0 08:34 20.08.2022
2128 Clouds 15 1013 94 10000 1.03 60 05:57 20.08.2022
2129 Clouds 14 1012 100 10000 0 0 01:46 20.08.2022
2130 Clear 15 1012 88 10000 0 0 00:35 20.08.2022
2131 Clear 15 1011 77 10000 2.06 40 23:19 19.08.2022
2132 Clear 14 1012 82 10000 2.57 60 22:33 19.08.2022
2133 Clear 18 1012 68 10000 1.54 260 20:20 19.08.2022
2134 Clear 16 1012 72 10000 1.54 240 18:28 19.08.2022
2135 Clear 17 1013 63 10000 4.12 230 15:19 19.08.2022
2136 Clear 17 1014 59 10000 5.14 200 13:26 19.08.2022
2137 Clear 15 1015 63 10000 5.66 200 10:55 19.08.2022
2138 Clear 15 1015 63 10000 6.17 200 10:24 19.08.2022
2139 Clear 13 1016 62 10000 5.14 210 06:37 19.08.2022
2140 Clouds 13 1019 58 10000 3.09 0 00:57 19.08.2022
2141 Clear 13 1020 58 10000 3.09 200 00:28 19.08.2022
2142 Clear 11 1020 66 10000 0.51 0 23:38 18.08.2022
2143 Clear 10 1021 71 10000 2.06 30 22:50 18.08.2022
2144 Clear 8 1021 100 10000 5.14 60 21:57 18.08.2022
2145 Clear 8 1021 100 10000 5.14 60 21:34 18.08.2022
2146 Clear 10 1021 81 10000 3.6 50 19:56 18.08.2022
2147 Clear 12 1021 58 10000 1.03 0 19:28 18.08.2022
2148 Clear 12 1021 62 10000 3.6 260 17:50 18.08.2022
2149 Clouds 13 1021 62 10000 4.12 240 16:59 18.08.2022
2150 Clouds 11 1020 66 10000 6.17 240 14:52 18.08.2022
2151 Clouds 11 1020 66 10000 6.17 240 14:19 18.08.2022
2152 Clouds 11 1020 66 10000 8.23 240 13:29 18.08.2022
2153 Clouds 10 1018 76 10000 8.23 250 11:42 18.08.2022
2154 Clouds 9 1016 93 10000 8.75 240 09:43 18.08.2022
2155 Clouds 10 1015 87 10000 7.72 240 08:40 18.08.2022
2156 Clouds 9 1013 93 10000 7.2 240 07:19 18.08.2022
2157 Rain 9 1011 93 10000 5.66 240 04:36 18.08.2022
2158 Rain 8 1010 100 10000 1.54 240 23:35 17.08.2022
2159 Rain 9 1010 100 10000 6.69 240 21:46 17.08.2022
2160 Rain 10 1009 87 10000 4.12 250 20:20 17.08.2022
2161 Rain 10 1009 87 10000 6.17 240 19:29 17.08.2022
2162 Clouds 10 1008 93 10000 7.72 250 17:36 17.08.2022
2163 Rain 11 1007 100 7000 8.75 240 16:39 17.08.2022
2164 Rain 13 1004 100 8000 7.2 260 15:28 17.08.2022
2165 Rain 22 1001 68 10000 5.14 250 13:30 17.08.2022
2166 Clouds 23 1001 64 10000 7.2 220 11:39 17.08.2022
2167 Clouds 22 1000 68 10000 8.23 210 09:31 17.08.2022
2168 Clouds 21 1001 73 10000 6.17 210 08:24 17.08.2022
2169 Clouds 18 1004 82 10000 2.57 250 03:39 17.08.2022
2170 Clear 15 1007 88 10000 1.54 0 00:24 17.08.2022
2171 Clear 15 1007 88 10000 0.51 0 22:42 16.08.2022
2172 Clear 20 1007 68 10000 1.54 0 20:59 16.08.2022
2173 Clear 23 1007 60 10000 1.54 0 19:54 16.08.2022
2174 Clear 23 1007 60 10000 1.03 0 18:44 16.08.2022
2175 Clear 23 1008 60 10000 0.51 0 17:53 16.08.2022
2176 Clear 24 1008 57 10000 1.54 240 15:59 16.08.2022
2177 Clear 23 1008 60 10000 1.03 0 14:55 16.08.2022
2178 Clear 23 1008 60 10000 1.03 0 14:37 16.08.2022
2179 Clear 23 1008 60 10000 1.03 0 13:54 16.08.2022
2180 Clear 20 1008 68 10000 3.09 220 11:39 16.08.2022
2181 Clear 20 1008 64 10000 3.09 250 09:52 16.08.2022
2182 Clear 18 1008 72 10000 2.57 250 08:48 16.08.2022
2183 Clear 18 1008 72 10000 3.09 220 08:18 16.08.2022
2184 Clear 16 1009 77 10000 1.03 0 04:25 16.08.2022
2185 Clouds 15 1012 72 10000 4.63 40 22:56 15.08.2022
2186 Clear 15 1013 72 10000 4.63 70 21:56 15.08.2022
2187 Clear 15 1013 72 10000 4.63 70 21:36 15.08.2022
2188 Clear 14 1013 72 10000 4.12 40 20:30 15.08.2022
2189 Clear 15 1014 63 10000 5.66 50 18:56 15.08.2022
2190 Clear 14 1015 67 10000 5.14 60 17:56 15.08.2022
2191 Clear 14 1016 62 10000 5.66 60 16:23 15.08.2022
2192 Clear 14 1016 62 10000 5.66 60 14:49 15.08.2022
2193 Clear 13 1016 62 10000 5.14 60 13:23 15.08.2022
2194 Clear 12 1016 62 10000 0 0 10:37 15.08.2022
2195 Clear 11 1016 66 10000 2.06 30 08:54 15.08.2022
2196 Clear 8 1017 81 10000 2.57 60 06:49 15.08.2022
2197 Clouds 8 1018 81 10000 1.54 30 03:56 15.08.2022
2198 Clouds 7 1018 87 10000 1.03 0 23:38 14.08.2022
2199 Clouds 9 1018 76 10000 3.09 240 21:48 14.08.2022
2200 Clouds 10 1018 71 10000 5.66 240 20:54 14.08.2022
2201 Clouds 10 1018 71 10000 6.17 240 19:45 14.08.2022
2202 Clouds 10 1018 71 10000 7.72 230 18:32 14.08.2022
2203 Clouds 11 1018 66 10000 7.72 240 17:41 14.08.2022
2204 Clouds 10 1017 71 10000 8.23 240 16:25 14.08.2022
2205 Clouds 10 1017 71 10000 7.72 240 15:43 14.08.2022
2206 Clouds 9 1016 76 10000 11.83 240 13:52 14.08.2022
2207 Rain 9 1016 76 10000 11.83 240 13:34 14.08.2022
2208 Clouds 9 1015 81 10000 11.83 240 12:54 14.08.2022
2209 Rain 9 1014 81 10000 11.32 240 11:31 14.08.2022
2210 Rain 9 1013 87 7000 14.4 240 10:18 14.08.2022
2211 Clouds 10 1012 71 10000 14.4 240 08:18 14.08.2022
2212 Rain 9 1012 87 10000 8.23 240 06:18 14.08.2022
2213 Rain 10 1010 87 10000 2.57 250 01:48 14.08.2022
2214 Clouds 11 1011 76 10000 1.54 0 23:23 13.08.2022
2215 Drizzle 9 1012 93 10000 1.03 0 22:28 13.08.2022
2216 Clouds 10 1012 81 10000 1.54 0 20:56 13.08.2022
2217 Drizzle 11 1013 82 10000 1.03 0 19:49 13.08.2022
2218 Rain 11 1013 82 10000 1.54 340 19:19 13.08.2022
2219 Rain 11 1014 82 10000 2.06 260 17:22 13.08.2022
2220 Drizzle 11 1015 76 10000 2.06 240 15:18 13.08.2022
2221 Clouds 11 1015 76 10000 4.63 220 14:24 13.08.2022
2222 Clouds 11 1015 76 10000 4.12 230 13:36 13.08.2022
2223 Clouds 11 1015 76 10000 5.14 230 11:49 13.08.2022
2224 Clouds 10 1015 87 10000 5.66 230 09:43 13.08.2022
2225 Rain 9 1015 87 10000 7.2 240 07:48 13.08.2022
2226 Clouds 9 1014 81 10000 10.8 240 02:33 13.08.2022
2227 Rain 9 1013 87 10000 8.75 240 23:45 12.08.2022
2228 Rain 9 1011 87 8000 12.35 240 21:40 12.08.2022
2229 Rain 10 1010 81 10000 13.38 240 19:51 12.08.2022
2230 Drizzle 10 1010 81 10000 13.89 240 19:24 12.08.2022
2231 Rain 10 1009 81 10000 9.77 240 18:34 12.08.2022
2232 Rain 10 1007 81 10000 12.86 240 16:28 12.08.2022
2233 Rain 10 1006 81 10000 13.89 230 15:23 12.08.2022
2234 Rain 10 1006 81 10000 13.89 230 13:56 12.08.2022
2235 Rain 10 1004 87 10000 15.43 230 12:51 12.08.2022
2236 Rain 10 1002 81 10000 12.86 240 09:50 12.08.2022
2237 Rain 9 1002 87 10000 12.86 240 07:47 12.08.2022
2238 Rain 10 1000 81 10000 15.43 240 06:28 12.08.2022
2239 Rain 9 1000 100 6000 12.86 240 01:45 12.08.2022
2240 Rain 10 999 93 10000 12.35 240 00:20 12.08.2022
2241 Rain 10 999 93 8000 15.95 240 23:34 11.08.2022
2242 Rain 11 997 82 10000 14.92 240 21:58 11.08.2022
2243 Rain 11 997 82 10000 14.92 240 21:35 11.08.2022
2244 Clouds 11 997 76 10000 13.89 240 20:32 11.08.2022
2245 Rain 10 997 87 10000 9.26 240 19:53 11.08.2022
2246 Rain 10 997 87 10000 8.75 240 19:30 11.08.2022
2247 Rain 11 997 82 10000 9.77 230 17:34 11.08.2022
2248 Rain 11 997 93 10000 7.72 240 16:19 11.08.2022
2249 Rain 12 997 76 10000 10.29 240 15:20 11.08.2022
2250 Rain 11 997 87 10000 10.29 240 12:39 11.08.2022
2251 Rain 11 995 87 10000 8.23 240 09:29 11.08.2022
2252 Clouds 12 994 94 10000 5.66 250 06:59 11.08.2022
2253 Rain 13 994 100 10000 4.12 250 03:45 11.08.2022
2254 Rain 13 997 100 10000 2.57 20 00:35 11.08.2022
2255 Clouds 12 1000 100 10000 2.06 220 22:21 10.08.2022
2256 Drizzle 13 1000 100 10000 1.03 0 21:20 10.08.2022
2257 Clouds 12 1000 100 10000 2.57 60 20:43 10.08.2022
2258 Rain 14 1001 88 10000 0 0 18:55 10.08.2022
2259 Rain 15 1001 77 10000 1.54 210 17:37 10.08.2022
2260 Rain 16 1001 67 10000 2.06 260 16:33 10.08.2022
2261 Clear 16 1004 63 10000 5.14 210 13:35 10.08.2022
2262 Clear 16 1006 67 10000 4.12 140 12:27 10.08.2022
2263 Clouds 13 1010 71 10000 5.14 120 09:24 10.08.2022
2264 Clouds 13 1011 71 10000 4.12 130 08:32 10.08.2022
2265 Clouds 10 1013 81 10000 1.54 0 06:23 10.08.2022
2266 Clouds 10 1015 87 10000 1.54 260 03:24 10.08.2022
2267 Clouds 11 1016 82 10000 5.14 240 23:34 09.08.2022
2268 Clouds 11 1016 82 10000 6.69 240 22:56 09.08.2022
2269 Clouds 12 1017 76 10000 5.66 240 21:35 09.08.2022
2270 Clouds 12 1016 76 10000 7.72 230 20:26 09.08.2022
2271 Clouds 12 1016 76 10000 8.23 240 18:42 09.08.2022
2272 Clouds 12 1016 82 10000 6.69 230 17:28 09.08.2022
2273 Clouds 12 1016 82 10000 6.69 230 17:28 09.08.2022
2274 Clouds 12 1016 82 10000 4.12 240 16:40 09.08.2022
2275 Clouds 12 1016 87 10000 4.63 240 15:58 09.08.2022
2276 Rain 12 1015 82 10000 2.57 250 12:51 09.08.2022
2277 Rain 12 1015 71 10000 3.6 230 09:36 09.08.2022
2278 Rain 12 1015 71 10000 2.06 270 08:39 09.08.2022
2279 Rain 12 1016 66 10000 2.57 220 07:52 09.08.2022
2280 Clouds 9 1018 81 10000 1.54 280 04:22 09.08.2022
2281 Clouds 10 1019 93 10000 4.12 230 23:27 08.08.2022
2282 Clouds 10 1019 93 10000 4.63 220 22:54 08.08.2022
2283 Clouds 10 1019 81 10000 7.2 240 21:58 08.08.2022
2284 Clouds 10 1019 81 10000 7.2 240 21:18 08.08.2022
2285 Clouds 10 1019 87 10000 5.14 240 19:51 08.08.2022
2286 Rain 11 1019 82 10000 5.14 230 18:45 08.08.2022
2287 Clouds 10 1018 87 10000 7.2 240 16:40 08.08.2022
2288 Clouds 10 1018 87 10000 3.6 260 15:40 08.08.2022
2289 Rain 11 1017 82 10000 5.66 230 13:54 08.08.2022
2290 Clouds 11 1016 76 10000 3.09 260 12:19 08.08.2022
2291 Clouds 10 1015 87 10000 5.14 270 09:46 08.08.2022
2292 Clouds 9 1012 100 10000 2.06 0 05:54 08.08.2022
2293 Mist 9 1010 100 9000 4.63 0 02:56 08.08.2022
2294 Rain 10 1008 87 10000 5.66 280 22:42 07.08.2022
2295 Clouds 10 1007 87 10000 2.57 250 21:40 07.08.2022
2296 Rain 10 1006 100 10000 5.14 240 20:26 07.08.2022
2297 Rain 9 1006 100 10000 5.14 240 19:57 07.08.2022
2298 Rain 9 1006 100 10000 5.14 240 19:39 07.08.2022
2299 Rain 9 1006 93 10000 5.14 240 18:35 07.08.2022
2300 Rain 9 1006 93 10000 2.57 240 16:54 07.08.2022
2301 Drizzle 9 1006 93 10000 2.57 240 16:35 07.08.2022
2302 Drizzle 9 1005 93 10000 3.6 260 15:23 07.08.2022
2303 Drizzle 9 1005 87 10000 2.57 280 13:34 07.08.2022
2304 Drizzle 9 1003 87 10000 3.6 10 11:58 07.08.2022
2305 Rain 8 1003 100 10000 5.14 50 10:34 07.08.2022
2306 Drizzle 10 1001 87 10000 3.09 50 07:38 07.08.2022
2307 Rain 12 1000 71 10000 4.12 40 03:20 07.08.2022
2308 Clouds 11 1002 76 10000 1.54 0 01:45 07.08.2022
2309 Clouds 14 1003 62 10000 1.54 0 22:25 06.08.2022
2310 Clouds 16 1003 55 10000 4.12 110 21:18 06.08.2022
2311 Clouds 17 1003 48 10000 2.57 120 19:41 06.08.2022
2312 Clouds 17 1003 42 10000 3.09 120 18:30 06.08.2022
2313 Clouds 18 1003 39 10000 3.6 140 17:37 06.08.2022
2314 Clouds 18 1005 39 10000 3.09 220 14:52 06.08.2022
2315 Clouds 18 1005 42 10000 4.12 210 13:49 06.08.2022
2316 Clouds 17 1006 48 10000 4.12 190 12:19 06.08.2022
2317 Clear 16 1006 55 10000 4.12 180 10:33 06.08.2022
2318 Clear 15 1006 58 10000 4.12 200 09:21 06.08.2022
2319 Clear 8 1008 81 10000 1.03 0 03:55 06.08.2022
2320 Clear 9 1008 81 10000 1.03 290 23:56 05.08.2022
2321 Clouds 10 1008 81 10000 1.03 0 22:33 05.08.2022
2322 Clear 12 1008 66 10000 6.17 230 20:20 05.08.2022
2323 Clouds 12 1007 71 10000 6.69 230 18:53 05.08.2022
2324 Clouds 12 1007 71 10000 6.69 230 18:35 05.08.2022
2325 Clouds 11 1007 76 10000 6.17 270 16:51 05.08.2022
2326 Clouds 11 1006 76 10000 6.69 250 15:23 05.08.2022
2327 Thunderstorm 11 1005 87 9000 6.17 260 14:34 05.08.2022
2328 Rain 10 1005 87 10000 7.72 240 14:34 05.08.2022
2329 Rain 19 1002 72 10000 3.6 190 13:26 05.08.2022
2330 Rain 18 1003 77 10000 4.63 130 12:59 05.08.2022
2331 Clouds 17 1003 77 10000 5.66 130 11:20 05.08.2022
2332 Clouds 17 1005 67 10000 1.54 140 08:46 05.08.2022
2333 Clear 15 1006 72 10000 2.57 50 07:34 05.08.2022
2334 Clouds 12 1008 87 10000 1.54 50 02:33 05.08.2022
2335 Clouds 13 1008 82 10000 2.57 240 23:18 04.08.2022
2336 Rain 14 1007 82 10000 4.12 300 21:28 04.08.2022
2337 Clouds 15 1007 77 10000 3.6 280 20:57 04.08.2022
2338 Clouds 15 1007 77 10000 3.6 280 20:36 04.08.2022
2339 Clouds 15 1006 77 10000 2.57 230 18:58 04.08.2022
2340 Clouds 15 1006 77 10000 2.57 230 18:33 04.08.2022
2341 Clouds 15 1005 77 10000 4.63 250 15:53 04.08.2022
2342 Clouds 16 1003 72 10000 4.63 240 13:26 04.08.2022
2343 Clouds 16 1003 72 10000 4.63 240 13:26 04.08.2022
2344 Clouds 17 1002 67 10000 2.06 230 11:39 04.08.2022
2345 Clouds 17 1002 72 10000 2.06 230 10:22 04.08.2022
2346 Clouds 17 1002 72 10000 2.06 230 10:22 04.08.2022
2347 Clouds 17 1001 72 10000 3.6 210 07:47 04.08.2022
2348 Clouds 16 1002 67 10000 2.57 170 02:50 04.08.2022
2349 Clouds 18 1003 52 10000 3.6 200 00:43 04.08.2022
2350 Clear 17 1003 55 10000 2.06 200 23:40 03.08.2022
2351 Clouds 17 1004 59 10000 4.12 200 21:34 03.08.2022
2352 Clear 18 1004 55 10000 3.09 210 20:21 03.08.2022
2353 Clouds 17 1004 67 10000 2.06 230 19:27 03.08.2022
2354 Clouds 18 1004 68 10000 4.63 70 16:53 03.08.2022
2355 Clouds 19 1004 63 10000 4.12 70 16:23 03.08.2022
2356 Clear 18 1005 63 10000 2.57 220 13:53 03.08.2022
2357 Clouds 14 1006 88 10000 4.12 50 11:46 03.08.2022
2358 Clouds 11 1006 100 10000 2.06 50 07:45 03.08.2022
2359 Mist 11 1006 100 6000 3.09 50 04:22 03.08.2022
2360 Clouds 11 1006 100 10000 2.57 70 03:26 03.08.2022
2361 Clouds 11 1007 100 10000 2.57 70 00:58 03.08.2022
2362 Clouds 12 1007 87 10000 1.03 0 22:53 02.08.2022
2363 Clouds 12 1007 87 10000 2.57 280 21:53 02.08.2022
2364 Clouds 12 1007 87 10000 1.03 0 20:37 02.08.2022
2365 Clouds 14 1006 82 10000 2.57 250 18:42 02.08.2022
2366 Clouds 14 1006 82 10000 6.69 240 16:21 02.08.2022
2367 Clear 19 1005 59 10000 3.09 220 11:45 02.08.2022
2368 Clear 18 1005 63 10000 2.06 190 09:18 02.08.2022
2369 Clear 17 1006 63 10000 2.06 250 07:53 02.08.2022
2370 Clear 15 1006 72 10000 1.54 220 06:43 02.08.2022
2371 Clear 14 1006 72 10000 0.51 0 04:55 02.08.2022
2372 Clear 13 1008 76 10000 3.09 40 23:51 01.08.2022
2373 Clear 12 1009 87 10000 4.12 60 22:25 01.08.2022
2374 Clear 14 1009 77 10000 4.63 60 20:52 01.08.2022
2375 Clouds 15 1009 77 10000 5.66 70 19:32 01.08.2022
2376 Clear 15 1010 77 10000 4.63 60 18:40 01.08.2022
2377 Clear 16 1010 72 10000 5.14 70 16:54 01.08.2022
2378 Clear 16 1011 72 10000 4.63 70 16:28 01.08.2022
2379 Clear 17 1011 67 10000 2.57 70 15:30 01.08.2022
2380 Clear 17 1011 67 10000 3.6 60 14:43 01.08.2022
2381 Clear 16 1011 72 10000 3.6 70 12:47 01.08.2022
2382 Clear 16 1011 67 10000 1.54 220 10:22 01.08.2022
2383 Clear 16 1011 67 10000 2.06 230 08:34 01.08.2022
2384 Clouds 13 1010 76 10000 2.06 270 04:56 01.08.2022
2385 Clouds 13 1010 76 10000 2.57 260 04:20 01.08.2022
2386 Clear 13 1010 76 10000 1.54 0 00:49 01.08.2022
2387 Clear 15 1010 72 10000 0.51 0 22:41 31.07.2022
2388 Clouds 15 1009 72 10000 1.54 250 21:33 31.07.2022
2389 Clouds 15 1009 67 10000 2.57 260 19:56 31.07.2022
2390 Clouds 16 1009 67 10000 3.09 220 18:35 31.07.2022
2391 Clouds 16 1010 67 10000 3.09 230 15:54 31.07.2022
2392 Clouds 15 1010 67 10000 2.57 130 13:51 31.07.2022
2393 Clouds 14 1011 72 10000 3.6 110 12:28 31.07.2022
2394 Clouds 13 1012 71 10000 3.6 140 09:55 31.07.2022
2395 Clouds 13 1012 67 10000 4.12 100 08:18 31.07.2022
2396 Clouds 10 1014 81 10000 3.6 80 03:49 31.07.2022
2397 Clouds 12 1016 71 10000 5.14 90 23:53 30.07.2022
2398 Clouds 12 1017 66 10000 5.14 110 22:19 30.07.2022
2399 Clouds 12 1017 66 10000 5.14 110 22:19 30.07.2022
2400 Clouds 13 1017 62 10000 5.14 130 21:49 30.07.2022
2401 Clouds 14 1017 58 10000 4.63 120 20:58 30.07.2022
2402 Clouds 15 1017 55 10000 4.12 70 19:59 30.07.2022
2403 Clouds 16 1018 51 10000 5.14 60 19:20 30.07.2022
2404 Clouds 18 1018 52 10000 6.17 70 17:45 30.07.2022
2405 Clear 18 1019 48 10000 5.66 60 15:55 30.07.2022
2406 Clear 19 1019 45 10000 6.17 50 15:25 30.07.2022
2407 Clear 19 1020 45 10000 2.06 210 13:21 30.07.2022
2408 Clear 18 1020 52 10000 2.06 0 12:20 30.07.2022
2409 Clouds 16 1021 59 10000 2.57 220 10:36 30.07.2022
2410 Clear 16 1021 59 10000 2.57 220 09:57 30.07.2022
2411 Clear 15 1022 58 10000 1.54 0 07:55 30.07.2022
2412 Clear 13 1022 67 10000 0 0 05:29 30.07.2022
2413 Clear 9 1023 76 10000 1.03 0 02:31 30.07.2022
2414 Clear 11 1023 71 10000 2.57 40 22:54 29.07.2022
2415 Clear 12 1023 71 10000 3.6 50 21:30 29.07.2022
2416 Clear 12 1023 66 10000 3.09 50 20:50 29.07.2022
2417 Clear 13 1023 62 10000 5.14 70 19:29 29.07.2022
2418 Clear 15 1023 58 10000 5.66 80 16:43 29.07.2022
2419 Clear 16 1023 51 10000 2.57 0 14:23 29.07.2022
2420 Clear 15 1023 55 10000 2.57 210 12:32 29.07.2022
2421 Clouds 12 1023 62 10000 3.6 200 08:51 29.07.2022
2422 Clouds 12 1023 66 10000 2.57 200 08:21 29.07.2022
2423 Clouds 10 1022 87 10000 2.57 220 04:39 29.07.2022
2424 Clouds 9 1021 87 10000 4.12 240 23:46 28.07.2022
2425 Clouds 9 1020 93 10000 4.63 230 21:38 28.07.2022
2426 Clouds 10 1019 76 10000 3.09 260 20:50 28.07.2022
2427 Clouds 10 1019 81 10000 3.09 270 20:18 28.07.2022
2428 Clouds 9 1018 87 10000 4.63 280 19:40 28.07.2022
2429 Clouds 9 1018 93 10000 4.12 270 17:46 28.07.2022
2430 Clouds 10 1017 81 10000 4.12 280 17:23 28.07.2022
2431 Clouds 10 1017 81 10000 3.09 270 16:40 28.07.2022
2432 Clouds 9 1015 100 10000 3.09 280 13:56 28.07.2022
2433 Clouds 9 1014 100 10000 3.09 270 12:40 28.07.2022
2434 Rain 9 1010 100 10000 1.54 0 08:49 28.07.2022
2435 Drizzle 9 1008 100 8000 1.54 0 05:41 28.07.2022
2436 Rain 9 1007 100 10000 1.54 0 05:20 28.07.2022
2437 Rain 9 1001 100 9000 7.2 30 23:41 27.07.2022
2438 Drizzle 10 998 100 3500 4.12 360 21:31 27.07.2022
2439 Drizzle 10 998 100 3500 4.12 360 21:31 27.07.2022
2440 Drizzle 11 996 100 3500 3.6 10 19:53 27.07.2022
2441 Drizzle 11 996 100 4000 4.63 360 19:26 27.07.2022
2442 Rain 12 994 100 4000 2.06 230 16:32 27.07.2022
2443 Rain 12 994 100 3500 2.57 230 15:51 27.07.2022
2444 Rain 13 994 100 4000 1.54 220 14:42 27.07.2022
2445 Rain 13 993 100 6000 1.54 0 13:57 27.07.2022
2446 Clouds 13 992 100 10000 5.14 60 11:18 27.07.2022
2447 Drizzle 13 992 100 10000 5.14 60 07:53 27.07.2022
2448 Rain 14 993 100 10000 5.14 70 05:18 27.07.2022
2449 Clouds 17 995 82 10000 1.54 30 23:29 26.07.2022
2450 Clouds 18 995 72 10000 2.06 40 22:19 26.07.2022
2451 Clouds 19 995 68 10000 2.57 110 21:18 26.07.2022
2452 Clouds 19 996 72 10000 3.09 40 19:33 26.07.2022
2453 Clouds 19 996 72 10000 2.57 40 18:41 26.07.2022
2454 Clouds 21 996 64 10000 1.54 0 17:55 26.07.2022
2455 Clouds 19 997 68 10000 1.54 0 15:47 26.07.2022
2456 Clouds 19 997 68 10000 1.03 0 14:43 26.07.2022
2457 Clouds 18 997 72 10000 2.06 230 12:35 26.07.2022
2458 Clouds 17 998 72 10000 3.6 230 10:35 26.07.2022
2459 Clouds 16 998 77 10000 2.06 170 08:29 26.07.2022
2460 Clouds 14 1000 82 10000 4.12 130 02:25 26.07.2022
2461 Rain 14 1002 82 10000 3.6 110 00:22 26.07.2022
2462 Rain 14 1003 82 10000 4.12 120 22:41 25.07.2022
2463 Rain 14 1003 82 10000 4.12 120 22:21 25.07.2022
2464 Rain 14 1003 82 10000 3.6 130 21:31 25.07.2022
2465 Rain 14 1003 82 10000 3.09 120 20:39 25.07.2022
2466 Rain 14 1004 82 10000 2.57 100 19:25 25.07.2022
2467 Rain 14 1004 82 10000 3.09 200 18:18 25.07.2022
2468 Rain 15 1005 77 10000 4.63 210 17:24 25.07.2022
2469 Clouds 17 1006 59 10000 4.63 120 14:19 25.07.2022
2470 Clouds 14 1008 67 10000 3.09 90 10:56 25.07.2022
2471 Clouds 12 1009 71 10000 2.57 60 08:22 25.07.2022
2472 Clouds 8 1012 100 10000 3.09 40 01:49 25.07.2022
2473 Clouds 8 1012 87 10000 1.54 10 23:49 24.07.2022
2474 Clear 8 1012 87 10000 1.54 0 22:51 24.07.2022
2475 Clouds 8 1012 87 10000 1.54 340 22:24 24.07.2022
2476 Clouds 9 1013 81 10000 1.54 360 21:18 24.07.2022
2477 Clouds 10 1013 81 10000 1.54 0 20:45 24.07.2022
2478 Clouds 11 1013 71 10000 3.09 270 19:37 24.07.2022
2479 Clouds 11 1013 76 10000 3.6 280 18:27 24.07.2022
2480 Clouds 11 1014 82 10000 5.66 230 15:57 24.07.2022
2481 Clouds 10 1014 81 10000 6.17 240 15:32 24.07.2022
2482 Clouds 10 1014 87 10000 6.17 230 13:51 24.07.2022
2483 Clouds 9 1014 87 10000 6.69 240 12:50 24.07.2022
2484 Clouds 10 1014 81 10000 6.17 230 11:35 24.07.2022
2485 Clouds 9 1014 100 10000 5.14 240 10:26 24.07.2022
2486 Clouds 9 1014 81 10000 5.66 280 08:29 24.07.2022
2487 Clouds 9 1013 87 10000 4.63 260 07:44 24.07.2022
2488 Clouds 10 1013 81 10000 4.12 270 03:57 24.07.2022
2489 Clouds 9 1013 93 10000 4.63 270 23:48 23.07.2022
2490 Drizzle 10 1011 100 10000 3.6 270 20:51 23.07.2022
2491 Rain 10 1011 100 10000 2.57 270 19:31 23.07.2022
2492 Clouds 10 1011 100 10000 4.12 240 18:49 23.07.2022
2493 Clouds 11 1011 93 10000 4.12 280 17:28 23.07.2022
2494 Drizzle 10 1010 100 5000 3.6 270 16:30 23.07.2022
2495 Clouds 10 1010 100 10000 3.6 270 15:22 23.07.2022
2496 Clouds 11 1009 93 10000 2.57 280 14:56 23.07.2022
2497 Rain 11 1009 93 10000 3.6 0 14:24 23.07.2022
2498 Rain 11 1009 93 10000 3.6 0 14:24 23.07.2022
2499 Drizzle 11 1008 100 10000 3.6 250 12:22 23.07.2022
2500 Rain 10 1008 100 10000 2.57 240 10:44 23.07.2022
2501 Clouds 10 1008 100 10000 4.63 250 09:54 23.07.2022
2502 Clouds 10 1007 100 10000 9.26 240 08:30 23.07.2022
2503 Rain 11 1007 87 10000 3.09 220 03:38 23.07.2022
2504 Rain 10 1008 100 10000 1.54 250 00:39 23.07.2022
2505 Clouds 10 1009 93 10000 5.66 240 22:19 22.07.2022
2506 Clouds 11 1009 87 10000 6.17 240 20:39 22.07.2022
2507 Clouds 11 1009 100 10000 3.6 230 19:32 22.07.2022
2508 Clouds 12 1010 80 10000 9.97 257 18:23 22.07.2022
2509 Clouds 11 1010 100 10000 2.57 290 16:46 22.07.2022
2510 Rain 12 1009 100 10000 2.57 210 14:40 22.07.2022
2511 Clouds 12 1009 100 10000 1.54 270 10:59 22.07.2022
2512 Clouds 12 1009 100 10000 2.57 260 09:25 22.07.2022
2513 Clouds 12 1010 94 10000 1.54 250 08:27 22.07.2022
2514 Clouds 11 1010 100 10000 1.54 250 04:48 22.07.2022
2515 Clouds 11 1011 100 10000 3.6 260 23:45 21.07.2022
2516 Rain 11 1011 100 10000 3.09 270 22:25 21.07.2022
2517 Rain 11 1011 100 10000 6.17 290 20:48 21.07.2022
2518 Rain 12 1010 100 10000 4.12 270 19:23 21.07.2022
2519 Clouds 17 1010 82 10000 3.09 90 17:39 21.07.2022
2520 Clouds 16 1010 88 10000 3.09 70 17:19 21.07.2022
2521 Rain 17 1011 77 10000 2.06 250 14:52 21.07.2022
2522 Rain 18 1010 77 10000 2.57 30 14:24 21.07.2022
2523 Clear 19 1011 68 10000 3.6 60 12:27 21.07.2022
2524 Clear 19 1011 63 10000 4.63 70 10:48 21.07.2022
2525 Clear 19 1012 68 10000 1.54 240 09:27 21.07.2022
2526 Clear 18 1012 72 10000 1.54 250 08:49 21.07.2022
2527 Clear 18 1012 68 10000 1.03 0 07:32 21.07.2022
2528 Clouds 16 1012 72 10000 3.6 240 03:55 21.07.2022
2529 Clouds 17 1012 67 10000 4.63 210 00:35 21.07.2022
2530 Clouds 18 1013 63 10000 2.06 0 22:21 20.07.2022
2531 Clear 17 1013 72 10000 3.6 120 20:54 20.07.2022
2532 Clouds 18 1014 68 10000 4.12 120 19:50 20.07.2022
2533 Clouds 18 1014 68 10000 4.63 130 19:24 20.07.2022
2534 Clouds 18 1014 68 10000 4.12 130 18:34 20.07.2022
2535 Clouds 16 1015 72 10000 4.12 60 17:59 20.07.2022
2536 Clouds 16 1016 72 10000 4.63 60 16:45 20.07.2022
2537 Clear 16 1017 77 10000 3.6 70 15:31 20.07.2022
2538 Clear 15 1017 77 10000 4.12 70 14:20 20.07.2022
2539 Clouds 12 1019 100 10000 4.12 60 11:34 20.07.2022
2540 Fog 10 1020 100 10000 3.6 70 08:50 20.07.2022
2541 Clouds 9 1020 100 9000 3.09 60 03:47 20.07.2022
2542 Clouds 10 1019 100 10000 1.54 20 00:49 20.07.2022
2543 Clouds 10 1019 100 10000 0.51 0 23:41 19.07.2022
2544 Clouds 11 1019 93 10000 1.54 260 22:33 19.07.2022
2545 Clouds 11 1018 93 10000 1.03 0 21:31 19.07.2022
2546 Clouds 11 1018 93 10000 1.03 0 20:33 19.07.2022
2547 Clouds 11 1017 100 10000 2.06 210 18:58 19.07.2022
2548 Clouds 11 1017 100 10000 3.6 240 18:28 19.07.2022
2549 Clouds 11 1016 100 10000 5.66 250 16:37 19.07.2022
2550 Clouds 11 1015 100 10000 5.14 250 14:57 19.07.2022
2551 Fog 10 1013 100 10000 3.6 230 11:44 19.07.2022
2552 Clouds 10 1012 100 10000 4.12 240 10:55 19.07.2022
2553 Clouds 10 1012 100 10000 4.12 250 09:26 19.07.2022
2554 Clouds 10 1011 100 10000 2.06 250 08:39 19.07.2022
2555 Mist 10 1011 100 3500 2.06 230 07:19 19.07.2022
2556 Fog 10 1011 100 450 2.06 230 05:48 19.07.2022
2557 Fog 10 1010 100 250 1.54 230 04:58 19.07.2022
2558 Mist 10 1010 100 4700 1.54 220 01:58 19.07.2022
2559 Clouds 10 1009 100 10000 1.54 190 23:50 18.07.2022
2560 Clouds 10 1009 100 10000 1.54 190 23:19 18.07.2022
2561 Drizzle 10 1009 100 10000 2.06 230 22:23 18.07.2022
2562 Fog 10 1009 100 1000 2.57 230 20:57 18.07.2022
2563 Clouds 11 1009 100 10000 3.09 310 19:52 18.07.2022
2564 Clouds 12 1008 100 10000 1.03 0 17:53 18.07.2022
2565 Rain 12 1008 100 10000 1.54 0 16:28 18.07.2022
2566 Rain 13 1008 88 10000 3.09 80 15:19 18.07.2022
2567 Clouds 12 1008 94 10000 2.06 260 13:31 18.07.2022
2568 Clouds 12 1008 87 8000 1.54 0 11:31 18.07.2022
2569 Mist 10 1008 100 4000 2.57 70 09:54 18.07.2022
2570 Drizzle 9 1009 100 4500 3.6 70 07:49 18.07.2022
2571 Rain 9 1009 100 10000 2.57 30 02:51 18.07.2022
2572 Clouds 9 1009 93 10000 2.06 260 22:56 17.07.2022
2573 Clouds 9 1009 100 10000 1.54 270 22:29 17.07.2022
2574 Clouds 9 1009 100 10000 2.57 260 21:35 17.07.2022
2575 Clouds 9 1009 100 10000 4.12 250 20:45 17.07.2022
2576 Clouds 9 1008 100 10000 4.12 240 19:49 17.07.2022
2577 Clouds 9 1008 100 10000 5.14 240 19:20 17.07.2022
2578 Clouds 10 1008 100 10000 4.12 240 17:42 17.07.2022
2579 Clouds 10 1008 100 10000 5.14 240 17:22 17.07.2022
2580 Clouds 10 1007 100 10000 6.69 230 16:32 17.07.2022
2581 Clouds 10 1007 100 10000 6.17 230 15:49 17.07.2022
2582 Clouds 9 1006 100 8000 6.69 230 13:51 17.07.2022
2583 Drizzle 9 1006 100 2500 6.17 230 12:42 17.07.2022
2584 Drizzle 9 1005 100 3500 6.69 230 10:19 17.07.2022
2585 Rain 9 1005 100 7000 2.57 260 06:59 17.07.2022
2586 Rain 9 1005 100 7000 2.57 260 06:59 17.07.2022
2587 Rain 10 1006 100 10000 4.12 290 02:34 17.07.2022
2588 Rain 9 1006 100 3300 2.57 0 23:26 16.07.2022
2589 Drizzle 9 1006 100 7000 4.12 250 22:20 16.07.2022
2590 Rain 10 1006 100 10000 1.03 0 20:30 16.07.2022
2591 Drizzle 10 1007 100 10000 3.09 0 18:58 16.07.2022
2592 Drizzle 10 1007 100 10000 2.57 0 17:38 16.07.2022
2593 Rain 11 1007 87 10000 4.63 340 15:54 16.07.2022
2594 Clouds 12 1006 82 10000 5.14 330 12:37 16.07.2022
2595 Clouds 11 1006 87 10000 5.14 340 10:28 16.07.2022
2596 Clouds 11 1006 87 10000 1.54 0 09:25 16.07.2022
2597 Clouds 11 1005 82 10000 1.03 0 08:41 16.07.2022
2598 Rain 11 1005 87 10000 2.57 350 06:59 16.07.2022
2599 Clouds 12 1004 76 10000 1.03 0 03:33 16.07.2022
2600 Clouds 12 1002 76 10000 1.54 0 00:23 16.07.2022
2601 Clear 13 1001 71 10000 2.57 280 22:56 15.07.2022
2602 Clouds 13 1001 71 10000 2.57 280 22:24 15.07.2022
2603 Clouds 14 1000 82 10000 2.06 70 20:41 15.07.2022
2604 Clouds 15 999 72 10000 1.54 0 19:34 15.07.2022
2605 Clouds 14 998 82 10000 2.57 80 18:23 15.07.2022
2606 Clouds 15 997 77 10000 2.06 60 17:19 15.07.2022
2607 Clouds 16 995 77 10000 3.6 70 14:19 15.07.2022
2608 Clouds 17 994 77 10000 2.06 230 12:37 15.07.2022
2609 Clouds 14 994 100 10000 2.57 230 10:52 15.07.2022
2610 Mist 11 993 100 9000 2.06 240 07:55 15.07.2022
2611 Drizzle 10 993 100 4900 2.57 240 04:54 15.07.2022
2612 Rain 11 996 100 3300 0.51 0 00:43 15.07.2022
2613 Rain 12 997 100 4000 1.03 0 23:24 14.07.2022
2614 Fog 12 998 100 2000 0 0 22:32 14.07.2022
2615 Fog 11 999 100 200 1.03 0 21:41 14.07.2022
2616 Fog 11 999 100 600 1.54 0 21:22 14.07.2022
2617 Mist 12 999 100 3000 0.51 0 20:43 14.07.2022
2618 Mist 12 1000 100 3500 0 0 20:19 14.07.2022
2619 Clouds 12 1000 100 10000 2.06 260 18:38 14.07.2022
2620 Fog 12 1000 100 250 2.06 200 16:20 14.07.2022
2621 Fog 13 1000 100 250 2.06 230 15:26 14.07.2022
2622 Fog 14 999 100 10000 2.06 220 13:52 14.07.2022
2623 Clouds 13 1000 100 10000 1.03 0 12:39 14.07.2022
2624 Fog 13 1000 100 550 2.06 240 11:28 14.07.2022
2625 Fog 13 1000 100 1500 2.57 240 10:58 14.07.2022
2626 Fog 13 1000 100 2500 0 0 09:29 14.07.2022
2627 Rain 13 1001 100 10000 0 0 05:18 14.07.2022
2628 Clear 12 1003 100 10000 2.06 40 01:22 14.07.2022
2629 Clear 12 1003 100 10000 2.06 40 01:22 14.07.2022
2630 Clear 12 1003 100 10000 4.12 60 00:51 14.07.2022
2631 Clear 14 1004 88 10000 0.51 0 22:31 13.07.2022
2632 Clear 14 1004 88 10000 1.03 0 21:51 13.07.2022
2633 Clear 15 1005 77 10000 2.06 210 20:44 13.07.2022
2634 Clouds 16 1005 77 10000 2.06 180 18:48 13.07.2022
2635 Clouds 16 1005 82 10000 5.14 60 17:35 13.07.2022
2636 Clouds 16 1006 82 10000 3.09 80 16:23 13.07.2022
2637 Clouds 15 1006 88 10000 4.63 70 15:24 13.07.2022
2638 Rain 15 1006 82 10000 4.12 30 12:39 13.07.2022
2639 Clear 23 1006 49 10000 3.6 250 10:45 13.07.2022
2640 Clear 23 1007 49 10000 3.6 200 09:57 13.07.2022
2641 Clear 23 1007 49 10000 4.63 210 09:21 13.07.2022
2642 Clouds 21 1008 52 10000 3.6 170 05:52 13.07.2022
2643 Clouds 18 1010 55 10000 1.03 0 01:27 13.07.2022
2644 Clouds 19 1010 59 10000 2.06 40 23:39 12.07.2022
2645 Clear 17 1011 67 10000 4.12 60 21:54 12.07.2022
2646 Clear 17 1012 67 10000 4.12 60 21:19 12.07.2022
2647 Clear 17 1012 63 10000 5.66 60 20:41 12.07.2022
2648 Clear 18 1012 63 10000 5.66 70 19:25 12.07.2022
2649 Clear 19 1013 55 10000 5.14 70 17:49 12.07.2022
2650 Clear 18 1014 59 10000 6.17 70 15:43 12.07.2022
2651 Clear 18 1015 59 10000 5.66 70 14:30 12.07.2022
2652 Clear 17 1015 63 10000 4.63 60 12:29 12.07.2022
2653 Clear 18 1015 63 10000 4.63 60 11:22 12.07.2022
2654 Clear 16 1015 72 10000 2.06 200 09:38 12.07.2022
2655 Clear 17 1015 67 10000 2.57 240 08:19 12.07.2022
2656 Clear 18 1015 63 10000 1.54 0 06:49 12.07.2022
2657 Clouds 17 1015 67 10000 1.03 0 05:42 12.07.2022
2658 Clear 13 1016 76 10000 0 0 02:32 12.07.2022
2659 Fog 11 1017 93 10000 1.54 0 23:28 11.07.2022
2660 Fog 9 1017 100 10000 2.57 60 22:31 11.07.2022
2661 Clouds 10 1017 93 10000 3.6 50 20:41 11.07.2022
2662 Fog 13 1017 76 10000 3.09 40 19:44 11.07.2022
2663 Fog 14 1017 77 10000 5.14 50 18:32 11.07.2022
2664 Clouds 14 1017 72 10000 5.14 60 17:49 11.07.2022
2665 Clouds 17 1017 63 10000 4.12 70 16:20 11.07.2022
2666 Clouds 14 1017 77 10000 4.63 70 14:49 11.07.2022
2667 Clouds 15 1017 77 10000 4.63 250 11:59 11.07.2022
2668 Clouds 15 1017 77 10000 1.54 200 10:37 11.07.2022
2669 Clouds 14 1017 77 10000 3.6 240 09:49 11.07.2022
2670 Clear 14 1017 77 10000 3.09 220 08:34 11.07.2022
2671 Clear 15 1017 72 10000 2.06 200 07:24 11.07.2022
2672 Clear 12 1017 82 10000 2.06 60 00:24 11.07.2022
2673 Clear 13 1017 76 10000 3.6 50 23:32 10.07.2022
2674 Clear 14 1017 72 10000 2.57 40 22:26 10.07.2022
2675 Clouds 15 1017 67 10000 5.14 70 20:55 10.07.2022
2676 Clouds 15 1017 67 10000 5.66 70 19:55 10.07.2022
2677 Clouds 15 1017 67 10000 6.17 70 19:20 10.07.2022
2678 Clouds 15 1017 67 10000 6.69 70 17:50 10.07.2022
2679 Clouds 14 1017 72 10000 7.2 60 16:59 10.07.2022
2680 Clouds 15 1017 72 10000 6.69 60 16:20 10.07.2022
2681 Clouds 15 1017 67 10000 6.17 60 14:43 10.07.2022
2682 Clouds 15 1016 67 10000 5.14 70 12:42 10.07.2022
2683 Clouds 14 1016 72 10000 5.14 70 11:36 10.07.2022
2684 Clouds 14 1016 72 10000 4.63 70 09:44 10.07.2022
2685 Clouds 13 1016 76 10000 4.12 70 08:43 10.07.2022
2686 Clear 12 1015 76 10000 4.63 70 06:36 10.07.2022
2687 Clouds 11 1014 82 10000 3.09 60 23:44 09.07.2022
2688 Clouds 11 1013 82 10000 3.6 40 22:26 09.07.2022
2689 Clouds 10 1013 87 10000 4.12 50 21:40 09.07.2022
2690 Clouds 12 1012 71 10000 4.63 70 19:44 09.07.2022
2691 Clouds 13 1012 71 10000 5.14 70 18:26 09.07.2022
2692 Clouds 14 1012 67 10000 5.66 70 17:27 09.07.2022
2693 Clouds 14 1012 62 10000 5.14 60 16:25 09.07.2022
2694 Clouds 13 1011 71 10000 5.66 60 15:38 09.07.2022
2695 Clouds 14 1011 67 10000 4.63 70 14:22 09.07.2022
2696 Clouds 15 1011 63 10000 3.09 80 13:47 09.07.2022
2697 Clouds 13 1010 71 10000 1.03 0 11:54 09.07.2022
2698 Clouds 12 1010 76 10000 1.03 0 10:27 09.07.2022
2699 Clouds 12 1010 76 10000 0.51 0 09:56 09.07.2022
2700 Clouds 11 1009 82 10000 2.06 40 07:44 09.07.2022
2701 Clouds 10 1009 81 10000 1.54 30 04:45 09.07.2022
2702 Clouds 10 1008 81 10000 1.54 270 23:43 08.07.2022
2703 Clouds 10 1008 81 10000 1.03 0 22:34 08.07.2022
2704 Clouds 10 1008 81 10000 2.06 250 21:27 08.07.2022
2705 Clouds 10 1008 87 10000 1.54 280 20:38 08.07.2022
2706 Clouds 10 1008 87 10000 3.09 270 19:38 08.07.2022
2707 Clouds 10 1007 87 10000 4.12 260 17:56 08.07.2022
2708 Clouds 11 1007 82 10000 4.12 280 16:33 08.07.2022
2709 Drizzle 11 1007 82 10000 3.09 270 14:50 08.07.2022
2710 Clouds 11 1006 93 10000 2.57 270 12:42 08.07.2022
2711 Rain 10 1005 100 10000 2.57 280 10:52 08.07.2022
2712 Rain 10 1005 100 10000 2.57 240 10:21 08.07.2022
2713 Rain 10 1004 87 10000 2.06 0 07:55 08.07.2022
2714 Rain 10 1004 87 10000 3.6 350 06:23 08.07.2022
2715 Clouds 12 1002 76 10000 1.54 0 00:41 08.07.2022
2716 Clouds 12 1001 76 10000 0 0 22:57 07.07.2022
2717 Clouds 13 1001 71 10000 2.06 60 21:52 07.07.2022
2718 Clouds 14 1001 62 10000 4.12 60 19:35 07.07.2022
2719 Clouds 15 1001 58 10000 4.12 60 17:50 07.07.2022
2720 Clouds 16 1001 63 10000 2.57 70 16:23 07.07.2022
2721 Clouds 13 1001 71 10000 3.09 210 14:21 07.07.2022
2722 Clouds 14 1001 72 10000 5.66 70 12:45 07.07.2022
2723 Clouds 14 1000 77 10000 4.63 60 12:23 07.07.2022
2724 Clouds 13 1000 82 10000 4.12 60 11:34 07.07.2022
2725 Rain 13 1000 76 10000 4.63 50 10:46 07.07.2022
2726 Rain 13 1000 76 10000 3.6 60 10:27 07.07.2022
2727 Clouds 13 1000 76 10000 4.12 50 09:32 07.07.2022
2728 Clouds 11 1000 87 10000 4.12 50 06:26 07.07.2022
2729 Clouds 10 1001 83 10000 1.31 70 00:28 07.07.2022
2730 Clouds 11 1001 83 10000 1.32 69 23:36 06.07.2022
2731 Clouds 11 999 82 10000 2.06 340 23:18 06.07.2022
2732 Clouds 11 999 82 10000 2.06 340 22:51 06.07.2022
2733 Clouds 11 999 82 10000 2.06 340 22:51 06.07.2022
2734 Clouds 11 999 82 10000 2.06 340 22:33 06.07.2022
2735 Clouds 12 999 76 10000 1.03 0 20:23 06.07.2022
2736 Clouds 12 999 76 10000 2.06 250 19:18 06.07.2022
2737 Clouds 11 999 76 10000 2.57 230 17:21 06.07.2022
2738 Rain 11 998 82 10000 5.14 250 15:55 06.07.2022
2739 Rain 12 997 71 10000 6.69 240 12:44 06.07.2022
2740 Rain 11 997 76 10000 7.2 240 11:52 06.07.2022
2741 Clouds 11 997 87 10000 6.69 230 10:54 06.07.2022
2742 Rain 11 996 100 10000 3.09 230 09:25 06.07.2022
2743 Rain 10 995 100 10000 3.6 260 07:44 06.07.2022
2744 Rain 11 995 93 10000 5.14 250 06:44 06.07.2022
2745 Clouds 17 996 67 10000 3.09 160 00:24 06.07.2022
2746 Rain 16 996 72 10000 4.63 40 22:43 05.07.2022
2747 Rain 17 998 72 10000 5.66 130 20:49 05.07.2022
2748 Rain 18 997 68 10000 5.66 140 20:31 05.07.2022
2749 Clouds 20 998 64 10000 5.66 110 19:38 05.07.2022
2750 Clouds 19 999 77 10000 2.06 20 17:51 05.07.2022
2751 Clouds 22 999 53 10000 6.17 70 17:19 05.07.2022
2752 Clouds 23 1000 56 10000 3.09 60 16:25 05.07.2022
2753 Clouds 22 1001 49 10000 3.6 200 14:54 05.07.2022
2754 Clouds 22 1002 53 10000 4.12 200 13:36 05.07.2022
2755 Clouds 18 1003 77 10000 2.57 210 12:24 05.07.2022
2756 Clouds 18 1003 72 10000 3.09 140 10:46 05.07.2022
2757 Clouds 17 1004 77 10000 3.09 110 09:57 05.07.2022
2758 Clouds 17 1004 72 10000 3.6 140 08:21 05.07.2022
2759 Clear 16 1005 77 10000 4.63 130 06:59 05.07.2022
2760 Clouds 16 1006 77 10000 6.17 100 04:37 05.07.2022
2761 Clouds 15 1009 77 10000 2.06 0 01:33 05.07.2022
2762 Clouds 15 1009 82 10000 4.12 40 23:37 04.07.2022
2763 Rain 14 1010 77 10000 2.06 50 22:56 04.07.2022
2764 Rain 14 1010 72 10000 2.57 70 22:19 04.07.2022
2765 Clouds 12 1010 82 10000 5.14 60 20:56 04.07.2022
2766 Clouds 12 1010 82 10000 5.14 60 20:36 04.07.2022
2767 Clouds 14 1011 72 10000 6.17 60 19:57 04.07.2022
2768 Clouds 14 1011 72 10000 6.17 60 19:37 04.07.2022
2769 Clouds 14 1011 72 10000 6.17 60 18:51 04.07.2022
2770 Clear 16 1012 67 10000 5.66 70 16:54 04.07.2022
2771 Clouds 15 1012 72 10000 6.17 70 15:35 04.07.2022
2772 Clouds 15 1012 72 10000 6.17 70 14:19 04.07.2022
2773 Clouds 15 1012 72 10000 5.66 60 12:55 04.07.2022
2774 Clouds 16 1012 72 10000 1.03 0 10:57 04.07.2022
2775 Clouds 15 1012 72 10000 1.54 210 10:27 04.07.2022
2776 Fog 13 1011 88 10000 1.54 0 09:21 04.07.2022
2777 Fog 11 1011 100 10000 3.09 50 06:27 04.07.2022
2778 Mist 10 1011 100 3700 3.6 60 02:59 04.07.2022
2779 Clouds 12 1011 87 10000 1.03 0 23:52 03.07.2022
2780 Clouds 11 1011 100 10000 0.51 0 22:36 03.07.2022
2781 Clouds 12 1011 87 10000 4.63 240 20:46 03.07.2022
2782 Clouds 12 1011 94 10000 4.63 240 19:52 03.07.2022
2783 Clouds 12 1011 94 10000 5.14 240 19:24 03.07.2022
2784 Clouds 11 1011 100 10000 4.63 240 18:30 03.07.2022
2785 Clouds 11 1011 100 10000 4.12 230 17:41 03.07.2022
2786 Rain 12 1010 94 10000 5.14 230 15:28 03.07.2022
2787 Rain 12 1010 100 10000 5.66 240 14:53 03.07.2022
2788 Rain 13 1010 82 10000 7.72 230 13:50 03.07.2022
2789 Clouds 14 1008 77 10000 8.23 240 12:47 03.07.2022
2790 Clouds 16 1008 72 10000 10.29 240 12:19 03.07.2022
2791 Clouds 17 1007 72 10000 5.14 220 10:54 03.07.2022
2792 Clouds 17 1007 72 10000 5.14 220 10:35 03.07.2022
2793 Clouds 24 1005 64 10000 2.06 220 07:38 03.07.2022
2794 Clear 24 1005 64 10000 3.09 210 06:52 03.07.2022
2795 Clear 24 1007 57 10000 4.12 220 00:39 03.07.2022
2796 Clear 26 1008 47 10000 4.12 200 23:38 02.07.2022
2797 Clear 27 1008 44 10000 3.09 220 22:31 02.07.2022
2798 Clear 27 1008 44 10000 3.09 240 20:31 02.07.2022
2799 Clear 28 1009 36 10000 2.57 240 19:49 02.07.2022
2800 Clear 29 1009 30 10000 2.57 240 18:36 02.07.2022
2801 Clear 28 1009 32 10000 3.6 230 17:39 02.07.2022
2802 Clear 29 1010 34 10000 2.57 220 16:30 02.07.2022
2803 Clear 28 1011 47 10000 3.09 210 13:40 02.07.2022
2804 Clear 26 1012 53 10000 2.57 230 11:51 02.07.2022
2805 Clear 26 1013 53 10000 1.54 0 10:52 02.07.2022
2806 Clear 26 1013 57 10000 1.03 0 10:25 02.07.2022
2807 Clear 22 1014 68 10000 2.57 230 08:38 02.07.2022
2808 Clear 22 1014 68 10000 2.57 230 08:19 02.07.2022
2809 Clear 19 1016 72 10000 0 0 04:19 02.07.2022
2810 Clear 17 1017 72 10000 1.54 0 00:28 02.07.2022
2811 Clear 17 1017 72 10000 0.51 0 23:30 01.07.2022
2812 Clear 18 1017 72 10000 1.03 0 22:35 01.07.2022
2813 Clear 19 1017 63 10000 2.06 30 21:38 01.07.2022
2814 Clear 19 1017 63 10000 3.09 50 20:59 01.07.2022
2815 Clear 19 1017 63 10000 3.09 50 20:34 01.07.2022
2816 Clear 20 1017 60 10000 3.6 50 19:38 01.07.2022
2817 Clear 22 1018 56 10000 1.54 0 17:39 01.07.2022
2818 Clear 22 1019 56 10000 2.06 230 14:59 01.07.2022
2819 Clear 23 1019 53 10000 2.06 0 13:54 01.07.2022
2820 Clear 20 1020 56 10000 3.6 130 11:48 01.07.2022
2821 Clear 18 1020 63 10000 2.57 140 10:19 01.07.2022
2822 Clear 13 1022 76 10000 4.12 50 07:40 01.07.2022
2823 Mist 7 1024 100 7000 4.12 50 02:43 01.07.2022
2824 Clouds 8 1025 100 10000 2.57 40 00:22 01.07.2022
2825 Clouds 9 1024 100 10000 2.06 30 22:52 30.06.2022
2826 Clouds 9 1024 100 10000 2.06 30 22:32 30.06.2022
2827 Clouds 9 1024 100 10000 1.54 340 21:55 30.06.2022
2828 Clouds 9 1025 100 10000 1.54 260 20:58 30.06.2022
2829 Clouds 9 1025 100 10000 2.57 280 20:22 30.06.2022
2830 Clouds 9 1025 100 10000 2.06 260 19:53 30.06.2022
2831 Clouds 9 1024 100 10000 3.09 290 19:18 30.06.2022
2832 Clouds 9 1024 100 10000 3.09 270 18:34 30.06.2022
2833 Clouds 9 1024 100 10000 3.6 260 17:38 30.06.2022
2834 Clouds 9 1024 100 10000 4.12 280 16:48 30.06.2022
2835 Clouds 9 1023 100 10000 8.23 240 14:47 30.06.2022
2836 Clouds 10 1023 100 10000 10.29 240 13:30 30.06.2022
2837 Clouds 10 1022 93 10000 9.77 240 12:35 30.06.2022
2838 Clouds 10 1022 87 10000 7.2 250 11:28 30.06.2022
2839 Clouds 10 1020 93 10000 10.29 240 09:53 30.06.2022
2840 Clouds 10 1020 93 10000 10.29 240 09:32 30.06.2022
2841 Clouds 11 1019 87 10000 10.29 250 07:41 30.06.2022
2842 Clouds 12 1019 100 10000 3.6 230 05:47 30.06.2022
2843 Clouds 12 1019 100 10000 1.54 0 00:32 30.06.2022
2844 Clouds 13 1018 100 10000 1.54 200 23:21 29.06.2022
2845 Clouds 14 1018 100 10000 3.09 210 22:39 29.06.2022
2846 Clouds 13 1018 94 10000 3.09 240 21:37 29.06.2022
2847 Clouds 16 1017 77 10000 5.66 260 20:33 29.06.2022
2848 Clouds 24 1015 57 10000 8.75 250 19:37 29.06.2022
2849 Clear 28 1015 47 10000 4.12 70 17:45 29.06.2022
2850 Clear 27 1015 50 10000 3.6 60 16:41 29.06.2022
2851 Clear 28 1016 44 10000 5.14 70 15:19 29.06.2022
2852 Clear 28 1016 44 10000 2.06 210 12:40 29.06.2022
2853 Clear 27 1016 50 10000 2.57 230 11:19 29.06.2022
2854 Clear 25 1016 57 10000 2.57 230 09:33 29.06.2022
2855 Clear 24 1016 60 10000 2.57 250 08:26 29.06.2022
2856 Clear 24 1017 60 10000 2.57 290 04:57 29.06.2022
2857 Clouds 23 1018 56 10000 2.06 0 01:41 29.06.2022
2858 Clear 23 1018 56 10000 2.57 260 00:36 29.06.2022
2859 Clear 24 1018 57 10000 0 0 22:55 28.06.2022
2860 Clear 24 1018 57 10000 0 0 22:34 28.06.2022
2861 Clear 24 1018 57 10000 0.51 0 21:55 28.06.2022
2862 Clear 24 1018 57 10000 0.51 0 21:33 28.06.2022
2863 Clear 26 1018 50 10000 1.54 0 20:50 28.06.2022
2864 Clear 25 1019 57 10000 4.63 60 19:34 28.06.2022
2865 Clear 25 1019 57 10000 5.14 60 18:53 28.06.2022
2866 Clear 26 1019 53 10000 4.63 50 17:44 28.06.2022
2867 Clear 28 1020 47 10000 2.06 210 16:24 28.06.2022
2868 Clear 27 1019 50 10000 2.06 200 15:53 28.06.2022
2869 Clear 26 1019 53 10000 1.54 250 14:21 28.06.2022
2870 Clear 26 1020 53 10000 1.54 240 13:54 28.06.2022
2871 Clear 26 1020 53 10000 2.06 220 13:20 28.06.2022
2872 Clear 24 1020 60 10000 2.57 220 11:21 28.06.2022
2873 Clear 21 1020 68 10000 4.63 250 09:41 28.06.2022
2874 Clear 22 1020 64 10000 2.57 240 08:45 28.06.2022
2875 Clear 21 1020 68 10000 2.57 250 07:58 28.06.2022
2876 Clear 21 1020 64 10000 3.6 250 07:19 28.06.2022
2877 Clouds 21 1020 68 10000 0.51 0 01:33 28.06.2022
2878 Clear 23 1019 60 10000 2.57 200 23:45 27.06.2022
2879 Clear 24 1019 57 10000 2.57 200 22:55 27.06.2022
2880 Clear 23 1019 53 10000 0.51 0 21:38 27.06.2022
2881 Clear 23 1019 53 10000 0.51 0 21:38 27.06.2022
2882 Clear 24 1019 46 10000 2.06 150 20:54 27.06.2022
2883 Clear 25 1018 47 10000 4.63 130 19:40 27.06.2022
2884 Clear 26 1018 47 10000 1.03 0 18:40 27.06.2022
2885 Clear 25 1019 44 10000 2.06 250 16:44 27.06.2022
2886 Clear 25 1019 44 10000 0.51 0 15:42 27.06.2022
2887 Clear 23 1019 46 10000 5.66 220 13:39 27.06.2022
2888 Clear 22 1019 46 10000 5.14 210 12:57 27.06.2022
2889 Clear 20 1020 45 10000 5.66 190 10:43 27.06.2022
2890 Clear 19 1020 48 10000 3.09 200 09:37 27.06.2022
2891 Clear 18 1020 48 10000 4.12 200 08:32 27.06.2022
2892 Clear 18 1020 48 10000 3.09 0 07:38 27.06.2022
2893 Clouds 17 1020 51 10000 2.57 210 04:40 27.06.2022
2894 Clear 15 1021 55 10000 0 0 01:20 27.06.2022
2895 Clear 14 1021 62 10000 3.09 30 22:47 26.06.2022
2896 Clear 15 1021 55 10000 4.12 20 20:55 26.06.2022
2897 Clear 16 1021 51 10000 3.6 40 19:59 26.06.2022
2898 Clear 17 1022 42 10000 3.09 110 18:32 26.06.2022
2899 Clear 17 1022 42 10000 3.6 120 17:37 26.06.2022
2900 Clear 16 1022 48 10000 6.17 70 15:31 26.06.2022
2901 Clear 15 1022 47 10000 7.72 50 13:55 26.06.2022
2902 Clear 15 1022 47 10000 7.2 50 13:23 26.06.2022
2903 Clear 13 1021 54 10000 6.17 60 11:31 26.06.2022
2904 Clear 12 1021 58 10000 6.17 50 10:29 26.06.2022
2905 Clear 12 1021 58 10000 5.66 70 09:45 26.06.2022
2906 Clouds 11 1020 66 10000 6.17 70 07:46 26.06.2022
2907 Clouds 8 1018 93 10000 5.14 40 03:19 26.06.2022
2908 Clear 8 1018 87 10000 5.66 60 00:36 26.06.2022
2909 Clouds 8 1018 87 10000 5.66 60 00:18 26.06.2022
2910 Clouds 8 1017 87 10000 5.14 70 23:25 25.06.2022
2911 Clouds 8 1017 87 10000 6.69 70 22:28 25.06.2022
2912 Clouds 9 1017 76 10000 7.2 70 21:52 25.06.2022
2913 Clouds 9 1017 76 10000 6.69 70 21:20 25.06.2022
2914 Clouds 10 1017 71 10000 5.66 60 20:32 25.06.2022
2915 Clouds 10 1017 71 10000 6.17 50 19:55 25.06.2022
2916 Clouds 10 1017 71 10000 6.17 50 19:55 25.06.2022
2917 Clouds 10 1017 71 10000 6.17 50 19:55 25.06.2022
2918 Clouds 10 1017 76 10000 6.17 60 18:22 25.06.2022
2919 Clouds 11 1017 71 10000 6.17 60 17:25 25.06.2022
2920 Clouds 11 1017 71 10000 6.17 70 16:24 25.06.2022
2921 Clouds 11 1018 66 10000 5.14 60 14:28 25.06.2022
2922 Clouds 11 1018 71 10000 4.63 70 12:43 25.06.2022
2923 Clouds 11 1018 71 10000 4.12 60 11:39 25.06.2022
2924 Clouds 12 1017 66 10000 3.09 80 09:24 25.06.2022
2925 Clouds 11 1017 66 10000 1.54 200 08:48 25.06.2022
2926 Clouds 11 1017 66 10000 1.54 190 08:20 25.06.2022
2927 Clouds 9 1016 81 10000 1.54 190 06:26 25.06.2022
2928 Clouds 6 1015 87 10000 0.51 0 00:44 25.06.2022
2929 Clouds 8 1015 81 10000 1.03 0 23:32 24.06.2022
2930 Clouds 8 1014 81 10000 3.09 240 21:59 24.06.2022
2931 Clouds 9 1014 76 10000 3.09 240 21:22 24.06.2022
2932 Clouds 9 1014 76 10000 5.66 240 20:23 24.06.2022
2933 Clouds 9 1014 76 10000 5.14 230 19:24 24.06.2022
2934 Clouds 9 1014 76 10000 5.14 240 18:50 24.06.2022
2935 Drizzle 9 1013 76 10000 5.14 250 18:31 24.06.2022
2936 Rain 9 1013 76 10000 3.6 260 17:46 24.06.2022
2937 Clouds 9 1013 76 10000 4.12 240 16:34 24.06.2022
2938 Clouds 10 1011 71 10000 3.09 230 14:30 24.06.2022
2939 Clouds 10 1011 76 10000 2.57 220 13:55 24.06.2022
2940 Clouds 8 1010 93 10000 2.57 210 12:28 24.06.2022
2941 Clouds 8 1010 100 10000 3.6 240 11:40 24.06.2022
2942 Clouds 8 1008 100 10000 2.57 230 10:26 24.06.2022
2943 Rain 8 1008 100 10000 1.54 0 09:41 24.06.2022
2944 Rain 8 1007 87 10000 1.54 190 08:53 24.06.2022
2945 Rain 8 1006 87 10000 2.06 40 07:39 24.06.2022
2946 Rain 9 1006 81 10000 2.06 40 06:42 24.06.2022
2947 Rain 10 1005 76 10000 3.09 60 06:18 24.06.2022
2948 Clouds 9 1004 76 10000 4.63 340 03:47 24.06.2022
2949 Clear 9 1002 76 10000 2.57 30 22:59 23.06.2022
2950 Clear 9 1002 81 10000 0 0 22:40 23.06.2022
2951 Clouds 11 1001 71 10000 1.03 0 20:59 23.06.2022
2952 Clouds 11 1001 71 10000 1.03 0 20:35 23.06.2022
2953 Clouds 10 1001 76 10000 0.51 0 19:40 23.06.2022
2954 Clouds 9 1001 93 10000 1.54 0 17:53 23.06.2022
2955 Clouds 9 1001 93 10000 1.54 0 17:33 23.06.2022
2956 Rain 14 998 58 10000 8.23 280 15:57 23.06.2022
2957 Clouds 14 998 58 10000 2.06 220 15:24 23.06.2022
2958 Rain 14 997 62 10000 2.06 240 13:45 23.06.2022
2959 Rain 12 996 66 10000 5.14 200 11:27 23.06.2022
2960 Clouds 12 995 66 10000 5.66 210 10:40 23.06.2022
2961 Clouds 11 995 66 10000 6.17 180 09:18 23.06.2022
2962 Clouds 10 998 66 10000 6.17 200 03:40 23.06.2022
2963 Clear 7 1001 76 10000 1.54 120 00:27 23.06.2022
2964 Clear 6 1002 81 10000 2.57 30 23:41 22.06.2022
2965 Clouds 6 1002 93 10000 3.09 30 22:48 22.06.2022
2966 Clouds 6 1002 93 10000 3.09 30 22:48 22.06.2022
2967 Clouds 6 1003 93 10000 1.03 0 21:27 22.06.2022
2968 Clouds 6 1004 93 10000 1.03 0 20:48 22.06.2022
2969 Clouds 7 1004 81 10000 1.54 220 19:58 22.06.2022
2970 Clouds 6 1004 87 10000 1.54 0 18:50 22.06.2022
2971 Clouds 6 1005 87 10000 2.06 250 17:29 22.06.2022
2972 Clouds 7 1005 81 10000 2.57 260 16:37 22.06.2022
2973 Clouds 7 1005 87 10000 0 0 15:27 22.06.2022
2974 Rain 7 1005 87 10000 2.06 0 14:31 22.06.2022
2975 Rain 6 1005 87 10000 2.06 0 13:44 22.06.2022
2976 Rain 5 1005 93 10000 1.54 0 13:23 22.06.2022
2977 Rain 6 1005 87 10000 2.57 0 11:50 22.06.2022
2978 Rain 6 1005 100 10000 2.06 230 10:58 22.06.2022
2979 Rain 6 1005 93 10000 2.06 0 10:20 22.06.2022
2980 Drizzle 6 1005 87 10000 1.54 360 08:48 22.06.2022
2981 Rain 6 1004 93 10000 2.06 50 06:21 22.06.2022
2982 Rain 6 1004 100 10000 1.03 0 01:50 22.06.2022
2983 Rain 6 1004 93 10000 3.09 270 00:39 22.06.2022
2984 Rain 7 1003 93 10000 1.54 0 22:40 21.06.2022
2985 Rain 7 1001 100 10000 5.14 340 20:40 21.06.2022
2986 Rain 10 1000 100 10000 5.66 330 18:53 21.06.2022
2987 Rain 12 999 76 10000 2.57 60 17:42 21.06.2022
2988 Clouds 12 998 71 10000 5.66 60 15:21 21.06.2022
2989 Rain 17 996 55 10000 3.6 220 11:56 21.06.2022
2990 Clear 16 996 55 10000 6.17 210 10:27 21.06.2022
2991 Clear 15 996 58 10000 5.66 190 08:51 21.06.2022
2992 Clear 15 997 55 10000 4.63 210 07:35 21.06.2022
2993 Clouds 13 999 62 10000 3.6 190 04:40 21.06.2022
2994 Clouds 13 1003 54 10000 3.6 140 23:27 20.06.2022
2995 Clouds 14 1003 51 10000 4.63 130 21:59 20.06.2022
2996 Clouds 14 1003 51 10000 4.63 130 21:32 20.06.2022
2997 Clouds 14 1004 54 10000 3.09 140 20:25 20.06.2022
2998 Clouds 13 1005 54 10000 4.12 60 18:56 20.06.2022
2999 Clouds 13 1005 54 10000 4.12 60 18:25 20.06.2022
3000 Clouds 14 1005 51 10000 1.03 0 17:44 20.06.2022
3001 Clouds 13 1006 54 10000 2.57 220 16:24 20.06.2022
3002 Clear 13 1006 58 10000 1.54 0 14:36 20.06.2022
3003 Clouds 11 1007 66 10000 2.57 210 11:47 20.06.2022
3004 Clouds 8 1008 93 10000 2.57 210 09:55 20.06.2022
3005 Clouds 7 1008 100 10000 2.57 230 08:46 20.06.2022
3006 Clouds 8 1008 87 8000 2.06 230 07:36 20.06.2022
3007 Clouds 8 1008 81 10000 3.09 270 04:56 20.06.2022
3008 Clouds 6 1008 87 10000 0 0 01:32 20.06.2022
3009 Clouds 6 1007 87 10000 1.54 50 23:48 19.06.2022
3010 Clouds 7 1007 81 10000 1.54 30 22:20 19.06.2022
3011 Clouds 7 1007 81 10000 2.57 50 21:42 19.06.2022
3012 Clouds 8 1007 76 10000 4.12 60 20:52 19.06.2022
3013 Clouds 8 1007 76 10000 5.14 60 20:25 19.06.2022
3014 Clouds 8 1007 76 10000 6.17 70 19:45 19.06.2022
3015 Clouds 10 1006 71 10000 6.17 70 18:33 19.06.2022
3016 Clouds 10 1006 66 10000 6.69 70 17:48 19.06.2022
3017 Clouds 11 1006 62 10000 6.17 60 17:20 19.06.2022
3018 Clouds 11 1006 66 10000 7.2 70 16:34 19.06.2022
3019 Clouds 11 1006 66 10000 6.17 60 15:35 19.06.2022
3020 Clouds 12 1006 58 10000 4.63 70 14:43 19.06.2022
3021 Clouds 12 1005 62 10000 4.63 70 13:54 19.06.2022
3022 Clouds 11 1005 66 10000 4.12 60 12:26 19.06.2022
3023 Clouds 11 1005 66 10000 4.12 60 10:53 19.06.2022
3024 Clouds 11 1004 71 10000 2.06 230 09:34 19.06.2022
3025 Clouds 10 1004 71 10000 2.06 230 08:43 19.06.2022
3026 Clouds 11 1004 71 10000 3.6 220 07:36 19.06.2022
3027 Clouds 10 1004 66 10000 1.54 0 04:33 19.06.2022
3028 Clouds 9 1004 71 10000 4.12 120 01:28 19.06.2022
3029 Clouds 9 1004 71 10000 4.12 120 01:28 19.06.2022
3030 Clouds 10 1004 66 10000 6.69 130 00:23 19.06.2022
3031 Clouds 11 1004 62 10000 5.14 110 23:35 18.06.2022
3032 Clouds 11 1004 62 10000 5.14 110 22:36 18.06.2022
3033 Clouds 12 1004 58 10000 6.17 130 20:55 18.06.2022
3034 Clouds 13 1004 54 10000 6.17 130 20:27 18.06.2022
3035 Clouds 14 1004 51 10000 5.14 130 19:31 18.06.2022
3036 Clouds 13 1004 54 10000 5.14 120 18:44 18.06.2022
3037 Clouds 13 1005 54 10000 6.17 130 17:30 18.06.2022
3038 Clouds 13 1005 50 10000 5.66 130 16:23 18.06.2022
3039 Clouds 13 1005 50 10000 6.17 120 15:22 18.06.2022
3040 Clear 13 1006 50 10000 5.66 130 14:42 18.06.2022
3041 Clear 12 1006 54 10000 5.66 120 13:21 18.06.2022
3042 Clear 11 1007 54 10000 6.17 120 11:34 18.06.2022
3043 Clear 10 1007 57 10000 6.17 130 10:26 18.06.2022
3044 Clouds 10 1007 57 10000 5.66 130 09:20 18.06.2022
3045 Clouds 10 1007 57 10000 5.66 130 09:20 18.06.2022
3046 Clouds 9 1008 61 10000 5.14 120 08:19 18.06.2022
3047 Clear 8 1009 66 10000 4.12 120 06:43 18.06.2022
3048 Clouds 6 1011 75 10000 5.14 110 03:24 18.06.2022
3049 Clear 5 1012 81 10000 4.12 100 01:24 18.06.2022
3050 Clear 6 1013 75 10000 4.12 100 00:45 18.06.2022
3051 Clear 6 1013 70 10000 5.14 90 23:52 17.06.2022
3052 Clear 6 1013 70 10000 5.14 90 23:52 17.06.2022
3053 Clear 7 1013 65 10000 4.12 100 22:56 17.06.2022
3054 Clear 7 1015 65 10000 6.17 60 20:42 17.06.2022
3055 Clear 8 1015 61 10000 5.66 50 19:30 17.06.2022
3056 Clear 8 1016 61 10000 6.17 50 18:34 17.06.2022
3057 Clouds 8 1016 61 10000 5.14 90 17:34 17.06.2022
3058 Clouds 8 1016 66 10000 6.17 60 16:42 17.06.2022
3059 Clouds 8 1017 66 10000 5.66 50 15:43 17.06.2022
3060 Clouds 7 1017 70 10000 5.14 40 14:58 17.06.2022
3061 Clouds 8 1017 66 10000 5.66 50 14:20 17.06.2022
3062 Clouds 8 1017 66 10000 5.66 40 13:45 17.06.2022
3063 Clouds 8 1017 71 10000 5.66 60 12:53 17.06.2022
3064 Clouds 7 1017 76 10000 4.63 60 11:57 17.06.2022
3065 Clouds 7 1017 76 10000 4.63 60 11:36 17.06.2022
3066 Clouds 7 1017 76 10000 5.66 60 10:48 17.06.2022
3067 Clouds 7 1017 76 10000 5.66 60 10:48 17.06.2022
3068 Clouds 5 1017 87 10000 4.63 80 08:30 17.06.2022
3069 Clouds 6 1017 81 10000 2.57 50 07:30 17.06.2022
3070 Clouds 5 1017 93 10000 3.09 60 05:51 17.06.2022
3071 Clouds 5 1017 93 10000 4.12 60 02:47 17.06.2022
3072 Clouds 5 1017 81 10000 4.63 60 00:42 17.06.2022
3073 Clouds 6 1017 70 10000 5.14 60 22:44 16.06.2022
3074 Clouds 6 1018 75 10000 5.14 50 21:58 16.06.2022
3075 Clouds 5 1018 81 10000 5.14 50 21:18 16.06.2022
3076 Clouds 6 1017 75 10000 5.14 60 20:49 16.06.2022
3077 Clouds 6 1018 75 10000 4.12 60 19:56 16.06.2022
3078 Clouds 6 1018 81 10000 4.12 40 18:34 16.06.2022
3079 Clouds 6 1018 75 10000 4.12 50 17:44 16.06.2022
3080 Clouds 6 1018 75 10000 4.63 50 16:46 16.06.2022
3081 Clouds 5 1018 81 10000 5.14 40 15:37 16.06.2022
3082 Clouds 6 1018 75 10000 5.66 40 15:18 16.06.2022
3083 Clouds 5 1018 87 10000 5.66 50 13:46 16.06.2022
3084 Clouds 5 1018 93 10000 4.63 60 12:38 16.06.2022
3085 Clouds 5 1017 93 10000 4.63 50 11:54 16.06.2022
3086 Clouds 5 1017 93 10000 5.14 50 11:19 16.06.2022
3087 Drizzle 5 1017 93 10000 4.63 50 10:34 16.06.2022
3088 Drizzle 4 1017 100 10000 5.14 40 09:26 16.06.2022
3089 Drizzle 4 1017 100 4900 5.14 50 08:46 16.06.2022
3090 Drizzle 5 1017 100 8000 5.14 60 07:29 16.06.2022
3091 Drizzle 5 1017 100 10000 4.63 70 05:43 16.06.2022
3092 Clouds 5 1017 100 10000 4.12 50 03:23 16.06.2022
3093 Clouds 6 1018 100 10000 4.12 50 01:51 16.06.2022
3094 Clouds 6 1018 100 10000 4.12 50 01:22 16.06.2022
3095 Clouds 6 1018 100 10000 4.12 50 01:22 16.06.2022
3096 Clouds 6 1018 81 10000 2.57 70 23:58 15.06.2022
3097 Clouds 6 1018 75 10000 2.06 50 22:47 15.06.2022
3098 Clouds 6 1018 75 10000 3.6 60 21:29 15.06.2022
3099 Clouds 6 1018 75 10000 4.12 30 20:57 15.06.2022
3100 Clouds 6 1018 75 10000 4.12 30 20:35 15.06.2022
3101 Clouds 6 1018 75 10000 5.14 50 19:52 15.06.2022
3102 Clouds 7 1018 70 10000 4.63 50 18:30 15.06.2022
3103 Clouds 7 1018 70 10000 5.14 50 17:43 15.06.2022
3104 Clouds 7 1018 76 10000 5.14 60 16:21 15.06.2022
3105 Clouds 7 1017 76 10000 5.66 70 14:37 15.06.2022
3106 Clouds 7 1017 81 10000 5.14 60 13:22 15.06.2022
3107 Clouds 7 1017 76 10000 5.66 70 12:40 15.06.2022
3108 Clouds 7 1017 76 10000 5.14 50 11:24 15.06.2022
3109 Clouds 7 1016 76 10000 5.14 50 10:21 15.06.2022
3110 Clouds 6 1016 81 10000 5.14 70 08:59 15.06.2022
3111 Clouds 6 1016 75 10000 3.09 50 07:32 15.06.2022
3112 Clouds 6 1015 81 10000 3.09 60 05:36 15.06.2022
3113 Clouds 5 1015 87 10000 3.09 50 02:47 15.06.2022
3114 Clouds 5 1014 81 10000 3.09 40 01:36 15.06.2022
3115 Clouds 5 1014 87 10000 3.6 50 00:19 15.06.2022
3116 Clouds 5 1014 87 10000 5.14 60 23:38 14.06.2022
3117 Clouds 5 1013 87 10000 3.6 50 22:46 14.06.2022
3118 Clouds 5 1013 87 10000 4.63 50 21:43 14.06.2022
3119 Clouds 6 1013 81 10000 4.12 50 21:20 14.06.2022
3120 Clouds 6 1012 81 10000 5.14 50 20:40 14.06.2022
3121 Clouds 6 1012 81 10000 4.63 60 19:47 14.06.2022
3122 Clouds 6 1012 81 10000 5.14 60 18:39 14.06.2022
3123 Clouds 7 1011 76 10000 4.63 60 16:53 14.06.2022
3124 Clouds 6 1011 81 10000 4.63 40 16:34 14.06.2022
3125 Clouds 6 1010 81 10000 4.12 60 15:41 14.06.2022
3126 Clouds 6 1010 81 10000 4.12 50 14:53 14.06.2022
3127 Clouds 6 1009 81 10000 5.14 70 13:59 14.06.2022
3128 Clouds 7 1009 76 10000 3.6 60 13:24 14.06.2022
3129 Clouds 6 1009 81 10000 4.12 60 11:58 14.06.2022
3130 Clouds 5 1008 87 10000 4.12 60 10:52 14.06.2022
3131 Clouds 5 1008 87 10000 5.14 60 10:29 14.06.2022
3132 Clouds 5 1008 87 10000 4.12 50 09:22 14.06.2022
3133 Clouds 5 1007 87 10000 4.12 70 08:37 14.06.2022
3134 Clouds 5 1007 93 10000 2.57 50 06:32 14.06.2022
3135 Clouds 5 1006 87 10000 2.06 50 03:52 14.06.2022
3136 Clouds 6 1006 81 10000 2.06 50 01:37 14.06.2022
3137 Clouds 6 1006 81 10000 2.57 350 00:24 14.06.2022
3138 Clouds 6 1005 81 10000 4.12 350 22:58 13.06.2022
3139 Clouds 6 1006 81 10000 3.6 340 22:23 13.06.2022
3140 Clouds 6 1005 81 10000 3.6 360 21:39 13.06.2022
3141 Clouds 7 1005 76 10000 4.12 350 19:59 13.06.2022
3142 Clouds 7 1005 76 10000 4.12 350 19:18 13.06.2022
3143 Clouds 7 1004 81 10000 3.09 350 17:56 13.06.2022
3144 Clouds 8 1004 76 10000 2.57 0 17:25 13.06.2022
3145 Clouds 8 1004 76 10000 1.54 0 16:31 13.06.2022
3146 Clouds 7 1004 81 10000 4.63 290 14:52 13.06.2022
3147 Clouds 7 1004 81 10000 4.12 290 14:31 13.06.2022
3148 Clouds 7 1004 81 10000 4.63 290 13:36 13.06.2022
3149 Clouds 7 1003 81 10000 4.12 280 12:23 13.06.2022
3150 Clouds 7 1003 76 10000 3.6 260 10:56 13.06.2022
3151 Clouds 7 1003 81 10000 4.63 240 10:26 13.06.2022
3152 Clouds 6 1002 87 10000 3.09 240 08:52 13.06.2022
3153 Clouds 6 1002 81 10000 4.12 250 06:53 13.06.2022
3154 Clouds 6 1002 81 10000 7.2 240 05:35 13.06.2022
3155 Clouds 5 1002 87 10000 7.72 240 02:27 13.06.2022
3156 Clouds 5 1002 87 10000 8.23 240 01:36 13.06.2022
3157 Clouds 6 1001 81 10000 8.75 240 23:49 12.06.2022
3158 Clouds 5 1002 87 10000 9.26 240 22:44 12.06.2022
3159 Clouds 6 1002 75 10000 10.29 240 21:58 12.06.2022
3160 Clouds 6 1001 81 10000 9.77 230 20:54 12.06.2022
3161 Clouds 6 1001 81 10000 10.8 240 20:18 12.06.2022
3162 Clouds 6 1001 81 10000 10.8 240 19:30 12.06.2022
3163 Clouds 6 1001 87 10000 9.77 240 17:41 12.06.2022
3164 Clouds 6 1001 87 10000 11.32 240 15:57 12.06.2022
3165 Clouds 6 1001 87 10000 11.32 240 14:56 12.06.2022
3166 Clouds 6 1001 81 10000 12.35 240 14:20 12.06.2022
3167 Drizzle 6 1001 87 10000 11.32 240 13:49 12.06.2022
3168 Drizzle 6 1001 93 10000 8.75 240 12:35 12.06.2022
3169 Clouds 6 1000 93 10000 9.77 240 11:36 12.06.2022
3170 Clouds 7 1000 87 10000 10.29 240 10:21 12.06.2022
3171 Rain 6 1000 100 10000 10.29 240 08:54 12.06.2022
3172 Rain 6 1000 100 10000 10.29 240 08:35 12.06.2022
3173 Rain 6 1000 100 10000 8.75 240 07:32 12.06.2022
3174 Rain 7 1000 100 10000 7.72 240 04:35 12.06.2022
3175 Drizzle 8 1001 100 10000 2.57 210 02:38 12.06.2022
3176 Rain 9 1001 87 10000 5.66 260 01:37 12.06.2022
3177 Drizzle 12 1001 82 10000 3.09 270 00:58 12.06.2022
3178 Clouds 13 1001 76 10000 3.09 240 00:20 12.06.2022
3179 Clouds 13 1002 76 10000 3.6 240 23:40 11.06.2022
3180 Clouds 13 1002 76 10000 3.6 210 22:38 11.06.2022
3181 Clouds 13 1002 76 10000 3.6 210 22:38 11.06.2022
3182 Clouds 13 1003 82 10000 3.09 210 21:42 11.06.2022
3183 Rain 13 1003 82 10000 5.14 190 20:34 11.06.2022
3184 Rain 14 1004 72 10000 4.12 200 19:46 11.06.2022
3185 Clouds 15 1004 63 10000 1.54 0 19:19 11.06.2022
3186 Rain 14 1004 62 10000 3.09 40 18:33 11.06.2022
3187 Clouds 13 1005 62 10000 5.66 70 17:50 11.06.2022
3188 Clouds 13 1005 58 10000 6.69 70 17:26 11.06.2022
3189 Clouds 13 1006 58 10000 6.69 70 16:52 11.06.2022
3190 Clouds 12 1006 62 10000 6.69 70 16:26 11.06.2022
3191 Clear 12 1007 62 10000 6.69 60 15:28 11.06.2022
3192 Clear 12 1008 58 10000 6.69 70 13:53 11.06.2022
3193 Clear 13 1009 54 10000 6.17 60 12:36 11.06.2022
3194 Clouds 12 1010 58 10000 5.14 60 10:46 11.06.2022
3195 Clear 10 1010 62 10000 4.63 60 09:48 11.06.2022
3196 Clear 9 1011 66 10000 4.12 60 08:51 11.06.2022
3197 Clear 8 1012 66 10000 3.6 50 06:47 11.06.2022
3198 Clear 7 1012 70 10000 3.6 60 06:25 11.06.2022
3199 Clouds 5 1014 81 10000 2.57 30 04:23 11.06.2022
3200 Clear 3 1015 93 10000 0 0 01:52 11.06.2022
3201 Clear 3 1015 93 10000 1.54 280 01:27 11.06.2022
3202 Clouds 6 1015 75 10000 2.57 240 23:34 10.06.2022
3203 Clouds 6 1015 75 10000 4.12 240 22:31 10.06.2022
3204 Clouds 6 1015 70 10000 5.14 240 21:50 10.06.2022
3205 Clouds 6 1015 75 10000 5.14 240 20:40 10.06.2022
3206 Clouds 6 1016 75 10000 2.57 250 20:21 10.06.2022
3207 Clouds 6 1016 75 10000 2.57 250 20:21 10.06.2022
3208 Clouds 6 1015 75 10000 6.17 240 19:19 10.06.2022
3209 Clouds 6 1015 75 10000 6.69 230 18:55 10.06.2022
3210 Clouds 6 1015 70 10000 6.69 240 17:55 10.06.2022
3211 Clouds 6 1015 70 10000 6.69 240 17:33 10.06.2022
3212 Clouds 6 1015 75 10000 6.69 240 16:47 10.06.2022
3213 Clouds 6 1015 75 10000 7.72 240 15:40 10.06.2022
3214 Clouds 5 1015 100 10000 8.23 240 14:51 10.06.2022
3215 Clouds 6 1014 81 10000 6.17 240 13:26 10.06.2022
3216 Clouds 6 1014 81 10000 6.69 240 11:59 10.06.2022
3217 Clouds 6 1013 81 10000 8.23 240 11:25 10.06.2022
3218 Clouds 6 1013 81 10000 5.66 240 10:35 10.06.2022
3219 Rain 5 1013 100 10000 6.69 240 09:26 10.06.2022
3220 Clouds 5 1012 93 10000 6.69 240 07:57 10.06.2022
3221 Rain 4 1012 100 10000 7.72 240 06:49 10.06.2022
3222 Rain 4 1012 93 10000 8.23 240 06:30 10.06.2022
3223 Rain 4 1012 87 10000 8.23 240 05:31 10.06.2022
3224 Rain 4 1011 87 10000 6.17 240 02:46 10.06.2022
3225 Drizzle 4 1011 87 10000 8.23 240 01:37 10.06.2022
3226 Rain 5 1011 81 10000 5.66 240 23:58 09.06.2022
3227 Clouds 5 1011 81 10000 6.17 240 22:43 09.06.2022
3228 Clouds 5 1011 81 10000 7.2 240 21:44 09.06.2022
3229 Rain 5 1011 81 10000 5.14 230 21:25 09.06.2022
3230 Clouds 5 1011 75 10000 5.66 240 20:38 09.06.2022
3231 Clouds 6 1010 70 10000 8.23 240 19:46 09.06.2022
3232 Clouds 6 1010 70 10000 8.23 240 18:41 09.06.2022
3233 Clouds 6 1010 70 10000 8.75 250 17:33 09.06.2022
3234 Clouds 6 1010 75 10000 5.66 250 16:28 09.06.2022
3235 Clouds 6 1010 75 10000 7.2 240 15:22 09.06.2022
3236 Clouds 7 1010 65 10000 6.17 240 14:30 09.06.2022
3237 Clouds 7 1010 70 10000 4.63 240 13:44 09.06.2022
3238 Clouds 7 1010 70 10000 3.6 240 13:19 09.06.2022
3239 Clouds 7 1010 70 10000 6.17 230 11:35 09.06.2022
3240 Rain 6 1010 75 10000 5.14 220 10:34 09.06.2022
3241 Clouds 7 1010 76 10000 8.23 240 09:38 09.06.2022
3242 Rain 6 1009 75 10000 5.14 240 09:20 09.06.2022
3243 Clouds 5 1009 81 10000 6.17 230 07:29 09.06.2022
3244 Clouds 5 1009 87 10000 5.14 240 04:30 09.06.2022
3245 Clouds 6 1008 75 10000 9.26 240 00:36 09.06.2022
3246 Clouds 5 1008 81 10000 12.86 240 23:23 08.06.2022
3247 Clouds 5 1008 87 10000 8.75 240 22:44 08.06.2022
3248 Clouds 6 1008 81 10000 8.23 240 22:24 08.06.2022
3249 Rain 5 1008 87 10000 5.66 260 21:40 08.06.2022
3250 Rain 7 1007 65 10000 9.77 240 20:25 08.06.2022
3251 Rain 6 1007 75 10000 11.32 240 19:46 08.06.2022
3252 Rain 7 1006 65 10000 8.75 240 18:48 08.06.2022
3253 Rain 7 1006 70 10000 8.23 250 17:46 08.06.2022
3254 Clouds 9 1005 61 10000 8.75 240 16:18 08.06.2022
3255 Clouds 11 1005 54 10000 9.26 240 14:46 08.06.2022
3256 Clouds 8 1005 57 10000 9.77 230 12:55 08.06.2022
3257 Clouds 8 1005 57 10000 9.77 230 12:55 08.06.2022
3258 Clouds 8 1004 57 10000 8.23 230 11:44 08.06.2022
3259 Clouds 8 1004 57 10000 8.75 230 11:19 08.06.2022
3260 Clouds 9 1004 53 10000 6.17 230 09:45 08.06.2022
3261 Clouds 8 1004 57 10000 6.17 220 09:18 08.06.2022
3262 Clouds 7 1004 57 10000 6.17 210 07:22 08.06.2022
3263 Clouds 7 1005 65 10000 4.12 230 04:51 08.06.2022
3264 Clouds 7 1006 61 10000 5.66 220 02:19 08.06.2022
3265 Clouds 6 1007 70 10000 6.17 230 23:41 07.06.2022
3266 Clouds 6 1007 65 10000 4.12 240 23:22 07.06.2022
3267 Clouds 6 1007 65 10000 5.14 250 22:38 07.06.2022
3268 Clouds 6 1007 75 10000 4.12 250 21:41 07.06.2022
3269 Clouds 6 1007 75 10000 4.12 250 21:41 07.06.2022
3270 Clouds 6 1008 75 10000 6.17 240 21:23 07.06.2022
3271 Drizzle 7 1007 70 10000 6.69 230 20:42 07.06.2022
3272 Rain 7 1007 65 10000 7.72 230 19:59 07.06.2022
3273 Rain 8 1007 57 10000 4.12 240 18:42 07.06.2022
3274 Rain 7 1007 65 10000 4.63 250 17:51 07.06.2022
3275 Clouds 8 1007 61 10000 6.17 240 16:49 07.06.2022
3276 Clouds 8 1007 57 10000 6.69 230 16:31 07.06.2022
3277 Rain 8 1007 57 10000 7.72 230 15:40 07.06.2022
3278 Rain 8 1007 57 10000 6.69 230 15:21 07.06.2022
3279 Rain 8 1007 57 10000 7.72 240 14:45 07.06.2022
3280 Clouds 8 1007 57 10000 8.23 240 13:46 07.06.2022
3281 Clouds 8 1007 61 10000 7.2 230 13:26 07.06.2022
3282 Clouds 8 1007 57 10000 7.72 230 11:56 07.06.2022
3283 Clouds 8 1007 57 10000 7.72 230 11:56 07.06.2022
3284 Clouds 8 1007 61 10000 6.17 240 10:57 07.06.2022
3285 Clouds 7 1007 70 10000 4.12 250 09:28 07.06.2022
3286 Clouds 8 1006 66 10000 6.17 240 08:31 07.06.2022
3287 Clouds 7 1006 70 10000 4.63 240 07:19 07.06.2022
3288 Clouds 7 1006 76 10000 7.2 240 05:19 07.06.2022
3289 Drizzle 10 1005 62 10000 4.12 230 01:44 07.06.2022
3290 Rain 10 1004 62 10000 8.75 230 00:20 07.06.2022
3291 Clouds 13 1004 38 10000 5.66 200 23:25 06.06.2022
3292 Clouds 13 1004 38 10000 5.66 200 22:37 06.06.2022
3293 Clear 13 1005 38 10000 4.63 180 21:33 06.06.2022
3294 Clear 12 1008 47 10000 5.66 130 19:37 06.06.2022
3295 Clear 12 1008 47 10000 6.17 130 19:19 06.06.2022
3296 Clear 12 1009 47 10000 5.66 120 18:34 06.06.2022
3297 Clear 12 1011 43 10000 5.14 130 17:36 06.06.2022
3298 Clear 11 1013 43 10000 2.57 0 16:21 06.06.2022
3299 Clear 11 1013 43 10000 3.09 210 15:33 06.06.2022
3300 Clouds 10 1014 50 10000 3.09 230 14:39 06.06.2022
3301 Clouds 9 1014 61 10000 4.63 230 13:27 06.06.2022
3302 Clouds 9 1015 61 10000 5.14 230 12:37 06.06.2022
3303 Clouds 8 1015 66 10000 5.66 230 11:58 06.06.2022
3304 Clouds 9 1015 66 10000 6.17 240 11:28 06.06.2022
3305 Clouds 8 1015 71 10000 3.6 240 09:41 06.06.2022
3306 Clouds 7 1014 70 10000 6.17 240 08:35 06.06.2022
3307 Clouds 7 1014 70 10000 5.14 240 07:37 06.06.2022
3308 Clouds 7 1013 70 10000 4.63 230 05:29 06.06.2022
3309 Clouds 7 1013 70 10000 4.63 230 05:29 06.06.2022
3310 Clouds 6 1012 87 10000 2.57 200 03:46 06.06.2022
3311 Clouds 6 1011 81 10000 2.06 270 01:29 06.06.2022
3312 Clouds 6 1011 81 10000 1.54 0 00:42 06.06.2022
3313 Clouds 7 1011 76 10000 2.57 210 23:50 05.06.2022
3314 Clouds 6 1010 81 10000 3.09 260 22:53 05.06.2022
3315 Clouds 6 1010 87 10000 3.09 290 21:27 05.06.2022
3316 Clouds 7 1009 81 10000 7.2 330 20:23 05.06.2022
3317 Clouds 10 1007 57 10000 3.6 50 18:42 05.06.2022
3318 Clouds 12 1007 54 10000 4.12 60 17:57 05.06.2022
3319 Clouds 12 1007 54 10000 4.12 60 17:36 05.06.2022
3320 Clouds 10 1007 62 10000 3.6 50 17:18 05.06.2022
3321 Clouds 10 1007 62 10000 3.09 50 16:45 05.06.2022
3322 Clouds 11 1007 54 10000 1.54 210 14:46 05.06.2022
3323 Clouds 10 1007 62 10000 2.57 220 13:55 05.06.2022
3324 Clouds 9 1007 71 10000 3.09 220 11:56 05.06.2022
3325 Clouds 8 1006 76 10000 1.03 0 10:44 05.06.2022
3326 Clouds 7 1006 81 10000 1.03 0 10:23 05.06.2022
3327 Clouds 7 1005 81 10000 0.51 0 09:21 05.06.2022
3328 Rain 6 1005 93 10000 2.06 230 08:21 05.06.2022
3329 Drizzle 8 1003 93 10000 2.06 260 05:23 05.06.2022
3330 Drizzle 8 1003 93 10000 2.57 250 04:36 05.06.2022
3331 Clouds 8 1004 87 10000 3.6 140 02:19 05.06.2022
3332 Clouds 8 1005 87 10000 4.12 130 01:23 05.06.2022
3333 Clouds 8 1006 100 10000 2.57 60 22:48 04.06.2022
3334 Clouds 8 1006 100 10000 1.54 50 21:24 04.06.2022
3335 Clouds 8 1007 100 10000 2.06 260 18:58 04.06.2022
3336 Clouds 9 1007 93 10000 5.14 240 16:48 04.06.2022
3337 Clouds 9 1007 100 10000 7.2 240 16:20 04.06.2022
3338 Clouds 9 1007 100 10000 5.14 230 15:35 04.06.2022
3339 Clouds 9 1006 100 10000 3.09 220 13:59 04.06.2022
3340 Clouds 10 1006 93 10000 3.6 230 11:38 04.06.2022
3341 Clouds 9 1005 100 10000 2.57 200 10:52 04.06.2022
3342 Clouds 9 1005 100 10000 2.06 200 09:47 04.06.2022
3343 Clouds 9 1005 100 10000 2.06 220 08:59 04.06.2022
3344 Clouds 9 1005 100 10000 2.06 220 08:37 04.06.2022
3345 Rain 10 1005 93 7000 2.57 260 06:25 04.06.2022
3346 Clouds 11 1006 82 10000 1.03 0 03:52 04.06.2022
3347 Clouds 12 1008 71 10000 1.03 0 00:22 04.06.2022
3348 Clouds 12 1008 71 10000 3.09 60 22:57 03.06.2022
3349 Clear 13 1009 71 10000 1.54 0 21:53 03.06.2022
3350 Clouds 14 1009 67 10000 3.6 180 20:40 03.06.2022
3351 Clouds 14 1009 67 10000 2.06 170 19:37 03.06.2022
3352 Clouds 14 1011 67 10000 4.12 140 16:59 03.06.2022
3353 Clouds 14 1011 67 10000 5.14 120 15:57 03.06.2022
3354 Clouds 14 1011 67 10000 5.14 130 14:42 03.06.2022
3355 Clouds 14 1012 62 10000 3.09 180 12:26 03.06.2022
3356 Clouds 14 1012 54 10000 4.12 150 09:58 03.06.2022
3357 Clouds 12 1012 62 10000 2.57 190 09:29 03.06.2022
3358 Rain 12 1013 71 10000 2.06 80 07:50 03.06.2022
3359 Rain 14 1013 54 10000 3.09 40 07:19 03.06.2022
3360 Clear 14 1013 51 10000 3.09 60 06:29 03.06.2022
3361 Clear 14 1014 51 10000 5.66 40 04:35 03.06.2022
3362 Clear 15 1016 58 10000 2.57 230 00:21 03.06.2022
3363 Clear 15 1017 58 10000 2.57 200 22:34 02.06.2022
3364 Clear 18 1017 48 10000 4.63 80 20:58 02.06.2022
3365 Clear 18 1017 45 10000 4.12 70 19:59 02.06.2022
3366 Clear 18 1017 45 10000 4.12 70 19:41 02.06.2022
3367 Clear 19 1017 45 10000 1.54 110 19:18 02.06.2022
3368 Clear 19 1018 45 10000 4.12 230 16:30 02.06.2022
3369 Clear 19 1018 48 10000 4.12 230 15:58 02.06.2022
3370 Clear 17 1018 55 10000 6.17 220 13:47 02.06.2022
3371 Clear 18 1018 52 10000 6.17 210 13:26 02.06.2022
3372 Clear 16 1018 59 10000 4.63 190 11:18 02.06.2022
3373 Clear 15 1018 63 10000 4.63 180 10:19 02.06.2022
3374 Clear 14 1018 62 10000 5.66 200 09:27 02.06.2022
3375 Clear 14 1018 62 10000 5.14 200 08:25 02.06.2022
3376 Clear 13 1018 67 10000 3.09 250 06:50 02.06.2022
3377 Clouds 13 1018 67 10000 1.03 0 03:54 02.06.2022
3378 Clouds 13 1018 62 10000 2.06 150 02:30 02.06.2022
3379 Clear 14 1018 54 10000 1.54 0 23:43 01.06.2022
3380 Clear 14 1018 54 10000 1.54 0 23:43 01.06.2022
3381 Clear 14 1018 54 10000 1.54 0 23:43 01.06.2022
3382 Clear 15 1018 44 10000 2.06 0 22:23 01.06.2022
3383 Clear 16 1018 41 10000 2.57 130 21:32 01.06.2022
3384 Clear 17 1018 39 10000 3.09 190 20:40 01.06.2022
3385 Clear 18 1018 36 10000 2.06 80 19:53 01.06.2022
3386 Clear 19 1018 32 10000 4.12 90 18:58 01.06.2022
3387 Clear 18 1019 34 10000 5.14 90 17:40 01.06.2022
3388 Clear 18 1019 36 10000 5.14 120 16:33 01.06.2022
3389 Clear 17 1020 39 10000 4.12 160 14:52 01.06.2022
3390 Clear 18 1020 34 10000 3.6 190 13:45 01.06.2022
3391 Clear 17 1021 39 10000 2.06 200 12:26 01.06.2022
3392 Clear 16 1021 39 10000 2.57 210 09:40 01.06.2022
3393 Clear 14 1022 44 10000 2.06 220 08:38 01.06.2022
3394 Clear 14 1022 41 10000 1.03 0 07:22 01.06.2022
3395 Clear 14 1023 47 10000 1.03 0 05:23 01.06.2022
3396 Clear 11 1025 54 10000 1.54 20 00:22 01.06.2022
3397 Clear 11 1025 54 10000 1.54 60 23:26 31.05.2022
3398 Clear 11 1025 58 10000 3.09 60 22:36 31.05.2022
3399 Clouds 12 1025 54 10000 3.09 50 21:45 31.05.2022
3400 Clear 14 1025 47 10000 3.6 40 20:45 31.05.2022
3401 Clear 15 1025 47 10000 3.09 40 20:18 31.05.2022
3402 Clear 15 1025 44 10000 4.12 70 18:52 31.05.2022
3403 Clear 15 1025 44 10000 5.66 60 17:50 31.05.2022
3404 Clear 16 1026 41 10000 4.12 40 16:56 31.05.2022
3405 Clear 16 1026 29 10000 4.63 140 15:40 31.05.2022
3406 Clear 16 1026 25 10000 3.6 0 14:18 31.05.2022
3407 Clear 14 1027 28 10000 7.2 70 12:20 31.05.2022
3408 Clear 13 1027 28 10000 1.54 0 10:55 31.05.2022
3409 Clear 14 1026 23 10000 3.09 110 09:29 31.05.2022
3410 Clear 12 1026 28 10000 4.63 80 07:25 31.05.2022
3411 Clear 12 1027 26 10000 3.6 90 05:20 31.05.2022
3412 Clear 10 1027 37 10000 2.06 90 00:52 31.05.2022
3413 Clear 12 1026 35 10000 3.6 120 23:27 30.05.2022
3414 Clear 12 1026 35 10000 5.14 120 22:56 30.05.2022
3415 Clear 13 1026 35 10000 5.14 70 21:59 30.05.2022
3416 Clear 13 1026 35 10000 5.14 70 21:33 30.05.2022
3417 Clear 14 1026 35 10000 5.66 60 20:20 30.05.2022
3418 Clear 15 1026 33 10000 6.69 90 18:41 30.05.2022
3419 Clear 16 1026 33 10000 6.69 60 17:36 30.05.2022
3420 Clear 15 1026 38 10000 7.72 80 16:41 30.05.2022
3421 Clear 16 1026 39 10000 4.63 60 14:49 30.05.2022
3422 Clear 15 1026 33 10000 3.09 110 12:24 30.05.2022
3423 Clear 13 1025 38 10000 5.66 70 10:41 30.05.2022
3424 Clear 12 1025 40 10000 6.69 50 09:38 30.05.2022
3425 Clear 10 1024 46 10000 5.14 50 07:22 30.05.2022
3426 Clouds 9 1024 46 10000 6.69 70 05:49 30.05.2022
3427 Clear 6 1023 70 10000 5.66 50 01:48 30.05.2022
3428 Clear 7 1022 76 10000 1.54 50 23:19 29.05.2022
3429 Clear 7 1022 76 10000 1.03 0 22:37 29.05.2022
3430 Clear 8 1020 76 10000 4.63 60 20:57 29.05.2022
3431 Clear 8 1020 76 10000 4.63 60 19:34 29.05.2022
3432 Clouds 8 1020 81 10000 5.14 50 18:59 29.05.2022
3433 Clouds 7 1019 87 10000 4.63 60 17:31 29.05.2022
3434 Clouds 8 1019 81 10000 5.66 50 15:48 29.05.2022
3435 Clouds 8 1019 81 10000 6.69 50 15:23 29.05.2022
3436 Clouds 8 1018 81 10000 4.12 30 13:59 29.05.2022
3437 Clouds 10 1017 76 10000 4.63 50 11:48 29.05.2022
3438 Rain 10 1017 76 10000 5.14 40 10:40 29.05.2022
3439 Rain 12 1016 62 10000 2.06 30 09:31 29.05.2022
3440 Clouds 10 1014 66 10000 0.51 0 06:24 29.05.2022
3441 Clouds 9 1013 71 10000 1.54 0 04:47 29.05.2022
3442 Clouds 8 1012 76 10000 2.57 50 04:19 29.05.2022
3443 Clouds 9 1010 76 10000 2.06 10 23:53 28.05.2022
3444 Clouds 9 1009 76 10000 1.54 0 23:34 28.05.2022
3445 Clouds 9 1009 76 10000 1.03 0 22:40 28.05.2022
3446 Clouds 10 1008 71 10000 3.6 80 21:40 28.05.2022
3447 Rain 10 1007 76 10000 3.6 90 19:51 28.05.2022
3448 Clouds 10 1006 76 10000 3.6 60 18:58 28.05.2022
3449 Clouds 10 1006 71 10000 3.6 60 17:38 28.05.2022
3450 Clouds 9 1005 71 10000 3.09 0 16:50 28.05.2022
3451 Clouds 8 1004 71 10000 3.09 120 15:44 28.05.2022
3452 Clouds 8 1003 71 10000 7.2 120 14:35 28.05.2022
3453 Clouds 8 1001 76 10000 4.63 100 13:21 28.05.2022
3454 Clouds 6 1001 81 10000 3.6 60 12:39 28.05.2022
3455 Clouds 6 1000 81 10000 5.66 70 11:26 28.05.2022
3456 Clouds 5 999 100 10000 5.14 70 10:25 28.05.2022
3457 Rain 5 999 100 10000 7.72 70 09:22 28.05.2022
3458 Rain 4 998 100 3800 6.17 60 07:23 28.05.2022
3459 Drizzle 5 998 93 10000 5.66 40 06:26 28.05.2022
3460 Rain 4 999 100 9000 6.69 30 03:53 28.05.2022
3461 Fog 4 1001 100 5000 8.75 40 00:33 28.05.2022
3462 Fog 4 1001 100 5000 8.23 40 23:34 27.05.2022
3463 Fog 5 1002 100 9000 5.66 40 22:24 27.05.2022
3464 Clouds 6 1002 87 10000 4.63 40 20:57 27.05.2022
3465 Clouds 5 1002 93 10000 5.14 40 20:31 27.05.2022
3466 Clouds 6 1002 87 10000 7.2 60 19:55 27.05.2022
3467 Clouds 6 1002 87 10000 7.2 60 19:33 27.05.2022
3468 Clouds 5 1002 100 10000 7.72 60 18:29 27.05.2022
3469 Clouds 5 1002 93 10000 6.69 60 16:42 27.05.2022
3470 Rain 5 1003 100 10000 6.17 70 15:44 27.05.2022
3471 Rain 5 1003 87 10000 7.2 40 14:45 27.05.2022
3472 Rain 6 1003 81 10000 8.23 50 13:30 27.05.2022
3473 Clear 8 1004 71 10000 7.2 40 11:41 27.05.2022
3474 Clear 8 1004 66 10000 7.72 50 11:23 27.05.2022
3475 Clear 9 1004 57 10000 7.2 60 10:32 27.05.2022
3476 Clear 9 1005 57 10000 7.72 60 09:37 27.05.2022
3477 Clear 9 1005 57 10000 6.69 60 08:24 27.05.2022
3478 Clear 9 1006 57 10000 5.14 50 06:45 27.05.2022
3479 Clouds 10 1006 57 10000 1.54 0 02:56 27.05.2022
3480 Clear 12 1006 47 10000 3.09 0 00:53 27.05.2022
3481 Clear 13 1006 44 10000 2.57 130 22:50 26.05.2022
3482 Clear 13 1005 47 10000 4.63 50 21:43 26.05.2022
3483 Clear 15 1005 44 10000 4.12 150 20:59 26.05.2022
3484 Clear 17 1005 39 10000 3.09 150 19:29 26.05.2022
3485 Clear 18 1005 36 10000 3.6 100 18:21 26.05.2022
3486 Clear 18 1005 36 10000 2.57 110 16:58 26.05.2022
3487 Clear 18 1006 39 10000 2.57 200 15:49 26.05.2022
3488 Clear 18 1006 36 10000 2.06 210 14:48 26.05.2022
3489 Clear 16 1006 41 10000 5.66 140 13:23 26.05.2022
3490 Clear 16 1006 39 10000 4.12 140 11:38 26.05.2022
3491 Clear 17 1005 36 10000 4.12 130 10:24 26.05.2022
3492 Clear 16 1005 39 10000 3.6 120 09:35 26.05.2022
3493 Clear 17 1005 36 10000 2.57 90 08:38 26.05.2022
3494 Clear 13 1006 47 10000 3.6 40 05:24 26.05.2022
3495 Clear 13 1006 44 10000 1.54 0 01:24 26.05.2022
3496 Clear 12 1006 50 10000 3.6 40 23:40 25.05.2022
3497 Clear 14 1006 47 10000 3.09 20 22:30 25.05.2022
3498 Clear 14 1005 51 10000 2.06 250 21:33 25.05.2022
3499 Clear 15 1005 47 10000 5.14 220 20:39 25.05.2022
3500 Clear 17 1005 42 10000 5.66 200 19:31 25.05.2022
3501 Clear 16 1005 41 10000 3.09 210 18:20 25.05.2022
3502 Clear 16 1005 41 10000 6.69 210 16:41 25.05.2022
3503 Clear 15 1004 44 10000 7.2 220 15:58 25.05.2022
3504 Clear 15 1004 44 10000 10.8 210 14:56 25.05.2022
3505 Clear 15 1004 44 10000 10.8 210 14:33 25.05.2022
3506 Clear 16 1004 41 10000 10.29 210 13:58 25.05.2022
3507 Clear 15 1004 41 10000 11.32 200 12:48 25.05.2022
3508 Clear 14 1004 38 10000 8.75 200 10:58 25.05.2022
3509 Clear 14 1004 35 10000 7.72 190 10:22 25.05.2022
3510 Clouds 12 1005 51 10000 6.92 163 08:45 25.05.2022
3511 Clouds 11 1005 57 10000 5.88 153 07:23 25.05.2022
3512 Clear 13 1006 41 10000 1.54 0 05:23 25.05.2022
3513 Clear 13 1008 54 10000 2.06 230 00:31 25.05.2022
3514 Clear 13 1008 54 10000 3.09 260 23:47 24.05.2022
3515 Clear 14 1008 47 10000 3.6 210 22:52 24.05.2022
3516 Clear 14 1008 47 10000 3.09 200 21:46 24.05.2022
3517 Clear 14 1008 47 10000 3.09 210 21:21 24.05.2022
3518 Clear 14 1008 47 10000 2.57 260 20:38 24.05.2022
3519 Clear 14 1007 47 10000 4.63 200 18:59 24.05.2022
3520 Clear 15 1007 44 10000 5.66 190 17:19 24.05.2022
3521 Clear 15 1007 41 10000 5.66 190 16:29 24.05.2022
3522 Clear 14 1007 47 10000 7.2 200 15:27 24.05.2022
3523 Clear 14 1008 44 10000 7.2 190 14:36 24.05.2022
3524 Clear 14 1007 44 10000 8.23 190 13:34 24.05.2022
3525 Clear 14 1008 47 10000 8.23 210 12:18 24.05.2022
3526 Clear 13 1008 58 10000 4.12 200 09:50 24.05.2022
3527 Clear 13 1008 58 10000 5.66 200 08:51 24.05.2022
3528 Clear 12 1008 58 10000 6.69 200 07:32 24.05.2022
3529 Clear 12 1008 58 10000 5.14 210 06:34 24.05.2022
3530 Clear 10 1009 62 10000 3.6 210 03:32 24.05.2022
3531 Clear 10 1009 62 10000 4.12 210 01:46 24.05.2022
3532 Clear 11 1009 58 10000 5.14 220 00:21 24.05.2022
3533 Clear 10 1010 62 10000 1.03 0 22:24 23.05.2022
3534 Clear 11 1010 62 10000 4.12 200 21:45 23.05.2022
3535 Clear 11 1010 58 10000 3.09 150 20:46 23.05.2022
3536 Clear 11 1010 58 10000 2.57 0 19:51 23.05.2022
3537 Clear 11 1010 58 10000 1.54 0 19:22 23.05.2022
3538 Clear 11 1010 58 10000 3.09 180 18:40 23.05.2022
3539 Clear 11 1010 58 10000 2.06 120 17:56 23.05.2022
3540 Clear 10 1011 62 10000 2.57 160 16:28 23.05.2022
3541 Clear 10 1011 62 10000 2.57 200 14:18 23.05.2022
3542 Clear 10 1011 62 10000 3.6 220 11:53 23.05.2022
3543 Clear 10 1011 62 10000 4.12 220 10:49 23.05.2022
3544 Clear 10 1011 62 10000 2.57 230 09:48 23.05.2022
3545 Rain 9 1012 61 10000 2.57 140 08:46 23.05.2022
3546 Clouds 9 1012 66 10000 1.54 0 07:31 23.05.2022
3547 Clouds 9 1012 61 10000 1.54 0 06:40 23.05.2022
3548 Clouds 7 1012 70 10000 0 0 03:51 23.05.2022
3549 Clouds 7 1012 76 10000 0 0 02:18 23.05.2022
3550 Clouds 6 1012 75 10000 1.03 0 01:32 23.05.2022
3551 Clouds 8 1012 66 10000 0.51 0 23:22 22.05.2022
3552 Clouds 7 1012 70 10000 0.51 0 22:33 22.05.2022
3553 Clouds 9 1012 61 10000 1.03 0 21:53 22.05.2022
3554 Clouds 9 1012 61 10000 2.06 50 20:50 22.05.2022
3555 Clouds 9 1012 66 10000 2.06 70 20:23 22.05.2022
3556 Clouds 10 1012 57 10000 2.06 60 19:42 22.05.2022
3557 Clouds 10 1012 62 10000 2.06 30 18:52 22.05.2022
3558 Clouds 10 1012 62 10000 2.06 40 18:22 22.05.2022
3559 Clouds 10 1012 62 10000 3.6 60 17:26 22.05.2022
3560 Clouds 11 1012 54 10000 2.06 80 15:59 22.05.2022
3561 Clear 11 1012 58 10000 2.06 190 14:48 22.05.2022
3562 Clear 11 1011 58 10000 2.06 230 13:27 22.05.2022
3563 Clear 11 1011 58 10000 2.06 220 12:50 22.05.2022
3564 Clear 10 1011 57 10000 2.06 240 11:37 22.05.2022
3565 Clouds 9 1011 61 10000 2.57 220 09:42 22.05.2022
3566 Clouds 8 1011 66 10000 2.06 220 08:31 22.05.2022
3567 Clouds 8 1011 66 10000 1.03 0 07:21 22.05.2022
3568 Clouds 6 1011 75 10000 1.03 60 05:31 22.05.2022
3569 Clouds 5 1011 75 10000 1.03 50 01:41 22.05.2022
3570 Clear 4 1011 81 10000 0.51 0 00:43 22.05.2022
3571 Clear 6 1011 70 10000 0 0 23:54 21.05.2022
3572 Clouds 7 1011 70 10000 1.03 270 22:28 21.05.2022
3573 Clouds 7 1011 65 10000 1.03 0 21:42 21.05.2022
3574 Clouds 8 1011 66 10000 1.54 250 20:59 21.05.2022
3575 Clouds 8 1011 66 10000 2.06 250 20:22 21.05.2022
3576 Clear 9 1011 57 10000 2.57 240 19:27 21.05.2022
3577 Clouds 8 1011 61 10000 2.57 250 17:51 21.05.2022
3578 Clouds 9 1011 57 10000 2.57 230 16:43 21.05.2022
3579 Clear 10 1011 53 10000 2.06 240 14:37 21.05.2022
3580 Clear 9 1011 53 10000 3.09 240 13:42 21.05.2022
3581 Clear 8 1011 57 10000 2.57 220 12:50 21.05.2022
3582 Clear 8 1011 57 10000 3.09 220 12:25 21.05.2022
3583 Clear 7 1011 61 10000 1.54 0 10:24 21.05.2022
3584 Clear 7 1011 61 10000 2.06 220 09:43 21.05.2022
3585 Clouds 7 1011 61 10000 1.54 0 08:57 21.05.2022
3586 Clouds 6 1011 65 10000 1.54 0 07:53 21.05.2022
3587 Clouds 4 1014 91 10000 2.59 146 04:29 21.05.2022
3588 Clear 5 1013 70 10000 3.6 130 23:54 20.05.2022
3589 Clear 6 1013 65 10000 3.6 130 22:57 20.05.2022
3590 Clear 6 1014 65 10000 3.09 130 22:24 20.05.2022
3591 Clear 6 1014 65 10000 3.09 140 21:43 20.05.2022
3592 Clear 6 1014 61 10000 3.6 110 20:56 20.05.2022
3593 Clear 7 1014 57 10000 3.09 130 20:25 20.05.2022
3594 Clear 7 1014 57 10000 3.6 110 19:26 20.05.2022
3595 Clear 7 1015 57 10000 4.12 130 18:46 20.05.2022
3596 Clear 7 1015 57 10000 4.12 120 17:24 20.05.2022
3597 Clear 7 1015 57 10000 4.63 120 16:20 20.05.2022
3598 Clouds 5 1017 82 10000 2.56 152 15:53 20.05.2022
3599 Clear 6 1016 56 10000 3.6 120 14:31 20.05.2022
3600 Clear 7 1016 57 10000 3.09 210 13:55 20.05.2022
3601 Clear 6 1016 56 10000 1.54 0 11:38 20.05.2022
3602 Clear 5 1016 60 10000 2.57 240 10:19 20.05.2022
3603 Clear 5 1017 56 10000 1.54 0 08:45 20.05.2022
3604 Clear 3 1017 65 10000 2.57 70 07:18 20.05.2022
3605 Clear 3 1017 65 10000 2.57 60 06:34 20.05.2022
3606 Clouds 2 1018 69 10000 1.03 0 04:59 20.05.2022
3607 Clear 1 1019 69 10000 3.09 130 00:54 20.05.2022
3608 Clouds 2 1020 64 10000 3.09 80 22:57 19.05.2022
3609 Clouds 2 1020 64 10000 3.6 80 22:25 19.05.2022
3610 Clouds 2 1020 64 10000 3.6 90 21:48 19.05.2022
3611 Clouds 2 1020 60 10000 3.6 90 21:23 19.05.2022
3612 Clouds 2 1020 60 10000 4.12 120 20:39 19.05.2022
3613 Clouds 2 1021 69 10000 2.57 150 19:53 19.05.2022
3614 Clouds 3 1021 60 10000 2.57 120 18:34 19.05.2022
3615 Clouds 3 1021 65 10000 1.54 0 17:31 19.05.2022
3616 Clouds 3 1021 70 10000 3.6 230 15:21 19.05.2022
3617 Clouds 2 1021 75 10000 2.06 250 14:26 19.05.2022
3618 Clouds 2 1021 75 10000 2.06 240 13:50 19.05.2022
3619 Clouds 2 1021 69 10000 1.54 220 11:46 19.05.2022
3620 Clouds 2 1021 69 10000 1.54 0 09:35 19.05.2022
3621 Clouds 1 1021 80 10000 0.51 0 08:27 19.05.2022
3622 Clouds 1 1020 69 10000 1.03 0 06:31 19.05.2022
3623 Clouds 1 1020 75 10000 0.51 0 02:54 19.05.2022
3624 Clouds 1 1020 69 10000 1.03 0 00:47 19.05.2022
3625 Clouds 1 1020 75 10000 3.09 360 22:53 18.05.2022
3626 Clouds 1 1020 75 10000 3.09 360 22:35 18.05.2022
3627 Clouds 1 1020 69 10000 4.63 350 21:31 18.05.2022
3628 Clouds 1 1019 75 10000 3.6 30 20:54 18.05.2022
3629 Clouds 1 1019 75 10000 3.6 30 20:19 18.05.2022
3630 Clouds 1 1019 75 10000 3.6 30 18:43 18.05.2022
3631 Clouds 1 1019 80 10000 4.63 20 17:41 18.05.2022
3632 Clouds 1 1019 80 10000 3.6 350 17:23 18.05.2022
3633 Clouds 2 1018 75 10000 4.63 350 16:35 18.05.2022
3634 Clouds 2 1018 75 10000 3.09 350 15:42 18.05.2022
3635 Clouds 2 1018 75 10000 3.6 350 15:19 18.05.2022
3636 Rain 2 1018 80 10000 3.6 340 13:48 18.05.2022
3637 Clouds 0 1017 93 10000 2.57 0 12:53 18.05.2022
3638 Clouds 2 1017 69 10000 4.12 360 11:41 18.05.2022
3639 Clouds 2 1017 69 10000 4.12 360 11:23 18.05.2022
3640 Clouds 2 1016 64 10000 3.6 0 09:57 18.05.2022
3641 Clouds 1 1015 69 10000 3.6 350 07:55 18.05.2022
3642 Clouds 1 1015 64 10000 4.63 340 06:50 18.05.2022
3643 Clouds 1 1014 69 10000 4.12 350 02:44 18.05.2022
3644 Clouds 1 1013 93 10000 7.2 30 00:31 18.05.2022
3645 Snow 1 1012 100 7000 4.63 340 22:57 17.05.2022
3646 Clouds 2 1012 87 10000 5.14 240 21:21 17.05.2022
3647 Clouds 2 1012 87 10000 4.63 240 20:30 17.05.2022
3648 Rain 2 1013 87 10000 5.14 240 19:29 17.05.2022
3649 Rain 2 1013 87 10000 7.72 240 17:53 17.05.2022
3650 Rain 2 1014 87 10000 7.2 240 17:28 17.05.2022
3651 Drizzle 2 1014 87 10000 7.72 240 16:36 17.05.2022
3652 Drizzle 2 1015 87 10000 7.2 240 15:43 17.05.2022
3653 Rain 2 1016 93 10000 8.23 240 14:48 17.05.2022
3654 Rain 1 1016 100 10000 8.75 240 14:23 17.05.2022
3655 Snow 1 1018 100 10000 8.23 240 12:32 17.05.2022
3656 Snow 1 1018 100 1600 8.75 240 10:23 17.05.2022
3657 Snow 1 1019 100 3000 8.23 240 08:45 17.05.2022
3658 Snow 1 1019 86 10000 8.23 240 07:41 17.05.2022
3659 Snow 1 1020 80 10000 5.14 240 04:34 17.05.2022
3660 Snow 1 1022 75 10000 3.09 0 00:47 17.05.2022
3661 Rain 2 1022 64 10000 2.57 0 22:51 16.05.2022
3662 Rain 2 1022 64 10000 1.03 0 22:30 16.05.2022
3663 Clouds 2 1022 69 10000 2.06 0 20:56 16.05.2022
3664 Rain 2 1022 69 10000 2.06 0 20:33 16.05.2022
3665 Rain 2 1022 69 10000 5.14 350 18:41 16.05.2022
3666 Clouds 2 1021 80 10000 4.63 360 16:41 16.05.2022
3667 Rain 1 1021 86 10000 3.09 0 14:48 16.05.2022
3668 Rain 2 1020 80 10000 4.12 10 13:34 16.05.2022
3669 Clouds 3 1020 70 10000 5.66 350 12:34 16.05.2022
3670 Clouds 2 1019 80 10000 5.14 360 10:34 16.05.2022
3671 Snow 2 1016 100 10000 6.69 10 07:47 16.05.2022
3672 Rain 2 1015 93 10000 5.14 350 05:44 16.05.2022
3673 Drizzle 3 1010 100 10000 1.03 220 00:44 16.05.2022
3674 Drizzle 3 1009 100 10000 5.14 210 22:42 15.05.2022
3675 Rain 3 1009 100 9000 2.57 240 21:57 15.05.2022
3676 Rain 3 1009 100 9000 2.57 240 21:36 15.05.2022
3677 Rain 4 1008 100 10000 4.63 240 20:38 15.05.2022
3678 Drizzle 4 1007 100 10000 2.57 260 18:37 15.05.2022
3679 Clouds 5 1006 93 10000 2.57 290 16:52 15.05.2022
3680 Clouds 6 1005 87 10000 1.54 0 14:26 15.05.2022
3681 Clouds 6 1005 87 10000 1.54 0 13:44 15.05.2022
3682 Rain 5 1004 93 10000 1.03 0 11:55 15.05.2022
3683 Rain 3 1005 97 2438 1.8 248 10:43 15.05.2022
3684 Clear 6 1002 70 10000 3.09 220 08:58 15.05.2022
3685 Clouds 4 1003 96 3146 2.12 270 07:22 15.05.2022
3686 Clouds 4 1003 96 3146 2.12 270 06:42 15.05.2022
3687 Clouds 3 1002 94 10000 1.5 124 02:43 15.05.2022
3688 Rain 3 1002 93 10000 2.52 116 00:22 15.05.2022
3689 Clouds 3 1002 93 10000 2.52 116 23:36 14.05.2022
3690 Clear 4 1000 75 10000 4.12 70 21:50 14.05.2022
3691 Clear 5 1000 70 10000 2.57 40 21:25 14.05.2022
3692 Clouds 3 1001 94 7744 2.71 117 20:26 14.05.2022
3693 Clouds 3 1001 93 10000 2.38 124 19:20 14.05.2022
3694 Clouds 3 1001 93 10000 2.38 124 18:57 14.05.2022
3695 Clouds 3 1001 94 10000 2.47 114 17:44 14.05.2022
3696 Clear 6 1000 70 10000 5.66 50 15:58 14.05.2022
3697 Clear 5 1000 75 10000 5.14 60 14:38 14.05.2022
3698 Clear 5 1000 70 10000 4.12 40 13:27 14.05.2022
3699 Clouds 3 1001 91 2065 2.06 112 11:45 14.05.2022
3700 Clouds 2 1001 90 2168 2.03 113 10:44 14.05.2022
3701 Clouds 2 1001 89 2947 2.01 118 10:18 14.05.2022
3702 Clouds 2 1000 88 10000 1.97 122 09:23 14.05.2022
3703 Clouds 1 1001 87 10000 2 132 07:32 14.05.2022
3704 Clouds 0 1000 86 10000 2.39 170 04:43 14.05.2022
3705 Clouds 1 998 75 10000 2.06 320 00:43 14.05.2022
3706 Clouds 1 998 80 10000 2.06 0 23:28 13.05.2022
3707 Clouds 1 998 86 10000 2.57 280 22:55 13.05.2022
3708 Clouds 1 998 86 10000 2.06 290 22:21 13.05.2022
3709 Clouds 1 997 86 10000 2.57 260 20:59 13.05.2022
3710 Clouds 1 997 86 10000 2.57 260 20:38 13.05.2022
3711 Clouds 1 997 93 10000 3.6 260 20:20 13.05.2022
3712 Clouds 1 997 86 10000 3.09 280 19:18 13.05.2022
3713 Clouds 1 997 86 10000 3.6 270 17:42 13.05.2022
3714 Clouds 1 996 86 10000 4.12 250 17:22 13.05.2022
3715 Clouds 2 996 80 10000 4.63 260 15:47 13.05.2022
3716 Clouds 2 995 87 10000 4.12 250 14:39 13.05.2022
3717 Clouds 2 994 87 10000 4.63 260 12:53 13.05.2022
3718 Snow 1 993 100 7000 4.12 260 11:56 13.05.2022
3719 Snow 1 993 93 2500 4.63 270 10:19 13.05.2022
3720 Snow 1 992 93 8000 5.14 260 09:29 13.05.2022
3721 Snow 1 991 100 8000 3.6 280 07:52 13.05.2022
3722 Snow 1 991 100 7000 2.57 260 07:18 13.05.2022
3723 Snow 0 991 100 6000 3.6 270 05:23 13.05.2022
3724 Snow 0 990 100 8000 3.09 280 01:21 13.05.2022
3725 Snow 0 990 100 9000 3.09 270 23:24 12.05.2022
3726 Snow 0 990 100 3000 3.09 270 22:34 12.05.2022
3727 Snow 1 990 100 2000 3.6 250 21:26 12.05.2022
3728 Snow 1 989 100 5000 3.6 270 19:51 12.05.2022
3729 Snow 2 989 93 10000 3.6 280 18:29 12.05.2022
3730 Snow 2 989 87 9000 3.6 270 16:48 12.05.2022
3731 Rain 3 989 87 10000 4.63 350 15:22 12.05.2022
3732 Clouds 3 988 87 10000 2.06 340 13:52 12.05.2022
3733 Clouds 2 988 100 10000 4.63 10 12:29 12.05.2022
3734 Clouds 3 988 93 10000 2.06 30 10:34 12.05.2022
3735 Snow 1 988 100 8000 1.03 0 08:56 12.05.2022
3736 Snow 1 988 100 8000 1.03 0 08:35 12.05.2022
3737 Snow 1 988 100 10000 3.09 70 07:25 12.05.2022
3738 Snow 1 988 100 3400 4.12 40 04:45 12.05.2022
3739 Rain 2 989 100 10000 4.12 40 01:37 12.05.2022
3740 Rain 2 990 100 10000 3.6 40 23:42 11.05.2022
3741 Drizzle 2 990 100 10000 6.17 50 22:22 11.05.2022
3742 Rain 2 991 100 10000 5.66 40 21:27 11.05.2022
3743 Clouds 2 991 100 10000 6.69 50 20:45 11.05.2022
3744 Rain 3 992 100 10000 8.75 50 17:43 11.05.2022
3745 Drizzle 3 993 87 10000 7.72 60 16:47 11.05.2022
3746 Drizzle 4 994 87 10000 4.63 80 14:49 11.05.2022
3747 Rain 4 995 87 10000 3.09 40 14:25 11.05.2022
3748 Rain 4 994 87 10000 4.12 50 13:37 11.05.2022
3749 Clouds 4 995 81 10000 4.63 70 11:48 11.05.2022
3750 Clouds 4 996 87 10000 3.09 50 09:39 11.05.2022
3751 Clouds 3 997 93 10000 4.63 30 07:52 11.05.2022
3752 Clouds 2 998 93 10000 3.09 30 04:43 11.05.2022
3753 Clouds 1 999 100 10000 2.57 40 23:48 10.05.2022
3754 Clouds 1 1000 100 10000 3.6 40 22:30 10.05.2022
3755 Clouds 1 1000 100 9000 4.12 50 21:45 10.05.2022
3756 Drizzle 1 1000 100 10000 4.12 50 20:48 10.05.2022
3757 Clouds 1 1000 100 10000 4.63 60 19:25 10.05.2022
3758 Clouds 1 1001 100 10000 5.14 50 17:44 10.05.2022
3759 Clouds 1 1001 100 10000 5.14 50 16:41 10.05.2022
3760 Clouds 1 1002 100 10000 6.17 50 13:59 10.05.2022
3761 Clouds 0 1002 100 8000 6.17 50 12:36 10.05.2022
3762 Clouds 0 1002 100 4000 6.17 50 11:49 10.05.2022
3763 Clouds 0 1002 100 4000 6.17 50 11:18 10.05.2022
3764 Clouds 0 1002 100 4000 6.17 50 11:18 10.05.2022
3765 Clouds 0 1003 100 7000 5.14 50 09:57 10.05.2022
3766 Clouds 0 1003 100 5000 5.14 50 09:18 10.05.2022
3767 Clouds 0 1003 100 10000 4.12 50 06:44 10.05.2022
3768 Clouds 0 1004 100 10000 2.57 50 02:59 10.05.2022
3769 Drizzle 0 1005 100 9000 2.57 30 00:24 10.05.2022
3770 Clouds 1 1005 100 10000 2.57 40 22:43 09.05.2022
3771 Clouds 1 1006 100 10000 2.57 40 21:48 09.05.2022
3772 Clouds 1 1007 100 10000 2.57 60 20:25 09.05.2022
3773 Clouds 2 1008 87 10000 1.03 0 18:43 09.05.2022
3774 Clouds 1 1008 100 10000 1.54 270 17:39 09.05.2022
3775 Clouds 1 1009 100 6000 2.06 240 16:29 09.05.2022
3776 Clouds 1 1010 100 3500 2.06 240 15:49 09.05.2022
3777 Clouds 1 1010 93 3500 2.57 270 14:47 09.05.2022
3778 Clouds 1 1011 100 1800 3.09 260 14:22 09.05.2022
3779 Clouds 1 1011 100 5000 3.6 250 13:36 09.05.2022
3780 Clouds 1 1011 100 5000 3.6 250 13:36 09.05.2022
3781 Clouds 1 1011 93 5000 6.17 240 11:57 09.05.2022
3782 Clouds 1 1011 80 7000 7.72 240 10:51 09.05.2022
3783 Clouds 1 1011 80 10000 6.17 240 10:31 09.05.2022
3784 Clouds -1 1011 100 10000 9.26 240 08:31 09.05.2022
3785 Clouds 0 1011 93 2000 8.23 240 07:49 09.05.2022
3786 Clouds 0 1011 100 10000 5.14 240 02:55 09.05.2022
3787 Clouds 1 1011 75 10000 6.17 260 23:29 08.05.2022
3788 Clouds 1 1011 75 10000 4.63 260 22:51 08.05.2022
3789 Clouds 0 1011 86 10000 8.23 240 21:48 08.05.2022
3790 Clouds 0 1011 86 10000 8.23 240 21:48 08.05.2022
3791 Clouds 0 1011 86 10000 8.23 240 21:48 08.05.2022
3792 Clouds 0 1011 86 10000 4.12 210 20:35 08.05.2022
3793 Clouds 0 1012 86 10000 6.17 230 19:43 08.05.2022
3794 Clouds 0 1012 86 10000 4.12 230 18:52 08.05.2022
3795 Clouds 1 1012 80 10000 4.12 240 17:57 08.05.2022
3796 Clouds 0 1012 86 10000 2.06 230 16:42 08.05.2022
3797 Clouds 0 1011 80 9000 3.09 250 15:26 08.05.2022
3798 Clouds 0 1011 80 9000 2.57 260 14:39 08.05.2022
3799 Clouds 0 1009 86 10000 4.12 270 12:25 08.05.2022
3800 Clouds 0 1007 86 10000 2.57 250 10:31 08.05.2022
3801 Clouds 0 1007 80 2000 3.09 250 09:56 08.05.2022
3802 Clouds 0 1007 80 2000 3.09 250 09:56 08.05.2022
3803 Clouds 0 1006 74 10000 3.09 10 08:55 08.05.2022
3804 Clouds 0 1005 80 5000 3.6 0 06:57 08.05.2022
3805 Clouds 0 1002 86 10000 2.06 0 03:35 08.05.2022
3806 Clouds 0 1001 100 2300 2.06 0 02:41 08.05.2022
3807 Clouds 1 996 100 1800 5.66 0 00:24 08.05.2022
3808 Clouds 2 993 100 5000 12.35 240 23:49 07.05.2022
3809 Clouds 1 993 100 5000 15.95 240 22:46 07.05.2022
3810 Clouds 1 993 93 10000 14.92 240 21:58 07.05.2022
3811 Clouds 1 993 93 10000 14.92 240 21:33 07.05.2022
3812 Clouds 1 993 93 10000 14.92 240 20:28 07.05.2022
3813 Clouds 2 991 87 7000 16.46 230 19:23 07.05.2022
3814 Clouds 2 988 93 4100 20.58 240 17:34 07.05.2022
3815 Clouds 3 987 81 10000 9.26 230 15:46 07.05.2022
3816 Clouds 3 987 81 10000 7.72 240 13:39 07.05.2022
3817 Clouds 5 985 75 10000 3.6 80 10:41 07.05.2022
3818 Clouds 3 987 93 10000 4.63 60 08:57 07.05.2022
3819 Clouds 2 988 100 10000 3.6 60 07:50 07.05.2022
3820 Rain 3 988 93 10000 1.03 0 06:43 07.05.2022
3821 Rain 4 990 87 9000 6.17 320 04:41 07.05.2022
3822 Rain 6 990 70 10000 1.54 290 01:19 07.05.2022
3823 Clouds 6 991 70 10000 1.03 0 23:36 06.05.2022
3824 Rain 7 993 65 10000 3.6 230 22:27 06.05.2022
3825 Rain 6 993 65 10000 2.57 230 21:41 06.05.2022
3826 Rain 6 994 65 10000 2.57 220 20:33 06.05.2022
3827 Rain 5 995 75 10000 2.57 240 19:29 06.05.2022
3828 Rain 5 995 75 10000 2.57 240 19:29 06.05.2022
3829 Drizzle 6 996 65 10000 2.57 230 18:56 06.05.2022
3830 Rain 6 997 61 10000 1.54 270 17:38 06.05.2022
3831 Rain 5 998 70 10000 4.12 240 16:23 06.05.2022
3832 Rain 5 998 70 10000 5.14 240 15:39 06.05.2022
3833 Rain 6 998 61 10000 4.12 250 14:33 06.05.2022
3834 Rain 5 998 70 10000 8.75 240 12:53 06.05.2022
3835 Rain 5 998 70 10000 8.75 240 12:33 06.05.2022
3836 Clouds 4 998 75 10000 8.23 220 11:41 06.05.2022
3837 Clouds 4 998 75 10000 6.17 240 10:26 06.05.2022
3838 Clouds 4 998 75 10000 8.75 230 09:39 06.05.2022
3839 Clouds 4 998 75 10000 7.72 240 08:27 06.05.2022
3840 Rain 3 998 81 10000 9.77 230 06:42 06.05.2022
3841 Rain 5 998 65 10000 5.66 220 04:51 06.05.2022
3842 Clouds 3 998 75 10000 4.12 230 02:43 06.05.2022
3843 Clouds 3 999 81 10000 2.06 250 23:45 05.05.2022
3844 Rain 3 999 81 10000 2.57 240 21:53 05.05.2022
3845 Clouds 3 999 81 10000 2.06 260 21:19 05.05.2022
3846 Clouds 3 1000 75 10000 2.57 250 19:49 05.05.2022
3847 Clouds 2 1003 80 10000 3.37 170 16:57 05.05.2022
3848 Clear 3 1002 60 10000 5.14 190 16:20 05.05.2022
3849 Clear 2 1003 60 10000 5.66 200 14:43 05.05.2022
3850 Clear 1 1004 55 10000 4.63 180 13:21 05.05.2022
3851 Clear 1 1005 55 10000 5.66 190 12:24 05.05.2022
3852 Clear 1 1006 51 10000 4.63 180 10:37 05.05.2022
3853 Clear 1 1007 55 10000 3.6 180 09:39 05.05.2022
3854 Clear -1 1008 74 10000 1.03 0 07:34 05.05.2022
3855 Clouds -4 1009 86 10000 1.54 250 04:28 05.05.2022
3856 Clouds -6 1010 79 10000 2.06 60 01:50 05.05.2022
3857 Clouds -4 1010 80 10000 0 0 01:22 05.05.2022
3858 Clouds -3 1010 74 10000 1.54 20 23:47 04.05.2022
3859 Clouds -4 1010 80 10000 2.06 60 22:30 04.05.2022
3860 Clouds -3 1010 74 10000 2.06 10 21:49 04.05.2022
3861 Snow -2 1010 74 10000 2.57 10 21:26 04.05.2022
3862 Clouds -2 1010 74 10000 2.57 10 20:24 04.05.2022
3863 Snow -2 1010 80 10000 2.06 20 19:53 04.05.2022
3864 Clouds -2 1010 74 10000 3.09 10 18:54 04.05.2022
3865 Snow -1 1010 64 10000 2.57 360 18:22 04.05.2022
3866 Snow 0 1009 64 10000 1.03 0 17:38 04.05.2022
3867 Clouds -2 1009 86 5000 3.09 10 15:40 04.05.2022
3868 Clouds -2 1009 86 5000 3.09 10 15:22 04.05.2022
3869 Snow -2 1008 74 10000 4.12 10 14:21 04.05.2022
3870 Snow -2 1008 86 5000 4.12 20 13:33 04.05.2022
3871 Snow -1 1007 69 9000 5.14 360 12:33 04.05.2022
3872 Clouds -2 1006 86 5000 5.14 360 10:41 04.05.2022
3873 Snow -2 1006 93 750 4.63 20 09:43 04.05.2022
3874 Snow -2 1005 93 10000 5.14 340 08:46 04.05.2022
3875 Clouds -2 1005 86 10000 4.63 260 06:41 04.05.2022
3876 Snow -2 1005 74 10000 5.14 260 02:58 04.05.2022
3877 Snow -2 1005 64 10000 3.09 350 00:33 04.05.2022
3878 Clouds -2 1005 69 10000 5.14 360 22:34 03.05.2022
3879 Clouds -2 1004 69 10000 6.17 360 21:46 03.05.2022
3880 Clouds -3 1004 86 350 5.66 0 20:54 03.05.2022
3881 Snow -2 1004 80 3000 4.63 320 19:57 03.05.2022
3882 Snow -2 1004 74 10000 4.12 330 18:54 03.05.2022
3883 Snow -1 1004 80 10000 2.06 0 18:20 03.05.2022
3884 Snow -3 1005 86 1100 5.66 240 16:44 03.05.2022
3885 Snow -2 1005 69 7000 4.63 280 15:38 03.05.2022
3886 Clouds -2 1005 59 10000 6.17 350 12:47 03.05.2022
3887 Clouds -2 1005 59 10000 6.69 340 12:27 03.05.2022
3888 Clouds -3 1003 86 10000 7.2 340 10:57 03.05.2022
3889 Snow -2 1003 80 10000 1.54 0 09:35 03.05.2022
3890 Snow -2 1002 64 10000 4.63 350 07:33 03.05.2022
3891 Clouds -2 1002 59 10000 5.14 10 06:45 03.05.2022
3892 Snow -3 1002 74 10000 5.66 20 01:47 03.05.2022
3893 Clouds -3 1001 74 10000 5.14 20 22:39 02.05.2022
3894 Clouds -3 1001 68 10000 8.23 30 21:54 02.05.2022
3895 Snow -3 1000 74 10000 10.29 30 20:51 02.05.2022
3896 Snow -3 999 93 2500 12.35 50 18:44 02.05.2022
3897 Snow -2 998 86 3000 12.35 50 18:25 02.05.2022
3898 Snow -2 998 86 6000 11.83 60 17:37 02.05.2022
3899 Snow -2 997 86 5000 11.83 70 16:23 02.05.2022
3900 Snow -2 996 86 5000 11.32 50 15:31 02.05.2022
3901 Snow -1 995 74 10000 11.32 70 13:53 02.05.2022
3902 Clouds -2 995 86 10000 13.38 60 12:27 02.05.2022
3903 Clouds -2 994 86 3500 13.38 60 10:52 02.05.2022
3904 Snow -3 995 93 3500 12.86 60 09:30 02.05.2022
3905 Snow -3 995 93 10000 10.29 70 07:52 02.05.2022
3906 Clouds -2 997 80 10000 7.2 60 04:44 02.05.2022
3907 Clouds -2 1002 80 10000 4.63 100 00:25 02.05.2022
3908 Clouds -2 1002 80 10000 6.17 110 23:52 01.05.2022
3909 Clouds -2 1004 80 10000 4.12 80 22:40 01.05.2022
3910 Clouds -2 1005 86 10000 5.14 60 21:26 01.05.2022
3911 Clouds -2 1006 86 10000 5.66 60 20:19 01.05.2022
3912 Clouds -1 1007 80 10000 3.6 50 19:18 01.05.2022
3913 Clouds -1 1007 80 10000 3.6 60 18:46 01.05.2022
3914 Clouds -2 1008 86 10000 4.63 50 17:46 01.05.2022
3915 Clouds -1 1009 80 10000 3.09 60 16:24 01.05.2022
3916 Snow -1 1009 74 10000 2.06 50 15:43 01.05.2022
3917 Snow 1 1010 69 10000 1.54 0 14:22 01.05.2022
3918 Snow 0 1011 74 10000 1.54 0 11:41 01.05.2022
3919 Clouds 1 1012 80 10000 0 0 09:32 01.05.2022
3920 Snow -1 1012 86 9000 0 0 08:47 01.05.2022
3921 Snow -1 1012 64 10000 1.54 0 04:31 01.05.2022
3922 Snow -1 1013 69 10000 6.17 280 00:43 01.05.2022
3923 Snow -2 1013 86 10000 2.57 260 21:52 30.04.2022
3924 Clouds -2 1013 86 10000 2.57 260 21:30 30.04.2022
3925 Clouds -1 1014 69 10000 4.12 260 19:47 30.04.2022
3926 Clouds -2 1014 86 10000 0 0 18:50 30.04.2022
3927 Clouds -2 1014 86 10000 1.54 0 17:20 30.04.2022
3928 Snow -2 1014 86 10000 4.63 260 15:50 30.04.2022
3929 Snow -1 1014 80 10000 5.66 240 14:54 30.04.2022
3930 Snow 0 1014 69 10000 2.57 0 13:30 30.04.2022
3931 Snow -1 1014 69 10000 2.57 350 11:34 30.04.2022
3932 Clouds -1 1013 69 10000 1.54 0 10:55 30.04.2022
3933 Clouds -2 1013 74 10000 4.12 10 09:51 30.04.2022
3934 Snow -3 1012 93 1000 5.66 350 07:35 30.04.2022
3935 Clouds -2 1011 80 10000 4.63 270 03:45 30.04.2022
3936 Snow -2 1012 80 10000 0 0 23:54 29.04.2022
3937 Snow -2 1012 74 10000 3.6 280 22:35 29.04.2022
3938 Clouds -2 1012 74 10000 2.57 0 21:54 29.04.2022
3939 Clouds -2 1012 74 10000 1.03 0 21:19 29.04.2022
3940 Snow -3 1012 93 10000 5.66 350 19:48 29.04.2022
3941 Snow -1 1012 69 10000 4.63 0 18:47 29.04.2022
3942 Snow -1 1012 74 10000 3.6 270 17:26 29.04.2022
3943 Snow -1 1012 74 10000 2.57 0 15:58 29.04.2022
3944 Snow -1 1012 69 10000 6.17 270 14:34 29.04.2022
3945 Snow -1 1012 74 10000 4.63 270 13:27 29.04.2022
3946 Snow -2 1012 86 5000 6.69 250 12:26 29.04.2022
3947 Snow -2 1011 86 8000 6.17 270 09:48 29.04.2022
3948 Snow -3 1011 86 10000 2.57 0 07:42 29.04.2022
3949 Snow -2 1011 80 2200 3.09 0 07:23 29.04.2022
3950 Snow -2 1011 80 10000 3.6 270 05:55 29.04.2022
3951 Snow -5 1012 86 10000 1.54 270 00:51 29.04.2022
3952 Clouds -4 1012 86 10000 1.03 0 23:49 28.04.2022
3953 Snow -4 1013 93 600 3.09 300 22:45 28.04.2022
3954 Snow -4 1012 86 10000 4.12 240 21:55 28.04.2022
3955 Snow -4 1013 86 10000 2.06 270 21:29 28.04.2022
3956 Snow -5 1013 93 3000 1.54 0 20:37 28.04.2022
3957 Snow -4 1012 74 2000 2.57 0 19:46 28.04.2022
3958 Snow -5 1012 86 10000 2.57 0 19:23 28.04.2022
3959 Snow -5 1012 80 4000 4.12 350 18:37 28.04.2022
3960 Snow -4 1012 80 4500 5.66 10 17:32 28.04.2022
3961 Snow -5 1012 93 1500 5.14 360 16:49 28.04.2022
3962 Snow -5 1011 93 500 5.66 10 16:19 28.04.2022
3963 Snow -4 1011 80 700 5.14 10 15:41 28.04.2022
3964 Snow -3 1010 68 4000 7.72 340 14:38 28.04.2022
3965 Clouds -4 1009 80 1500 7.2 340 13:20 28.04.2022
3966 Clouds -4 1009 80 1500 5.14 0 12:28 28.04.2022
3967 Snow -4 1008 80 2500 2.57 0 10:47 28.04.2022
3968 Snow -4 1008 80 10000 1.54 0 10:26 28.04.2022
3969 Snow -3 1007 68 1500 6.69 280 09:41 28.04.2022
3970 Clouds -3 1007 68 10000 3.6 270 07:38 28.04.2022
3971 Snow -5 1007 93 10000 4.12 250 06:37 28.04.2022
3972 Snow -5 1008 86 10000 5.14 240 05:39 28.04.2022
3973 Snow -5 1008 74 10000 3.6 240 04:41 28.04.2022
3974 Snow -4 1008 58 10000 4.12 350 00:36 28.04.2022
3975 Snow -5 1008 80 10000 5.66 360 22:52 27.04.2022
3976 Snow -3 1007 59 10000 3.09 0 21:58 27.04.2022
3977 Snow -4 1007 74 10000 4.63 0 21:29 27.04.2022
3978 Clouds -4 1007 86 10000 6.69 270 20:44 27.04.2022
3979 Snow -4 1007 86 400 5.14 0 19:39 27.04.2022
3980 Snow -4 1007 86 400 5.14 0 19:39 27.04.2022
3981 Snow -4 1007 93 2000 7.2 0 19:19 27.04.2022
3982 Snow -3 1006 74 1000 5.14 0 18:35 27.04.2022
3983 Snow -4 1006 100 500 9.77 240 17:26 27.04.2022
3984 Snow -2 1008 59 10000 7.72 240 15:43 27.04.2022
3985 Snow -4 1009 93 5000 8.75 250 12:34 27.04.2022
3986 Snow -5 1010 86 6000 7.2 210 11:23 27.04.2022
3987 Snow -6 1011 68 10000 5.14 200 10:22 27.04.2022
3988 Clouds -5 1013 58 10000 1.03 0 07:29 27.04.2022
3989 Clouds -6 1014 68 10000 3.09 20 06:30 27.04.2022
3990 Clouds -7 1014 63 7000 5.66 360 02:21 27.04.2022
3991 Snow -7 1014 73 7000 5.14 0 00:57 27.04.2022
3992 Snow -8 1014 86 8000 2.06 0 23:58 26.04.2022
3993 Clouds -8 1014 73 10000 3.09 0 23:23 26.04.2022
3994 Snow -8 1014 67 6000 3.6 0 22:42 26.04.2022
3995 Clouds -7 1014 73 10000 1.03 0 21:57 26.04.2022
3996 Snow -7 1014 68 10000 4.63 280 20:56 26.04.2022
3997 Snow -7 1014 63 10000 2.57 0 20:35 26.04.2022
3998 Snow -8 1013 79 10000 3.6 0 19:34 26.04.2022
3999 Snow -6 1013 53 10000 4.12 0 18:53 26.04.2022
4000 Clouds -6 1013 53 10000 5.66 340 18:19 26.04.2022
4001 Clouds -6 1013 58 10000 1.54 0 17:33 26.04.2022
4002 Clouds -6 1012 49 10000 9.77 340 14:46 26.04.2022
4003 Clouds -6 1011 63 10000 7.2 360 13:34 26.04.2022
4004 Clouds -6 1011 68 10000 8.23 360 12:34 26.04.2022
4005 Snow -6 1010 79 4500 6.69 20 10:46 26.04.2022
4006 Snow -7 1009 86 2500 5.14 10 09:50 26.04.2022
4007 Snow -6 1009 86 6000 5.14 20 08:28 26.04.2022
4008 Clouds -5 1010 58 10000 5.66 20 04:37 26.04.2022
4009 Clouds -5 1010 58 10000 7.72 20 02:40 26.04.2022
4010 Snow -4 1010 68 10000 10.29 30 00:28 26.04.2022
4011 Snow -4 1010 74 9000 10.29 30 23:43 25.04.2022
4012 Snow -3 1008 93 9000 7.2 360 21:44 25.04.2022
4013 Snow -3 1008 93 9000 7.2 360 21:44 25.04.2022
4014 Snow -1 1008 80 10000 4.63 350 20:46 25.04.2022
4015 Snow -2 1008 93 10000 4.12 270 19:39 25.04.2022
4016 Snow -2 1008 100 10000 7.2 240 18:25 25.04.2022
4017 Snow -1 1008 80 8000 2.57 300 17:32 25.04.2022
4018 Snow 1 1008 64 10000 2.57 300 15:51 25.04.2022
4019 Snow 1 1008 64 10000 4.63 330 15:18 25.04.2022
4020 Snow 1 1009 75 10000 4.63 330 13:59 25.04.2022
4021 Clouds 1 1009 80 10000 3.09 360 12:22 25.04.2022
4022 Clouds 0 1009 80 10000 2.57 290 10:29 25.04.2022
4023 Clouds 0 1009 86 10000 1.03 0 09:23 25.04.2022
4024 Clouds 0 1010 93 6000 2.57 30 07:19 25.04.2022
4025 Snow -1 1010 100 3500 5.14 50 05:53 25.04.2022
4026 Clouds 0 1012 100 9000 2.57 60 01:24 25.04.2022
4027 Clouds 1 1013 93 10000 1.54 60 23:54 24.04.2022
4028 Clouds 1 1013 86 10000 2.06 30 22:53 24.04.2022
4029 Clouds 1 1013 86 10000 1.03 0 22:32 24.04.2022
4030 Clouds 2 1014 75 10000 1.03 0 21:54 24.04.2022
4031 Clouds 2 1014 80 10000 1.54 0 21:20 24.04.2022
4032 Clouds 2 1014 87 10000 4.63 30 20:39 24.04.2022
4033 Clouds 1 1014 100 10000 5.66 10 19:51 24.04.2022
4034 Clouds 2 1014 93 10000 2.06 260 18:33 24.04.2022
4035 Rain 3 1015 87 10000 5.14 270 17:40 24.04.2022
4036 Clouds 3 1015 87 10000 5.66 270 17:20 24.04.2022
4037 Rain 3 1015 87 10000 5.66 260 16:49 24.04.2022
4038 Clouds 3 1015 87 10000 5.66 260 16:20 24.04.2022
4039 Clouds 3 1015 87 10000 6.17 270 15:32 24.04.2022
4040 Clouds 3 1015 93 10000 5.14 280 14:30 24.04.2022
4041 Clouds 3 1015 93 10000 4.63 280 13:26 24.04.2022
4042 Clouds 3 1015 93 10000 4.12 270 12:38 24.04.2022
4043 Rain 3 1015 93 10000 6.17 290 11:39 24.04.2022
4044 Rain 3 1015 100 10000 8.23 230 10:32 24.04.2022
4045 Clouds 3 1015 100 10000 8.23 240 09:39 24.04.2022
4046 Clouds 3 1016 100 10000 5.66 240 07:39 24.04.2022
4047 Clouds 3 1018 93 10000 5.14 250 04:56 24.04.2022
4048 Drizzle 3 1019 100 10000 7.72 230 01:50 24.04.2022
4049 Drizzle 3 1020 100 10000 6.17 250 00:33 24.04.2022
4050 Drizzle 3 1020 100 5000 7.72 260 23:45 23.04.2022
4051 Clouds 3 1020 100 7000 7.2 250 23:22 23.04.2022
4052 Clouds 3 1021 100 6000 8.75 240 21:55 23.04.2022
4053 Clouds 3 1021 100 6000 8.75 240 21:35 23.04.2022
4054 Clouds 3 1021 100 4600 7.72 240 20:57 23.04.2022
4055 Rain 3 1021 100 8000 8.23 240 19:49 23.04.2022
4056 Mist 3 1022 100 6000 8.75 240 19:19 23.04.2022
4057 Clouds 3 1022 100 9000 10.29 240 18:53 23.04.2022
4058 Drizzle 3 1022 100 9000 9.77 230 18:24 23.04.2022
4059 Drizzle 3 1022 100 9000 10.29 240 17:43 23.04.2022
4060 Clouds 3 1023 100 10000 8.23 240 16:43 23.04.2022
4061 Clouds 3 1023 87 10000 8.75 230 15:32 23.04.2022
4062 Clouds 3 1024 81 10000 8.23 240 12:50 23.04.2022
4063 Clouds 2 1025 80 10000 10.29 240 10:50 23.04.2022
4064 Clouds 2 1025 80 10000 9.26 240 09:38 23.04.2022
4065 Clouds 2 1026 80 10000 7.72 240 07:21 23.04.2022
4066 Clouds 2 1026 75 10000 3.6 250 03:54 23.04.2022
4067 Clouds 2 1027 69 10000 3.09 270 01:32 23.04.2022
4068 Clouds 1 1027 80 10000 5.14 270 23:32 22.04.2022
4069 Clouds 2 1027 75 10000 3.6 270 22:22 22.04.2022
4070 Clouds 2 1027 75 10000 4.63 280 21:44 22.04.2022
4071 Clouds 2 1027 75 10000 3.09 270 20:54 22.04.2022
4072 Clouds 2 1027 75 10000 4.12 270 20:27 22.04.2022
4073 Clouds 2 1027 80 10000 4.12 270 19:21 22.04.2022
4074 Clouds 2 1027 75 10000 3.09 0 18:45 22.04.2022
4075 Clouds 3 1026 75 10000 1.03 0 17:50 22.04.2022
4076 Clouds 3 1026 87 10000 5.66 0 16:46 22.04.2022
4077 Clouds 3 1026 93 10000 3.6 260 15:45 22.04.2022
4078 Clouds 3 1026 87 10000 1.03 0 15:18 22.04.2022
4079 Clouds 3 1025 93 10000 3.6 270 13:54 22.04.2022
4080 Clouds 3 1025 100 10000 5.14 270 12:59 22.04.2022
4081 Rain 4 1025 93 10000 4.12 270 12:28 22.04.2022
4082 Clouds 3 1025 100 10000 3.6 280 11:22 22.04.2022
4083 Rain 3 1025 93 10000 3.09 270 10:51 22.04.2022
4084 Clouds 3 1025 93 10000 2.57 270 10:31 22.04.2022
4085 Clouds 3 1025 93 10000 2.57 0 09:53 22.04.2022
4086 Rain 3 1025 93 10000 2.57 0 08:51 22.04.2022
4087 Rain 3 1024 100 10000 2.57 0 07:33 22.04.2022
4088 Clouds 4 1024 81 10000 8.23 270 04:24 22.04.2022
4089 Clouds 4 1023 93 10000 5.14 280 00:52 22.04.2022
4090 Clouds 4 1023 93 10000 6.17 270 23:26 21.04.2022
4091 Rain 3 1024 100 8000 5.66 270 22:29 21.04.2022
4092 Rain 4 1023 87 10000 7.2 230 20:46 21.04.2022
4093 Rain 4 1024 93 10000 4.63 240 20:26 21.04.2022
4094 Rain 3 1024 100 10000 5.66 230 18:47 21.04.2022
4095 Rain 3 1024 100 10000 5.66 230 18:19 21.04.2022
4096 Drizzle 4 1024 87 10000 8.75 240 16:47 21.04.2022
4097 Drizzle 4 1025 87 10000 4.63 240 15:22 21.04.2022
4098 Rain 4 1025 87 10000 4.12 240 14:50 21.04.2022
4099 Rain 4 1025 87 10000 5.14 250 13:44 21.04.2022
4100 Rain 4 1025 87 10000 5.66 260 13:18 21.04.2022
4101 Clouds 5 1025 81 10000 4.12 240 11:19 21.04.2022
4102 Clouds 4 1025 93 10000 3.09 240 08:57 21.04.2022
4103 Clouds 5 1025 87 10000 6.17 230 07:49 21.04.2022
4104 Rain 4 1025 87 10000 1.03 260 05:44 21.04.2022
4105 Clear 2 1025 93 10000 0 0 03:33 21.04.2022
4106 Clouds 3 1025 93 10000 0 0 02:48 21.04.2022
4107 Clouds 3 1025 93 10000 0 0 02:48 21.04.2022
4108 Clear 3 1025 100 10000 0 0 01:41 21.04.2022
4109 Clear 3 1025 93 10000 1.03 50 23:51 20.04.2022
4110 Clear 3 1025 81 10000 0 0 23:23 20.04.2022
4111 Clear 3 1025 87 10000 0 0 22:51 20.04.2022
4112 Clear 3 1025 87 10000 0 0 22:32 20.04.2022
4113 Clear 4 1025 81 10000 0 0 21:33 20.04.2022
4114 Clear 5 1025 70 10000 0 0 20:42 20.04.2022
4115 Clear 6 1024 70 10000 1.54 40 19:53 20.04.2022
4116 Clear 8 1024 66 10000 1.54 0 19:25 20.04.2022
4117 Clear 9 1024 61 10000 1.03 0 18:26 20.04.2022
4118 Clear 9 1024 66 10000 1.03 0 16:57 20.04.2022
4119 Clear 9 1024 66 10000 1.03 0 16:38 20.04.2022
4120 Clear 8 1023 66 10000 2.57 240 14:26 20.04.2022
4121 Clear 7 1023 70 10000 3.09 250 11:56 20.04.2022
4122 Clear 7 1023 70 10000 2.57 240 11:29 20.04.2022
4123 Clear 6 1023 75 10000 2.57 250 10:27 20.04.2022
4124 Clear 7 1022 70 10000 0 0 09:26 20.04.2022
4125 Clear 6 1022 70 10000 1.54 0 08:24 20.04.2022
4126 Clear 6 1022 70 10000 2.57 250 07:42 20.04.2022
4127 Clear 5 1022 75 10000 2.57 260 04:37 20.04.2022
4128 Clear 7 1022 65 10000 2.06 0 00:55 20.04.2022
4129 Clear 7 1022 65 10000 3.09 230 00:20 20.04.2022
4130 Clear 5 1022 75 10000 1.03 0 22:40 19.04.2022
4131 Clear 5 1022 75 10000 1.54 0 22:19 19.04.2022
4132 Clear 5 1022 75 10000 2.06 360 21:38 19.04.2022
4133 Clear 4 1022 93 10000 3.09 20 20:56 19.04.2022
4134 Clear 4 1022 93 10000 3.09 20 20:34 19.04.2022
4135 Fog 3 1023 100 10000 4.63 70 19:24 19.04.2022
4136 Fog 3 1023 100 500 4.12 60 18:18 19.04.2022
4137 Fog 4 1023 100 10000 2.57 60 16:46 19.04.2022
4138 Fog 3 1023 100 10000 2.57 50 16:24 19.04.2022
4139 Clouds 4 1024 100 10000 1.03 60 15:20 19.04.2022
4140 Clouds 4 1023 100 10000 0.51 0 14:32 19.04.2022
4141 Clouds 4 1023 100 10000 1.54 220 12:52 19.04.2022
4142 Clouds 4 1023 100 10000 2.57 200 12:26 19.04.2022
4143 Clouds 3 1023 100 10000 1.54 260 11:23 19.04.2022
4144 Clouds 3 1022 100 5000 3.09 280 09:27 19.04.2022
4145 Clouds 4 1021 100 10000 5.14 240 07:26 19.04.2022
4146 Drizzle 3 1019 100 3500 3.09 280 04:23 19.04.2022
4147 Drizzle 3 1018 100 5000 4.63 280 01:18 19.04.2022
4148 Drizzle 4 1018 100 7000 6.69 280 23:40 18.04.2022
4149 Drizzle 5 1016 100 9000 7.2 250 21:56 18.04.2022
4150 Clouds 5 1016 100 10000 7.2 240 21:24 18.04.2022
4151 Clouds 5 1016 100 10000 7.72 250 20:38 18.04.2022
4152 Clouds 6 1015 87 10000 6.69 240 19:59 18.04.2022
4153 Clouds 6 1015 87 10000 8.23 230 19:30 18.04.2022
4154 Clouds 6 1015 87 10000 5.14 200 18:37 18.04.2022
4155 Clouds 6 1015 87 10000 6.17 240 17:39 18.04.2022
4156 Clouds 6 1015 93 10000 6.69 250 17:19 18.04.2022
4157 Drizzle 5 1015 93 10000 6.17 250 16:38 18.04.2022
4158 Drizzle 6 1015 87 10000 6.69 250 15:30 18.04.2022
4159 Clouds 6 1015 87 10000 6.69 240 13:55 18.04.2022
4160 Clouds 5 1015 87 10000 5.66 230 12:54 18.04.2022
4161 Clouds 6 1015 87 10000 4.63 250 12:23 18.04.2022
4162 Rain 5 1014 87 10000 1.03 0 10:46 18.04.2022
4163 Rain 5 1014 93 10000 4.12 210 09:31 18.04.2022
4164 Rain 4 1014 93 10000 3.09 230 08:39 18.04.2022
4165 Rain 4 1015 93 10000 2.57 250 06:44 18.04.2022
4166 Clouds 5 1017 87 10000 4.12 250 02:27 18.04.2022
4167 Clouds 6 1018 81 10000 5.14 250 23:21 17.04.2022
4168 Clouds 6 1018 81 10000 5.14 240 22:36 17.04.2022
4169 Clouds 6 1019 81 10000 4.63 250 21:34 17.04.2022
4170 Clouds 5 1019 93 10000 2.57 210 20:51 17.04.2022
4171 Clouds 6 1019 87 10000 3.09 240 20:19 17.04.2022
4172 Clouds 5 1019 93 10000 8.75 230 18:45 17.04.2022
4173 Clouds 5 1020 100 10000 7.2 230 17:26 17.04.2022
4174 Clouds 5 1020 100 10000 9.77 240 15:34 17.04.2022
4175 Drizzle 5 1020 100 10000 6.69 230 14:45 17.04.2022
4176 Drizzle 5 1020 100 10000 3.6 250 13:29 17.04.2022
4177 Rain 4 1020 100 10000 5.14 250 12:45 17.04.2022
4178 Clouds 3 1020 100 5000 5.14 230 10:58 17.04.2022
4179 Clouds 3 1020 100 4100 5.66 230 10:29 17.04.2022
4180 Fog 3 1020 100 450 5.14 230 09:51 17.04.2022
4181 Mist 4 1020 100 10000 4.12 260 09:20 17.04.2022
4182 Clouds 4 1020 93 10000 5.14 270 08:41 17.04.2022
4183 Drizzle 4 1019 100 10000 4.63 250 06:29 17.04.2022
4184 Clouds 3 1018 100 9000 8.75 290 02:26 17.04.2022
4185 Clouds 4 1018 93 10000 9.26 280 00:41 17.04.2022
4186 Clouds 4 1017 93 10000 8.75 260 23:30 16.04.2022
4187 Drizzle 4 1017 93 10000 10.29 260 21:49 16.04.2022
4188 Clouds 4 1016 93 10000 9.26 250 20:54 16.04.2022
4189 Clouds 4 1016 93 10000 10.29 240 19:28 16.04.2022
4190 Clouds 4 1016 93 10000 10.29 240 18:43 16.04.2022
4191 Clouds 4 1016 100 6000 10.29 240 17:21 16.04.2022
4192 Clouds 5 1016 93 10000 14.92 240 16:19 16.04.2022
4193 Rain 3 1016 87 10000 8.23 240 14:58 16.04.2022
4194 Clouds 3 1016 87 10000 8.23 240 14:40 16.04.2022
4195 Clouds 4 1017 70 10000 7.2 220 13:50 16.04.2022
4196 Clouds 3 1017 70 10000 6.69 220 13:18 16.04.2022
4197 Clouds 3 1017 70 10000 6.69 220 13:18 16.04.2022
4198 Clouds 3 1018 65 10000 4.12 230 11:50 16.04.2022
4199 Clouds 2 1019 64 10000 5.14 220 10:35 16.04.2022
4200 Clouds 2 1019 69 10000 3.6 230 09:37 16.04.2022
4201 Clouds 2 1020 75 10000 4.63 220 08:52 16.04.2022
4202 Clouds 1 1021 75 10000 2.57 220 07:23 16.04.2022
4203 Snow 0 1022 86 10000 0.51 0 05:45 16.04.2022
4204 Clouds 2 1025 80 10000 4.12 240 01:49 16.04.2022
4205 Clouds 3 1026 75 10000 6.17 240 23:52 15.04.2022
4206 Clouds 3 1026 81 10000 6.69 240 22:51 15.04.2022
4207 Clouds 3 1026 81 10000 6.69 240 22:31 15.04.2022
4208 Clouds 3 1027 75 10000 8.23 240 21:34 15.04.2022
4209 Clouds 3 1027 75 10000 8.23 240 20:44 15.04.2022
4210 Rain 3 1027 75 10000 8.75 240 19:49 15.04.2022
4211 Rain 3 1027 75 10000 8.23 240 19:30 15.04.2022
4212 Clouds 3 1027 75 10000 9.26 240 18:45 15.04.2022
4213 Rain 3 1027 70 10000 10.29 240 18:23 15.04.2022
4214 Clouds 3 1027 75 10000 9.26 240 17:28 15.04.2022
4215 Clouds 3 1027 75 10000 8.75 240 16:25 15.04.2022
4216 Clouds 3 1027 75 10000 8.75 240 16:25 15.04.2022
4217 Clouds 3 1027 81 10000 7.2 240 15:52 15.04.2022
4218 Clouds 2 1027 93 10000 5.66 240 14:20 15.04.2022
4219 Rain 2 1026 87 10000 4.12 270 12:53 15.04.2022
4220 Clouds 2 1026 87 10000 4.12 280 12:28 15.04.2022
4221 Snow 1 1026 93 2300 3.09 0 11:54 15.04.2022
4222 Rain 2 1026 87 10000 4.63 280 10:48 15.04.2022
4223 Clouds 2 1025 87 10000 4.12 280 10:21 15.04.2022
4224 Snow 0 1025 100 7000 6.17 240 09:23 15.04.2022
4225 Snow 0 1025 100 10000 5.14 240 08:57 15.04.2022
4226 Snow 1 1024 86 10000 2.06 230 06:52 15.04.2022
4227 Clouds 0 1024 100 10000 3.09 260 05:56 15.04.2022
4228 Snow -1 1023 80 5000 1.03 0 01:28 15.04.2022
4229 Snow -1 1023 74 10000 2.57 340 23:29 14.04.2022
4230 Snow 0 1023 69 10000 2.06 340 22:46 14.04.2022
4231 Snow 0 1022 69 10000 2.57 350 22:27 14.04.2022
4232 Clouds 1 1022 69 10000 2.06 0 21:53 14.04.2022
4233 Clouds 1 1022 75 10000 4.63 270 19:57 14.04.2022
4234 Clouds 1 1022 75 10000 4.63 280 19:22 14.04.2022
4235 Rain 0 1021 86 10000 0.51 0 17:56 14.04.2022
4236 Rain 1 1021 75 7000 4.63 280 17:27 14.04.2022
4237 Clouds 2 1021 60 10000 5.66 280 16:32 14.04.2022
4238 Clouds 3 1019 65 10000 4.63 270 14:20 14.04.2022
4239 Clouds 2 1019 75 10000 1.54 0 13:26 14.04.2022
4240 Clouds 2 1019 80 10000 4.12 270 12:38 14.04.2022
4241 Clouds 2 1018 93 10000 3.09 260 12:20 14.04.2022
4242 Clouds 1 1018 100 4000 6.17 240 11:21 14.04.2022
4243 Clouds 1 1018 93 10000 6.17 230 10:36 14.04.2022
4244 Clouds 1 1017 86 10000 5.14 220 09:54 14.04.2022
4245 Clouds 1 1017 80 10000 3.09 220 08:39 14.04.2022
4246 Snow -1 1017 74 10000 1.03 0 06:26 14.04.2022
4247 Clouds -2 1016 74 10000 0 0 01:50 14.04.2022
4248 Clear -1 1016 74 10000 1.54 0 22:52 13.04.2022
4249 Clear 0 1017 69 10000 2.06 240 21:44 13.04.2022
4250 Clear -1 1017 69 10000 0.51 0 20:53 13.04.2022
4251 Clear 1 1017 64 10000 1.03 220 20:22 13.04.2022
4252 Clear 1 1017 69 10000 1.54 260 19:23 13.04.2022
4253 Clouds 2 1017 64 10000 3.09 190 17:55 13.04.2022
4254 Clouds 2 1017 60 10000 3.6 220 17:23 13.04.2022
4255 Clouds 2 1017 60 10000 2.57 220 16:33 13.04.2022
4256 Clouds 4 1018 52 10000 2.06 0 15:35 13.04.2022
4257 Clouds 3 1018 52 10000 3.6 170 14:50 13.04.2022
4258 Clouds 3 1018 56 10000 2.57 190 14:18 13.04.2022
4259 Clouds 3 1018 60 10000 2.06 160 13:19 13.04.2022
4260 Clouds 2 1019 64 10000 2.57 190 12:25 13.04.2022
4261 Clouds 0 1019 64 10000 1.54 60 10:47 13.04.2022
4262 Clouds -1 1019 74 10000 1.54 60 08:58 13.04.2022
4263 Clouds -1 1019 74 10000 1.54 60 08:33 13.04.2022
4264 Clouds -1 1019 80 10000 1.54 0 06:51 13.04.2022
4265 Clouds -1 1019 80 10000 1.03 0 06:25 13.04.2022
4266 Clouds -1 1019 74 10000 2.57 230 05:20 13.04.2022
4267 Snow -2 1018 80 10000 2.06 250 00:21 13.04.2022
4268 Snow -2 1018 80 10000 3.09 270 23:29 12.04.2022
4269 Snow -2 1017 74 10000 4.63 270 21:58 12.04.2022
4270 Snow -2 1017 74 10000 4.63 270 21:18 12.04.2022
4271 Snow -2 1017 74 10000 4.63 280 20:41 12.04.2022
4272 Snow -2 1016 80 10000 4.12 280 19:48 12.04.2022
4273 Snow -2 1016 74 10000 5.66 290 19:30 12.04.2022
4274 Snow -1 1015 69 10000 5.14 270 18:26 12.04.2022
4275 Snow -1 1014 74 10000 4.63 280 17:23 12.04.2022
4276 Clouds -1 1014 74 10000 4.63 280 16:22 12.04.2022
4277 Clouds -1 1013 74 10000 5.14 280 15:29 12.04.2022
4278 Snow 0 1012 64 10000 2.06 0 14:26 12.04.2022
4279 Clouds 0 1012 64 10000 0 0 13:36 12.04.2022
4280 Clouds 0 1011 69 10000 1.03 0 12:52 12.04.2022
4281 Snow -1 1010 74 10000 4.63 350 11:46 12.04.2022
4282 Clouds -1 1010 74 10000 4.12 350 10:47 12.04.2022
4283 Clouds -1 1008 93 10000 4.12 360 09:21 12.04.2022
4284 Snow -1 1007 86 7000 6.69 360 07:56 12.04.2022
4285 Snow -1 1006 100 7000 9.26 40 06:24 12.04.2022
4286 Snow -1 1005 100 6000 8.23 30 05:31 12.04.2022
4287 Snow 0 1000 100 2700 11.32 360 23:59 11.04.2022
4288 Snow 1 999 100 3900 8.75 360 22:44 11.04.2022
4289 Snow 1 998 100 5000 9.26 360 21:41 11.04.2022
4290 Snow 1 998 100 6000 8.75 10 20:57 11.04.2022
4291 Snow 1 998 100 4000 9.26 10 20:29 11.04.2022
4292 Snow 1 997 100 5000 9.77 10 19:54 11.04.2022
4293 Snow 1 997 100 3500 10.29 20 19:18 11.04.2022
4294 Snow 1 997 100 6000 7.72 350 18:47 11.04.2022
4295 Snow 1 996 93 2000 7.72 360 17:56 11.04.2022
4296 Snow 1 996 93 6000 8.23 350 16:54 11.04.2022
4297 Snow 0 995 100 5000 6.69 10 15:56 11.04.2022
4298 Snow 0 995 100 2500 6.17 20 14:24 11.04.2022
4299 Snow 0 995 100 2200 7.72 30 12:52 11.04.2022
4300 Snow 0 995 100 2000 8.23 40 12:31 11.04.2022
4301 Snow 1 994 93 2500 8.75 30 11:31 11.04.2022
4302 Snow 1 994 100 4900 7.72 30 10:24 11.04.2022
4303 Clouds 1 994 93 1600 8.23 40 08:56 11.04.2022
4304 Clouds 2 995 87 10000 9.26 40 06:24 11.04.2022
4305 Clouds 2 996 87 10000 5.14 30 01:53 11.04.2022
4306 Clear 1 998 86 10000 5.66 40 22:34 10.04.2022
4307 Clouds 2 998 75 10000 6.17 80 21:55 10.04.2022
4308 Clouds 2 998 75 10000 6.17 90 21:28 10.04.2022
4309 Clouds 2 997 75 10000 9.26 70 20:30 10.04.2022
4310 Clouds 2 997 75 10000 6.69 70 19:43 10.04.2022
4311 Clouds 2 997 75 10000 7.72 70 19:18 10.04.2022
4312 Clouds 2 997 75 10000 6.69 50 18:41 10.04.2022
4313 Clouds 2 997 75 10000 8.23 80 17:52 10.04.2022
4314 Clouds 2 997 75 10000 4.12 60 17:33 10.04.2022
4315 Clouds 3 997 65 10000 5.14 100 16:21 10.04.2022
4316 Clouds 2 996 75 10000 7.2 110 14:59 10.04.2022
4317 Clouds 3 996 70 10000 6.69 110 13:58 10.04.2022
4318 Clouds 2 995 75 10000 6.69 100 12:33 10.04.2022
4319 Clouds 2 995 69 10000 7.2 100 11:46 10.04.2022
4320 Clouds 2 995 69 10000 8.23 110 11:28 10.04.2022
4321 Clouds 2 994 69 10000 7.2 120 10:43 10.04.2022
4322 Clouds 1 993 75 10000 6.69 110 09:50 10.04.2022
4323 Clouds 1 992 69 10000 6.69 130 08:56 10.04.2022
4324 Clouds 2 992 64 10000 6.17 150 08:21 10.04.2022
4325 Clouds 1 991 69 10000 6.69 140 07:18 10.04.2022
4326 Clouds 1 988 80 10000 4.12 150 05:19 10.04.2022
4327 Clouds 2 986 87 10000 7.2 80 02:20 10.04.2022
4328 Drizzle 2 986 93 7000 8.23 70 23:54 09.04.2022
4329 Clouds 1 987 100 9000 9.26 70 23:29 09.04.2022
4330 Clouds 1 986 100 8000 10.8 60 22:39 09.04.2022
4331 Clouds 2 987 100 10000 11.83 60 21:31 09.04.2022
4332 Clouds 2 987 100 10000 10.8 70 20:39 09.04.2022
4333 Clouds 2 987 100 10000 10.8 60 20:18 09.04.2022
4334 Clouds 2 987 100 10000 11.83 60 19:41 09.04.2022
4335 Clouds 2 989 93 10000 6.17 50 18:54 09.04.2022
4336 Clouds 2 989 93 10000 4.12 50 18:18 09.04.2022
4337 Clouds 2 990 87 10000 7.2 50 17:18 09.04.2022
4338 Clouds 2 990 87 10000 5.14 50 16:42 09.04.2022
4339 Clouds 2 990 87 10000 6.17 50 15:52 09.04.2022
4340 Clouds 2 991 87 10000 5.14 60 15:26 09.04.2022
4341 Clouds 2 991 80 10000 6.17 70 14:26 09.04.2022
4342 Clouds 2 991 80 10000 4.12 50 13:38 09.04.2022
4343 Clouds 1 991 86 10000 6.69 50 12:59 09.04.2022
4344 Clouds 2 992 80 10000 8.23 70 11:52 09.04.2022
4345 Clouds 1 992 93 8000 8.75 70 10:53 09.04.2022
4346 Clouds 1 992 93 7000 8.75 70 10:19 09.04.2022
4347 Clouds 1 992 86 10000 8.75 60 09:36 09.04.2022
4348 Drizzle 1 992 93 10000 10.29 60 08:45 09.04.2022
4349 Drizzle 0 993 93 2400 14.92 60 05:35 09.04.2022
4350 Clouds 0 996 74 10000 10.29 70 00:36 09.04.2022
4351 Clouds 0 996 74 10000 10.29 70 00:36 09.04.2022
4352 Clouds -1 997 80 10000 12.35 70 23:25 08.04.2022
4353 Clouds -1 998 86 10000 11.32 70 21:57 08.04.2022
4354 Clear -1 998 80 10000 9.77 70 20:46 08.04.2022
4355 Clear -1 998 74 10000 9.26 60 19:57 08.04.2022
4356 Clear -1 999 74 10000 8.75 70 18:59 08.04.2022
4357 Clear -1 999 74 10000 7.2 70 18:25 08.04.2022
4358 Clear -1 999 74 10000 7.72 90 17:38 08.04.2022
4359 Clear -1 999 69 10000 8.23 80 17:19 08.04.2022
4360 Clear -1 999 69 10000 7.2 80 16:32 08.04.2022
4361 Clouds -1 999 69 10000 6.69 90 15:38 08.04.2022
4362 Clear 0 999 64 10000 4.63 100 14:52 08.04.2022
4363 Clear 0 999 69 10000 4.12 130 14:21 08.04.2022
4364 Clouds 0 999 64 10000 4.63 130 13:41 08.04.2022
4365 Clouds -1 999 69 10000 5.66 130 13:22 08.04.2022
4366 Clouds -1 998 69 10000 5.14 130 11:51 08.04.2022
4367 Clouds -2 998 69 10000 3.09 0 10:31 08.04.2022
4368 Clouds -3 997 68 10000 6.17 140 09:25 08.04.2022
4369 Clouds -2 996 74 10000 6.69 120 08:25 08.04.2022
4370 Snow -3 994 86 10000 1.54 0 06:47 08.04.2022
4371 Clouds -4 994 86 10000 4.63 50 04:32 08.04.2022
4372 Snow 0 995 100 3000 4.63 50 00:33 08.04.2022
4373 Snow 0 995 100 7000 4.63 70 23:59 07.04.2022
4374 Snow -1 996 100 10000 5.66 70 22:58 07.04.2022
4375 Clouds -1 996 100 10000 5.66 70 22:37 07.04.2022
4376 Snow 0 996 100 10000 7.2 70 22:19 07.04.2022
4377 Snow 0 996 100 4500 7.2 60 21:49 07.04.2022
4378 Snow 0 996 100 5000 5.66 70 20:58 07.04.2022
4379 Snow 0 996 100 5000 8.23 70 20:30 07.04.2022
4380 Clouds 1 996 80 10000 7.72 80 17:57 07.04.2022
4381 Clouds 1 996 80 10000 7.2 70 17:24 07.04.2022
4382 Clouds 1 996 75 10000 7.72 80 16:43 07.04.2022
4383 Clouds 1 996 75 10000 8.23 80 16:20 07.04.2022
4384 Clouds 1 996 80 10000 8.23 70 14:36 07.04.2022
4385 Clouds 0 996 86 10000 7.2 70 13:42 07.04.2022
4386 Clouds 0 997 80 10000 6.17 80 12:41 07.04.2022
4387 Clouds 0 997 80 10000 7.2 80 11:29 07.04.2022
4388 Clouds 0 997 80 10000 7.72 80 09:37 07.04.2022
4389 Clouds 0 996 80 10000 8.75 80 08:37 07.04.2022
4390 Clouds -1 996 100 10000 9.77 70 06:42 07.04.2022
4391 Clouds 0 996 86 10000 9.26 70 02:47 07.04.2022
4392 Clouds 0 996 80 10000 9.77 80 02:20 07.04.2022
4393 Clear 0 996 74 10000 9.77 70 00:26 07.04.2022
4394 Clouds 0 996 74 10000 10.8 70 22:49 06.04.2022
4395 Clouds 0 996 74 10000 10.29 70 22:26 06.04.2022
4396 Clouds 0 996 74 10000 10.8 80 21:34 06.04.2022
4397 Clouds 0 997 74 10000 9.26 70 20:35 06.04.2022
4398 Clouds 0 996 74 10000 8.75 70 19:53 06.04.2022
4399 Clouds 0 996 74 10000 11.83 80 18:51 06.04.2022
4400 Clouds 0 996 69 10000 11.32 70 18:22 06.04.2022
4401 Clouds 0 996 69 10000 10.29 70 17:35 06.04.2022
4402 Clouds 0 996 69 10000 10.8 70 16:38 06.04.2022
4403 Clouds 0 996 69 10000 10.8 70 15:48 06.04.2022
4404 Clouds 0 996 69 10000 9.26 70 14:57 06.04.2022
4405 Clouds 0 996 69 10000 11.32 70 13:24 06.04.2022
4406 Clouds 0 996 74 10000 11.83 80 12:26 06.04.2022
4407 Clouds -1 996 80 10000 10.29 80 10:47 06.04.2022
4408 Snow 0 996 74 10000 8.75 70 10:25 06.04.2022
4409 Snow 0 996 74 10000 9.26 80 09:40 06.04.2022
4410 Snow -1 996 86 10000 11.32 60 08:32 06.04.2022
4411 Clouds -1 996 86 10000 11.83 70 07:50 06.04.2022
4412 Mist -1 995 80 8000 13.38 70 03:54 06.04.2022
4413 Snow -2 995 86 5000 15.43 60 23:53 05.04.2022
4414 Snow -2 995 86 7000 14.4 60 22:57 05.04.2022
4415 Clouds -2 995 80 8000 14.4 70 21:23 05.04.2022
4416 Clouds -2 995 74 10000 15.95 70 20:26 05.04.2022
4417 Snow -3 995 80 10000 16.46 70 19:47 05.04.2022
4418 Snow -3 994 80 10000 15.43 70 18:18 05.04.2022
4419 Clouds -3 994 80 10000 15.43 70 16:54 05.04.2022
4420 Clouds -3 994 80 10000 15.43 70 16:35 05.04.2022
4421 Clouds -3 994 80 10000 13.38 70 15:35 05.04.2022
4422 Clouds -2 995 74 10000 11.83 70 14:37 05.04.2022
4423 Clouds -3 995 74 10000 9.77 60 13:37 05.04.2022
4424 Clouds -3 996 74 10000 8.75 70 11:51 05.04.2022
4425 Clouds -3 996 74 10000 8.75 70 11:51 05.04.2022
4426 Clouds -3 996 74 10000 8.75 70 11:51 05.04.2022
4427 Clouds -3 996 74 10000 8.75 70 11:51 05.04.2022
4428 Clouds -3 996 74 10000 8.23 70 11:33 05.04.2022
4429 Clouds -3 996 74 10000 7.72 70 10:41 05.04.2022
4430 Clouds -6 996 79 10000 5.14 60 08:55 05.04.2022
4431 Clouds -7 996 86 10000 4.63 60 07:22 05.04.2022
4432 Clouds -7 997 73 10000 2.57 30 02:39 05.04.2022
4433 Clouds -6 996 79 10000 5.14 40 22:48 04.04.2022
4434 Clouds -6 996 79 10000 5.66 40 22:29 04.04.2022
4435 Clouds -7 996 79 10000 5.66 60 21:22 04.04.2022
4436 Clouds -8 996 79 10000 5.14 50 20:50 04.04.2022
4437 Clouds -7 996 73 10000 4.63 50 20:22 04.04.2022
4438 Clouds -7 996 79 10000 4.63 50 19:26 04.04.2022
4439 Clouds -6 996 79 10000 5.66 50 18:37 04.04.2022
4440 Clouds -4 996 74 10000 3.6 70 16:41 04.04.2022
4441 Clouds -5 996 80 10000 4.63 70 16:23 04.04.2022
4442 Clouds -4 995 80 10000 5.66 60 15:33 04.04.2022
4443 Clouds -3 995 80 10000 5.66 80 14:46 04.04.2022
4444 Snow -2 995 80 10000 4.63 80 13:40 04.04.2022
4445 Snow -2 995 80 10000 2.57 150 12:26 04.04.2022
4446 Snow -2 995 69 10000 0.51 0 11:29 04.04.2022
4447 Clouds -4 996 68 10000 1.03 0 09:51 04.04.2022
4448 Clouds -5 997 74 10000 3.6 50 05:33 04.04.2022
4449 Clouds -6 999 86 10000 1.54 20 02:47 04.04.2022
4450 Clouds -5 1000 68 10000 3.6 40 22:49 03.04.2022
4451 Clouds -4 1001 68 10000 4.12 70 21:58 03.04.2022
4452 Clouds -4 1001 74 10000 4.12 70 21:25 03.04.2022
4453 Clouds -4 1001 68 10000 4.12 80 20:21 03.04.2022
4454 Clouds -3 1001 74 10000 5.14 80 18:37 03.04.2022
4455 Clouds -2 1001 69 10000 6.69 70 17:50 03.04.2022
4456 Clouds -2 1001 74 10000 6.17 70 17:32 03.04.2022
4457 Clouds -1 1001 69 10000 4.63 70 16:49 03.04.2022
4458 Clouds -1 1002 59 10000 5.14 90 15:46 03.04.2022
4459 Clouds -1 1002 64 10000 3.09 70 14:20 03.04.2022
4460 Clouds -2 1002 69 10000 5.14 60 12:59 03.04.2022
4461 Clouds -2 1002 69 10000 2.06 80 11:39 03.04.2022
4462 Clouds -2 1002 80 10000 4.12 80 09:52 03.04.2022
4463 Clouds -3 1002 86 10000 0.51 0 08:57 03.04.2022
4464 Clouds -8 1003 86 10000 2.57 70 05:45 03.04.2022
4465 Clouds -7 1003 79 10000 1.03 0 02:55 03.04.2022
4466 Clouds -7 1003 79 10000 0.51 0 23:35 02.04.2022
4467 Clouds -8 1003 79 10000 2.06 60 22:44 02.04.2022
4468 Clouds -6 1002 79 10000 1.03 0 21:56 02.04.2022
4469 Clouds -8 1002 79 10000 2.06 50 21:20 02.04.2022
4470 Clouds -6 1002 79 10000 2.57 20 20:36 02.04.2022
4471 Clouds -5 1001 74 10000 1.54 30 18:47 02.04.2022
4472 Clouds -5 1001 74 10000 3.09 100 18:19 02.04.2022
4473 Clear -4 1001 68 10000 1.54 70 17:23 02.04.2022
4474 Clear -2 1000 64 10000 3.6 40 15:44 02.04.2022
4475 Clear -2 1000 59 10000 1.54 80 15:19 02.04.2022
4476 Clear -2 1000 64 10000 1.03 0 14:31 02.04.2022
4477 Clear -1 1000 59 10000 1.03 0 13:34 02.04.2022
4478 Clear 0 999 55 10000 1.03 0 12:21 02.04.2022
4479 Clouds -3 998 59 10000 1.03 0 10:31 02.04.2022
4480 Clouds -4 998 68 10000 3.09 50 08:26 02.04.2022
4481 Clouds -3 999 68 10000 3.6 30 05:24 02.04.2022
4482 Clouds -3 1000 74 10000 1.03 0 02:56 02.04.2022
4483 Clouds -1 1002 86 5000 6.17 230 23:54 01.04.2022
4484 Snow -2 1002 93 5000 7.2 240 22:51 01.04.2022
4485 Snow -1 1002 69 10000 4.63 210 21:27 01.04.2022
4486 Snow -1 1003 69 10000 5.14 210 20:49 01.04.2022
4487 Snow -1 1003 69 10000 5.14 210 19:50 01.04.2022
4488 Snow 0 1004 69 10000 8.23 230 19:26 01.04.2022
4489 Snow 0 1004 69 10000 8.23 250 18:42 01.04.2022
4490 Clouds 0 1005 69 10000 10.8 240 17:43 01.04.2022
4491 Clouds -1 1006 74 10000 10.8 240 16:33 01.04.2022
4492 Snow -1 1007 74 10000 9.77 240 15:18 01.04.2022
4493 Snow -1 1007 74 5000 9.26 240 14:18 01.04.2022
4494 Snow -1 1007 69 10000 10.29 230 13:32 01.04.2022
4495 Snow -1 1008 69 10000 5.66 210 12:30 01.04.2022
4496 Snow -2 1008 74 10000 6.17 210 10:54 01.04.2022
4497 Snow -2 1009 86 10000 7.2 230 09:49 01.04.2022
4498 Clouds -3 1010 74 10000 5.14 240 07:50 01.04.2022
4499 Clouds -3 1011 80 10000 4.12 240 06:30 01.04.2022
4500 Clouds -3 1011 80 10000 5.14 240 04:44 01.04.2022
4501 Clouds -3 1012 68 10000 2.57 0 03:21 01.04.2022
4502 Clouds -5 1012 86 10000 1.54 0 01:52 01.04.2022
4503 Snow -4 1012 93 10000 1.03 0 22:37 31.03.2022
4504 Clouds -5 1012 74 10000 4.12 10 21:44 31.03.2022
4505 Clouds -4 1012 86 10000 4.12 10 21:21 31.03.2022
4506 Clouds -4 1012 86 600 6.17 10 20:28 31.03.2022
4507 Clouds -4 1012 86 10000 1.03 0 19:46 31.03.2022
4508 Clouds -4 1012 86 10000 2.57 70 18:38 31.03.2022
4509 Clouds -3 1012 74 10000 2.06 0 17:32 31.03.2022
4510 Clouds -4 1012 80 10000 1.03 0 16:18 31.03.2022
4511 Clouds -3 1012 74 10000 1.54 0 15:33 31.03.2022
4512 Clouds -4 1012 80 1100 4.63 10 14:52 31.03.2022
4513 Clouds -4 1012 80 10000 5.66 10 14:19 31.03.2022
4514 Clouds -4 1011 74 10000 3.6 40 11:32 31.03.2022
4515 Clouds -5 1011 86 3500 6.69 10 10:41 31.03.2022
4516 Clouds -5 1010 86 10000 5.14 30 09:44 31.03.2022
4517 Clouds -5 1010 80 10000 5.66 10 07:49 31.03.2022
4518 Clouds -5 1009 74 10000 5.66 20 04:42 31.03.2022
4519 Clouds -4 1007 74 10000 6.69 20 23:34 30.03.2022
4520 Clouds -4 1007 63 10000 5.14 30 22:23 30.03.2022
4521 Clouds -3 1007 63 10000 6.17 30 21:33 30.03.2022
4522 Clouds -4 1007 68 10000 5.66 30 20:44 30.03.2022
4523 Clouds -3 1006 63 10000 6.69 20 19:59 30.03.2022
4524 Clouds -3 1006 63 10000 5.66 20 18:50 30.03.2022
4525 Clouds -3 1006 68 10000 8.75 20 17:53 30.03.2022
4526 Clouds -3 1006 68 10000 8.75 20 17:34 30.03.2022
4527 Clouds -3 1006 68 10000 7.72 20 16:51 30.03.2022
4528 Clouds -3 1006 63 10000 7.72 30 16:30 30.03.2022
4529 Clouds -3 1005 80 10000 7.72 40 14:55 30.03.2022
4530 Snow -3 1005 86 10000 5.14 30 13:32 30.03.2022
4531 Snow -3 1005 86 9000 10.29 50 12:41 30.03.2022
4532 Snow -3 1004 80 10000 8.75 20 10:54 30.03.2022
4533 Snow -3 1003 86 5000 9.77 20 09:58 30.03.2022
4534 Clouds -3 1003 86 10000 9.77 40 08:29 30.03.2022
4535 Snow -3 1003 86 8000 11.32 20 07:31 30.03.2022
4536 Clouds -3 1003 80 8000 12.35 20 05:40 30.03.2022
4537 Clouds -2 1002 80 10000 13.38 20 03:21 30.03.2022
4538 Clouds -2 1002 74 10000 12.35 20 23:32 29.03.2022
4539 Clouds -3 1001 80 10000 11.32 30 22:18 29.03.2022
4540 Snow -3 1001 86 7000 7.72 40 21:40 29.03.2022
4541 Snow -3 1002 93 8000 9.26 30 20:44 29.03.2022
4542 Snow -3 1001 86 1400 10.29 20 19:45 29.03.2022
4543 Snow -3 1002 86 9000 11.32 30 18:54 29.03.2022
4544 Snow -3 1002 86 9000 13.89 30 18:18 29.03.2022
4545 Snow -3 1002 93 10000 11.83 30 17:20 29.03.2022
4546 Snow -3 1002 86 5000 9.77 30 16:55 29.03.2022
4547 Snow -3 1002 86 800 13.89 30 15:47 29.03.2022
4548 Snow -3 1002 86 10000 8.23 30 14:44 29.03.2022
4549 Snow -3 1002 68 10000 9.77 20 13:41 29.03.2022
4550 Snow -3 1002 80 10000 8.75 30 12:40 29.03.2022
4551 Clouds -3 1002 80 10000 8.75 20 11:27 29.03.2022
4552 Clouds -3 1002 86 10000 10.29 20 10:23 29.03.2022
4553 Snow -3 1002 80 10000 10.8 20 08:57 29.03.2022
4554 Clouds -2 1002 80 450 8.75 360 06:54 29.03.2022
4555 Clouds -4 1003 80 10000 8.75 360 03:19 29.03.2022
4556 Snow -4 1004 93 4500 6.17 30 23:46 28.03.2022
4557 Snow -4 1005 86 10000 6.69 20 22:58 28.03.2022
4558 Snow -4 1005 86 10000 6.69 20 22:35 28.03.2022
4559 Snow -4 1005 86 10000 7.72 10 21:48 28.03.2022
4560 Clouds -3 1005 80 10000 6.17 350 20:41 28.03.2022
4561 Clouds -4 1006 80 10000 4.63 360 19:59 28.03.2022
4562 Clouds -4 1006 80 10000 4.63 360 19:40 28.03.2022
4563 Snow -5 1006 80 900 1.54 0 18:51 28.03.2022
4564 Snow -5 1006 80 10000 3.09 10 18:18 28.03.2022
4565 Clouds -5 1006 80 10000 2.06 40 17:28 28.03.2022
4566 Snow -3 1006 68 10000 0 0 15:38 28.03.2022
4567 Clouds -4 1006 74 10000 1.03 0 14:24 28.03.2022
4568 Clouds -1 1006 69 10000 0 0 13:33 28.03.2022
4569 Snow -6 1005 63 10000 1.03 0 11:54 28.03.2022
4570 Clear -7 1005 58 10000 1.03 0 10:39 28.03.2022
4571 Clouds -6 1004 49 10000 1.03 0 09:21 28.03.2022
4572 Clouds -9 1004 57 10000 1.54 50 08:45 28.03.2022
4573 Clouds -10 1004 57 10000 1.03 0 08:21 28.03.2022
4574 Clouds -11 1004 57 10000 1.03 0 07:26 28.03.2022
4575 Clear -11 1004 62 10000 2.06 50 02:46 28.03.2022
4576 Clear -9 1005 67 10000 3.09 80 22:57 27.03.2022
4577 Clear -10 1005 73 10000 3.09 50 21:55 27.03.2022
4578 Clear -10 1005 73 10000 3.09 50 21:36 27.03.2022
4579 Clear -8 1006 67 10000 4.12 90 20:41 27.03.2022
4580 Clear -8 1006 62 10000 4.63 90 19:44 27.03.2022
4581 Clear -7 1007 58 10000 3.09 90 18:47 27.03.2022
4582 Clouds -7 1008 63 10000 3.6 90 18:24 27.03.2022
4583 Clouds -7 1008 68 10000 4.12 100 17:37 27.03.2022
4584 Clouds -6 1011 63 10000 3.09 40 15:55 27.03.2022
4585 Clouds -5 1013 63 10000 1.54 90 13:59 27.03.2022
4586 Clouds -5 1013 68 10000 1.03 0 13:25 27.03.2022
4587 Clouds -4 1015 68 10000 1.03 0 11:41 27.03.2022
4588 Clouds -5 1016 68 10000 0.51 0 09:49 27.03.2022
4589 Clouds -6 1018 79 10000 4.12 360 07:47 27.03.2022
4590 Clouds -5 1019 68 10000 3.09 10 04:49 27.03.2022
4591 Snow -6 1021 79 9000 5.66 360 00:30 27.03.2022
4592 Clouds -6 1021 79 10000 5.66 360 22:53 26.03.2022
4593 Snow -6 1021 79 10000 5.14 350 22:25 26.03.2022
4594 Snow -6 1021 79 10000 3.6 30 21:31 26.03.2022
4595 Clouds -6 1022 86 5000 5.66 10 19:39 26.03.2022
4596 Snow -5 1021 68 10000 3.6 10 18:44 26.03.2022
4597 Snow -5 1021 68 10000 3.6 350 17:44 26.03.2022
4598 Clouds -6 1021 73 10000 5.14 10 16:46 26.03.2022
4599 Clouds -5 1021 74 10000 4.12 350 15:43 26.03.2022
4600 Snow -6 1020 73 10000 5.14 360 14:18 26.03.2022
4601 Clouds -7 1020 86 10000 7.72 360 13:47 26.03.2022
4602 Clouds -5 1020 63 10000 7.2 360 12:31 26.03.2022
4603 Mist -6 1019 73 10000 7.2 360 10:56 26.03.2022
4604 Snow -6 1018 68 10000 5.14 350 09:21 26.03.2022
4605 Snow -6 1017 68 7000 7.72 350 07:34 26.03.2022
4606 Snow -6 1015 79 8000 7.2 20 05:49 26.03.2022
4607 Snow -5 1012 86 2000 8.23 20 03:22 26.03.2022
4608 Snow -5 1008 68 10000 5.14 70 22:50 25.03.2022
4609 Clear -5 1007 74 10000 7.2 70 20:58 25.03.2022
4610 Clear -5 1007 74 10000 8.23 70 20:26 25.03.2022
4611 Clouds -5 1006 74 10000 7.72 70 19:20 25.03.2022
4612 Clouds -5 1006 74 10000 9.26 70 18:37 25.03.2022
4613 Clouds -5 1006 74 10000 9.77 70 17:34 25.03.2022
4614 Clear -5 1006 74 10000 9.26 70 16:29 25.03.2022
4615 Clear -5 1006 74 10000 9.77 60 15:46 25.03.2022
4616 Clear -4 1007 63 10000 9.26 60 13:32 25.03.2022
4617 Clear -4 1008 68 10000 7.2 70 11:38 25.03.2022
4618 Clear -5 1010 68 10000 4.63 60 09:43 25.03.2022
4619 Clear -5 1010 68 10000 3.09 90 08:59 25.03.2022
4620 Clouds -5 1011 74 10000 4.63 60 07:47 25.03.2022
4621 Clouds -5 1011 68 10000 4.12 50 07:19 25.03.2022
4622 Clouds -4 1012 68 10000 3.6 30 03:58 25.03.2022
4623 Clouds -2 1014 69 10000 7.72 30 23:54 24.03.2022
4624 Snow -2 1013 100 2500 6.17 350 22:24 24.03.2022
4625 Snow -2 1013 100 1500 7.2 240 21:24 24.03.2022
4626 Snow -1 1013 69 10000 12.35 240 19:50 24.03.2022
4627 Snow -1 1014 74 10000 10.8 240 18:45 24.03.2022
4628 Clouds -1 1014 74 10000 11.32 240 17:38 24.03.2022
4629 Clouds -1 1014 74 10000 10.8 240 16:41 24.03.2022
4630 Snow -3 1014 93 800 6.69 210 14:58 24.03.2022
4631 Snow -3 1014 93 800 6.69 210 14:39 24.03.2022
4632 Snow -2 1015 80 10000 6.17 210 13:36 24.03.2022
4633 Clouds -2 1015 69 10000 6.69 200 12:35 24.03.2022
4634 Snow -3 1016 68 10000 7.2 200 11:31 24.03.2022
4635 Snow -3 1016 68 10000 7.2 200 11:31 24.03.2022
4636 Clear -4 1016 63 10000 4.63 100 09:34 24.03.2022
4637 Clear -4 1016 63 10000 4.12 130 08:39 24.03.2022
4638 Clouds -5 1016 74 10000 3.09 40 06:18 24.03.2022
4639 Clouds -4 1012 74 10000 2.57 40 01:20 24.03.2022
4640 Clouds -3 1009 80 10000 6.69 70 22:26 23.03.2022
4641 Clouds -3 1008 86 10000 6.69 70 21:25 23.03.2022
4642 Clouds -3 1008 80 10000 8.23 70 20:46 23.03.2022
4643 Snow -3 1007 86 3000 9.26 70 19:40 23.03.2022
4644 Clouds -3 1006 86 10000 11.83 70 18:22 23.03.2022
4645 Clouds -3 1005 86 10000 9.77 70 17:31 23.03.2022
4646 Clouds -3 1004 86 10000 8.75 60 16:18 23.03.2022
4647 Snow -3 1004 93 1200 9.26 60 14:49 23.03.2022
4648 Snow -3 1004 93 600 9.77 60 13:34 23.03.2022
4649 Snow -3 1007 93 1200 7.2 70 11:38 23.03.2022
4650 Snow -4 1011 93 5000 4.12 70 09:21 23.03.2022
4651 Snow -4 1014 100 3000 1.54 50 06:29 23.03.2022
4652 Snow -3 1016 93 2400 2.06 320 03:57 23.03.2022
4653 Snow -2 1016 100 2000 2.06 0 00:29 23.03.2022
4654 Snow -2 1016 100 2000 2.06 0 00:29 23.03.2022
4655 Snow -2 1016 100 2000 4.63 280 22:25 22.03.2022
4656 Snow -2 1016 100 2500 2.57 0 21:29 22.03.2022
4657 Snow -2 1016 100 3000 3.6 340 20:34 22.03.2022
4658 Snow -1 1016 100 2500 2.57 0 19:31 22.03.2022
4659 Snow -1 1016 100 3000 1.54 0 18:57 22.03.2022
4660 Snow -1 1016 100 1300 4.63 340 17:47 22.03.2022
4661 Snow 0 1015 100 1300 3.6 340 17:23 22.03.2022
4662 Snow 0 1016 100 1500 3.09 340 15:54 22.03.2022
4663 Snow 0 1016 100 2000 3.09 340 15:22 22.03.2022
4664 Snow 0 1016 100 1800 3.09 320 14:46 22.03.2022
4665 Snow 0 1016 100 1200 1.03 0 14:25 22.03.2022
4666 Snow 0 1017 100 2000 6.17 240 12:46 22.03.2022
4667 Snow 1 1017 100 6000 7.2 240 11:36 22.03.2022
4668 Rain 1 1017 93 10000 9.26 240 10:23 22.03.2022
4669 Rain 2 1018 80 10000 10.8 240 07:48 22.03.2022
4670 Clouds 0 1020 93 10000 6.69 260 05:20 22.03.2022
4671 Snow 1 1020 80 6000 9.77 270 03:41 22.03.2022
4672 Clouds 2 1019 60 10000 12.35 250 23:49 21.03.2022
4673 Clouds 2 1018 80 10000 12.86 250 21:58 21.03.2022
4674 Snow 1 1018 86 7000 15.95 240 20:47 21.03.2022
4675 Snow 2 1018 69 10000 15.43 240 20:27 21.03.2022
4676 Rain 2 1018 69 10000 13.38 240 19:57 21.03.2022
4677 Snow 1 1018 75 4500 13.38 250 19:25 21.03.2022
4678 Rain 2 1017 60 10000 16.46 240 17:53 21.03.2022
4679 Clouds 2 1016 60 10000 13.38 250 17:18 21.03.2022
4680 Snow 2 1016 69 10000 14.92 240 16:42 21.03.2022
4681 Snow 2 1015 69 10000 15.43 240 15:48 21.03.2022
4682 Snow 2 1014 75 9000 18.52 240 14:56 21.03.2022
4683 Rain 3 1014 70 10000 13.89 240 13:46 21.03.2022
4684 Clouds 4 1013 60 10000 20.58 240 12:35 21.03.2022
4685 Clouds 4 1013 70 10000 16.46 240 11:45 21.03.2022
4686 Rain 3 1013 87 9000 15.43 240 10:36 21.03.2022
4687 Rain 6 1012 56 10000 8.75 260 08:30 21.03.2022
4688 Clear 9 1012 40 10000 13.89 240 06:48 21.03.2022
4689 Clouds 7 1016 53 10000 8.75 230 02:51 21.03.2022
4690 Clear 5 1020 65 10000 4.63 240 23:43 20.03.2022
4691 Clear 5 1020 70 10000 3.6 230 22:44 20.03.2022
4692 Clear 6 1021 70 10000 4.12 250 21:52 20.03.2022
4693 Clear 6 1021 70 10000 4.12 250 21:52 20.03.2022
4694 Clear 6 1021 65 10000 8.23 240 21:25 20.03.2022
4695 Clear 6 1022 70 10000 6.17 250 20:43 20.03.2022
4696 Clouds 6 1022 70 10000 10.29 240 19:59 20.03.2022
4697 Clouds 5 1022 81 10000 4.12 250 19:31 20.03.2022
4698 Clouds 5 1022 75 10000 4.12 240 18:22 20.03.2022
4699 Clouds 6 1022 75 10000 10.8 240 17:33 20.03.2022
4700 Clouds 6 1022 75 10000 9.77 230 16:57 20.03.2022
4701 Clouds 6 1023 70 10000 9.77 240 15:35 20.03.2022
4702 Clouds 6 1022 75 10000 11.32 240 14:35 20.03.2022
4703 Clouds 6 1021 75 8000 13.89 240 12:35 20.03.2022
4704 Rain 5 1022 93 7000 9.77 250 11:23 20.03.2022
4705 Snow 0 1022 100 900 4.12 240 09:26 20.03.2022
4706 Snow 0 1022 100 2000 2.57 240 07:47 20.03.2022
4707 Snow 1 1021 100 2500 5.14 240 05:48 20.03.2022
4708 Drizzle 2 1019 87 10000 7.2 260 01:56 20.03.2022
4709 Rain 3 1018 75 10000 9.26 260 00:47 20.03.2022
4710 Rain 1 1018 86 6000 10.29 260 23:19 19.03.2022
4711 Rain 3 1016 65 10000 16.46 240 21:28 19.03.2022
4712 Rain 3 1016 65 10000 9.77 240 20:58 19.03.2022
4713 Mist 2 1015 80 10000 7.2 250 18:58 19.03.2022
4714 Rain 2 1015 75 10000 9.77 240 18:24 19.03.2022
4715 Drizzle 2 1014 75 10000 10.8 240 17:40 19.03.2022
4716 Clouds 2 1013 80 10000 8.75 270 15:46 19.03.2022
4717 Clouds 1 1012 86 3500 9.26 270 15:19 19.03.2022
4718 Rain 2 1009 93 10000 6.69 280 13:20 19.03.2022
4719 Rain 2 1008 93 10000 7.2 270 12:40 19.03.2022
4720 Rain 3 1006 87 10000 11.83 280 11:54 19.03.2022
4721 Drizzle 4 1002 87 10000 14.4 240 10:53 19.03.2022
4722 Rain 1 1002 86 10000 8.75 200 07:59 19.03.2022
4723 Rain 3 1012 70 10000 9.77 230 03:49 19.03.2022
4724 Rain 2 1014 80 10000 9.77 240 02:30 19.03.2022
4725 Snow 1 1015 100 10000 12.35 230 23:46 18.03.2022
4726 Snow 1 1015 93 10000 13.38 230 22:28 18.03.2022
4727 Snow 2 1015 75 10000 14.92 240 21:46 18.03.2022
4728 Clouds 2 1015 75 10000 14.4 240 19:54 18.03.2022
4729 Clouds 3 1014 65 10000 15.95 240 19:22 18.03.2022
4730 Snow 2 1013 69 10000 19.55 240 18:18 18.03.2022
4731 Rain 2 1011 87 10000 14.4 240 16:51 18.03.2022
4732 Rain 4 1011 70 10000 13.89 240 15:43 18.03.2022
4733 Rain 5 1010 70 10000 4.63 210 14:24 18.03.2022
4734 Clouds 5 1009 65 10000 3.09 230 12:39 18.03.2022
4735 Clouds 4 1008 70 10000 4.12 220 10:58 18.03.2022
4736 Clouds 3 1008 70 10000 3.6 220 09:30 18.03.2022
4737 Clouds 3 1008 70 10000 4.63 210 08:42 18.03.2022
4738 Clouds 3 1009 70 10000 8.75 200 06:40 18.03.2022
4739 Clear 2 1014 75 10000 0.51 0 03:30 18.03.2022
4740 Clouds 2 1015 80 10000 1.03 0 00:53 18.03.2022
4741 Rain 3 1016 75 10000 1.03 290 23:44 17.03.2022
4742 Rain 2 1017 80 10000 0 0 22:25 17.03.2022
4743 Clear 3 1017 75 10000 1.03 0 21:48 17.03.2022
4744 Clear 3 1017 75 10000 0 0 21:27 17.03.2022
4745 Clear 3 1018 75 10000 0.51 0 20:51 17.03.2022
4746 Clear 2 1018 80 10000 1.54 0 19:53 17.03.2022
4747 Clear 3 1019 75 10000 1.03 0 19:32 17.03.2022
4748 Clear 4 1019 70 10000 2.06 240 18:49 17.03.2022
4749 Clouds 4 1019 70 10000 2.06 270 17:18 17.03.2022
4750 Clouds 5 1019 65 10000 2.57 270 15:44 17.03.2022
4751 Clouds 5 1019 65 10000 3.09 280 15:26 17.03.2022
4752 Clouds 4 1019 70 10000 3.09 270 14:48 17.03.2022
4753 Clear 5 1019 60 10000 4.12 220 12:59 17.03.2022
4754 Clear 5 1019 60 10000 4.12 220 12:37 17.03.2022
4755 Clear 5 1019 60 10000 3.09 220 11:30 17.03.2022
4756 Clear 4 1020 65 10000 2.57 230 10:34 17.03.2022
4757 Clouds 4 1020 60 10000 1.54 280 08:41 17.03.2022
4758 Clouds 3 1020 65 10000 3.09 270 07:52 17.03.2022
4759 Clouds 4 1020 56 10000 1.54 300 05:48 17.03.2022
4760 Clouds 3 1019 60 10000 2.57 270 03:41 17.03.2022
4761 Clear 3 1018 56 10000 4.12 250 00:21 17.03.2022
4762 Clear 3 1017 52 10000 2.06 290 22:52 16.03.2022
4763 Clear 3 1017 52 10000 2.06 290 22:33 16.03.2022
4764 Clear 3 1017 52 10000 2.06 270 21:52 16.03.2022
4765 Clear 3 1017 56 10000 2.57 250 20:28 16.03.2022
4766 Clear 1 1017 69 10000 2.57 0 19:22 16.03.2022
4767 Clear 1 1018 69 10000 4.12 260 18:40 16.03.2022
4768 Clear 2 1018 69 10000 3.09 260 17:44 16.03.2022
4769 Clear 3 1018 60 10000 3.09 270 17:26 16.03.2022
4770 Clear 2 1018 69 10000 4.63 260 15:56 16.03.2022
4771 Clear 2 1017 69 10000 3.6 250 14:31 16.03.2022
4772 Clear 3 1017 65 10000 2.06 250 13:34 16.03.2022
4773 Clear 3 1017 60 10000 3.6 250 11:59 16.03.2022
4774 Clear 3 1016 65 10000 3.6 260 11:22 16.03.2022
4775 Clear 3 1016 65 10000 2.06 260 10:28 16.03.2022
4776 Clear 3 1016 65 10000 1.03 0 09:55 16.03.2022
4777 Clear 3 1016 60 10000 4.63 240 06:33 16.03.2022
4778 Clear 5 1016 60 10000 4.63 260 02:29 16.03.2022
4779 Clear 4 1017 65 10000 2.06 280 22:54 15.03.2022
4780 Clear 4 1017 65 10000 2.06 280 22:33 15.03.2022
4781 Clear 3 1018 75 10000 1.54 0 20:42 15.03.2022
4782 Clear 3 1019 75 10000 1.03 50 19:27 15.03.2022
4783 Clear 3 1019 70 10000 1.03 0 17:35 15.03.2022
4784 Clear 3 1019 75 10000 2.06 50 16:34 15.03.2022
4785 Clear 4 1019 70 10000 4.63 250 15:26 15.03.2022
4786 Clear 5 1019 65 10000 3.09 270 14:46 15.03.2022
4787 Clear 6 1019 56 10000 3.09 250 13:55 15.03.2022
4788 Clear 7 1020 49 10000 1.54 280 12:46 15.03.2022
4789 Clouds 5 1020 60 10000 1.54 0 11:32 15.03.2022
4790 Clouds 5 1020 65 10000 1.54 0 10:21 15.03.2022
4791 Clouds 3 1020 75 10000 2.57 270 08:50 15.03.2022
4792 Clear 3 1020 75 10000 1.54 0 07:53 15.03.2022
4793 Clear 3 1020 75 10000 1.54 0 07:35 15.03.2022
4794 Clouds 3 1020 70 10000 2.57 290 05:42 15.03.2022
4795 Rain 3 1020 70 10000 2.06 230 00:25 15.03.2022
4796 Clear 3 1020 70 10000 1.03 0 23:26 14.03.2022
4797 Clear 3 1020 70 10000 2.06 280 22:37 14.03.2022
4798 Clear 3 1019 70 10000 2.06 270 21:49 14.03.2022
4799 Clear 3 1019 70 10000 3.09 250 20:54 14.03.2022
4800 Clear 3 1019 65 10000 3.6 240 20:23 14.03.2022
4801 Clear 3 1019 70 10000 4.12 250 19:22 14.03.2022
4802 Clear 4 1019 60 10000 4.12 270 17:55 14.03.2022
4803 Clear 3 1019 65 10000 4.12 260 17:25 14.03.2022
4804 Clear 4 1019 60 10000 2.57 270 16:26 14.03.2022
4805 Clouds 4 1020 60 10000 3.09 240 14:41 14.03.2022
4806 Clear 5 1020 65 10000 1.03 220 12:55 14.03.2022
4807 Clear 5 1021 65 10000 1.54 0 10:57 14.03.2022
4808 Clear 2 1021 75 10000 1.54 60 09:56 14.03.2022
4809 Clear 2 1021 75 10000 1.03 0 09:23 14.03.2022
4810 Clear 2 1021 75 10000 0 0 08:57 14.03.2022
4811 Clear 2 1021 75 10000 0 0 08:20 14.03.2022
4812 Clear 4 1021 65 10000 2.57 260 05:46 14.03.2022
4813 Clouds 1 1021 80 10000 1.54 70 02:57 14.03.2022
4814 Clouds 2 1021 80 10000 3.09 260 01:33 14.03.2022
4815 Clear 3 1021 81 10000 2.57 260 23:25 13.03.2022
4816 Clouds 5 1021 70 10000 3.6 240 21:41 13.03.2022
4817 Clouds 4 1021 70 10000 3.6 250 21:19 13.03.2022
4818 Clouds 4 1020 70 10000 3.09 250 20:46 13.03.2022
4819 Clouds 4 1020 70 10000 2.06 250 20:21 13.03.2022
4820 Clouds 4 1020 70 10000 2.06 230 19:41 13.03.2022
4821 Clouds 3 1020 81 10000 2.57 290 19:20 13.03.2022
4822 Clouds 3 1020 75 10000 2.06 230 18:40 13.03.2022
4823 Clear 3 1020 75 10000 2.06 230 17:52 13.03.2022
4824 Clear 3 1020 75 10000 2.06 230 17:33 13.03.2022
4825 Clear 3 1020 75 10000 2.06 270 16:44 13.03.2022
4826 Clear 4 1019 75 10000 2.57 250 16:20 13.03.2022
4827 Clear 3 1019 81 10000 2.06 250 15:34 13.03.2022
4828 Clear 4 1018 75 10000 3.09 240 13:53 13.03.2022
4829 Clear 5 1018 70 10000 2.06 250 13:26 13.03.2022
4830 Clear 4 1018 75 10000 3.6 230 12:20 13.03.2022
4831 Clear 4 1018 75 10000 3.6 260 11:36 13.03.2022
4832 Clear 4 1018 75 10000 5.14 230 10:48 13.03.2022
4833 Clear 5 1017 70 10000 3.6 250 10:25 13.03.2022
4834 Clouds 6 1017 65 10000 2.06 260 09:41 13.03.2022
4835 Clear 8 1017 53 10000 3.09 170 08:48 13.03.2022
4836 Clouds 5 1017 70 10000 4.12 260 07:57 13.03.2022
4837 Clouds 2 1017 75 10000 0 0 05:55 13.03.2022
4838 Clear 3 1018 81 10000 2.06 40 03:26 13.03.2022
4839 Clear 5 1019 75 10000 2.06 30 00:48 13.03.2022
4840 Clouds 5 1020 75 10000 1.54 0 22:47 12.03.2022
4841 Clouds 4 1020 87 10000 1.54 0 20:59 12.03.2022
4842 Clouds 4 1020 87 10000 1.54 60 19:57 12.03.2022
4843 Clouds 4 1020 87 10000 1.54 60 19:57 12.03.2022
4844 Clouds 4 1020 87 10000 1.54 60 19:38 12.03.2022
4845 Clouds 3 1020 93 10000 0 0 18:31 12.03.2022
4846 Clouds 4 1020 81 10000 1.03 0 17:43 12.03.2022
4847 Clouds 4 1020 87 10000 0 0 16:25 12.03.2022
4848 Clouds 3 1021 93 10000 0 0 15:24 12.03.2022
4849 Clouds 4 1021 93 10000 0.51 0 14:52 12.03.2022
4850 Clouds 3 1021 100 10000 1.03 0 13:47 12.03.2022
4851 Drizzle 4 1020 100 10000 0 0 12:18 12.03.2022
4852 Drizzle 3 1020 100 10000 0 0 11:45 12.03.2022
4853 Drizzle 3 1020 100 3000 1.54 270 11:19 12.03.2022
4854 Drizzle 4 1020 100 9000 2.06 230 09:58 12.03.2022
4855 Drizzle 4 1020 100 9000 2.06 230 09:38 12.03.2022
4856 Drizzle 2 1019 100 4100 1.03 240 07:50 12.03.2022
4857 Drizzle 1 1019 100 2500 1.54 50 04:50 12.03.2022
4858 Snow 1 1019 100 10000 1.03 40 00:24 12.03.2022
4859 Snow 1 1019 100 10000 0 0 23:28 11.03.2022
4860 Drizzle 2 1019 93 10000 0.51 310 21:47 11.03.2022
4861 Clouds 2 1019 93 10000 1.03 270 20:57 11.03.2022
4862 Rain 2 1019 93 10000 1.03 270 20:37 11.03.2022
4863 Drizzle 2 1018 93 10000 0.51 0 20:37 11.03.2022
4864 Rain 2 1018 87 10000 1.03 0 19:53 11.03.2022
4865 Clouds 2 1018 87 10000 1.54 260 19:26 11.03.2022
4866 Clouds 3 1018 81 10000 1.54 270 17:34 11.03.2022
4867 Clouds 3 1017 81 10000 1.03 0 16:42 11.03.2022
4868 Clouds 3 1016 81 10000 2.06 250 15:57 11.03.2022
4869 Clouds 3 1016 81 10000 0.51 0 14:22 11.03.2022
4870 Clouds 3 1015 87 10000 6.17 280 12:53 11.03.2022
4871 Clouds 3 1014 87 10000 7.2 280 12:21 11.03.2022
4872 Clouds 3 1014 87 10000 5.14 280 11:55 11.03.2022
4873 Rain 3 1013 93 10000 6.69 270 10:18 11.03.2022
4874 Snow 3 1012 93 9000 5.66 270 08:57 11.03.2022
4875 Rain 3 1011 87 10000 7.2 270 08:24 11.03.2022
4876 Rain 3 1011 81 10000 6.69 270 07:45 11.03.2022
4877 Clouds 4 1010 81 10000 5.14 240 05:49 11.03.2022
4878 Clouds 4 1008 81 10000 6.17 260 03:49 11.03.2022
4879 Rain 4 1004 81 10000 18.01 240 23:46 10.03.2022
4880 Rain 5 1003 70 10000 18.01 240 22:31 10.03.2022
4881 Rain 5 1003 65 10000 16.98 250 21:47 10.03.2022
4882 Clouds 3 1003 81 10000 13.38 230 21:19 10.03.2022
4883 Clouds 4 1003 75 10000 12.35 240 19:48 10.03.2022
4884 Clouds 5 1003 65 10000 12.86 250 18:55 10.03.2022
4885 Clouds 3 1003 81 10000 5.14 230 17:36 10.03.2022
4886 Clouds 4 1004 75 10000 5.14 220 16:31 10.03.2022
4887 Clouds 4 1004 70 10000 5.14 240 15:20 10.03.2022
4888 Rain 5 1003 52 10000 4.63 220 13:24 10.03.2022
4889 Clear 5 1004 48 10000 5.14 230 11:58 10.03.2022
4890 Clear 5 1005 45 10000 1.03 0 11:20 10.03.2022
4891 Clear 4 1006 52 10000 4.12 250 09:22 10.03.2022
4892 Clear 5 1007 45 10000 1.54 0 07:41 10.03.2022
4893 Clouds 3 1009 52 10000 3.6 260 04:44 10.03.2022
4894 Clouds 2 1011 60 10000 3.09 250 01:49 10.03.2022
4895 Clear 2 1012 55 10000 3.6 240 23:28 09.03.2022
4896 Clear 3 1012 48 10000 2.06 0 21:51 09.03.2022
4897 Clear 3 1013 48 10000 3.09 230 21:32 09.03.2022
4898 Clear 2 1013 51 10000 3.09 280 19:50 09.03.2022
4899 Clear 1 1014 60 10000 5.66 260 18:34 09.03.2022
4900 Clear 1 1014 64 10000 4.63 270 17:27 09.03.2022
4901 Clear 0 1015 69 10000 2.57 260 16:31 09.03.2022
4902 Clear 1 1015 60 10000 4.12 260 15:19 09.03.2022
4903 Clear 1 1016 60 10000 1.54 0 13:53 09.03.2022
4904 Clear 0 1016 69 10000 4.12 250 12:47 09.03.2022
4905 Clear 0 1016 69 10000 2.06 250 11:54 09.03.2022
4906 Clear 0 1016 69 10000 2.06 250 11:35 09.03.2022
4907 Clouds 1 1017 60 10000 3.6 270 10:26 09.03.2022
4908 Clouds 0 1017 64 10000 5.14 220 08:54 09.03.2022
4909 Clear 0 1017 64 10000 4.12 230 07:38 09.03.2022
4910 Clouds -1 1018 80 10000 1.03 0 02:57 09.03.2022
4911 Clouds 0 1018 86 10000 1.03 0 00:42 09.03.2022
4912 Clouds 1 1018 86 10000 3.6 250 22:47 08.03.2022
4913 Clouds 2 1018 87 10000 4.63 250 22:26 08.03.2022
4914 Clouds 2 1017 87 10000 5.66 240 21:23 08.03.2022
4915 Rain 2 1017 87 10000 6.69 240 20:35 08.03.2022
4916 Clouds 0 1016 100 10000 0.51 0 19:35 08.03.2022
4917 Clouds 0 1016 100 4000 3.6 230 18:44 08.03.2022
4918 Clouds 0 1015 100 10000 6.69 240 17:30 08.03.2022
4919 Snow 2 1015 80 10000 7.72 240 15:45 08.03.2022
4920 Snow 1 1014 93 10000 5.14 220 14:19 08.03.2022
4921 Snow 1 1013 100 10000 6.69 220 12:43 08.03.2022
4922 Drizzle 0 1013 100 10000 6.17 230 11:45 08.03.2022
4923 Snow 0 1012 100 9000 6.69 230 10:45 08.03.2022
4924 Snow 0 1012 100 9000 3.6 230 09:51 08.03.2022
4925 Snow 0 1011 100 10000 5.66 230 06:59 08.03.2022
4926 Snow 0 1010 100 10000 6.69 230 04:52 08.03.2022
4927 Clouds 2 1009 60 10000 4.63 260 23:50 07.03.2022
4928 Clouds 0 1008 86 10000 0.51 0 21:57 07.03.2022
4929 Clouds 1 1008 75 3500 2.57 310 21:32 07.03.2022
4930 Snow 1 1008 64 10000 5.66 270 20:46 07.03.2022
4931 Clouds 2 1007 64 10000 5.14 270 19:55 07.03.2022
4932 Clouds 2 1007 64 10000 6.69 270 19:31 07.03.2022
4933 Clouds 1 1007 69 10000 5.66 260 18:42 07.03.2022
4934 Clouds 1 1006 69 10000 5.66 270 17:48 07.03.2022
4935 Clouds 0 1005 100 10000 7.72 230 16:55 07.03.2022
4936 Snow -3 1005 93 2500 5.66 210 15:35 07.03.2022
4937 Snow -4 1006 80 10000 7.72 200 13:24 07.03.2022
4938 Snow -4 1006 74 10000 7.72 190 12:23 07.03.2022
4939 Clouds -4 1008 80 10000 9.77 200 10:38 07.03.2022
4940 Clouds -4 1008 80 10000 9.77 200 10:38 07.03.2022
4941 Clouds -4 1009 74 10000 8.23 200 08:57 07.03.2022
4942 Clouds -4 1013 74 10000 4.63 190 03:49 07.03.2022
4943 Snow -3 1014 80 7000 3.09 190 00:22 07.03.2022
4944 Snow -3 1014 86 7000 2.06 200 23:35 06.03.2022
4945 Snow -3 1013 80 10000 4.63 140 22:40 06.03.2022
4946 Snow -3 1012 86 10000 5.66 130 21:47 06.03.2022
4947 Snow -3 1012 86 9000 5.66 130 20:38 06.03.2022
4948 Snow -2 1012 80 10000 4.63 130 20:20 06.03.2022
4949 Clouds -2 1011 86 10000 4.63 130 18:52 06.03.2022
4950 Clouds -2 1011 86 10000 3.6 130 18:23 06.03.2022
4951 Clouds -1 1010 93 10000 0 0 17:21 06.03.2022
4952 Clouds -1 1010 93 5000 1.54 120 16:41 06.03.2022
4953 Clouds -1 1009 100 3500 4.12 40 15:49 06.03.2022
4954 Clouds -1 1009 100 3500 4.12 40 15:49 06.03.2022
4955 Clouds 0 1009 100 1700 1.03 70 14:49 06.03.2022
4956 Clouds 0 1008 93 10000 1.03 70 14:30 06.03.2022
4957 Snow 1 1007 80 10000 3.09 240 13:18 06.03.2022
4958 Clouds 1 1006 75 10000 0.51 0 12:31 06.03.2022
4959 Clouds -2 1005 80 10000 1.54 0 10:53 06.03.2022
4960 Clouds -2 1005 86 10000 0.51 0 09:54 06.03.2022
4961 Clouds -2 1004 86 10000 1.54 40 08:29 06.03.2022
4962 Clouds -2 1004 86 10000 1.54 40 08:29 06.03.2022
4963 Clouds -2 1004 86 10000 1.54 40 08:29 06.03.2022
4964 Clouds -2 1004 86 10000 1.54 40 08:29 06.03.2022
4965 Clouds -3 1004 86 10000 0 0 07:34 06.03.2022
4966 Clouds -3 1003 93 10000 1.03 0 05:32 06.03.2022
4967 Clouds 0 1003 86 10000 3.09 250 00:49 06.03.2022
4968 Clouds 0 1003 93 10000 2.06 270 00:29 06.03.2022
4969 Clouds 0 1003 93 10000 2.06 260 23:21 05.03.2022
4970 Clouds 0 1003 93 10000 2.57 250 22:43 05.03.2022
4971 Clouds 0 1003 93 10000 2.06 250 21:46 05.03.2022
4972 Clouds 0 1003 100 10000 3.09 230 21:21 05.03.2022
4973 Snow 0 1004 100 7000 2.57 230 19:26 05.03.2022
4974 Snow 0 1004 93 10000 3.09 220 18:53 05.03.2022
4975 Snow 0 1004 93 9000 1.54 240 18:27 05.03.2022
4976 Clouds 0 1005 86 10000 3.09 270 16:34 05.03.2022
4977 Clouds 0 1005 86 10000 3.6 240 15:31 05.03.2022
4978 Clouds 0 1005 86 10000 2.57 260 14:47 05.03.2022
4979 Clouds 0 1006 86 10000 3.6 260 14:29 05.03.2022
4980 Clouds -1 1006 93 10000 3.09 240 13:21 05.03.2022
4981 Clouds -1 1007 93 10000 2.57 250 11:48 05.03.2022
4982 Clouds -2 1007 100 10000 2.57 240 11:19 05.03.2022
4983 Snow -2 1007 93 2500 0.51 0 10:18 05.03.2022
4984 Snow -3 1008 100 9000 0 0 08:59 05.03.2022
4985 Clouds -3 1008 93 3000 2.06 210 07:38 05.03.2022
4986 Clouds -3 1009 86 10000 2.06 210 05:43 05.03.2022
4987 Clouds -3 1010 68 10000 5.14 220 03:18 05.03.2022
4988 Clear -3 1014 68 10000 0.51 0 23:37 04.03.2022
4989 Clouds -3 1015 63 10000 3.09 180 22:42 04.03.2022
4990 Clouds -2 1016 59 10000 2.57 0 21:49 04.03.2022
4991 Clouds -1 1016 69 10000 2.06 200 20:54 04.03.2022
4992 Clouds -1 1017 69 10000 3.09 180 20:27 04.03.2022
4993 Clouds -1 1017 74 10000 3.09 190 19:36 04.03.2022
4994 Clouds -1 1017 74 10000 2.06 0 18:45 04.03.2022
4995 Clouds -1 1018 74 10000 4.12 240 17:39 04.03.2022
4996 Clouds -1 1018 74 10000 5.14 240 16:54 04.03.2022
4997 Clouds -1 1019 69 10000 5.66 240 15:29 04.03.2022
4998 Clouds -1 1019 69 10000 6.17 240 14:33 04.03.2022
4999 Clouds -1 1019 69 10000 5.14 260 13:26 04.03.2022
5000 Clouds -1 1019 69 10000 5.14 260 13:26 04.03.2022
5001 Clouds -1 1019 69 10000 3.6 280 11:46 04.03.2022
5002 Snow -1 1020 74 4000 5.14 280 10:52 04.03.2022
5003 Snow -2 1019 93 10000 4.12 280 09:52 04.03.2022
5004 Snow -1 1019 64 10000 5.14 280 08:39 04.03.2022
5005 Clouds -1 1019 69 10000 7.2 270 07:36 04.03.2022
5006 Snow -3 1019 100 10000 6.69 270 03:56 04.03.2022
5007 Snow -2 1019 74 10000 5.66 280 00:38 04.03.2022
5008 Snow -3 1019 74 10000 5.66 280 22:28 03.03.2022
5009 Snow -3 1019 80 10000 5.14 280 21:44 03.03.2022
5010 Clouds -3 1019 80 10000 2.57 0 21:26 03.03.2022
5011 Snow -3 1019 68 10000 7.2 280 19:55 03.03.2022
5012 Clouds -2 1018 64 7000 5.14 270 18:54 03.03.2022
5013 Clouds -3 1018 63 10000 6.17 270 18:24 03.03.2022
5014 Snow -3 1018 68 10000 5.66 310 17:31 03.03.2022
5015 Clouds -4 1018 86 500 4.63 0 16:25 03.03.2022
5016 Snow -3 1017 86 5000 2.57 320 15:24 03.03.2022
5017 Snow -4 1017 93 9000 4.12 270 14:43 03.03.2022
5018 Snow -2 1017 69 10000 4.63 320 14:20 03.03.2022
5019 Snow -2 1017 69 10000 4.63 320 14:20 03.03.2022
5020 Snow -2 1017 69 10000 4.63 320 14:20 03.03.2022
5021 Snow -2 1016 64 10000 5.14 0 12:23 03.03.2022
5022 Snow -2 1015 74 2000 4.63 0 10:48 03.03.2022
5023 Snow -2 1015 69 10000 3.6 0 09:41 03.03.2022
5024 Clouds -2 1014 69 10000 4.12 0 08:19 03.03.2022
5025 Clouds -3 1014 80 10000 2.57 0 06:37 03.03.2022
5026 Clouds -1 1013 69 10000 5.66 280 03:21 03.03.2022
5027 Snow 0 1009 80 9000 1.54 0 23:39 02.03.2022
5028 Snow 1 1008 80 9000 2.06 0 22:53 02.03.2022
5029 Snow 0 1007 100 1600 5.66 0 21:36 02.03.2022
5030 Snow 1 1005 93 6000 2.06 0 20:57 02.03.2022
5031 Snow 1 1005 86 8000 5.14 0 20:25 02.03.2022
5032 Snow 1 1004 93 7000 4.12 0 19:37 02.03.2022
5033 Snow 2 1002 87 10000 5.66 0 18:57 02.03.2022
5034 Snow 2 1001 93 9000 4.12 0 18:26 02.03.2022
5035 Snow 1 1000 100 7000 6.69 260 17:37 02.03.2022
5036 Snow 2 999 80 8000 8.23 270 16:51 02.03.2022
5037 Clouds 1 998 80 9000 9.26 280 15:20 02.03.2022
5038 Rain 3 996 87 10000 4.63 0 13:35 02.03.2022
5039 Clouds 2 994 100 10000 5.66 240 12:45 02.03.2022
5040 Rain 2 993 100 10000 6.69 240 12:21 02.03.2022
5041 Rain 2 992 93 10000 7.2 230 11:26 02.03.2022
5042 Snow 2 991 87 10000 6.69 230 10:31 02.03.2022
5043 Drizzle 2 990 80 10000 5.66 220 09:35 02.03.2022
5044 Rain 2 989 75 10000 5.14 210 08:28 02.03.2022
5045 Rain 2 989 75 10000 5.14 220 07:23 02.03.2022
5046 Rain 2 989 64 10000 5.66 210 04:46 02.03.2022
5047 Clear 2 991 75 10000 5.66 220 00:40 02.03.2022
5048 Clear 2 991 75 10000 5.66 220 00:40 02.03.2022
5049 Clouds 3 992 75 10000 5.66 220 23:24 01.03.2022
5050 Clouds 3 992 75 10000 5.14 220 22:37 01.03.2022
5051 Clouds 3 993 75 10000 5.14 220 21:44 01.03.2022
5052 Rain 2 993 80 10000 6.69 230 20:40 01.03.2022
5053 Clouds 2 993 80 10000 6.17 230 20:19 01.03.2022
5054 Clouds 2 994 87 10000 5.14 220 18:53 01.03.2022
5055 Clouds 2 994 93 10000 4.63 220 18:24 01.03.2022
5056 Clouds 1 994 100 10000 4.63 230 17:42 01.03.2022
5057 Clouds 2 995 93 10000 2.57 240 16:37 01.03.2022
5058 Snow 1 996 100 10000 5.14 230 15:47 01.03.2022
5059 Snow 0 997 100 4500 3.09 230 14:54 01.03.2022
5060 Snow 0 997 100 4000 3.09 230 14:31 01.03.2022
5061 Snow 0 998 100 4500 3.09 250 13:26 01.03.2022
5062 Snow 0 999 100 3000 3.6 230 12:37 01.03.2022
5063 Snow 1 1000 80 3500 4.12 220 11:38 01.03.2022
5064 Clouds 1 1001 69 10000 4.12 230 09:53 01.03.2022
5065 Clear 1 1002 69 10000 2.06 290 08:30 01.03.2022
5066 Clear 1 1002 75 10000 1.54 0 07:19 01.03.2022
5067 Clouds 1 1007 69 10000 1.54 240 03:27 01.03.2022
5068 Clouds 0 1009 69 10000 2.06 20 00:49 01.03.2022
5069 Clouds 1 1010 75 10000 1.03 0 23:47 28.02.2022
5070 Clouds 2 1011 69 10000 3.6 140 22:43 28.02.2022
5071 Clouds 1 1012 86 10000 0 0 21:48 28.02.2022
5072 Clouds -1 1012 100 10000 1.03 0 20:55 28.02.2022
5073 Clouds 0 1013 100 10000 1.03 0 19:51 28.02.2022
5074 Clouds -1 1013 100 2200 0.51 0 18:57 28.02.2022
5075 Snow -1 1014 100 9000 2.57 30 17:57 28.02.2022
5076 Snow -1 1014 100 10000 3.09 30 17:23 28.02.2022
5077 Clouds -1 1014 100 1600 3.6 50 16:32 28.02.2022
5078 Snow 0 1014 100 10000 0 0 15:19 28.02.2022
5079 Clouds 0 1014 100 9000 3.09 200 14:29 28.02.2022
5080 Snow 0 1013 100 10000 2.57 220 13:24 28.02.2022
5081 Snow 0 1013 100 10000 2.06 240 12:31 28.02.2022
5082 Snow 0 1012 100 10000 2.06 250 11:21 28.02.2022
5083 Snow 0 1011 86 3500 1.54 0 10:24 28.02.2022
5084 Snow -1 1011 100 10000 1.54 40 09:53 28.02.2022
5085 Snow -1 1010 93 8000 3.6 20 09:27 28.02.2022
5086 Snow 0 1009 93 10000 6.17 360 08:26 28.02.2022
5087 Clouds 1 1006 100 5000 5.66 350 06:53 28.02.2022
5088 Snow 1 1002 100 2000 7.2 260 04:31 28.02.2022
5089 Snow 1 1000 100 4700 7.2 280 02:41 28.02.2022
5090 Rain 3 989 87 6000 19.55 260 23:19 27.02.2022
5091 Rain 3 985 81 7000 25.72 240 22:33 27.02.2022
5092 Drizzle 2 986 87 10000 21.61 230 21:46 27.02.2022
5093 Clouds 4 988 70 10000 20.06 240 20:54 27.02.2022
5094 Rain 6 989 56 10000 19.55 240 20:25 27.02.2022
5095 Rain 6 989 61 10000 17.49 240 19:56 27.02.2022
5096 Drizzle 7 990 57 10000 19.03 240 19:26 27.02.2022
5097 Drizzle 5 991 70 10000 5.66 220 18:39 27.02.2022
5098 Drizzle 6 992 65 10000 4.12 220 17:54 27.02.2022
5099 Rain 5 994 75 10000 6.69 230 16:37 27.02.2022
5100 Clouds 4 996 81 10000 6.17 230 15:55 27.02.2022
5101 Rain 3 999 87 10000 7.2 250 12:53 27.02.2022
5102 Rain 4 999 81 10000 6.69 240 12:29 27.02.2022
5103 Rain 4 999 75 10000 13.89 240 10:54 27.02.2022
5104 Rain 5 999 70 10000 8.75 240 09:58 27.02.2022
5105 Rain 5 999 70 10000 8.75 240 09:37 27.02.2022
5106 Clouds 5 998 75 10000 14.4 240 09:18 27.02.2022
5107 Clouds 6 997 75 10000 18.52 240 07:34 27.02.2022
5108 Clouds 4 996 87 10000 10.29 230 05:38 27.02.2022
5109 Snow -3 999 86 10000 4.63 210 00:53 27.02.2022
5110 Snow -5 1000 93 10000 4.12 0 22:58 26.02.2022
5111 Snow -5 1002 86 10000 4.12 0 21:44 26.02.2022
5112 Snow -4 1003 68 10000 6.17 200 20:52 26.02.2022
5113 Clouds -4 1004 68 10000 3.6 0 20:19 26.02.2022
5114 Snow -4 1005 68 10000 5.66 200 19:46 26.02.2022
5115 Clouds -4 1007 63 10000 4.63 190 19:22 26.02.2022
5116 Clouds -3 1009 63 10000 3.09 190 17:46 26.02.2022
5117 Clouds -4 1010 68 10000 4.12 200 16:52 26.02.2022
5118 Clouds -5 1011 93 10000 2.57 220 15:57 26.02.2022
5119 Snow -4 1012 93 10000 3.6 220 15:23 26.02.2022
5120 Snow -4 1012 100 10000 4.12 230 14:54 26.02.2022
5121 Snow -4 1012 100 10000 4.12 230 14:36 26.02.2022
5122 Snow -4 1012 93 10000 7.72 230 13:24 26.02.2022
5123 Snow -4 1012 93 7000 7.72 230 12:31 26.02.2022
5124 Snow -4 1011 93 10000 9.26 230 11:29 26.02.2022
5125 Snow -4 1011 93 7000 8.23 230 10:51 26.02.2022
5126 Snow -5 1011 86 10000 4.63 210 09:18 26.02.2022
5127 Snow -6 1010 100 4500 5.14 210 07:57 26.02.2022
5128 Clouds -6 1008 68 10000 4.12 240 02:53 26.02.2022
5129 Clouds -7 1006 73 10000 3.09 320 23:31 25.02.2022
5130 Clouds -6 1004 79 10000 4.12 310 21:49 25.02.2022
5131 Clouds -6 1003 73 10000 5.14 10 21:29 25.02.2022
5132 Clouds -6 1002 79 10000 4.63 10 20:33 25.02.2022
5133 Snow -6 1001 86 10000 5.14 20 19:41 25.02.2022
5134 Snow -5 999 68 10000 6.17 10 17:35 25.02.2022
5135 Snow -5 997 74 10000 6.69 10 16:45 25.02.2022
5136 Snow -5 995 80 5000 7.72 10 15:49 25.02.2022
5137 Snow -5 994 86 2500 8.23 10 15:23 25.02.2022
5138 Snow -4 993 80 5000 11.32 10 14:49 25.02.2022
5139 Snow -4 993 86 4000 11.32 10 14:18 25.02.2022
5140 Snow -3 990 80 7000 7.72 20 13:20 25.02.2022
5141 Snow -3 990 80 7000 7.72 20 13:20 25.02.2022
5142 Snow -2 988 69 10000 9.26 20 11:39 25.02.2022
5143 Snow -3 987 86 8000 8.75 30 11:18 25.02.2022
5144 Snow -3 985 86 2000 8.23 30 10:23 25.02.2022
5145 Snow -2 984 80 4000 6.69 30 09:36 25.02.2022
5146 Clouds -2 981 80 10000 6.17 30 07:48 25.02.2022
5147 Snow -2 980 80 8000 9.77 30 06:51 25.02.2022
5148 Snow -2 979 93 4100 9.26 40 05:38 25.02.2022
5149 Clouds -2 975 64 10000 2.57 10 00:46 25.02.2022
5150 Clouds -3 973 74 10000 0 0 22:31 24.02.2022
5151 Clouds -2 973 69 10000 1.54 0 21:43 24.02.2022
5152 Clouds -3 972 74 10000 2.06 290 21:21 24.02.2022
5153 Clouds -3 972 80 10000 2.57 290 20:44 24.02.2022
5154 Clouds -3 971 80 10000 3.6 240 19:31 24.02.2022
5155 Clouds -3 971 74 10000 3.09 240 18:20 24.02.2022
5156 Clouds -3 970 74 10000 3.6 240 17:52 24.02.2022
5157 Clouds -3 970 80 10000 2.57 260 17:19 24.02.2022
5158 Clouds -3 970 80 10000 6.17 250 16:28 24.02.2022
5159 Clouds -3 970 80 10000 6.17 250 15:42 24.02.2022
5160 Clouds -4 970 80 10000 5.14 220 14:45 24.02.2022
5161 Clouds -4 970 80 10000 5.14 220 13:59 24.02.2022
5162 Clouds -4 970 80 10000 5.14 220 13:37 24.02.2022
5163 Snow -6 972 86 6000 3.6 210 11:38 24.02.2022
5164 Snow -6 972 73 10000 3.09 210 10:31 24.02.2022
5165 Snow -6 973 68 10000 7.2 200 08:43 24.02.2022
5166 Snow -6 973 68 10000 7.2 200 08:43 24.02.2022
5167 Clouds -7 975 73 10000 2.06 0 07:22 24.02.2022
5168 Clouds -9 977 73 10000 4.12 140 05:40 24.02.2022
5169 Clear -10 985 67 10000 1.54 220 00:31 24.02.2022
5170 Clouds -10 985 67 10000 0.51 0 22:22 23.02.2022
5171 Clouds -10 987 73 10000 3.6 180 20:45 23.02.2022
5172 Clouds -10 987 73 10000 5.66 200 20:26 23.02.2022
5173 Clouds -10 988 73 10000 5.66 190 19:35 23.02.2022
5174 Clouds -9 988 73 10000 7.72 200 18:26 23.02.2022
5175 Clouds -8 990 67 10000 3.6 190 16:33 23.02.2022
5176 Clouds -8 994 67 10000 4.63 180 14:22 23.02.2022
5177 Clear -6 995 63 10000 5.66 200 12:37 23.02.2022
5178 Clear -6 995 68 10000 3.6 210 11:23 23.02.2022
5179 Clear -5 996 58 10000 3.09 200 10:23 23.02.2022
5180 Clear -6 996 68 10000 2.57 260 08:55 23.02.2022
5181 Clear -7 997 73 10000 3.09 270 07:56 23.02.2022
5182 Clear -10 999 92 10000 1.03 0 03:29 23.02.2022
5183 Clear -10 999 92 10000 0.51 0 00:18 23.02.2022
5184 Clear -10 999 100 10000 0 0 23:34 22.02.2022
5185 Clear -11 999 92 10000 0 0 22:28 22.02.2022
5186 Clouds -9 999 92 10000 0 0 21:48 22.02.2022
5187 Clouds -9 999 92 10000 0 0 21:24 22.02.2022
5188 Clouds -7 999 93 10000 1.54 0 20:47 22.02.2022
5189 Clouds -6 999 93 10000 1.54 240 20:28 22.02.2022
5190 Clouds -6 999 93 10000 2.06 260 19:34 22.02.2022
5191 Clouds -5 999 100 5000 1.54 0 18:50 22.02.2022
5192 Clouds -4 999 93 8000 2.57 200 17:36 22.02.2022
5193 Clouds -5 999 100 8000 3.6 230 16:58 22.02.2022
5194 Clouds -4 999 93 900 3.09 240 16:26 22.02.2022
5195 Snow -4 999 93 2500 3.09 250 15:37 22.02.2022
5196 Clouds -5 999 100 10000 1.54 210 14:42 22.02.2022
5197 Snow -5 999 93 350 2.06 220 11:41 22.02.2022
5198 Snow -6 999 86 1000 1.54 230 10:24 22.02.2022
5199 Snow -9 999 86 10000 0 0 07:43 22.02.2022
5200 Clear -10 999 85 10000 0 0 07:25 22.02.2022
5201 Clear -10 999 85 10000 0 0 07:25 22.02.2022
5202 Clear -9 998 79 10000 0.51 0 02:51 22.02.2022
5203 Clear -8 998 73 10000 0 0 00:48 22.02.2022
5204 Clear -9 998 73 10000 1.03 0 22:38 21.02.2022
5205 Clear -9 997 73 10000 1.03 0 21:25 21.02.2022
5206 Clear -8 997 73 10000 1.54 30 20:29 21.02.2022
5207 Clear -8 996 73 10000 2.57 40 18:41 21.02.2022
5208 Clear -8 995 73 10000 2.57 20 16:48 21.02.2022
5209 Clear -7 995 68 10000 1.54 40 14:24 21.02.2022
5210 Clear -7 995 68 10000 1.54 0 13:59 21.02.2022
5211 Clear -5 994 63 10000 0.51 0 12:59 21.02.2022
5212 Clear -9 994 73 10000 1.03 0 12:22 21.02.2022
5213 Clear -8 993 67 10000 1.03 0 10:45 21.02.2022
5214 Clear -8 992 73 10000 1.03 0 08:44 21.02.2022
5215 Clear -8 991 73 10000 1.03 0 02:31 21.02.2022
5216 Clear -7 991 73 10000 1.03 0 23:29 20.02.2022
5217 Clear -7 991 73 10000 3.6 130 22:19 20.02.2022
5218 Clear -7 991 73 10000 3.09 130 21:41 20.02.2022
5219 Clear -7 991 73 10000 1.03 0 20:52 20.02.2022
5220 Clear -8 991 79 10000 1.54 0 20:22 20.02.2022
5221 Clear -9 991 73 10000 1.54 60 19:29 20.02.2022
5222 Clear -8 991 73 10000 1.54 0 18:49 20.02.2022
5223 Clear -8 991 79 10000 1.54 40 18:30 20.02.2022
5224 Clear -9 991 79 10000 1.03 0 17:34 20.02.2022
5225 Clear -8 991 79 10000 1.03 0 15:30 20.02.2022
5226 Clear -7 991 79 10000 1.03 60 14:39 20.02.2022
5227 Clear -7 991 73 10000 1.03 0 13:23 20.02.2022
5228 Clouds -8 990 79 10000 0.51 0 12:20 20.02.2022
5229 Clouds -8 990 86 10000 1.03 0 10:21 20.02.2022
5230 Clouds -9 990 86 10000 1.03 0 09:53 20.02.2022
5231 Clouds -9 989 79 10000 1.54 0 06:46 20.02.2022
5232 Clouds -5 989 74 10000 2.57 40 00:54 20.02.2022
5233 Clouds -6 989 79 10000 2.57 40 00:29 20.02.2022
5234 Clouds -5 988 93 8000 3.09 60 22:25 19.02.2022
5235 Clouds -5 988 80 10000 2.06 30 21:57 19.02.2022
5236 Clouds -6 988 86 10000 4.12 40 20:48 19.02.2022
5237 Clouds -5 988 93 10000 4.63 60 19:42 19.02.2022
5238 Snow -5 987 93 10000 3.6 30 19:20 19.02.2022
5239 Clouds -4 987 86 10000 4.63 60 18:29 19.02.2022
5240 Snow -5 987 86 10000 4.63 30 17:33 19.02.2022
5241 Clouds -4 987 80 10000 5.66 50 16:22 19.02.2022
5242 Snow -5 986 80 10000 6.17 60 14:56 19.02.2022
5243 Clouds -5 986 80 10000 6.17 60 14:37 19.02.2022
5244 Clouds -4 985 86 10000 7.2 70 11:59 19.02.2022
5245 Snow -4 985 86 10000 7.2 70 11:36 19.02.2022
5246 Snow -4 984 74 10000 5.14 70 09:36 19.02.2022
5247 Clouds -4 984 86 10000 6.69 80 06:53 19.02.2022
5248 Clouds -4 984 93 10000 7.2 70 02:38 19.02.2022
5249 Clouds -3 984 74 10000 9.77 70 23:28 18.02.2022
5250 Clouds -3 984 74 10000 11.83 70 21:49 18.02.2022
5251 Clouds -3 985 80 5000 12.35 70 20:39 18.02.2022
5252 Clouds -3 984 74 10000 12.35 70 19:51 18.02.2022
5253 Clouds -3 985 80 10000 11.32 70 18:50 18.02.2022
5254 Clouds -3 985 80 10000 9.26 70 18:20 18.02.2022
5255 Clouds -3 985 80 10000 9.77 70 17:25 18.02.2022
5256 Clouds -2 985 80 10000 6.69 70 14:48 18.02.2022
5257 Snow -2 985 74 10000 8.75 50 13:54 18.02.2022
5258 Clouds -3 986 74 10000 8.75 60 12:51 18.02.2022
5259 Clouds -2 986 69 10000 10.29 70 11:58 18.02.2022
5260 Clouds -2 986 69 10000 10.29 70 11:58 18.02.2022
5261 Clouds -2 986 69 10000 9.77 70 11:21 18.02.2022
5262 Clouds -2 986 80 2500 8.75 70 09:33 18.02.2022
5263 Clouds -2 986 86 10000 11.83 70 06:54 18.02.2022
5264 Clouds -2 987 86 10000 11.32 70 05:39 18.02.2022
5265 Clouds -3 988 74 10000 4.63 70 22:57 17.02.2022
5266 Clouds -4 988 80 10000 3.09 70 21:44 17.02.2022
5267 Clouds -4 988 74 10000 3.6 80 20:59 17.02.2022
5268 Clouds -4 989 80 10000 4.12 90 20:34 17.02.2022
5269 Clouds -5 989 86 10000 4.63 60 19:48 17.02.2022
5270 Clouds -5 989 86 10000 4.63 60 19:48 17.02.2022
5271 Clouds -5 989 80 10000 6.17 70 18:41 17.02.2022
5272 Clouds -6 989 79 10000 5.14 70 17:50 17.02.2022
5273 Clouds -5 989 74 10000 6.17 80 16:20 17.02.2022
5274 Clouds -6 989 73 10000 5.66 60 15:30 17.02.2022
5275 Clouds -4 990 58 10000 3.09 80 14:25 17.02.2022
5276 Clouds -4 990 68 10000 2.06 0 12:35 17.02.2022
5277 Clouds -5 990 80 10000 6.69 70 11:21 17.02.2022
5278 Clouds -5 991 74 10000 5.14 80 08:45 17.02.2022
5279 Clouds -7 994 86 10000 3.6 70 00:31 17.02.2022
5280 Clouds -8 995 86 10000 3.6 40 22:59 16.02.2022
5281 Clouds -8 996 79 10000 2.06 0 21:31 16.02.2022
5282 Clouds -7 996 93 10000 1.54 0 19:46 16.02.2022
5283 Clouds -9 997 92 10000 1.54 70 18:38 16.02.2022
5284 Clouds -7 997 100 10000 1.54 40 17:49 16.02.2022
5285 Clouds -7 998 100 10000 1.03 0 15:38 16.02.2022
5286 Clouds -7 998 86 10000 1.03 0 14:59 16.02.2022
5287 Clouds -5 1000 93 10000 0 0 12:35 16.02.2022
5288 Clouds -4 1000 86 10000 1.03 0 11:58 16.02.2022
5289 Clouds -5 1000 93 10000 1.54 0 11:24 16.02.2022
5290 Clouds -5 1000 86 10000 1.03 0 10:33 16.02.2022
5291 Clouds -3 1001 93 9000 5.14 10 07:21 16.02.2022
5292 Clouds -5 1001 80 10000 7.72 60 05:20 16.02.2022
5293 Snow -1 1003 86 6000 5.14 40 23:45 15.02.2022
5294 Snow -2 1003 100 10000 3.6 30 22:29 15.02.2022
5295 Snow -2 1003 93 2000 2.06 50 21:47 15.02.2022
5296 Snow -2 1003 93 1000 4.63 70 21:27 15.02.2022
5297 Snow -2 1005 87 562 3.26 4 20:56 15.02.2022
5298 Clouds -2 1003 93 10000 4.12 10 19:57 15.02.2022
5299 Snow -1 1003 86 10000 2.57 0 18:56 15.02.2022
5300 Snow -1 1003 86 10000 3.09 340 18:21 15.02.2022
5301 Clouds -2 1004 93 8000 3.6 280 17:50 15.02.2022
5302 Snow -2 1004 86 10000 2.06 0 16:50 15.02.2022
5303 Snow -2 1004 74 10000 6.69 330 15:28 15.02.2022
5304 Snow -2 1003 64 10000 6.69 350 13:27 15.02.2022
5305 Clouds -2 1003 59 10000 3.6 350 12:37 15.02.2022
5306 Clouds -2 1003 54 10000 3.6 350 11:27 15.02.2022
5307 Clouds -2 1002 50 10000 5.66 350 09:31 15.02.2022
5308 Clouds -2 1001 54 10000 7.2 350 06:58 15.02.2022
5309 Clouds -2 1000 69 10000 2.57 0 04:54 15.02.2022
5310 Clouds -3 998 68 10000 8.75 350 23:33 14.02.2022
5311 Snow -3 997 80 1500 10.29 360 21:47 14.02.2022
5312 Clouds -3 996 80 10000 6.69 350 20:40 14.02.2022
5313 Clouds -1 995 51 10000 9.77 330 19:36 14.02.2022
5314 Clouds -1 995 55 10000 5.66 0 18:44 14.02.2022
5315 Clouds -1 994 64 10000 9.26 350 18:23 14.02.2022
5316 Clouds -1 993 64 10000 9.26 350 17:26 14.02.2022
5317 Snow 0 992 74 10000 11.83 350 16:25 14.02.2022
5318 Clouds -1 990 80 10000 9.77 350 14:31 14.02.2022
5319 Clouds 0 989 74 10000 8.23 360 13:33 14.02.2022
5320 Clouds 0 989 74 10000 8.23 360 13:33 14.02.2022
5321 Clouds -1 988 86 8000 8.23 10 12:52 14.02.2022
5322 Snow -1 987 74 9000 11.32 360 11:55 14.02.2022
5323 Clouds -2 987 86 4500 13.38 360 10:58 14.02.2022
5324 Snow -2 985 86 9000 9.77 350 08:46 14.02.2022
5325 Snow -2 984 93 4500 11.83 350 07:33 14.02.2022
5326 Snow -2 983 86 1000 9.77 350 06:32 14.02.2022
5327 Snow -8 983 73 10000 2.57 140 22:43 13.02.2022
5328 Snow -8 984 73 10000 3.6 120 22:25 13.02.2022
5329 Clouds -7 984 73 10000 4.12 120 21:36 13.02.2022
5330 Clouds -7 984 73 10000 4.12 100 20:42 13.02.2022
5331 Clouds -6 984 79 7000 5.66 190 19:51 13.02.2022
5332 Clouds -6 985 79 10000 5.14 200 18:56 13.02.2022
5333 Clouds -6 985 79 10000 5.14 200 18:38 13.02.2022
5334 Clouds -7 986 73 10000 7.72 200 16:39 13.02.2022
5335 Clouds -7 987 73 10000 6.17 180 15:42 13.02.2022
5336 Clouds -7 987 73 10000 4.63 180 14:37 13.02.2022
5337 Clear -8 990 73 10000 1.54 0 12:52 13.02.2022
5338 Clouds -7 990 68 10000 5.14 200 12:33 13.02.2022
5339 Clouds -7 991 68 10000 5.14 190 10:38 13.02.2022
5340 Clouds -6 992 58 10000 3.09 0 09:49 13.02.2022
5341 Clouds -5 992 50 10000 2.57 0 08:33 13.02.2022
5342 Clouds -1 996 59 10000 6.17 240 01:24 13.02.2022
5343 Clouds -2 996 80 10000 7.2 240 00:21 13.02.2022
5344 Snow -2 996 86 10000 8.75 230 22:34 12.02.2022
5345 Clouds -3 995 86 10000 3.6 250 21:41 12.02.2022
5346 Snow -2 995 86 10000 7.2 240 20:55 12.02.2022
5347 Snow -3 995 93 1300 6.69 260 19:56 12.02.2022
5348 Clouds -3 995 100 3900 9.26 230 18:54 12.02.2022
5349 Clouds -3 995 100 10000 8.75 230 18:36 12.02.2022
5350 Snow -3 995 100 10000 8.75 230 17:39 12.02.2022
5351 Snow -4 995 100 3500 9.77 240 16:45 12.02.2022
5352 Clouds -3 995 100 1500 10.8 230 15:53 12.02.2022
5353 Snow -3 995 100 10000 9.26 230 15:20 12.02.2022
5354 Clouds -3 995 86 3000 4.63 250 14:25 12.02.2022
5355 Clouds -3 994 74 10000 7.72 240 11:33 12.02.2022
5356 Clouds -4 994 86 10000 2.57 220 10:32 12.02.2022
5357 Snow -3 993 74 10000 6.17 240 09:37 12.02.2022
5358 Clouds -4 993 100 10000 3.09 250 08:47 12.02.2022
5359 Snow -3 993 80 10000 5.14 240 07:45 12.02.2022
5360 Clouds -3 993 80 10000 4.12 240 04:50 12.02.2022
5361 Clouds -4 993 100 2400 9.26 240 02:19 12.02.2022
5362 Clouds -3 993 100 1500 7.2 240 23:34 11.02.2022
5363 Snow -3 993 86 10000 3.09 270 22:23 11.02.2022
5364 Clouds -2 992 80 10000 5.66 240 21:37 11.02.2022
5365 Clouds -1 992 59 10000 4.12 280 20:29 11.02.2022
5366 Clouds -1 992 55 10000 4.63 280 19:29 11.02.2022
5367 Snow -1 992 59 10000 5.14 280 18:44 11.02.2022
5368 Clouds -2 992 64 10000 5.14 280 17:27 11.02.2022
5369 Clouds -1 991 64 10000 6.17 280 16:47 11.02.2022
5370 Clouds -1 991 59 10000 6.17 280 15:26 11.02.2022
5371 Clouds -1 991 59 10000 4.63 280 14:38 11.02.2022
5372 Clouds 0 990 55 10000 1.54 0 14:20 11.02.2022
5373 Snow 0 990 59 10000 3.6 0 13:47 11.02.2022
5374 Clouds 0 990 64 10000 2.06 0 13:28 11.02.2022
5375 Snow 0 988 80 10000 4.12 0 11:23 11.02.2022
5376 Snow 1 986 64 10000 6.17 280 09:38 11.02.2022
5377 Clouds 0 985 80 10000 4.12 0 08:36 11.02.2022
5378 Snow 0 984 86 5000 4.12 0 07:47 11.02.2022
5379 Snow 1 981 86 5000 7.2 340 06:30 11.02.2022
5380 Clouds 1 980 75 10000 12.35 240 02:24 11.02.2022
5381 Clouds -2 980 93 4000 5.14 220 00:44 11.02.2022
5382 Clouds -3 979 74 10000 1.54 280 22:39 10.02.2022
5383 Clouds -4 979 74 10000 3.6 240 21:43 10.02.2022
5384 Clear -4 978 80 10000 4.12 250 20:52 10.02.2022
5385 Clear -6 978 73 10000 1.03 0 20:24 10.02.2022
5386 Clear -5 978 74 10000 1.54 0 19:24 10.02.2022
5387 Clear -7 977 79 10000 0.51 0 18:33 10.02.2022
5388 Clear -5 977 68 10000 0 0 17:25 10.02.2022
5389 Clear -5 976 74 10000 1.03 0 16:47 10.02.2022
5390 Clear -4 976 74 10000 2.06 250 15:42 10.02.2022
5391 Clear -5 976 74 10000 2.06 250 15:24 10.02.2022
5392 Clear -6 975 73 10000 1.03 0 14:44 10.02.2022
5393 Clear -4 975 68 10000 2.06 250 14:22 10.02.2022
5394 Clear -4 975 68 10000 3.09 240 13:20 10.02.2022
5395 Clear -5 975 63 10000 1.03 0 11:58 10.02.2022
5396 Clear -5 975 63 10000 1.03 0 11:32 10.02.2022
5397 Clear -8 974 73 10000 0.51 0 10:32 10.02.2022
5398 Clear -9 974 79 10000 1.54 0 09:49 10.02.2022
5399 Clear -9 974 73 10000 0 0 08:53 10.02.2022
5400 Clear -8 974 73 10000 1.54 230 06:42 10.02.2022
5401 Clouds -6 975 73 10000 4.63 210 03:39 10.02.2022
5402 Clear -5 975 68 10000 4.63 230 01:19 10.02.2022
5403 Clear -5 975 68 10000 4.12 210 00:42 10.02.2022
5404 Clear -5 976 68 10000 4.12 210 00:23 10.02.2022
5405 Clear -5 976 68 10000 5.14 240 22:58 09.02.2022
5406 Clear -4 976 58 10000 3.6 310 22:33 09.02.2022
5407 Clear -5 976 68 10000 4.12 240 21:49 09.02.2022
5408 Clear -5 976 68 10000 6.17 230 21:28 09.02.2022
5409 Clear -5 976 68 10000 5.66 230 20:45 09.02.2022
5410 Clear -5 976 68 10000 5.66 230 20:23 09.02.2022
5411 Clear -5 977 68 10000 4.63 230 19:43 09.02.2022
5412 Clear -5 976 68 10000 6.17 210 18:55 09.02.2022
5413 Clear -5 977 68 10000 4.12 230 17:24 09.02.2022
5414 Clear -5 977 68 10000 5.14 210 16:25 09.02.2022
5415 Clear -4 977 68 10000 3.09 210 15:32 09.02.2022
5416 Clear -3 978 68 10000 3.09 220 13:56 09.02.2022
5417 Clear -3 978 68 10000 2.06 260 12:25 09.02.2022
5418 Clouds -3 979 74 10000 5.14 230 10:37 09.02.2022
5419 Clouds -3 979 68 10000 2.06 0 09:57 09.02.2022
5420 Clouds -4 979 74 10000 2.57 220 09:22 09.02.2022
5421 Clouds -4 979 74 10000 1.03 0 08:51 09.02.2022
5422 Clouds -3 979 68 10000 5.66 220 07:28 09.02.2022
5423 Clear -3 979 68 10000 4.12 240 05:29 09.02.2022
5424 Clouds -3 980 68 10000 3.09 250 03:49 09.02.2022
5425 Clouds -2 981 74 10000 4.12 210 23:57 08.02.2022
5426 Clouds -2 982 74 10000 6.17 190 23:29 08.02.2022
5427 Clouds -3 982 74 10000 4.12 190 22:43 08.02.2022
5428 Clouds -3 982 74 10000 6.69 200 22:20 08.02.2022
5429 Clouds -3 982 74 10000 5.14 190 21:38 08.02.2022
5430 Clouds -3 982 80 10000 6.69 190 21:19 08.02.2022
5431 Clouds -2 982 74 10000 7.72 190 20:41 08.02.2022
5432 Clouds -2 983 74 10000 7.2 200 19:31 08.02.2022
5433 Clouds -2 983 74 10000 10.29 200 18:24 08.02.2022
5434 Clouds -2 983 74 10000 9.77 200 17:33 08.02.2022
5435 Clouds -2 984 69 10000 10.8 210 15:52 08.02.2022
5436 Clouds -2 984 69 10000 10.29 200 15:28 08.02.2022
5437 Clouds -3 985 74 10000 8.75 200 13:54 08.02.2022
5438 Clear -3 985 74 10000 10.8 200 12:39 08.02.2022
5439 Clear -2 986 69 10000 8.75 190 10:55 08.02.2022
5440 Clear -2 987 74 10000 5.66 210 09:51 08.02.2022
5441 Clear -2 988 69 10000 5.14 210 08:54 08.02.2022
5442 Clouds -2 989 64 10000 0 0 07:27 08.02.2022
5443 Clouds -2 990 74 10000 4.12 210 04:40 08.02.2022
5444 Clouds -1 990 69 10000 3.09 240 04:22 08.02.2022
5445 Clouds -1 990 74 10000 3.09 220 03:36 08.02.2022
5446 Clouds -1 990 74 10000 2.06 220 03:18 08.02.2022
5447 Clouds -1 990 80 10000 4.12 220 02:59 08.02.2022
5448 Clouds -1 990 80 10000 4.12 220 02:37 08.02.2022
5449 Clouds 0 991 74 10000 5.14 220 02:18 08.02.2022
5450 Clouds 0 991 74 10000 4.63 220 01:45 08.02.2022
5451 Clouds -1 991 86 10000 5.66 220 01:25 08.02.2022
5452 Clouds 0 991 80 10000 5.66 220 00:55 08.02.2022
5453 Clouds 0 991 80 10000 5.66 220 00:36 08.02.2022
5454 Clouds -1 991 86 10000 4.63 220 23:45 07.02.2022
5455 Clouds -1 991 86 10000 5.66 230 23:18 07.02.2022
5456 Clouds -1 991 80 10000 3.09 240 22:59 07.02.2022
5457 Clouds -1 991 80 10000 3.6 230 22:19 07.02.2022
5458 Clouds -1 990 80 10000 2.06 240 21:51 07.02.2022
5459 Clouds -2 990 86 10000 2.57 230 21:28 07.02.2022
5460 Clouds -2 990 86 10000 2.06 220 20:47 07.02.2022
5461 Clouds -2 990 80 10000 3.09 210 20:29 07.02.2022
5462 Clouds -2 990 80 10000 3.6 230 19:47 07.02.2022
5463 Clouds -2 990 80 10000 3.6 220 18:58 07.02.2022
5464 Clouds -2 990 74 10000 4.12 230 17:38 07.02.2022
5465 Clouds -3 989 74 10000 3.6 230 16:52 07.02.2022
5466 Clouds -4 989 74 10000 4.12 230 15:48 07.02.2022
5467 Clear -4 988 74 10000 1.54 260 14:30 07.02.2022
5468 Clear -4 987 68 10000 2.57 240 13:27 07.02.2022
5469 Clear -4 987 74 10000 4.12 230 12:37 07.02.2022
5470 Clear -4 987 68 10000 4.63 230 11:52 07.02.2022
5471 Clear -4 986 68 10000 5.66 220 11:24 07.02.2022
5472 Clear -4 986 63 10000 4.63 240 10:43 07.02.2022
5473 Clear -5 986 68 10000 4.12 220 10:24 07.02.2022
5474 Clear -5 986 63 10000 3.09 240 09:52 07.02.2022
5475 Clear -5 985 63 10000 4.12 200 09:18 07.02.2022
5476 Clear -5 984 68 10000 2.57 230 07:59 07.02.2022
5477 Clear -5 983 68 10000 4.12 220 06:35 07.02.2022
5478 Clear -5 982 68 10000 6.17 210 05:26 07.02.2022
5479 Clouds -4 981 68 10000 6.69 190 02:56 07.02.2022
5480 Clear -4 979 68 10000 6.69 200 00:29 07.02.2022
5481 Clear -4 979 68 10000 5.66 200 23:40 06.02.2022
5482 Clear -4 978 74 10000 6.69 210 22:46 06.02.2022
5483 Clear -3 978 68 10000 6.17 210 21:51 06.02.2022
5484 Clear -3 978 68 10000 6.17 200 21:21 06.02.2022
5485 Clear -3 978 68 10000 6.17 200 21:21 06.02.2022
5486 Clear -3 978 74 10000 6.69 200 20:48 06.02.2022
5487 Clear -3 978 74 10000 7.2 190 20:24 06.02.2022
5488 Clear -3 977 74 10000 6.69 190 19:30 06.02.2022
5489 Clear -2 977 69 10000 7.2 190 18:35 06.02.2022
5490 Clear -2 976 69 10000 7.72 200 17:54 06.02.2022
5491 Clear -2 976 69 10000 8.75 200 16:52 06.02.2022
5492 Clouds -2 975 69 10000 9.77 210 16:32 06.02.2022
5493 Clouds -2 975 69 10000 8.75 200 15:47 06.02.2022
5494 Clear -2 975 69 10000 10.29 200 15:26 06.02.2022
5495 Clear -3 975 74 10000 8.75 190 14:25 06.02.2022
5496 Clear -2 975 69 10000 8.23 190 13:24 06.02.2022
5497 Clear -2 974 69 10000 11.32 190 12:45 06.02.2022
5498 Clear -1 973 69 10000 8.75 200 11:19 06.02.2022
5499 Clouds -1 973 69 10000 6.17 200 09:48 06.02.2022
5500 Clouds -1 973 69 10000 1.54 0 08:47 06.02.2022
5501 Clouds -1 973 69 10000 5.66 190 07:36 06.02.2022
5502 Clouds -1 971 69 10000 8.75 200 05:29 06.02.2022
5503 Clouds -1 972 74 10000 5.14 180 02:26 06.02.2022
5504 Clouds -1 972 74 10000 7.72 200 01:32 06.02.2022
5505 Clouds -1 972 74 10000 8.75 200 00:24 06.02.2022
5506 Clouds -2 972 74 10000 8.75 210 22:19 05.02.2022
5507 Clouds -2 973 74 10000 8.75 190 20:52 05.02.2022
5508 Clouds -2 973 74 10000 10.29 200 20:24 05.02.2022
5509 Clouds -2 973 74 10000 10.29 190 19:45 05.02.2022
5510 Clouds -2 973 69 10000 9.26 190 18:52 05.02.2022
5511 Clouds -2 973 69 10000 12.35 190 17:38 05.02.2022
5512 Clouds -3 974 74 10000 12.35 180 16:48 05.02.2022
5513 Clouds -3 974 74 10000 10.8 180 15:33 05.02.2022
5514 Clouds -3 975 74 10000 10.29 190 14:47 05.02.2022
5515 Clouds -3 976 68 10000 8.23 190 12:47 05.02.2022
5516 Clouds -3 976 68 10000 8.23 190 11:49 05.02.2022
5517 Clouds -4 976 74 8000 8.23 180 10:47 05.02.2022
5518 Clouds -4 977 74 10000 5.66 190 09:53 05.02.2022
5519 Clouds -4 977 74 10000 4.12 0 09:29 05.02.2022
5520 Clouds -6 977 79 10000 6.17 190 07:38 05.02.2022
5521 Clouds -7 978 79 10000 6.17 190 06:56 05.02.2022
5522 Clouds -7 980 73 10000 4.12 180 04:28 05.02.2022
5523 Snow -10 984 85 900 7.72 120 01:19 05.02.2022
5524 Clouds -10 984 85 4000 9.77 120 00:51 05.02.2022
5525 Clouds -9 985 79 4000 7.72 130 23:38 04.02.2022
5526 Clouds -9 986 79 2500 9.26 130 23:20 04.02.2022
5527 Clouds -10 988 92 800 11.83 110 21:54 04.02.2022
5528 Clouds -10 988 92 800 11.83 110 21:36 04.02.2022
5529 Clouds -10 988 85 1000 15.43 110 21:18 04.02.2022
5530 Snow -9 989 86 500 13.38 120 19:36 04.02.2022
5531 Snow -11 995 85 3500 7.72 110 17:28 04.02.2022
5532 Clouds -11 997 79 6000 8.75 120 15:39 04.02.2022
5533 Clouds -10 997 73 10000 5.14 150 14:52 04.02.2022
5534 Clouds -10 999 73 10000 8.75 130 13:24 04.02.2022
5535 Clouds -9 1000 67 10000 5.14 180 12:42 04.02.2022
5536 Clouds -9 1001 73 10000 6.17 150 11:41 04.02.2022
5537 Clouds -10 1002 73 10000 7.72 130 10:34 04.02.2022
5538 Clouds -10 1003 79 10000 8.75 130 08:34 04.02.2022
5539 Clear -9 1006 67 10000 6.69 130 05:23 04.02.2022
5540 Clear -9 1008 73 10000 5.14 130 02:40 04.02.2022
5541 Clear -8 1009 73 10000 5.14 120 01:22 04.02.2022
5542 Clear -8 1010 73 10000 5.14 110 23:29 03.02.2022
5543 Clear -7 1010 68 10000 4.63 110 22:31 03.02.2022
5544 Clear -7 1010 68 10000 4.12 100 21:48 03.02.2022
5545 Clear -7 1011 68 10000 2.57 180 20:36 03.02.2022
5546 Clear -7 1011 68 10000 3.09 130 20:18 03.02.2022
5547 Clear -7 1011 68 10000 4.63 100 19:26 03.02.2022
5548 Clear -7 1011 73 10000 5.66 100 18:34 03.02.2022
5549 Clear -8 1012 79 10000 4.63 80 17:32 03.02.2022
5550 Clear -11 1012 79 10000 2.57 60 16:24 03.02.2022
5551 Clear -8 1013 73 10000 2.06 50 14:28 03.02.2022
5552 Clear -8 1013 79 10000 2.06 40 12:51 03.02.2022
5553 Clear -9 1013 73 10000 1.03 0 10:45 03.02.2022
5554 Clear -9 1013 86 10000 4.12 50 08:35 03.02.2022
5555 Clouds -9 1012 79 10000 2.06 40 03:57 03.02.2022
5556 Clear -9 1012 79 10000 1.54 0 00:30 03.02.2022
5557 Clear -9 1012 73 10000 0 0 22:55 02.02.2022
5558 Clear -11 1012 79 10000 1.54 70 21:54 02.02.2022
5559 Clear -10 1012 67 10000 0.51 0 21:30 02.02.2022
5560 Clouds -10 1012 73 10000 0 0 20:38 02.02.2022
5561 Clear -9 1011 73 10000 2.06 40 19:55 02.02.2022
5562 Clear -9 1011 79 10000 2.57 50 19:26 02.02.2022
5563 Clear -11 1011 73 10000 1.54 60 18:34 02.02.2022
5564 Clear -10 1011 73 10000 1.54 70 17:44 02.02.2022
5565 Clear -9 1011 73 10000 1.54 0 17:19 02.02.2022
5566 Clear -8 1011 73 10000 2.57 50 16:31 02.02.2022
5567 Clear -8 1010 62 10000 1.03 0 12:55 02.02.2022
5568 Clear -5 1009 54 10000 3.6 190 12:20 02.02.2022
5569 Clear -6 1009 63 10000 5.14 190 11:32 02.02.2022
5570 Clear -6 1008 63 10000 3.6 160 09:47 02.02.2022
5571 Clear -5 1007 63 10000 2.57 200 07:33 02.02.2022
5572 Clear -4 1002 39 10000 4.12 230 22:51 01.02.2022
5573 Clear -4 1002 42 10000 3.6 230 21:40 01.02.2022
5574 Clear -8 1001 73 10000 0.51 0 19:58 01.02.2022
5575 Clouds -6 1001 73 10000 2.57 250 17:43 01.02.2022
5576 Clear -5 1000 80 10000 3.09 260 16:39 01.02.2022
5577 Clear -6 1000 73 10000 2.06 260 13:56 01.02.2022
5578 Clear -5 1000 80 10000 2.57 280 12:42 01.02.2022
5579 Clear -7 1000 79 10000 1.03 0 11:20 01.02.2022
5580 Clouds -7 1001 79 10000 1.54 0 02:34 01.02.2022
5581 Clouds -4 1002 74 10000 2.06 250 23:41 31.01.2022
5582 Clouds -4 1002 80 10000 1.03 0 22:57 31.01.2022
5583 Clouds -4 1002 68 10000 0 0 21:40 31.01.2022
5584 Clouds -5 1002 74 10000 0 0 21:19 31.01.2022
5585 Clouds -5 1003 74 10000 1.54 0 20:29 31.01.2022
5586 Clouds -6 1003 79 10000 1.03 0 19:29 31.01.2022
5587 Clouds -6 1003 73 10000 1.54 60 18:26 31.01.2022
5588 Clouds -4 1003 68 10000 0.51 0 17:32 31.01.2022
5589 Clouds -5 1003 80 10000 0.51 0 16:29 31.01.2022
5590 Clouds -4 1003 80 10000 1.03 0 14:54 31.01.2022
5591 Clouds -3 1003 80 10000 2.06 190 13:52 31.01.2022
5592 Clouds -2 1003 80 10000 5.14 240 12:38 31.01.2022
5593 Snow -2 1003 74 10000 4.12 250 11:55 31.01.2022
5594 Snow -2 1003 74 10000 6.17 240 10:50 31.01.2022
5595 Clouds -2 1003 74 10000 5.14 240 10:25 31.01.2022
5596 Snow -2 1002 69 10000 4.12 220 09:23 31.01.2022
5597 Clouds -2 1002 69 10000 3.6 210 08:47 31.01.2022
5598 Clouds -3 1002 68 10000 3.09 230 08:20 31.01.2022
5599 Clouds -2 1002 64 10000 2.57 220 06:18 31.01.2022
5600 Clouds -1 1002 69 10000 4.63 250 00:55 31.01.2022
5601 Clouds -1 1001 74 10000 5.66 260 22:55 30.01.2022
5602 Clouds -1 1001 64 10000 4.63 250 22:25 30.01.2022
5603 Clouds -2 1001 69 10000 3.09 270 21:40 30.01.2022
5604 Clouds -1 1001 64 10000 3.6 250 21:18 30.01.2022
5605 Clouds -1 1001 69 10000 4.12 250 20:46 30.01.2022
5606 Clouds -1 1001 59 10000 3.09 280 20:27 30.01.2022
5607 Clouds -1 1001 59 10000 2.06 0 19:45 30.01.2022
5608 Clouds -1 1001 59 10000 3.09 330 18:43 30.01.2022
5609 Clouds -1 1001 64 10000 2.06 0 18:20 30.01.2022
5610 Clouds -1 1001 59 10000 3.6 0 17:22 30.01.2022
5611 Clouds -1 1001 64 10000 3.09 0 16:40 30.01.2022
5612 Clouds -1 1001 59 10000 3.6 340 16:22 30.01.2022
5613 Clouds -1 1000 64 10000 3.09 350 15:50 30.01.2022
5614 Clouds -1 1000 59 10000 2.57 320 15:31 30.01.2022
5615 Clouds -2 1000 64 10000 3.6 340 14:46 30.01.2022
5616 Clouds -2 999 64 10000 4.12 360 12:47 30.01.2022
5617 Clouds -2 998 69 10000 3.09 20 11:59 30.01.2022
5618 Clouds -2 997 69 10000 5.14 10 10:36 30.01.2022
5619 Clouds -2 997 69 10000 5.66 10 09:56 30.01.2022
5620 Clouds -2 996 74 10000 6.69 20 08:56 30.01.2022
5621 Clouds -3 995 86 10000 1.54 20 07:29 30.01.2022
5622 Snow -4 990 100 10000 1.03 0 01:56 30.01.2022
5623 Clouds -6 990 100 10000 1.54 50 00:41 30.01.2022
5624 Clouds -5 989 93 10000 1.54 250 23:20 29.01.2022
5625 Snow -8 988 93 10000 0 0 21:59 29.01.2022
5626 Snow -7 988 100 10000 0.51 0 21:26 29.01.2022
5627 Clouds -9 988 86 10000 0 0 20:36 29.01.2022
5628 Clouds -9 988 92 10000 1.54 0 19:36 29.01.2022
5629 Clouds -7 988 93 10000 0 0 18:58 29.01.2022
5630 Snow -7 988 86 6000 1.03 0 18:26 29.01.2022
5631 Snow -8 988 79 10000 1.03 0 17:41 29.01.2022
5632 Clear -7 988 86 10000 1.54 50 16:38 29.01.2022
5633 Clear -8 989 79 10000 1.03 0 14:24 29.01.2022
5634 Clear -9 989 79 10000 0 0 13:45 29.01.2022
5635 Clear -9 989 73 10000 1.03 70 13:24 29.01.2022
5636 Clouds -9 989 79 10000 1.03 0 12:36 29.01.2022
5637 Clouds -7 990 68 10000 2.57 40 11:38 29.01.2022
5638 Clear -10 991 73 10000 1.54 70 09:49 29.01.2022
5639 Clouds -8 993 67 10000 1.03 0 06:55 29.01.2022
5640 Clouds -7 997 86 10000 0.51 0 00:50 29.01.2022
5641 Clouds -7 997 93 10000 0 0 00:31 29.01.2022
5642 Clouds -5 997 93 10000 0.51 0 22:52 28.01.2022
5643 Clouds -4 997 86 8000 0.51 0 22:27 28.01.2022
5644 Clouds -4 997 93 10000 2.06 20 21:52 28.01.2022
5645 Clouds -4 998 80 8000 2.06 40 20:31 28.01.2022
5646 Snow -4 997 80 10000 0 0 19:42 28.01.2022
5647 Snow -4 998 80 10000 0.51 0 18:47 28.01.2022
5648 Snow -4 998 80 10000 1.03 0 17:43 28.01.2022
5649 Snow -3 998 74 10000 3.09 100 15:28 28.01.2022
5650 Snow -5 998 86 10000 1.03 0 13:59 28.01.2022
5651 Snow -5 998 93 10000 1.03 0 12:33 28.01.2022
5652 Snow -5 998 93 10000 0 0 11:38 28.01.2022
5653 Snow -5 998 93 10000 1.03 0 10:21 28.01.2022
5654 Snow -5 998 93 10000 1.03 0 09:44 28.01.2022
5655 Snow -5 997 93 10000 0 0 07:39 28.01.2022
5656 Clouds -6 996 100 10000 1.03 50 05:23 28.01.2022
5657 Clouds -5 995 93 10000 1.03 50 03:47 28.01.2022
5658 Clouds -5 995 100 10000 0.51 0 02:23 28.01.2022
5659 Clouds -5 995 100 10000 0 0 01:33 28.01.2022
5660 Clouds -5 994 100 10000 0 0 23:33 27.01.2022
5661 Clouds -4 993 93 8000 0 0 21:50 27.01.2022
5662 Clouds -4 993 93 9000 1.03 0 21:30 27.01.2022
5663 Clouds -4 993 93 9000 1.03 0 21:30 27.01.2022
5664 Clouds -4 993 93 10000 1.03 0 20:44 27.01.2022
5665 Clouds -4 992 86 10000 2.06 260 19:30 27.01.2022
5666 Clouds -5 992 80 10000 0 0 17:56 27.01.2022
5667 Clear -7 992 79 10000 1.03 0 15:30 27.01.2022
5668 Clouds -5 992 93 10000 0.51 0 13:37 27.01.2022
5669 Clouds -5 992 93 10000 1.03 0 12:46 27.01.2022
5670 Clouds -5 992 93 10000 1.03 0 10:46 27.01.2022
5671 Clouds -5 991 100 10000 1.03 0 09:19 27.01.2022
5672 Clouds -5 991 93 7000 1.03 0 08:37 27.01.2022
5673 Clouds -3 991 100 10000 0 0 05:59 27.01.2022
5674 Clouds -2 992 93 5000 1.03 220 02:57 27.01.2022
5675 Clouds -2 992 93 10000 5.14 230 23:33 26.01.2022
5676 Snow -2 993 100 10000 5.14 230 22:26 26.01.2022
5677 Snow -2 993 100 9000 5.66 230 21:37 26.01.2022
5678 Snow -2 993 100 10000 5.14 230 20:41 26.01.2022
5679 Snow -2 993 100 900 6.17 240 20:23 26.01.2022
5680 Snow -2 993 86 8000 4.63 230 19:23 26.01.2022
5681 Snow -2 993 86 10000 6.17 230 18:45 26.01.2022
5682 Clouds -3 993 86 10000 2.06 230 17:51 26.01.2022
5683 Clouds -3 994 93 10000 1.54 0 17:24 26.01.2022
5684 Snow -3 994 100 10000 2.57 210 16:35 26.01.2022
5685 Snow -2 994 93 10000 5.14 220 15:49 26.01.2022
5686 Snow -2 994 86 10000 6.17 230 14:21 26.01.2022
5687 Clouds -2 995 74 10000 4.63 260 11:54 26.01.2022
5688 Clouds -2 995 80 10000 4.63 240 10:43 26.01.2022
5689 Clouds -2 995 86 10000 8.23 240 09:48 26.01.2022
5690 Snow -2 995 93 10000 6.69 240 08:27 26.01.2022
5691 Clouds -3 997 100 1000 8.23 240 04:24 26.01.2022
5692 Snow -3 997 100 10000 6.17 250 23:58 25.01.2022
5693 Clouds -3 997 93 6000 9.26 240 23:20 25.01.2022
5694 Snow -3 997 86 9000 7.2 260 22:26 25.01.2022
5695 Snow -1 997 64 10000 8.75 240 21:59 25.01.2022
5696 Clouds -2 997 64 6000 11.32 240 20:59 25.01.2022
5697 Clouds -2 997 64 6000 11.32 240 20:40 25.01.2022
5698 Clouds -2 997 80 5000 10.8 240 19:53 25.01.2022
5699 Clouds -2 997 86 4000 8.75 270 18:43 25.01.2022
5700 Clouds -2 997 86 500 10.29 240 17:45 25.01.2022
5701 Clouds -1 997 74 10000 8.23 270 16:47 25.01.2022
5702 Clouds -1 996 80 10000 8.75 240 16:21 25.01.2022
5703 Clouds -2 996 86 10000 7.72 240 15:38 25.01.2022
5704 Snow -1 996 80 10000 9.77 260 14:58 25.01.2022
5705 Snow -2 996 86 1800 12.86 270 13:46 25.01.2022
5706 Clouds -1 995 59 10000 11.32 260 10:58 25.01.2022
5707 Clouds -2 995 80 10000 13.89 270 09:20 25.01.2022
5708 Snow -3 994 86 5000 12.35 270 07:30 25.01.2022
5709 Clouds -2 994 74 5000 11.83 260 06:51 25.01.2022
5710 Snow -2 993 74 2800 12.86 250 05:22 25.01.2022
5711 Snow -2 989 86 6000 11.83 280 23:37 24.01.2022
5712 Snow -3 988 80 7000 12.86 240 23:19 24.01.2022
5713 Clouds -3 988 93 10000 10.29 250 22:59 24.01.2022
5714 Snow -3 988 93 10000 10.29 250 22:41 24.01.2022
5715 Clouds -2 987 100 10000 9.26 240 21:55 24.01.2022
5716 Clouds -2 987 100 10000 9.26 240 21:32 24.01.2022
5717 Snow -2 987 86 8000 11.32 240 20:33 24.01.2022
5718 Snow -1 986 69 10000 12.86 240 19:57 24.01.2022
5719 Clouds -1 986 69 10000 12.86 240 19:35 24.01.2022
5720 Snow -1 985 74 10000 11.83 240 18:35 24.01.2022
5721 Snow -2 985 93 600 10.8 240 17:24 24.01.2022
5722 Snow -3 985 100 10000 10.29 240 16:55 24.01.2022
5723 Snow -3 985 100 2000 11.83 240 16:21 24.01.2022
5724 Snow -3 984 80 10000 12.35 240 14:49 24.01.2022
5725 Snow -2 984 93 2500 14.4 240 13:38 24.01.2022
5726 Snow -1 983 74 10000 13.89 240 12:32 24.01.2022
5727 Clouds -1 983 74 10000 13.38 240 11:20 24.01.2022
5728 Clouds 0 981 74 10000 13.38 240 09:49 24.01.2022
5729 Clouds -1 981 86 5000 13.38 240 09:20 24.01.2022
5730 Snow 0 979 100 900 14.92 240 07:20 24.01.2022
5731 Snow 0 979 100 900 14.92 240 07:20 24.01.2022
5732 Clouds 7 974 65 10000 24.69 230 01:32 24.01.2022
5733 Clouds 6 974 70 10000 9.77 210 00:46 24.01.2022
5734 Clouds 6 975 70 10000 9.77 220 00:27 24.01.2022
5735 Clouds 6 978 65 10000 7.2 220 22:46 23.01.2022
5736 Clouds 6 979 65 10000 6.69 220 21:50 23.01.2022
5737 Clouds 6 980 65 10000 5.66 210 21:27 23.01.2022
5738 Clouds 6 981 65 10000 5.66 220 20:54 23.01.2022
5739 Clouds 6 983 65 10000 7.2 210 19:55 23.01.2022
5740 Clouds 3 984 87 10000 6.69 230 18:52 23.01.2022
5741 Rain 3 986 87 10000 6.69 220 17:52 23.01.2022
5742 Rain 2 987 87 10000 5.14 220 16:48 23.01.2022
5743 Rain 2 989 80 10000 7.2 210 15:18 23.01.2022
5744 Rain 2 989 80 10000 4.63 210 14:32 23.01.2022
5745 Snow 1 991 86 10000 6.17 220 13:27 23.01.2022
5746 Rain 2 991 87 10000 9.26 230 12:36 23.01.2022
5747 Snow 2 991 80 10000 11.32 230 12:18 23.01.2022
5748 Snow 1 991 100 10000 10.29 220 11:24 23.01.2022
5749 Clouds 0 992 100 400 9.26 220 10:57 23.01.2022
5750 Clouds 0 992 100 1500 9.26 230 10:21 23.01.2022
5751 Snow 1 992 93 10000 10.8 220 09:22 23.01.2022
5752 Clouds 3 989 70 10000 14.92 240 05:59 23.01.2022
5753 Clouds 3 987 70 10000 14.4 240 03:20 23.01.2022
5754 Clouds 2 986 75 10000 13.38 230 01:35 23.01.2022
5755 Snow 1 985 86 6000 7.2 210 00:42 23.01.2022
5756 Snow 0 985 80 8000 9.26 200 23:57 22.01.2022
5757 Snow -1 988 86 6000 7.2 200 22:48 22.01.2022
5758 Snow -1 991 86 1600 6.17 200 21:58 22.01.2022
5759 Rain 2 993 64 10000 6.69 220 20:29 22.01.2022
5760 Clouds 2 993 69 10000 4.12 220 19:37 22.01.2022
5761 Clouds 2 995 69 10000 4.63 220 18:37 22.01.2022
5762 Clouds 2 996 69 10000 4.12 240 17:42 22.01.2022
5763 Clouds 0 997 80 10000 3.09 270 17:18 22.01.2022
5764 Clouds 0 998 80 10000 4.12 250 16:22 22.01.2022
5765 Clouds 1 999 80 10000 5.66 230 15:44 22.01.2022
5766 Clouds -1 1000 86 10000 4.63 240 14:22 22.01.2022
5767 Clouds -1 1000 86 10000 5.14 230 13:28 22.01.2022
5768 Clouds -1 1000 86 10000 4.63 230 12:37 22.01.2022
5769 Clouds -2 1001 86 10000 5.66 230 12:18 22.01.2022
5770 Clouds -3 1001 86 10000 5.66 230 10:39 22.01.2022
5771 Clouds -2 1001 80 10000 5.66 240 10:20 22.01.2022
5772 Clouds -2 1001 64 10000 6.17 230 08:56 22.01.2022
5773 Clouds -2 1001 64 10000 6.17 230 08:38 22.01.2022
5774 Clouds -2 1002 54 10000 4.12 240 06:46 22.01.2022
5775 Clouds -3 1007 63 10000 5.14 190 02:40 22.01.2022
5776 Clouds -3 1010 80 10000 3.6 0 23:50 21.01.2022
5777 Clouds -3 1010 80 10000 3.09 220 23:21 21.01.2022
5778 Clouds -2 1011 80 10000 3.6 210 21:34 21.01.2022
5779 Snow -4 1012 74 10000 1.54 0 19:35 21.01.2022
5780 Clouds -6 1012 79 10000 0.51 0 17:51 21.01.2022
5781 Clouds -6 1012 73 10000 1.03 0 16:37 21.01.2022
5782 Clouds -3 1012 63 10000 2.57 340 15:23 21.01.2022
5783 Clouds -3 1011 68 10000 3.6 350 12:48 21.01.2022
5784 Clouds -2 1010 64 10000 4.63 360 11:29 21.01.2022
5785 Clouds -2 1010 64 10000 5.14 360 10:51 21.01.2022
5786 Clouds -2 1008 59 10000 5.14 350 09:24 21.01.2022
5787 Clouds -2 1008 69 10000 5.14 360 08:20 21.01.2022
5788 Clouds -2 1005 64 10000 5.66 350 04:36 21.01.2022
5789 Snow -2 999 74 10000 7.72 10 22:52 20.01.2022
5790 Snow -3 998 80 5000 9.77 10 21:49 20.01.2022
5791 Snow -2 997 80 10000 7.72 10 21:27 20.01.2022
5792 Snow -1 995 69 10000 8.75 360 19:55 20.01.2022
5793 Clouds -1 994 80 6000 10.8 350 19:18 20.01.2022
5794 Snow -1 992 80 4000 10.8 360 17:37 20.01.2022
5795 Snow 0 990 80 6000 10.29 360 16:32 20.01.2022
5796 Snow 0 988 80 10000 10.8 350 15:32 20.01.2022
5797 Clouds 0 987 80 10000 14.92 360 14:37 20.01.2022
5798 Snow 1 985 75 10000 13.89 350 13:18 20.01.2022
5799 Clouds 0 983 93 8000 16.46 360 12:30 20.01.2022
5800 Clouds 1 981 93 4000 14.4 360 11:20 20.01.2022
5801 Clouds 2 980 80 10000 11.32 350 10:19 20.01.2022
5802 Clouds 2 979 80 10000 9.26 330 09:18 20.01.2022
5803 Snow 0 976 100 400 9.77 270 07:24 20.01.2022
5804 Snow 0 975 80 10000 8.23 240 00:41 20.01.2022
5805 Clouds 0 975 69 10000 12.35 240 22:40 19.01.2022
5806 Clouds 0 975 69 10000 11.83 240 21:44 19.01.2022
5807 Clouds 0 975 69 10000 11.32 240 21:22 19.01.2022
5808 Clouds 1 974 64 10000 13.38 240 20:45 19.01.2022
5809 Clouds -1 974 93 5000 15.95 240 19:26 19.01.2022
5810 Snow 0 974 64 10000 13.89 240 17:51 19.01.2022
5811 Snow 0 974 69 10000 14.4 240 17:28 19.01.2022
5812 Clouds 1 974 60 10000 11.83 240 15:44 19.01.2022
5813 Clouds -1 975 86 1300 9.26 240 13:38 19.01.2022
5814 Clouds 0 974 80 10000 9.26 240 12:24 19.01.2022
5815 Clouds 0 974 80 10000 7.2 240 11:38 19.01.2022
5816 Snow 0 974 100 10000 8.23 240 09:52 19.01.2022
5817 Clouds 0 974 100 10000 8.23 240 09:33 19.01.2022
5818 Rain 3 975 70 10000 9.77 240 06:34 19.01.2022
5819 Rain 2 977 93 10000 5.14 240 01:40 19.01.2022
5820 Rain 2 977 93 10000 5.14 210 23:18 18.01.2022
5821 Rain 2 978 87 10000 5.66 210 21:56 18.01.2022
5822 Rain 2 980 87 10000 5.66 220 20:47 18.01.2022
5823 Rain 3 981 93 10000 7.72 230 19:53 18.01.2022
5824 Rain 3 981 93 10000 7.72 230 19:35 18.01.2022
5825 Rain 2 982 100 10000 5.66 220 18:36 18.01.2022
5826 Rain 2 983 100 10000 8.75 230 17:48 18.01.2022
5827 Rain 2 984 100 10000 8.75 230 16:33 18.01.2022
5828 Snow 2 985 100 10000 7.72 230 15:26 18.01.2022
5829 Snow 1 985 100 3500 10.29 230 14:54 18.01.2022
5830 Snow -4 988 100 500 10.29 200 11:52 18.01.2022
5831 Snow -4 991 93 500 7.2 200 10:41 18.01.2022
5832 Snow -3 995 80 10000 5.66 190 08:49 18.01.2022
5833 Clouds -3 997 86 10000 4.12 200 07:46 18.01.2022
5834 Clouds -3 1002 80 10000 4.63 270 02:20 18.01.2022
5835 Clouds -3 1001 74 10000 5.14 340 23:22 17.01.2022
5836 Snow -4 1000 86 10000 6.69 360 22:19 17.01.2022
5837 Snow -3 1000 68 10000 5.66 0 21:32 17.01.2022
5838 Snow -4 998 93 3000 3.09 0 19:51 17.01.2022
5839 Clouds -4 996 86 6000 6.69 360 18:28 17.01.2022
5840 Snow -4 995 80 10000 5.14 360 17:24 17.01.2022
5841 Snow -3 994 74 4000 3.09 360 16:27 17.01.2022
5842 Clouds -4 993 74 10000 3.09 320 14:59 17.01.2022
5843 Clouds -4 993 74 10000 3.09 320 14:33 17.01.2022
5844 Clouds -4 991 68 5000 4.63 360 13:20 17.01.2022
5845 Snow -4 990 58 10000 5.66 360 12:54 17.01.2022
5846 Snow -4 989 63 10000 7.2 10 11:48 17.01.2022
5847 Snow -5 988 68 10000 10.29 30 10:21 17.01.2022
5848 Clouds -4 986 74 10000 8.75 10 08:51 17.01.2022
5849 Snow -4 986 63 10000 8.75 350 07:22 17.01.2022
5850 Clouds -5 979 74 6000 8.75 360 02:23 17.01.2022
5851 Clouds -4 978 80 10000 11.32 20 00:54 17.01.2022
5852 Snow -4 974 86 4000 7.72 30 21:44 16.01.2022
5853 Snow -4 973 80 10000 7.72 30 20:33 16.01.2022
5854 Snow -4 973 80 10000 7.72 30 20:33 16.01.2022
5855 Snow -4 971 93 900 10.8 50 18:50 16.01.2022
5856 Snow -5 971 86 10000 4.12 70 17:55 16.01.2022
5857 Clouds -6 971 86 10000 7.72 50 16:59 16.01.2022
5858 Clear -5 971 80 10000 8.23 50 16:20 16.01.2022
5859 Clouds -5 972 74 10000 4.12 40 14:30 16.01.2022
5860 Clouds -5 972 74 10000 4.12 40 13:34 16.01.2022
5861 Clouds -4 974 74 10000 1.54 0 12:27 16.01.2022
5862 Clouds -5 975 80 10000 0 0 11:38 16.01.2022
5863 Clouds -4 975 86 10000 2.57 180 10:46 16.01.2022
5864 Clouds -4 976 86 10000 3.6 130 09:59 16.01.2022
5865 Clouds -4 976 86 10000 3.6 130 09:40 16.01.2022
5866 Clouds -4 976 86 10000 3.09 130 09:21 16.01.2022
5867 Clouds -3 978 86 10000 3.6 30 07:23 16.01.2022
5868 Clouds -4 982 80 10000 2.06 300 00:36 16.01.2022
5869 Clouds -4 984 80 10000 1.54 240 23:22 15.01.2022
5870 Snow -4 987 100 1700 3.09 200 21:23 15.01.2022
5871 Snow -4 987 100 1200 2.06 190 20:48 15.01.2022
5872 Snow -4 988 100 2900 4.12 200 20:29 15.01.2022
5873 Snow -3 989 86 9000 4.12 240 19:27 15.01.2022
5874 Snow -3 991 80 10000 5.14 240 18:23 15.01.2022
5875 Clouds -3 994 93 2000 6.17 230 16:49 15.01.2022
5876 Clouds -5 997 93 6000 4.63 230 14:48 15.01.2022
5877 Clouds -4 998 68 10000 1.03 0 13:29 15.01.2022
5878 Clouds -4 999 68 10000 4.12 360 11:33 15.01.2022
5879 Clouds -5 1000 74 10000 5.14 350 09:49 15.01.2022
5880 Clouds -4 998 74 10000 7.72 20 05:26 15.01.2022
5881 Snow -1 993 100 2000 6.69 360 23:40 14.01.2022
5882 Snow 1 990 80 5000 4.63 360 21:29 14.01.2022
5883 Clouds 1 990 86 10000 4.63 360 20:37 14.01.2022
5884 Snow 1 990 75 10000 5.14 360 19:56 14.01.2022
5885 Snow 1 989 86 10000 4.63 360 18:43 14.01.2022
5886 Clouds 1 988 86 9000 4.63 20 17:52 14.01.2022
5887 Clouds 1 987 86 10000 6.17 30 16:43 14.01.2022
5888 Clouds 1 987 86 10000 6.17 30 16:43 14.01.2022
5889 Clouds 1 986 93 10000 5.66 20 15:33 14.01.2022
5890 Clouds 1 984 80 10000 5.14 350 14:29 14.01.2022
5891 Clouds 1 982 86 10000 4.63 10 12:59 14.01.2022
5892 Clouds 1 981 86 1500 5.66 10 11:59 14.01.2022
5893 Clouds 2 979 80 10000 4.63 360 10:40 14.01.2022
5894 Clouds 2 976 87 10000 5.14 20 08:53 14.01.2022
5895 Rain 2 975 80 10000 5.14 10 07:35 14.01.2022
5896 Snow 1 969 93 1900 6.69 280 02:28 14.01.2022
5897 Snow 2 969 80 4500 8.75 260 00:33 14.01.2022
5898 Clouds 1 969 80 10000 6.17 260 21:55 13.01.2022
5899 Clouds 2 969 69 5000 7.72 260 21:30 13.01.2022
5900 Clouds 1 969 80 4000 6.69 270 20:27 13.01.2022
5901 Clouds 2 969 69 10000 8.75 260 19:30 13.01.2022
5902 Clouds 2 970 69 10000 10.29 260 18:50 13.01.2022
5903 Rain 2 970 69 10000 8.23 260 16:58 13.01.2022
5904 Clouds 2 970 64 10000 8.75 260 15:49 13.01.2022
5905 Clouds 2 970 75 10000 7.72 250 15:26 13.01.2022
5906 Rain 2 970 64 10000 8.75 260 13:42 13.01.2022
5907 Clouds 2 970 69 10000 11.32 270 11:43 13.01.2022
5908 Clouds 2 970 80 10000 7.72 260 09:37 13.01.2022
5909 Clouds 1 970 93 10000 8.75 260 08:54 13.01.2022
5910 Snow 1 970 100 7000 6.17 260 08:22 13.01.2022
5911 Snow 1 970 86 10000 6.17 270 07:21 13.01.2022
5912 Clouds 1 970 86 10000 8.23 240 05:56 13.01.2022
5913 Clouds 1 970 86 3500 8.23 240 05:18 13.01.2022
5914 Snow 2 970 80 10000 11.32 240 01:46 13.01.2022
5915 Snow 2 970 87 10000 8.75 280 23:54 12.01.2022
5916 Clouds 2 970 87 10000 8.75 280 23:34 12.01.2022
5917 Clouds 2 970 80 7000 8.75 250 22:56 12.01.2022
5918 Clouds 2 970 93 4000 8.23 270 21:56 12.01.2022
5919 Clouds 1 970 100 7000 8.23 260 21:21 12.01.2022
5920 Snow 1 970 100 3500 11.83 240 20:56 12.01.2022
5921 Snow 2 969 75 10000 5.66 220 19:28 12.01.2022
5922 Snow 2 970 69 10000 7.2 220 18:28 12.01.2022
5923 Clouds 2 972 69 10000 4.63 210 16:59 12.01.2022
5924 Rain 2 973 69 10000 2.06 230 15:58 12.01.2022
5925 Clouds 1 975 80 10000 6.17 200 14:47 12.01.2022
5926 Rain 2 979 64 10000 5.66 200 12:58 12.01.2022
5927 Clouds 1 984 69 10000 8.23 200 09:59 12.01.2022
5928 Clouds 0 986 69 10000 9.77 200 08:36 12.01.2022
5929 Snow 1 987 64 10000 8.75 200 07:34 12.01.2022
5930 Clouds 1 988 64 10000 8.23 200 06:21 12.01.2022
5931 Clouds 1 997 64 10000 6.69 200 23:30 11.01.2022
5932 Clouds 1 998 64 10000 5.66 200 22:49 11.01.2022
5933 Clouds 1 998 64 10000 5.14 220 22:21 11.01.2022
5934 Clouds 1 1000 69 10000 4.12 220 20:51 11.01.2022
5935 Clouds 1 1000 69 10000 5.66 220 19:45 11.01.2022
5936 Clouds 0 1001 74 10000 4.12 230 18:31 11.01.2022
5937 Clouds 0 1001 74 10000 4.12 230 17:19 11.01.2022
5938 Clouds 0 1001 74 10000 4.63 240 16:37 11.01.2022
5939 Clouds -2 1002 74 10000 5.14 230 15:34 11.01.2022
5940 Snow -3 1002 63 10000 5.66 230 14:41 11.01.2022
5941 Snow -3 1003 59 10000 4.12 250 13:54 11.01.2022
5942 Snow -4 1003 63 10000 3.09 250 13:32 11.01.2022
5943 Clear -5 1003 63 10000 6.17 250 12:41 11.01.2022
5944 Clear -6 1004 63 10000 5.66 220 10:59 11.01.2022
5945 Clear -7 1005 63 10000 3.6 220 09:28 11.01.2022
5946 Clear -8 1008 67 10000 4.63 220 06:36 11.01.2022
5947 Clouds -5 1014 68 10000 4.12 230 00:30 11.01.2022
5948 Clear -5 1015 63 10000 1.54 0 23:41 10.01.2022
5949 Clouds -5 1015 68 10000 3.09 250 22:51 10.01.2022
5950 Clouds -4 1016 63 10000 3.09 220 22:19 10.01.2022
5951 Clouds -4 1016 63 10000 2.57 260 21:52 10.01.2022
5952 Clouds -4 1016 68 10000 2.06 240 21:19 10.01.2022
5953 Clouds -4 1017 63 10000 3.6 140 20:56 10.01.2022
5954 Clouds -4 1017 63 10000 3.6 130 20:27 10.01.2022
5955 Clouds -4 1018 68 10000 2.06 150 19:41 10.01.2022
5956 Clouds -2 1018 64 10000 3.6 190 19:20 10.01.2022
5957 Clouds -2 1018 64 10000 4.12 190 18:48 10.01.2022
5958 Clouds -1 1019 69 10000 3.09 190 17:40 10.01.2022
5959 Clouds 0 1019 64 10000 3.6 210 16:41 10.01.2022
5960 Clouds -1 1019 74 10000 4.12 230 15:45 10.01.2022
5961 Clouds 0 1018 69 10000 6.69 240 14:26 10.01.2022
5962 Clouds 0 1018 74 10000 5.14 240 11:58 10.01.2022
5963 Clouds 0 1018 74 10000 5.14 240 11:25 10.01.2022
5964 Clouds -1 1017 74 10000 5.66 240 09:50 10.01.2022
5965 Clouds -1 1016 80 10000 6.69 240 07:18 10.01.2022
5966 Clouds -2 1016 86 10000 7.2 240 05:49 10.01.2022
5967 Snow -2 1014 80 10000 5.66 250 01:30 10.01.2022
5968 Clouds -4 1014 80 10000 2.57 230 00:25 10.01.2022
5969 Clouds -6 1014 79 10000 0 0 23:33 09.01.2022
5970 Clouds -7 1013 79 10000 0 0 22:37 09.01.2022
5971 Clouds -7 1013 79 10000 0.51 0 21:46 09.01.2022
5972 Clouds -7 1013 79 10000 0.51 0 21:46 09.01.2022
5973 Clouds -7 1012 79 10000 1.03 0 21:23 09.01.2022
5974 Clouds -7 1012 73 10000 0 0 20:51 09.01.2022
5975 Clouds -6 1012 68 10000 0 0 20:33 09.01.2022
5976 Clouds -6 1012 68 10000 0 0 19:44 09.01.2022
5977 Clouds -6 1012 73 10000 0.51 0 19:23 09.01.2022
5978 Clouds -6 1011 63 10000 0.51 0 18:52 09.01.2022
5979 Snow -6 1011 63 10000 0.51 0 18:33 09.01.2022
5980 Snow -4 1011 63 10000 2.57 330 17:31 09.01.2022
5981 Clouds -5 1010 68 10000 3.09 330 16:53 09.01.2022
5982 Clouds -4 1010 63 10000 3.09 350 15:57 09.01.2022
5983 Clouds -4 1010 63 10000 3.09 350 15:35 09.01.2022
5984 Snow -4 1009 80 10000 1.54 30 14:40 09.01.2022
5985 Snow -4 1009 80 10000 3.6 360 13:51 09.01.2022
5986 Snow -4 1008 68 10000 3.6 10 13:22 09.01.2022
5987 Snow -3 1008 63 10000 4.12 360 11:54 09.01.2022
5988 Snow -3 1007 68 10000 4.12 10 10:53 09.01.2022
5989 Snow -4 1006 68 10000 3.09 10 09:47 09.01.2022
5990 Snow -4 1006 74 10000 2.57 30 08:52 09.01.2022
5991 Snow -4 1004 86 3800 3.6 20 05:38 09.01.2022
5992 Snow -6 1003 93 10000 1.54 0 01:24 09.01.2022
5993 Snow -5 1002 80 10000 3.6 360 23:47 08.01.2022
5994 Snow -5 1002 63 10000 2.57 340 23:26 08.01.2022
5995 Snow -6 1001 86 10000 2.57 310 22:30 08.01.2022
5996 Snow -5 1001 80 10000 3.6 20 21:25 08.01.2022
5997 Snow -5 1001 80 2400 4.12 360 20:42 08.01.2022
5998 Snow -5 1001 68 10000 4.63 10 20:21 08.01.2022
5999 Snow -5 1000 80 3900 4.12 360 18:45 08.01.2022
6000 Snow -4 999 80 10000 5.14 20 17:22 08.01.2022
6001 Snow -3 998 80 10000 6.69 20 15:58 08.01.2022
6002 Snow -3 998 80 8000 6.17 20 14:46 08.01.2022
6003 Snow -3 997 93 1800 6.17 40 13:29 08.01.2022
6004 Snow -2 996 100 3200 3.6 30 11:28 08.01.2022
6005 Snow -2 996 80 10000 2.57 320 10:30 08.01.2022
6006 Clouds -2 996 100 10000 2.06 250 09:54 08.01.2022
6007 Snow -2 996 100 7000 2.57 250 09:28 08.01.2022
6008 Snow -2 996 69 10000 5.66 220 03:45 08.01.2022
6009 Snow -2 998 74 10000 7.72 240 00:58 08.01.2022
6010 Clouds -2 1000 80 10000 7.2 240 22:54 07.01.2022
6011 Clouds -2 1000 80 10000 7.2 240 21:34 07.01.2022
6012 Snow -2 1001 69 10000 3.6 260 20:23 07.01.2022
6013 Clouds -2 1001 64 10000 2.57 0 19:26 07.01.2022
6014 Clouds -2 1001 64 10000 4.12 270 18:45 07.01.2022
6015 Snow -2 1002 74 10000 4.63 280 17:58 07.01.2022
6016 Clouds -2 1002 80 10000 5.66 270 17:22 07.01.2022
6017 Clouds -3 1002 80 10000 5.66 270 14:50 07.01.2022
6018 Snow -3 1002 93 10000 6.69 270 13:50 07.01.2022
6019 Clouds -3 1002 93 10000 3.6 350 12:50 07.01.2022
6020 Clouds -2 1002 80 10000 5.14 250 10:18 07.01.2022
6021 Clouds -4 1003 80 10000 2.06 210 02:59 07.01.2022
6022 Snow -4 1003 80 10000 1.54 210 02:21 07.01.2022
6023 Snow -5 1003 86 10000 0.51 0 01:45 07.01.2022
6024 Snow -5 1003 86 10000 1.54 0 01:23 07.01.2022
6025 Clouds -7 1003 86 10000 1.03 0 00:29 07.01.2022
6026 Snow -5 1002 100 10000 0.51 0 21:56 06.01.2022
6027 Clouds -6 1002 93 6000 0 0 20:37 06.01.2022
6028 Clouds -6 1002 93 10000 1.54 260 19:58 06.01.2022
6029 Snow -6 1002 93 10000 1.54 260 19:36 06.01.2022
6030 Snow -5 1001 86 2000 0 0 17:51 06.01.2022
6031 Snow -5 1001 74 6000 1.54 350 17:21 06.01.2022
6032 Snow -6 1000 73 10000 1.03 0 16:31 06.01.2022
6033 Clouds -6 1000 73 10000 1.54 70 15:43 06.01.2022
6034 Clouds -6 1000 73 10000 3.09 60 15:20 06.01.2022
6035 Clouds -5 999 74 10000 3.09 30 14:19 06.01.2022
6036 Clouds -4 998 68 10000 4.63 30 13:30 06.01.2022
6037 Clouds -6 998 73 10000 4.12 60 12:20 06.01.2022
6038 Snow -5 997 86 10000 4.12 60 11:29 06.01.2022
6039 Snow -4 996 80 10000 7.72 60 09:56 06.01.2022
6040 Snow -4 994 86 7000 9.77 50 06:37 06.01.2022
6041 Snow -9 991 79 7000 4.63 60 00:27 06.01.2022
6042 Clouds -9 990 73 10000 6.17 60 23:22 05.01.2022
6043 Snow -9 989 67 10000 3.09 50 22:48 05.01.2022
6044 Snow -9 988 79 10000 4.63 60 22:21 05.01.2022
6045 Snow -9 987 79 10000 5.66 70 21:25 05.01.2022
6046 Snow -8 986 79 10000 5.66 50 20:30 05.01.2022
6047 Snow -8 986 79 10000 5.66 50 20:30 05.01.2022
6048 Snow -9 986 86 10000 4.12 40 19:28 05.01.2022
6049 Snow -9 985 86 10000 3.6 30 18:20 05.01.2022
6050 Snow -9 985 92 7000 3.6 40 16:56 05.01.2022
6051 Snow -9 985 92 2800 2.57 50 16:18 05.01.2022
6052 Snow -9 984 79 8000 2.57 30 14:54 05.01.2022
6053 Snow -9 984 79 8000 1.03 0 13:33 05.01.2022
6054 Snow -9 984 73 10000 0 0 12:20 05.01.2022
6055 Clouds -9 984 67 10000 1.03 0 08:29 05.01.2022
6056 Clouds -9 984 67 10000 3.09 190 06:37 05.01.2022
6057 Snow -10 985 85 3400 6.69 190 01:24 05.01.2022
6058 Snow -10 986 85 5000 5.66 190 23:42 04.01.2022
6059 Snow -10 986 85 4500 7.72 200 23:19 04.01.2022
6060 Snow -10 987 85 4500 8.75 180 21:36 04.01.2022
6061 Snow -10 987 85 4000 10.29 180 20:41 04.01.2022
6062 Snow -9 988 73 6000 8.23 190 18:39 04.01.2022
6063 Snow -9 988 73 10000 8.75 180 17:30 04.01.2022
6064 Clouds -9 989 73 10000 8.23 190 16:33 04.01.2022
6065 Snow -9 989 73 10000 5.66 180 15:20 04.01.2022
6066 Snow -9 990 73 10000 6.17 190 14:37 04.01.2022
6067 Snow -10 990 79 10000 6.17 170 13:55 04.01.2022
6068 Clouds -10 990 79 10000 7.2 150 12:20 04.01.2022
6069 Clouds -9 991 67 10000 5.14 180 10:23 04.01.2022
6070 Clouds -9 992 73 10000 4.12 160 08:57 04.01.2022
6071 Snow -9 992 73 10000 7.2 130 06:28 04.01.2022
6072 Snow -9 994 79 7000 6.69 130 00:43 04.01.2022
6073 Snow -9 993 79 4400 7.2 130 23:55 03.01.2022
6074 Snow -9 994 86 2500 7.2 120 22:22 03.01.2022
6075 Snow -9 994 86 2000 7.72 120 21:39 03.01.2022
6076 Snow -9 994 86 1800 8.23 120 20:41 03.01.2022
6077 Snow -9 994 86 2100 8.23 120 19:38 03.01.2022
6078 Snow -9 994 86 2000 6.17 130 18:31 03.01.2022
6079 Snow -9 995 86 2200 7.72 120 17:23 03.01.2022
6080 Snow -9 995 86 2000 7.72 120 16:53 03.01.2022
6081 Snow -9 995 86 2500 7.2 130 14:32 03.01.2022
6082 Snow -9 996 86 3000 6.17 130 12:53 03.01.2022
6083 Snow -9 996 86 2500 8.23 120 11:50 03.01.2022
6084 Snow -9 996 79 3500 7.2 130 11:22 03.01.2022
6085 Clouds -8 997 73 10000 6.69 130 09:29 03.01.2022
6086 Snow -8 997 73 10000 8.75 130 07:54 03.01.2022
6087 Clouds -8 998 73 9000 10.8 120 04:23 03.01.2022
6088 Clouds -8 1001 73 10000 5.14 110 23:32 02.01.2022
6089 Clouds -8 1001 73 10000 4.63 110 22:56 02.01.2022
6090 Clouds -8 1002 73 10000 5.66 100 22:20 02.01.2022
6091 Clear -8 1002 73 10000 6.69 130 21:26 02.01.2022
6092 Clouds -8 1002 73 10000 6.17 120 20:30 02.01.2022
6093 Clouds -7 1003 68 10000 6.17 130 19:32 02.01.2022
6094 Clouds -7 1003 68 10000 7.72 130 18:56 02.01.2022
6095 Clouds -7 1003 68 10000 7.72 130 18:30 02.01.2022
6096 Clouds -8 1004 79 10000 4.63 100 17:42 02.01.2022
6097 Clouds -7 1004 73 10000 5.14 110 17:21 02.01.2022
6098 Clouds -8 1005 79 10000 3.6 100 16:30 02.01.2022
6099 Clouds -8 1005 79 10000 4.63 70 15:39 02.01.2022
6100 Clouds -7 1006 73 10000 4.63 50 13:57 02.01.2022
6101 Clouds -7 1006 73 10000 1.54 0 12:33 02.01.2022
6102 Clouds -7 1007 73 10000 5.66 120 11:55 02.01.2022
6103 Clouds -6 1007 73 10000 6.17 120 10:55 02.01.2022
6104 Clouds -7 1007 79 10000 3.6 110 10:18 02.01.2022
6105 Clouds -5 1007 63 10000 4.63 170 07:45 02.01.2022
6106 Clouds -4 1010 68 10000 4.63 150 02:57 02.01.2022
6107 Clouds -5 1010 58 10000 1.03 0 23:54 01.01.2022
6108 Clouds -5 1010 58 10000 1.03 0 23:35 01.01.2022
6109 Clouds -2 1010 59 10000 2.57 320 22:41 01.01.2022
6110 Clouds -3 1010 59 10000 3.09 330 22:18 01.01.2022
6111 Clouds -3 1010 59 10000 3.09 330 22:18 01.01.2022
6112 Clouds -1 1011 55 10000 2.57 310 21:42 01.01.2022
6113 Clouds -2 1011 54 10000 3.09 330 20:50 01.01.2022
6114 Clouds -2 1011 59 10000 4.12 340 19:47 01.01.2022
6115 Clouds -1 1011 55 10000 3.09 350 18:53 01.01.2022
6116 Snow -1 1011 55 10000 5.14 360 17:45 01.01.2022
6117 Clouds -1 1011 55 10000 5.14 350 16:35 01.01.2022
6118 Clouds -1 1011 55 10000 5.66 360 15:50 01.01.2022
6119 Clouds -1 1011 51 10000 6.17 360 14:40 01.01.2022
6120 Clouds -2 1010 64 10000 6.17 10 13:42 01.01.2022
6121 Clouds -2 1010 64 10000 6.17 10 13:42 01.01.2022
6122 Mist -2 1010 64 10000 7.2 350 12:26 01.01.2022
6123 Snow -1 1009 59 10000 5.66 360 11:46 01.01.2022
6124 Snow -3 1009 80 10000 6.17 20 11:18 01.01.2022
6125 Snow -2 1008 74 8000 7.2 10 09:48 01.01.2022
6126 Snow -1 1008 51 10000 8.23 360 08:49 01.01.2022
6127 Snow -2 1008 54 10000 7.72 360 08:22 01.01.2022
6128 Snow -2 1008 54 10000 7.72 360 07:41 01.01.2022
6129 Snow -2 1007 59 10000 6.17 350 06:45 01.01.2022
6130 Snow -2 1007 69 10000 5.66 360 05:25 01.01.2022
6131 Snow -4 1007 86 10000 3.6 20 04:37 01.01.2022
6132 Snow -3 1004 86 10000 3.09 20 00:37 01.01.2022
6133 Snow -3 1003 63 10000 5.14 360 22:59 31.12.2021
6134 Snow -3 1002 74 10000 3.09 360 21:51 31.12.2021
6135 Snow -3 1001 80 10000 4.63 350 20:32 31.12.2021
6136 Snow -3 1001 86 1500 10.8 330 19:28 31.12.2021
6137 Snow -3 1001 80 10000 5.14 360 18:30 31.12.2021
6138 Snow -3 1001 80 10000 4.63 20 17:37 31.12.2021
6139 Snow -3 1001 74 10000 7.2 20 17:18 31.12.2021
6140 Snow -3 1000 74 10000 8.23 20 16:19 31.12.2021
6141 Snow -4 1000 86 10000 6.69 30 15:53 31.12.2021
6142 Snow -3 1000 80 10000 6.17 10 15:28 31.12.2021
6143 Snow -3 1000 74 7000 6.69 360 14:43 31.12.2021
6144 Snow -3 1000 80 10000 5.14 350 14:18 31.12.2021
6145 Snow -3 1000 80 10000 3.6 10 13:36 31.12.2021
6146 Snow -4 1000 86 10000 1.54 0 12:44 31.12.2021
6147 Snow -5 1000 86 10000 3.09 10 11:43 31.12.2021
6148 Snow -4 1000 86 500 6.17 350 11:20 31.12.2021
6149 Snow -5 999 68 10000 4.63 360 10:32 31.12.2021
6150 Clouds -5 999 68 10000 5.14 360 09:35 31.12.2021
6151 Clouds -5 999 74 10000 3.6 40 08:56 31.12.2021
6152 Snow -6 999 93 10000 1.54 0 08:25 31.12.2021
6153 Snow -6 999 93 600 1.03 0 07:30 31.12.2021
6154 Snow -6 997 79 10000 2.57 50 23:23 30.12.2021
6155 Clouds -6 997 73 10000 2.06 20 22:33 30.12.2021
6156 Clear -9 997 86 10000 1.54 0 21:54 30.12.2021
6157 Clear -9 997 86 10000 1.54 0 21:36 30.12.2021
6158 Clouds -8 997 79 10000 3.09 70 20:45 30.12.2021
6159 Clouds -5 997 74 10000 3.09 50 20:24 30.12.2021
6160 Clouds -5 997 74 10000 4.63 30 19:45 30.12.2021
6161 Clouds -5 996 74 10000 4.63 70 18:29 30.12.2021
6162 Clouds -4 996 74 10000 5.14 70 17:52 30.12.2021
6163 Clouds -5 996 80 10000 3.09 60 16:19 30.12.2021
6164 Clouds -5 996 80 10000 0 0 15:51 30.12.2021
6165 Clouds -5 995 80 10000 4.63 70 14:39 30.12.2021
6166 Clouds -5 995 80 10000 5.14 80 13:49 30.12.2021
6167 Clouds -6 995 79 10000 5.66 70 12:40 30.12.2021
6168 Clouds -6 994 79 10000 7.72 70 10:58 30.12.2021
6169 Snow -7 994 79 10000 3.09 70 09:59 30.12.2021
6170 Snow -8 994 86 10000 3.09 100 08:58 30.12.2021
6171 Snow -8 994 86 10000 2.06 50 06:54 30.12.2021
6172 Clouds -10 995 85 10000 4.12 50 03:43 30.12.2021
6173 Clouds -10 995 79 10000 4.63 50 03:23 30.12.2021
6174 Clear -12 996 79 10000 4.63 40 23:50 29.12.2021
6175 Clear -12 997 79 10000 3.09 40 23:23 29.12.2021
6176 Clear -12 997 72 10000 4.12 40 22:22 29.12.2021
6177 Clear -12 997 72 10000 4.12 40 22:22 29.12.2021
6178 Clear -12 997 79 10000 4.12 20 21:45 29.12.2021
6179 Clouds -13 998 78 10000 4.63 60 20:39 29.12.2021
6180 Clouds -12 998 85 10000 3.09 60 19:50 29.12.2021
6181 Clouds -13 999 72 10000 1.54 60 18:57 29.12.2021
6182 Clouds -13 999 85 10000 1.54 70 17:57 29.12.2021
6183 Clouds -11 999 85 10000 1.03 0 17:28 29.12.2021
6184 Clouds -11 999 85 10000 1.03 0 16:44 29.12.2021
6185 Clouds -10 999 79 10000 2.06 40 16:19 29.12.2021
6186 Clouds -11 999 85 10000 2.57 60 14:40 29.12.2021
6187 Clouds -12 1000 79 10000 4.12 60 12:48 29.12.2021
6188 Clouds -11 1000 73 10000 2.57 50 12:20 29.12.2021
6189 Clear -13 1000 72 10000 2.06 80 10:31 29.12.2021
6190 Clear -12 1000 85 10000 1.03 0 07:52 29.12.2021
6191 Clear -14 1000 78 10000 1.54 50 06:45 29.12.2021
6192 Clear -13 1001 78 10000 0 0 06:24 29.12.2021
6193 Clouds -13 1001 72 10000 1.03 0 05:42 29.12.2021
6194 Clear -10 1001 79 10000 0.51 0 03:20 29.12.2021
6195 Clear -8 1001 73 10000 1.03 0 00:24 29.12.2021
6196 Clear -8 1001 73 10000 1.54 40 23:47 28.12.2021
6197 Clear -7 1001 63 10000 2.06 170 22:45 28.12.2021
6198 Clear -7 1001 68 10000 4.12 130 22:24 28.12.2021
6199 Clear -7 1001 63 10000 4.12 110 21:53 28.12.2021
6200 Clear -7 1002 68 10000 5.14 90 20:47 28.12.2021
6201 Clear -6 1002 68 10000 4.63 120 19:44 28.12.2021
6202 Clear -6 1002 73 10000 4.63 110 18:44 28.12.2021
6203 Clear -6 1002 73 10000 4.12 100 18:23 28.12.2021
6204 Clear -6 1003 68 10000 3.09 90 16:35 28.12.2021
6205 Clear -7 1003 68 10000 1.03 0 15:52 28.12.2021
6206 Clear -5 1003 63 10000 0.51 0 15:27 28.12.2021
6207 Clear -5 1003 63 10000 0 0 14:53 28.12.2021
6208 Clear -6 1003 63 10000 2.06 40 14:21 28.12.2021
6209 Clear -7 1003 68 10000 1.54 0 13:54 28.12.2021
6210 Clear -9 1004 73 10000 0 0 13:31 28.12.2021
6211 Clear -9 1004 79 10000 1.03 0 12:55 28.12.2021
6212 Clear -8 1004 79 10000 1.03 0 11:51 28.12.2021
6213 Clear -7 1004 86 10000 1.54 0 09:30 28.12.2021
6214 Clear -7 1004 86 10000 1.54 0 09:30 28.12.2021
6215 Clouds -7 1004 86 10000 0.51 0 07:33 28.12.2021
6216 Snow -5 1004 100 9000 0.51 0 03:28 28.12.2021
6217 Snow -7 1003 86 10000 1.54 0 23:26 27.12.2021
6218 Clouds -7 1003 86 10000 0 0 22:20 27.12.2021
6219 Clouds -6 1002 86 10000 1.03 0 21:30 27.12.2021
6220 Snow -5 1002 68 10000 3.09 20 20:27 27.12.2021
6221 Clouds -4 1002 68 10000 3.6 360 19:47 27.12.2021
6222 Clouds -4 1002 74 10000 3.6 10 18:56 27.12.2021
6223 Snow -4 1002 74 10000 5.14 360 17:50 27.12.2021
6224 Snow -3 1002 80 3000 7.2 10 17:27 27.12.2021
6225 Snow -3 1001 74 10000 3.6 360 15:53 27.12.2021
6226 Snow -4 1001 93 10000 2.57 20 14:35 27.12.2021
6227 Snow -5 1001 80 10000 2.57 20 13:59 27.12.2021
6228 Snow -4 1001 74 10000 3.6 10 12:49 27.12.2021
6229 Snow -5 1001 100 10000 0.51 0 10:37 27.12.2021
6230 Snow -5 1001 100 10000 0.51 0 10:18 27.12.2021
6231 Snow -5 1001 80 10000 3.6 70 08:42 27.12.2021
6232 Snow -5 1001 80 10000 3.6 70 08:42 27.12.2021
6233 Snow -8 1001 86 10000 1.54 60 07:34 27.12.2021
6234 Snow -6 1001 86 10000 2.06 50 02:29 27.12.2021
6235 Snow -7 1001 86 10000 2.06 60 01:51 27.12.2021
6236 Snow -5 1001 86 10000 1.54 50 23:49 26.12.2021
6237 Clouds -5 1002 93 10000 1.54 0 23:19 26.12.2021
6238 Clouds -5 1002 93 10000 1.54 40 21:33 26.12.2021
6239 Snow -3 1002 93 1000 1.54 30 19:55 26.12.2021
6240 Snow -6 1002 86 10000 1.03 0 18:45 26.12.2021
6241 Snow -7 1002 86 10000 1.54 60 18:21 26.12.2021
6242 Snow -5 1003 86 10000 0 0 15:38 26.12.2021
6243 Snow -3 1003 86 10000 2.06 80 13:49 26.12.2021
6244 Snow -2 1003 86 10000 3.6 40 13:31 26.12.2021
6245 Snow -3 1003 86 10000 4.12 50 12:35 26.12.2021
6246 Clouds -3 1003 93 10000 2.06 90 11:20 26.12.2021
6247 Clouds -3 1003 86 10000 6.17 50 09:31 26.12.2021
6248 Snow -3 1003 93 10000 5.66 50 08:45 26.12.2021
6249 Snow -3 1003 86 10000 4.63 50 08:27 26.12.2021
6250 Clouds -8 1005 79 10000 0 0 02:19 26.12.2021
6251 Clouds -6 1005 86 10000 4.12 40 00:40 26.12.2021
6252 Clouds -5 1005 86 10000 3.6 40 23:37 25.12.2021
6253 Snow -6 1004 86 10000 3.09 50 22:39 25.12.2021
6254 Snow -6 1004 79 10000 2.06 60 22:20 25.12.2021
6255 Clouds -6 1003 79 10000 2.57 50 20:27 25.12.2021
6256 Clouds -6 1002 86 10000 2.06 60 19:19 25.12.2021
6257 Clouds -6 1002 86 10000 3.09 50 18:51 25.12.2021
6258 Clear -5 1000 86 10000 2.06 70 16:52 25.12.2021
6259 Clear -4 999 86 10000 4.63 40 15:48 25.12.2021
6260 Snow -4 999 93 2700 2.57 60 14:24 25.12.2021
6261 Clear -6 998 79 10000 2.57 50 12:42 25.12.2021
6262 Clear -7 997 79 10000 4.12 60 11:27 25.12.2021
6263 Clouds -8 997 86 10000 3.6 60 09:49 25.12.2021
6264 Clouds -9 996 79 10000 1.54 70 07:51 25.12.2021
6265 Clouds -7 995 86 10000 1.03 0 01:45 25.12.2021
6266 Snow -6 995 86 10000 4.12 50 00:27 25.12.2021
6267 Snow -5 994 80 10000 3.09 30 22:40 24.12.2021
6268 Snow -3 994 86 10000 5.14 60 19:38 24.12.2021
6269 Snow -4 994 93 1900 6.17 50 19:19 24.12.2021
6270 Snow -3 994 86 7000 7.2 30 16:50 24.12.2021
6271 Snow -3 995 93 9000 6.69 30 15:54 24.12.2021
6272 Snow -3 995 93 9000 6.69 30 15:34 24.12.2021
6273 Snow -3 995 93 4700 7.72 40 14:46 24.12.2021
6274 Snow -3 996 86 10000 5.14 20 14:22 24.12.2021
6275 Snow -3 996 86 8000 6.69 30 13:37 24.12.2021
6276 Snow -3 997 86 10000 7.2 20 12:48 24.12.2021
6277 Snow -4 998 93 1000 2.57 10 11:52 24.12.2021
6278 Snow -4 998 93 10000 5.14 50 11:26 24.12.2021
6279 Snow -4 998 100 350 4.63 50 10:46 24.12.2021
6280 Snow -4 998 93 3500 2.06 0 09:33 24.12.2021
6281 Snow -5 999 93 6000 1.54 0 08:24 24.12.2021
6282 Snow -5 999 100 10000 2.06 40 07:48 24.12.2021
6283 Snow -4 999 74 10000 6.69 60 02:52 24.12.2021
6284 Snow -4 999 86 9000 8.75 40 23:56 23.12.2021
6285 Snow -4 1000 86 800 11.32 50 22:58 23.12.2021
6286 Snow -4 1000 86 800 11.32 50 22:37 23.12.2021
6287 Snow -4 1000 93 10000 9.77 60 22:18 23.12.2021
6288 Snow -5 1000 93 10000 7.2 50 20:59 23.12.2021
6289 Snow -4 1000 86 1500 6.69 60 20:19 23.12.2021
6290 Snow -4 999 80 10000 9.26 50 18:36 23.12.2021
6291 Snow -4 999 86 10000 12.35 60 17:57 23.12.2021
6292 Snow -4 999 86 10000 13.38 50 16:47 23.12.2021
6293 Snow -4 999 86 2000 15.43 50 16:24 23.12.2021
6294 Snow -3 998 93 8000 12.35 70 15:31 23.12.2021
6295 Snow -5 998 100 350 6.69 340 14:52 23.12.2021
6296 Snow -5 998 86 3000 5.14 360 14:31 23.12.2021
6297 Snow -8 999 86 10000 0 0 12:57 23.12.2021
6298 Snow -7 999 79 9000 4.63 80 10:53 23.12.2021
6299 Snow -7 998 86 10000 10.29 90 09:47 23.12.2021
6300 Snow -7 998 86 3000 11.83 70 09:19 23.12.2021
6301 Snow -7 995 86 800 10.8 40 06:59 23.12.2021
6302 Snow -8 997 73 2100 9.26 20 04:35 23.12.2021
6303 Snow -7 1000 73 10000 13.38 10 23:26 22.12.2021
6304 Snow -6 1000 73 10000 11.83 10 22:48 22.12.2021
6305 Snow -6 1001 63 10000 7.2 10 21:57 22.12.2021
6306 Snow -5 1001 58 8000 8.75 10 21:29 22.12.2021
6307 Snow -5 1001 58 9000 8.75 20 20:50 22.12.2021
6308 Snow -5 1002 68 10000 14.92 20 20:30 22.12.2021
6309 Snow -4 1003 68 10000 8.75 360 19:32 22.12.2021
6310 Snow -3 1003 93 3000 7.2 10 17:55 22.12.2021
6311 Snow -3 1003 93 3000 7.2 10 17:34 22.12.2021
6312 Snow -1 1005 80 8000 8.23 360 15:42 22.12.2021
6313 Snow -2 1006 100 600 11.32 240 13:37 22.12.2021
6314 Snow -1 1008 86 10000 12.35 240 12:41 22.12.2021
6315 Clouds -2 1012 80 10000 9.26 240 10:46 22.12.2021
6316 Clouds -3 1013 86 10000 6.17 230 09:40 22.12.2021
6317 Clouds -5 1016 74 10000 3.09 220 07:32 22.12.2021
6318 Clear -7 1018 79 10000 1.54 260 05:50 22.12.2021
6319 Clear -8 1018 79 10000 1.03 0 05:28 22.12.2021
6320 Clouds -8 1019 73 10000 0 0 04:52 22.12.2021
6321 Clear -8 1019 73 10000 0.51 0 04:30 22.12.2021
6322 Clouds -9 1019 73 10000 0 0 03:33 22.12.2021
6323 Clear -8 1021 67 10000 1.54 50 00:57 22.12.2021
6324 Clear -9 1022 67 10000 1.03 0 23:32 21.12.2021
6325 Clear -7 1022 63 10000 2.06 230 22:29 21.12.2021
6326 Clear -7 1023 63 10000 0.51 0 21:44 21.12.2021
6327 Clouds -7 1023 63 10000 2.06 0 21:23 21.12.2021
6328 Clear -7 1023 68 10000 2.57 230 20:22 21.12.2021
6329 Clear -7 1023 68 10000 0.51 0 19:46 21.12.2021
6330 Clear -8 1023 73 10000 0 0 19:19 21.12.2021
6331 Clear -7 1024 68 10000 1.03 0 18:22 21.12.2021
6332 Clear -7 1024 68 10000 0 0 17:47 21.12.2021
6333 Clear -6 1024 63 10000 1.54 160 16:35 21.12.2021
6334 Clear -5 1024 58 10000 3.6 180 15:25 21.12.2021
6335 Clouds -5 1024 58 10000 2.57 140 13:51 21.12.2021
6336 Clouds -5 1024 63 10000 1.03 0 13:31 21.12.2021
6337 Clouds -6 1025 63 10000 1.03 0 11:57 21.12.2021
6338 Clear -9 1025 73 10000 0 0 10:25 21.12.2021
6339 Clear -7 1025 68 10000 1.54 0 09:35 21.12.2021
6340 Clear -8 1025 73 10000 1.03 0 08:30 21.12.2021
6341 Clear -9 1025 79 10000 1.03 0 07:32 21.12.2021
6342 Clear -6 1025 68 10000 0 0 06:54 21.12.2021
6343 Clouds -7 1025 86 10000 1.03 0 03:20 21.12.2021
6344 Clouds -8 1025 86 10000 0 0 00:46 21.12.2021
6345 Clouds -7 1025 86 10000 0.51 0 23:34 20.12.2021
6346 Clouds -7 1025 86 10000 0.51 0 23:34 20.12.2021
6347 Clouds -5 1025 93 10000 1.03 60 22:34 20.12.2021
6348 Clouds -5 1026 86 10000 1.03 0 21:48 20.12.2021
6349 Snow -5 1025 93 10000 0 0 21:24 20.12.2021
6350 Clouds -6 1025 93 10000 0 0 20:48 20.12.2021
6351 Clouds -5 1025 86 10000 0 0 19:55 20.12.2021
6352 Clouds -5 1025 86 10000 0 0 19:32 20.12.2021
6353 Clouds -7 1025 93 10000 1.03 0 18:55 20.12.2021
6354 Clouds -6 1026 79 10000 0.51 0 18:25 20.12.2021
6355 Clouds -5 1025 100 10000 1.54 60 17:46 20.12.2021
6356 Snow -5 1026 93 10000 0 0 16:43 20.12.2021
6357 Snow -7 1026 93 10000 1.54 60 15:52 20.12.2021
6358 Clouds -6 1025 93 10000 1.03 0 14:58 20.12.2021
6359 Snow -5 1026 86 10000 1.54 0 13:24 20.12.2021
6360 Snow -4 1025 80 10000 1.54 0 11:27 20.12.2021
6361 Snow -5 1025 93 10000 2.57 40 09:56 20.12.2021
6362 Snow -5 1025 93 10000 2.57 40 09:32 20.12.2021
6363 Snow -4 1025 80 10000 3.6 40 08:43 20.12.2021
6364 Clouds -3 1025 86 10000 5.14 50 07:57 20.12.2021
6365 Snow -4 1025 86 10000 4.12 320 07:31 20.12.2021
6366 Snow -6 1025 86 10000 1.54 40 05:25 20.12.2021
6367 Snow -6 1024 93 10000 1.54 60 00:19 20.12.2021
6368 Snow -7 1024 93 10000 2.06 60 22:56 19.12.2021
6369 Clouds -5 1024 93 10000 1.54 50 21:58 19.12.2021
6370 Clouds -5 1024 93 10000 1.54 50 21:32 19.12.2021
6371 Clouds -7 1023 93 10000 1.03 0 20:35 19.12.2021
6372 Snow -5 1022 100 1000 1.54 0 19:53 19.12.2021
6373 Snow -5 1022 100 1000 1.54 0 19:32 19.12.2021
6374 Snow -4 1022 100 3000 0 0 18:30 19.12.2021
6375 Snow -5 1021 93 2000 0 0 17:53 19.12.2021
6376 Snow -4 1021 80 5000 0 0 17:27 19.12.2021
6377 Clouds -5 1020 80 10000 0 0 16:27 19.12.2021
6378 Clouds -5 1020 80 10000 0 0 16:27 19.12.2021
6379 Snow -5 1020 86 10000 0.51 0 15:51 19.12.2021
6380 Clouds -7 1020 86 10000 1.03 0 15:23 19.12.2021
6381 Clear -6 1019 93 10000 0 0 14:45 19.12.2021
6382 Clear -4 1018 86 10000 1.54 20 13:26 19.12.2021
6383 Clear -6 1017 86 10000 1.54 0 12:50 19.12.2021
6384 Clear -5 1017 80 10000 2.06 50 12:28 19.12.2021
6385 Clouds -3 1016 80 10000 3.09 40 11:30 19.12.2021
6386 Clouds -3 1015 80 10000 4.63 70 10:30 19.12.2021
6387 Clouds -3 1014 80 10000 5.14 70 09:53 19.12.2021
6388 Clouds -2 1012 80 10000 6.69 80 08:46 19.12.2021
6389 Clouds -1 1005 93 10000 3.09 50 05:37 19.12.2021
6390 Snow 0 999 80 10000 4.12 50 01:39 19.12.2021
6391 Clouds 1 997 80 10000 2.06 30 00:53 19.12.2021
6392 Snow 1 997 93 4238 3.45 122 22:51 18.12.2021
6393 Snow 0 997 91 4071 3.76 145 22:24 18.12.2021
6394 Snow 1 997 91 4142 3.77 144 21:41 18.12.2021
6395 Snow 0 996 91 1928 4.12 159 21:22 18.12.2021
6396 Snow 1 996 95 6955 4.41 166 20:25 18.12.2021
6397 Snow 1 996 95 6955 4.41 166 19:34 18.12.2021
6398 Snow 1 996 94 759 4.16 210 18:24 18.12.2021
6399 Snow 1 996 94 759 4.16 210 17:49 18.12.2021
6400 Clouds 2 997 81 9584 4.76 233 16:27 18.12.2021
6401 Rain 1 996 93 10000 4.12 240 15:48 18.12.2021
6402 Clouds 2 996 93 10000 6.69 240 14:53 18.12.2021
6403 Clouds 2 997 87 10000 4.12 230 13:44 18.12.2021
6404 Clouds 2 998 87 10000 3.6 270 11:48 18.12.2021
6405 Clouds 2 998 93 10000 6.17 250 09:54 18.12.2021
6406 Clouds 2 998 93 10000 3.6 260 09:30 18.12.2021
6407 Clouds 2 999 93 10000 4.63 280 08:36 18.12.2021
6408 Clouds 2 999 93 10000 4.63 280 08:36 18.12.2021
6409 Clouds 2 999 93 10000 4.63 260 06:27 18.12.2021
6410 Rain 2 1002 100 10000 8.75 230 00:59 18.12.2021
6411 Snow 2 1002 93 9000 9.77 240 23:49 17.12.2021
6412 Rain 3 1002 87 10000 6.69 240 22:39 17.12.2021
6413 Rain 3 1003 87 10000 8.75 230 21:29 17.12.2021
6414 Clouds 3 1003 87 10000 7.2 220 20:43 17.12.2021
6415 Snow 2 1003 87 10000 6.69 200 19:56 17.12.2021
6416 Snow 1 1005 86 10000 5.14 190 18:39 17.12.2021
6417 Snow 2 1006 75 10000 5.14 190 17:50 17.12.2021
6418 Snow 1 1008 80 10000 5.14 210 16:51 17.12.2021
6419 Rain 2 1009 75 10000 5.14 210 16:27 17.12.2021
6420 Rain 2 1009 75 10000 5.66 190 15:38 17.12.2021
6421 Rain 2 1012 75 10000 1.03 0 14:42 17.12.2021
6422 Rain 1 1013 86 10000 1.03 0 13:51 17.12.2021
6423 Clouds 1 1015 86 10000 2.06 250 12:36 17.12.2021
6424 Clouds 1 1015 86 10000 2.06 250 10:42 17.12.2021
6425 Clouds 1 1016 86 10000 1.54 240 09:47 17.12.2021
6426 Clouds 1 1016 86 10000 1.54 240 08:32 17.12.2021
6427 Clouds 1 1016 86 10000 1.54 250 07:38 17.12.2021
6428 Clouds -2 1015 86 10000 0 0 04:41 17.12.2021
6429 Clouds 1 1007 100 10000 3.6 40 00:28 17.12.2021
6430 Fog 1 1005 100 4000 3.6 40 22:44 16.12.2021
6431 Drizzle 1 1004 100 7000 4.63 20 22:22 16.12.2021
6432 Drizzle 1 1003 100 10000 4.63 30 21:43 16.12.2021
6433 Drizzle 1 1001 100 10000 3.09 30 20:40 16.12.2021
6434 Clouds 1 1000 100 10000 1.03 0 19:52 16.12.2021
6435 Clouds 2 999 93 10000 1.54 0 19:27 16.12.2021
6436 Clouds 2 998 93 10000 1.54 30 18:31 16.12.2021
6437 Drizzle 1 997 100 10000 0 0 17:36 16.12.2021
6438 Clouds 2 996 87 10000 1.54 280 16:24 16.12.2021
6439 Drizzle 1 994 100 10000 1.54 250 15:26 16.12.2021
6440 Clouds 2 993 87 10000 2.57 230 13:45 16.12.2021
6441 Clouds 2 992 87 10000 2.57 260 11:56 16.12.2021
6442 Rain 1 991 93 10000 1.54 240 11:18 16.12.2021
6443 Snow 1 991 93 10000 2.06 300 10:39 16.12.2021
6444 Clouds 1 990 93 10000 2.06 280 09:42 16.12.2021
6445 Snow 0 988 100 10000 1.54 240 06:23 16.12.2021
6446 Snow 0 987 93 10000 2.06 250 04:33 16.12.2021
6447 Snow -1 985 100 10000 0 0 23:47 15.12.2021
6448 Snow -1 985 100 10000 1.03 60 22:49 15.12.2021
6449 Snow -1 985 100 1900 1.03 260 22:21 15.12.2021
6450 Snow -1 985 100 2500 0 0 21:31 15.12.2021
6451 Snow -1 984 93 8000 0 0 20:41 15.12.2021
6452 Snow -1 984 93 6000 2.06 230 19:53 15.12.2021
6453 Snow -1 984 80 5000 0 0 18:50 15.12.2021
6454 Snow -1 983 80 10000 0.51 0 18:19 15.12.2021
6455 Snow -1 983 74 8000 2.06 240 17:45 15.12.2021
6456 Clouds -1 984 74 10000 4.12 230 17:21 15.12.2021
6457 Snow -1 983 74 10000 4.12 240 15:48 15.12.2021
6458 Snow -1 983 74 10000 4.12 240 15:29 15.12.2021
6459 Snow -1 983 69 10000 2.57 220 14:48 15.12.2021
6460 Clear -1 983 74 10000 4.12 210 13:34 15.12.2021
6461 Clear -1 983 74 10000 7.2 200 11:41 15.12.2021
6462 Clear -2 984 74 10000 8.23 190 10:20 15.12.2021
6463 Clear -2 986 74 10000 5.14 0 08:25 15.12.2021
6464 Clear -2 988 69 10000 2.06 0 05:51 15.12.2021
6465 Clear -5 994 80 10000 1.54 0 00:32 15.12.2021
6466 Clear -2 995 74 10000 3.6 230 23:27 14.12.2021
6467 Clear -3 995 74 10000 2.06 210 22:44 14.12.2021
6468 Clear -2 996 74 10000 2.06 0 21:40 14.12.2021
6469 Clear -1 996 74 10000 5.14 230 20:22 14.12.2021
6470 Clouds -1 997 74 10000 3.09 310 19:34 14.12.2021
6471 Clouds -1 997 80 10000 2.57 0 18:38 14.12.2021
6472 Clouds -1 997 80 10000 3.09 240 17:55 14.12.2021
6473 Clouds 0 998 74 10000 3.09 0 16:47 14.12.2021
6474 Clouds -1 998 80 10000 1.03 0 16:28 14.12.2021
6475 Clouds -1 999 80 10000 2.57 0 14:32 14.12.2021
6476 Clouds -1 1001 80 10000 4.63 130 12:58 14.12.2021
6477 Clouds 0 1001 74 10000 4.63 130 11:44 14.12.2021
6478 Clouds 0 1002 74 10000 4.12 130 11:20 14.12.2021
6479 Clouds -1 1002 80 10000 4.63 130 09:55 14.12.2021
6480 Clear -1 1003 80 10000 4.12 130 09:19 14.12.2021
6481 Clouds -1 1003 80 10000 4.12 80 08:22 14.12.2021
6482 Clouds -1 1003 86 10000 4.63 130 07:39 14.12.2021
6483 Clouds 0 1008 93 10000 3.09 70 23:59 13.12.2021
6484 Clouds 0 1008 93 10000 3.6 60 22:26 13.12.2021
6485 Clouds 1 1008 93 10000 4.63 50 21:44 13.12.2021
6486 Clouds 1 1008 93 10000 3.09 80 20:58 13.12.2021
6487 Clouds 1 1008 93 10000 4.12 80 20:26 13.12.2021
6488 Clouds 1 1009 93 10000 3.6 70 19:49 13.12.2021
6489 Snow 1 1009 100 10000 1.03 340 17:55 13.12.2021
6490 Snow 1 1009 100 10000 1.03 0 17:18 13.12.2021
6491 Snow 1 1009 100 10000 2.57 50 15:47 13.12.2021
6492 Snow 1 1009 100 10000 2.57 40 14:55 13.12.2021
6493 Rain 1 1010 93 10000 2.06 60 13:37 13.12.2021
6494 Rain 1 1010 93 10000 2.06 50 12:41 13.12.2021
6495 Rain 1 1009 93 10000 3.6 20 11:54 13.12.2021
6496 Rain 1 1009 93 10000 3.6 20 11:34 13.12.2021
6497 Clouds 2 1009 87 10000 4.12 10 10:41 13.12.2021
6498 Clouds 2 1009 87 10000 4.12 20 08:52 13.12.2021
6499 Rain 1 1008 100 10000 0.51 0 06:56 13.12.2021
6500 Rain 1 1008 100 10000 1.03 250 05:23 13.12.2021
6501 Snow 0 1007 100 2000 4.63 230 00:42 13.12.2021
6502 Snow 0 1007 100 2000 2.57 210 21:59 12.12.2021
6503 Snow -1 1007 100 3500 3.09 210 21:30 12.12.2021
6504 Snow -1 1007 100 2000 3.6 210 19:38 12.12.2021
6505 Snow -2 1007 100 2000 2.57 220 18:28 12.12.2021
6506 Snow -1 1007 86 6000 3.09 220 16:54 12.12.2021
6507 Snow -1 1007 86 5000 3.6 220 16:26 12.12.2021
6508 Snow -2 1007 93 5000 3.6 220 15:41 12.12.2021
6509 Snow -2 1007 86 6000 4.12 220 15:21 12.12.2021
6510 Snow -2 1008 80 7000 4.63 210 14:28 12.12.2021
6511 Snow -2 1008 86 3500 2.57 0 12:55 12.12.2021
6512 Snow -2 1009 86 5000 2.06 0 12:26 12.12.2021
6513 Snow -1 1009 86 6000 3.09 0 11:43 12.12.2021
6514 Snow -1 1010 86 6000 2.57 0 10:56 12.12.2021
6515 Snow -1 1010 86 6000 5.14 200 10:22 12.12.2021
6516 Snow -1 1011 86 10000 2.06 0 08:53 12.12.2021
6517 Snow 0 1011 74 10000 0 0 07:31 12.12.2021
6518 Clouds 1 1012 64 10000 3.09 120 05:56 12.12.2021
6519 Clear -1 1013 64 10000 4.63 90 04:55 12.12.2021
6520 Clear 0 1014 59 10000 2.57 20 02:56 12.12.2021
6521 Clouds -4 1016 80 10000 1.03 0 23:30 11.12.2021
6522 Clouds -3 1016 86 10000 1.03 50 22:21 11.12.2021
6523 Clouds -3 1016 86 10000 1.54 40 21:51 11.12.2021
6524 Clouds -3 1016 86 10000 1.03 0 20:24 11.12.2021
6525 Clouds -1 1016 80 10000 3.6 240 19:21 11.12.2021
6526 Clouds -1 1016 80 10000 2.06 250 18:51 11.12.2021
6527 Clouds 0 1016 74 10000 3.6 240 18:19 11.12.2021
6528 Clouds 1 1016 75 10000 1.54 0 16:59 11.12.2021
6529 Clouds 1 1015 75 10000 5.66 230 15:48 11.12.2021
6530 Clouds 1 1015 75 10000 4.12 220 15:18 11.12.2021
6531 Clouds 0 1014 80 10000 5.66 230 12:49 11.12.2021
6532 Clouds 1 1013 75 10000 3.09 220 11:24 11.12.2021
6533 Clouds 0 1013 74 10000 3.09 220 09:45 11.12.2021
6534 Clouds 0 1012 74 10000 4.63 220 07:32 11.12.2021
6535 Clouds -1 1010 69 10000 4.12 220 02:20 11.12.2021
6536 Clouds -3 1009 68 10000 3.09 240 23:50 10.12.2021
6537 Clouds -3 1009 74 10000 3.09 230 23:18 10.12.2021
6538 Clear -3 1009 74 10000 2.06 240 21:52 10.12.2021
6539 Clear -2 1009 69 10000 2.06 220 20:57 10.12.2021
6540 Clear -3 1008 74 10000 4.63 200 19:21 10.12.2021
6541 Clear -2 1009 64 10000 5.14 200 17:59 10.12.2021
6542 Clear -3 1009 68 10000 2.06 20 16:56 10.12.2021
6543 Clear -2 1009 69 10000 2.57 200 16:19 10.12.2021
6544 Clear -2 1009 69 10000 4.12 210 15:39 10.12.2021
6545 Clear -2 1009 69 10000 3.6 0 15:20 10.12.2021
6546 Clear -2 1009 69 10000 3.6 190 13:51 10.12.2021
6547 Clear -3 1010 68 10000 1.54 0 13:26 10.12.2021
6548 Clear -3 1010 68 10000 3.09 0 12:35 10.12.2021
6549 Clear -3 1011 63 10000 1.54 0 11:28 10.12.2021
6550 Clear -4 1011 63 10000 2.06 220 09:54 10.12.2021
6551 Clear -3 1011 59 10000 3.6 230 08:52 10.12.2021
6552 Clear -6 1011 68 10000 2.06 250 06:22 10.12.2021
6553 Clear -6 1011 63 10000 5.14 230 02:48 10.12.2021
6554 Clouds -3 1011 54 10000 2.57 0 00:32 10.12.2021
6555 Clouds -5 1011 63 10000 1.03 0 23:20 09.12.2021
6556 Clouds -4 1012 63 10000 4.12 250 22:24 09.12.2021
6557 Clouds -4 1012 68 10000 2.57 260 21:59 09.12.2021
6558 Clouds -3 1011 63 10000 3.6 270 20:44 09.12.2021
6559 Clouds -4 1011 63 10000 2.06 260 20:22 09.12.2021
6560 Clouds -5 1012 74 10000 2.57 280 19:21 09.12.2021
6561 Clouds -5 1012 74 10000 3.6 260 18:46 09.12.2021
6562 Clouds -6 1011 73 10000 5.14 240 17:52 09.12.2021
6563 Clouds -6 1011 73 10000 4.12 260 17:26 09.12.2021
6564 Clouds -6 1012 73 10000 5.66 240 16:54 09.12.2021
6565 Clouds -7 1012 73 10000 4.12 230 15:34 09.12.2021
6566 Clear -7 1012 73 10000 3.09 230 14:48 09.12.2021
6567 Clear -7 1012 68 10000 4.63 240 13:23 09.12.2021
6568 Clear -7 1012 68 10000 2.57 230 12:40 09.12.2021
6569 Clear -8 1012 73 10000 3.09 220 11:24 09.12.2021
6570 Clear -8 1013 79 10000 3.09 240 09:44 09.12.2021
6571 Clear -9 1013 73 10000 4.12 200 06:50 09.12.2021
6572 Clouds -7 1014 68 10000 6.69 200 03:41 09.12.2021
6573 Clouds -7 1015 73 10000 6.69 200 23:45 08.12.2021
6574 Clouds -7 1015 73 10000 6.69 190 23:21 08.12.2021
6575 Clouds -7 1015 73 10000 7.72 200 22:49 08.12.2021
6576 Clear -7 1015 73 10000 8.75 200 21:46 08.12.2021
6577 Clear -7 1015 68 10000 9.26 210 21:27 08.12.2021
6578 Clear -7 1016 63 10000 6.69 190 19:59 08.12.2021
6579 Clear -7 1016 63 10000 6.69 190 19:36 08.12.2021
6580 Clear -7 1016 63 10000 7.2 210 18:53 08.12.2021
6581 Clear -7 1017 68 10000 5.66 210 17:47 08.12.2021
6582 Clear -7 1017 63 10000 4.12 200 15:57 08.12.2021
6583 Clear -7 1018 63 10000 4.12 200 15:29 08.12.2021
6584 Clear -7 1018 63 10000 4.63 200 14:50 08.12.2021
6585 Clear -7 1018 68 10000 7.72 200 12:32 08.12.2021
6586 Clear -7 1018 68 10000 6.17 200 10:32 08.12.2021
6587 Clear -7 1018 68 10000 8.23 200 09:30 08.12.2021
6588 Clear -7 1018 68 10000 7.2 210 07:29 08.12.2021
6589 Clear -7 1018 68 10000 6.17 200 04:58 08.12.2021
6590 Clear -6 1018 58 10000 6.69 210 23:48 07.12.2021
6591 Clear -6 1018 58 10000 7.2 200 22:27 07.12.2021
6592 Clear -6 1018 53 10000 5.66 210 21:24 07.12.2021
6593 Clear -6 1018 53 10000 5.66 200 20:24 07.12.2021
6594 Clear -6 1017 58 10000 7.72 210 18:56 07.12.2021
6595 Clear -6 1017 58 10000 8.23 200 18:18 07.12.2021
6596 Clear -6 1017 58 10000 8.23 200 17:20 07.12.2021
6597 Clear -6 1017 63 10000 8.23 210 16:36 07.12.2021
6598 Clear -6 1017 63 10000 5.66 230 15:35 07.12.2021
6599 Clear -7 1016 63 10000 5.66 210 14:36 07.12.2021
6600 Clear -7 1016 63 10000 6.69 210 13:19 07.12.2021
6601 Clear -7 1016 58 10000 5.14 200 12:21 07.12.2021
6602 Clear -6 1016 45 10000 5.14 220 10:44 07.12.2021
6603 Clear -7 1015 53 10000 5.66 240 08:46 07.12.2021
6604 Clear -7 1015 53 10000 4.63 220 06:39 07.12.2021
6605 Clear -7 1015 53 10000 4.12 210 05:45 07.12.2021
6606 Clouds -7 1015 68 10000 2.57 260 01:43 07.12.2021
6607 Clear -5 1015 68 10000 3.09 230 23:21 06.12.2021
6608 Clear -5 1015 74 10000 3.09 240 22:40 06.12.2021
6609 Clear -5 1015 74 10000 5.14 230 21:59 06.12.2021
6610 Clear -5 1015 74 10000 4.12 270 21:21 06.12.2021
6611 Clouds -5 1015 80 10000 4.12 240 20:32 06.12.2021
6612 Clouds -4 1015 80 10000 3.09 250 19:24 06.12.2021
6613 Clouds -4 1016 80 10000 3.6 240 18:31 06.12.2021
6614 Clouds -4 1016 86 10000 3.09 270 17:53 06.12.2021
6615 Snow -4 1016 80 10000 4.63 230 17:30 06.12.2021
6616 Clouds -3 1016 74 10000 3.6 240 15:51 06.12.2021
6617 Clouds -3 1016 74 10000 3.6 220 14:35 06.12.2021
6618 Clouds -3 1016 80 10000 4.63 220 12:40 06.12.2021
6619 Clouds -3 1016 80 10000 6.17 220 11:55 06.12.2021
6620 Clouds -2 1016 80 10000 5.14 230 09:44 06.12.2021
6621 Clouds -3 1016 80 10000 6.17 220 07:38 06.12.2021
6622 Clouds -2 1017 74 10000 7.72 240 02:20 06.12.2021
6623 Clouds -2 1017 74 10000 8.23 230 22:20 05.12.2021
6624 Clouds -3 1017 80 10000 7.72 230 21:25 05.12.2021
6625 Clouds -3 1017 74 10000 7.2 220 20:43 05.12.2021
6626 Clouds -4 1017 80 10000 5.14 210 20:18 05.12.2021
6627 Clouds -4 1018 80 10000 6.17 230 19:23 05.12.2021
6628 Clouds -5 1018 80 10000 5.14 220 18:28 05.12.2021
6629 Clouds -5 1018 74 10000 4.63 210 17:49 05.12.2021
6630 Clouds -5 1018 74 10000 4.63 220 17:18 05.12.2021
6631 Clouds -5 1018 68 10000 4.12 220 16:28 05.12.2021
6632 Clouds -5 1018 74 10000 4.63 210 15:59 05.12.2021
6633 Clouds -6 1018 73 10000 5.14 220 14:48 05.12.2021
6634 Clouds -6 1018 73 10000 4.12 210 14:29 05.12.2021
6635 Clouds -6 1018 68 10000 4.63 220 13:32 05.12.2021
6636 Clouds -6 1019 68 10000 5.14 220 12:43 05.12.2021
6637 Clouds -7 1019 68 10000 3.6 220 12:25 05.12.2021
6638 Clouds -7 1019 68 10000 4.12 230 11:43 05.12.2021
6639 Clouds -7 1019 73 10000 4.63 220 10:25 05.12.2021
6640 Clouds -7 1019 73 10000 4.63 230 09:41 05.12.2021
6641 Clouds -8 1019 73 10000 3.09 230 05:30 05.12.2021
6642 Clouds -8 1018 67 10000 2.57 250 01:24 05.12.2021
6643 Clouds -8 1018 67 10000 2.57 250 01:24 05.12.2021
6644 Clear -9 1018 73 10000 1.03 0 22:45 04.12.2021
6645 Clouds -9 1018 67 10000 1.03 0 21:38 04.12.2021
6646 Clouds -10 1017 67 10000 0 0 20:47 04.12.2021
6647 Clouds -8 1017 62 10000 1.03 0 19:54 04.12.2021
6648 Clouds -8 1017 62 10000 1.03 0 19:24 04.12.2021
6649 Clouds -7 1017 63 10000 2.06 0 17:53 04.12.2021
6650 Clouds -7 1017 63 10000 2.06 0 17:35 04.12.2021
6651 Clouds -7 1016 68 10000 3.09 210 16:47 04.12.2021
6652 Clouds -7 1016 63 10000 3.6 210 16:28 04.12.2021
6653 Clear -7 1016 68 10000 4.63 200 13:30 04.12.2021
6654 Clear -7 1016 73 10000 6.17 200 11:41 04.12.2021
6655 Clear -8 1016 73 10000 6.17 200 11:19 04.12.2021
6656 Clear -8 1016 73 10000 5.14 200 09:57 04.12.2021
6657 Clear -8 1015 67 10000 4.12 200 08:38 04.12.2021
6658 Clouds -8 1015 67 10000 3.6 160 05:30 04.12.2021
6659 Clouds -7 1014 63 10000 1.03 0 04:40 04.12.2021
6660 Clear -8 1014 79 10000 3.09 120 23:49 03.12.2021
6661 Clear -8 1014 73 10000 3.6 110 22:55 03.12.2021
6662 Clear -7 1013 68 10000 1.03 0 21:58 03.12.2021
6663 Clear -7 1013 68 10000 1.54 40 21:25 03.12.2021
6664 Clear -7 1013 68 10000 2.06 10 20:43 03.12.2021
6665 Clear -7 1013 68 10000 0 0 19:36 03.12.2021
6666 Clear -6 1012 63 10000 2.06 50 18:26 03.12.2021
6667 Clear -7 1012 63 10000 1.03 0 17:44 03.12.2021
6668 Clear -6 1011 73 10000 0.51 0 14:20 03.12.2021
6669 Clear -6 1010 73 10000 1.03 0 12:52 03.12.2021
6670 Clear -6 1010 68 10000 1.03 0 11:24 03.12.2021
6671 Clear -6 1009 73 10000 0 0 09:57 03.12.2021
6672 Clouds -7 1009 79 10000 1.03 0 08:24 03.12.2021
6673 Clouds -7 1009 79 10000 1.03 60 07:37 03.12.2021
6674 Clouds -6 1008 79 10000 0 0 02:24 03.12.2021
6675 Clouds -6 1007 79 10000 0.51 280 00:47 03.12.2021
6676 Clouds -5 1008 80 10000 0.51 0 23:46 02.12.2021
6677 Clouds -7 1007 73 10000 1.54 60 21:42 02.12.2021
6678 Clear -7 1007 73 10000 1.54 70 20:57 02.12.2021
6679 Clear -7 1007 73 10000 1.54 70 20:38 02.12.2021
6680 Clouds -4 1008 63 10000 2.06 50 19:31 02.12.2021
6681 Clouds -5 1008 74 10000 3.09 50 17:43 02.12.2021
6682 Clouds -4 1007 74 10000 4.12 50 15:42 02.12.2021
6683 Clouds -4 1007 74 10000 4.63 60 15:20 02.12.2021
6684 Clouds -3 1007 68 10000 5.14 80 14:43 02.12.2021